<?xml version='1.0' encoding='UTF-8'?><gpx version="1.1" creator="JPX - https://github.com/jenetics/jpx" xmlns="http://www.topografix.com/GPX/1/1"><trk><trkseg><trkpt lat="43.339094267417835" lon="10.647677910825754"><ele>32.0</ele><time>2026-04-18T13:14:42Z</time></trkpt><trkpt lat="43.339101586737" lon="10.647572417797567"><ele>32.0</ele><time>2026-04-18T13:14:55Z</time></trkpt><trkpt lat="43.33912810731074" lon="10.64740628426698"><ele>32.0</ele><time>2026-04-18T13:14:57Z</time></trkpt><trkpt lat="43.3391587476079" lon="10.64729635343603"><ele>32.0</ele><time>2026-04-18T13:14:58Z</time></trkpt><trkpt lat="43.339189885405716" lon="10.647120051724816"><ele>32.0</ele><time>2026-04-18T13:14:59Z</time></trkpt><trkpt lat="43.3392312089701" lon="10.64694398116666"><ele>32.0</ele><time>2026-04-18T13:15:00Z</time></trkpt><trkpt lat="43.33928590327486" lon="10.646734583609083"><ele>32.0</ele><time>2026-04-18T13:15:01Z</time></trkpt><trkpt lat="43.33934339953527" lon="10.646522249196368"><ele>32.0</ele><time>2026-04-18T13:15:02Z</time></trkpt><trkpt lat="43.33940095223797" lon="10.646300980152963"><ele>31.666666666666664</ele><time>2026-04-18T13:15:03Z</time></trkpt><trkpt lat="43.33945575529206" lon="10.646063640273372"><ele>31.333333333333336</ele><time>2026-04-18T13:15:04Z</time></trkpt><trkpt lat="43.339509051551964" lon="10.64582200899748"><ele>31.0</ele><time>2026-04-18T13:15:04.999Z</time></trkpt><trkpt lat="43.339566110030496" lon="10.645583118149638"><ele>31.0</ele><time>2026-04-18T13:15:05.999Z</time></trkpt><trkpt lat="43.33962146475044" lon="10.645368520056028"><ele>31.0</ele><time>2026-04-18T13:15:06.999Z</time></trkpt><trkpt lat="43.33967328252301" lon="10.64517164728875"><ele>31.0</ele><time>2026-04-18T13:15:07.999Z</time></trkpt><trkpt lat="43.33971912910149" lon="10.64498446867856"><ele>31.0</ele><time>2026-04-18T13:15:08.999Z</time></trkpt><trkpt lat="43.33975895265372" lon="10.644810876128991"><ele>31.0</ele><time>2026-04-18T13:15:09.999Z</time></trkpt><trkpt lat="43.339792589883196" lon="10.644658105239674"><ele>31.0</ele><time>2026-04-18T13:15:10.999Z</time></trkpt><trkpt lat="43.33982997424033" lon="10.644510135679708"><ele>31.0</ele><time>2026-04-18T13:15:11.999Z</time></trkpt><trkpt lat="43.339865806450426" lon="10.64438204403902"><ele>31.000000000000004</ele><time>2026-04-18T13:15:12.999Z</time></trkpt><trkpt lat="43.33990992802061" lon="10.644286592555014"><ele>31.0</ele><time>2026-04-18T13:15:13.999Z</time></trkpt><trkpt lat="43.33996411478332" lon="10.644236265133348"><ele>31.0</ele><time>2026-04-18T13:15:14.999Z</time></trkpt><trkpt lat="43.340034846103485" lon="10.644244107309206"><ele>31.0</ele><time>2026-04-18T13:15:15.999Z</time></trkpt><trkpt lat="43.340101651071706" lon="10.644315971121204"><ele>31.000000000000004</ele><time>2026-04-18T13:15:16.999Z</time></trkpt><trkpt lat="43.34014376749436" lon="10.64439658284698"><ele>31.0</ele><time>2026-04-18T13:15:17.999Z</time></trkpt><trkpt lat="43.340147640642115" lon="10.644516643645375"><ele>31.000000000000004</ele><time>2026-04-18T13:15:18.999Z</time></trkpt><trkpt lat="43.340143290132296" lon="10.644619841609547"><ele>31.0</ele><time>2026-04-18T13:15:19.999Z</time></trkpt><trkpt lat="43.340151910466204" lon="10.644715476165366"><ele>31.0</ele><time>2026-04-18T13:15:20.999Z</time></trkpt><trkpt lat="43.340173965573086" lon="10.644797529888123"><ele>31.0</ele><time>2026-04-18T13:15:21.999Z</time></trkpt><trkpt lat="43.34022772166678" lon="10.64484445859556"><ele>31.000000000000004</ele><time>2026-04-18T13:15:22.999Z</time></trkpt><trkpt lat="43.34029656209831" lon="10.644844867754351"><ele>31.0</ele><time>2026-04-18T13:15:23.999Z</time></trkpt><trkpt lat="43.34041993816528" lon="10.644866322160668"><ele>31.0</ele><time>2026-04-18T13:15:25.999Z</time></trkpt><trkpt lat="43.34048148349631" lon="10.644917219933923"><ele>31.0</ele><time>2026-04-18T13:15:26.999Z</time></trkpt><trkpt lat="43.34055305044171" lon="10.644978742518989"><ele>31.0</ele><time>2026-04-18T13:15:27.999Z</time></trkpt><trkpt lat="43.34063011745039" lon="10.645050666091283"><ele>31.0</ele><time>2026-04-18T13:15:28.999Z</time></trkpt><trkpt lat="43.34071055049081" lon="10.64512480176212"><ele>31.0</ele><time>2026-04-18T13:15:29.999Z</time></trkpt><trkpt lat="43.34079858283448" lon="10.645201487538174"><ele>31.5</ele><time>2026-04-18T13:15:30.999Z</time></trkpt><trkpt lat="43.34089359059447" lon="10.645291619544338"><ele>32.0</ele><time>2026-04-18T13:15:31.999Z</time></trkpt><trkpt lat="43.34099380432379" lon="10.645393857307555"><ele>32.5</ele><time>2026-04-18T13:15:32.999Z</time></trkpt><trkpt lat="43.34110982236163" lon="10.645508834033926"><ele>33.0</ele><time>2026-04-18T13:15:33.999Z</time></trkpt><trkpt lat="43.341227981979095" lon="10.645618897465589"><ele>33.0</ele><time>2026-04-18T13:15:34.999Z</time></trkpt><trkpt lat="43.3413513627328" lon="10.64573930397929"><ele>33.0</ele><time>2026-04-18T13:15:35.999Z</time></trkpt><trkpt lat="43.34147421888348" lon="10.645867968623731"><ele>33.0</ele><time>2026-04-18T13:15:36.999Z</time></trkpt><trkpt lat="43.34159966835408" lon="10.645994977252156"><ele>32.75</ele><time>2026-04-18T13:15:37.999Z</time></trkpt><trkpt lat="43.341722778992256" lon="10.646112483608535"><ele>32.5</ele><time>2026-04-18T13:15:38.999Z</time></trkpt><trkpt lat="43.34182810907623" lon="10.646213022709816"><ele>32.25</ele><time>2026-04-18T13:15:39.999Z</time></trkpt><trkpt lat="43.3419526826304" lon="10.646299446225404"><ele>32.0</ele><time>2026-04-18T13:15:40.999Z</time></trkpt><trkpt lat="43.342091857505324" lon="10.646359023575512"><ele>33.33333333333333</ele><time>2026-04-18T13:15:41.999Z</time></trkpt><trkpt lat="43.342243562832756" lon="10.646404817323612"><ele>34.666666666666664</ele><time>2026-04-18T13:15:42.999Z</time></trkpt><trkpt lat="43.34240588733477" lon="10.646450083312068"><ele>36.0</ele><time>2026-04-18T13:15:43.999Z</time></trkpt><trkpt lat="43.34256078587091" lon="10.646502136141986"><ele>36.0</ele><time>2026-04-18T13:15:44.999Z</time></trkpt><trkpt lat="43.34271402489337" lon="10.646564635132401"><ele>36.0</ele><time>2026-04-18T13:15:45.999Z</time></trkpt><trkpt lat="43.34284736368407" lon="10.646636552552929"><ele>36.0</ele><time>2026-04-18T13:15:46.999Z</time></trkpt><trkpt lat="43.342987776840666" lon="10.646686184263858"><ele>36.0</ele><time>2026-04-18T13:15:47.999Z</time></trkpt><trkpt lat="43.343140094102765" lon="10.646699887788776"><ele>37.0</ele><time>2026-04-18T13:15:48.999Z</time></trkpt><trkpt lat="43.343299785042966" lon="10.646695851521168"><ele>38.0</ele><time>2026-04-18T13:15:49.999Z</time></trkpt><trkpt lat="43.34346402891342" lon="10.646694127675373"><ele>39.0</ele><time>2026-04-18T13:15:50.999Z</time></trkpt><trkpt lat="43.34363380524273" lon="10.64669008493964"><ele>39.0</ele><time>2026-04-18T13:15:51.999Z</time></trkpt><trkpt lat="43.34380841299993" lon="10.646706095129618"><ele>39.0</ele><time>2026-04-18T13:15:52.999Z</time></trkpt><trkpt lat="43.34397781853271" lon="10.64674676952955"><ele>39.0</ele><time>2026-04-18T13:15:53.999Z</time></trkpt><trkpt lat="43.34414570829084" lon="10.646797530768326"><ele>39.0</ele><time>2026-04-18T13:15:54.999Z</time></trkpt><trkpt lat="43.344309393618" lon="10.646849254433048"><ele>39.0</ele><time>2026-04-18T13:15:55.999Z</time></trkpt><trkpt lat="43.34447915950145" lon="10.646896368948033"><ele>39.0</ele><time>2026-04-18T13:15:56.999Z</time></trkpt><trkpt lat="43.344646753728306" lon="10.646939859598495"><ele>39.0</ele><time>2026-04-18T13:15:57.999Z</time></trkpt><trkpt lat="43.344809803965084" lon="10.64698183881414"><ele>39.0</ele><time>2026-04-18T13:15:58.999Z</time></trkpt><trkpt lat="43.34497723066013" lon="10.64702585968035"><ele>39.0</ele><time>2026-04-18T13:15:59.999Z</time></trkpt><trkpt lat="43.34513866723994" lon="10.647082282859895"><ele>39.0</ele><time>2026-04-18T13:16:00.999Z</time></trkpt><trkpt lat="43.34529366041964" lon="10.647166647027767"><ele>39.0</ele><time>2026-04-18T13:16:01.999Z</time></trkpt><trkpt lat="43.345421010654974" lon="10.647228642833369"><ele>39.0</ele><time>2026-04-18T13:16:02.999Z</time></trkpt><trkpt lat="43.34553661152018" lon="10.647259192306109"><ele>39.0</ele><time>2026-04-18T13:16:03.999Z</time></trkpt><trkpt lat="43.34566602564288" lon="10.647272339102976"><ele>40.0</ele><time>2026-04-18T13:16:04.999Z</time></trkpt><trkpt lat="43.34580529018522" lon="10.647301992921248"><ele>41.0</ele><time>2026-04-18T13:16:05.999Z</time></trkpt><trkpt lat="43.34594652130109" lon="10.647335493122998"><ele>42.0</ele><time>2026-04-18T13:16:06.999Z</time></trkpt><trkpt lat="43.34609759298721" lon="10.647368252631415"><ele>43.0</ele><time>2026-04-18T13:16:08Z</time></trkpt><trkpt lat="43.346246233659336" lon="10.647393321279505"><ele>42.75</ele><time>2026-04-18T13:16:09Z</time></trkpt><trkpt lat="43.34638116433077" lon="10.647433716218426"><ele>42.5</ele><time>2026-04-18T13:16:10Z</time></trkpt><trkpt lat="43.3465247490167" lon="10.64749646344351"><ele>42.25</ele><time>2026-04-18T13:16:11Z</time></trkpt><trkpt lat="43.34666855293166" lon="10.647561958557821"><ele>42.0</ele><time>2026-04-18T13:16:12Z</time></trkpt><trkpt lat="43.34683129851313" lon="10.647634040103934"><ele>42.0</ele><time>2026-04-18T13:16:13Z</time></trkpt><trkpt lat="43.34700861278011" lon="10.647712529433388"><ele>42.0</ele><time>2026-04-18T13:16:14Z</time></trkpt><trkpt lat="43.3471898485696" lon="10.647794428769176"><ele>42.0</ele><time>2026-04-18T13:16:15Z</time></trkpt><trkpt lat="43.3473793918348" lon="10.647874264637364"><ele>41.0</ele><time>2026-04-18T13:16:16Z</time></trkpt><trkpt lat="43.3475760298779" lon="10.647953775818568"><ele>40.0</ele><time>2026-04-18T13:16:17Z</time></trkpt><trkpt lat="43.34777710422554" lon="10.648039327045515"><ele>39.0</ele><time>2026-04-18T13:16:18Z</time></trkpt><trkpt lat="43.3479863459089" lon="10.648128904811276"><ele>39.5</ele><time>2026-04-18T13:16:19Z</time></trkpt><trkpt lat="43.34820761298932" lon="10.648219104036752"><ele>40.0</ele><time>2026-04-18T13:16:20Z</time></trkpt><trkpt lat="43.34842623241265" lon="10.648315018037605"><ele>40.0</ele><time>2026-04-18T13:16:21Z</time></trkpt><trkpt lat="43.34865191910114" lon="10.64841252967236"><ele>40.0</ele><time>2026-04-18T13:16:22Z</time></trkpt><trkpt lat="43.348870002608024" lon="10.648511897844346"><ele>40.0</ele><time>2026-04-18T13:16:23Z</time></trkpt><trkpt lat="43.34905312731142" lon="10.648597871060751"><ele>40.0</ele><time>2026-04-18T13:16:24Z</time></trkpt><trkpt lat="43.34922609619397" lon="10.648663759860503"><ele>40.0</ele><time>2026-04-18T13:16:25Z</time></trkpt><trkpt lat="43.3493995766375" lon="10.64872561024003"><ele>40.0</ele><time>2026-04-18T13:16:26Z</time></trkpt><trkpt lat="43.349571100056096" lon="10.648794585418436"><ele>40.0</ele><time>2026-04-18T13:16:27Z</time></trkpt><trkpt lat="43.349752671483756" lon="10.64887683374259"><ele>40.0</ele><time>2026-04-18T13:16:28Z</time></trkpt><trkpt lat="43.349927663115054" lon="10.648963838995193"><ele>41.333333333333336</ele><time>2026-04-18T13:16:29Z</time></trkpt><trkpt lat="43.35011767876764" lon="10.649065615849906"><ele>42.666666666666664</ele><time>2026-04-18T13:16:30Z</time></trkpt><trkpt lat="43.350308912400635" lon="10.649159941132105"><ele>44.0</ele><time>2026-04-18T13:16:31Z</time></trkpt><trkpt lat="43.35051774120209" lon="10.649269874371472"><ele>44.0</ele><time>2026-04-18T13:16:32Z</time></trkpt><trkpt lat="43.35071690546287" lon="10.649374433921242"><ele>44.0</ele><time>2026-04-18T13:16:33Z</time></trkpt><trkpt lat="43.350926461828045" lon="10.649478536509319"><ele>44.0</ele><time>2026-04-18T13:16:34Z</time></trkpt><trkpt lat="43.351141200491234" lon="10.649585081669935"><ele>44.33333333333333</ele><time>2026-04-18T13:16:35Z</time></trkpt><trkpt lat="43.35134491964915" lon="10.649684476995422"><ele>44.666666666666664</ele><time>2026-04-18T13:16:36Z</time></trkpt><trkpt lat="43.35154594425132" lon="10.649787042648821"><ele>45.0</ele><time>2026-04-18T13:16:37Z</time></trkpt><trkpt lat="43.35174277298411" lon="10.6498842624058"><ele>45.0</ele><time>2026-04-18T13:16:38Z</time></trkpt><trkpt lat="43.35193515494549" lon="10.649981396307656"><ele>45.0</ele><time>2026-04-18T13:16:39Z</time></trkpt><trkpt lat="43.3521097864397" lon="10.650070355090236"><ele>45.0</ele><time>2026-04-18T13:16:40Z</time></trkpt><trkpt lat="43.35227217926782" lon="10.65015045935339"><ele>45.333333333333336</ele><time>2026-04-18T13:16:41Z</time></trkpt><trkpt lat="43.35243583238151" lon="10.65022435931874"><ele>45.66666666666667</ele><time>2026-04-18T13:16:42Z</time></trkpt><trkpt lat="43.35260758553973" lon="10.650310554825873"><ele>46.0</ele><time>2026-04-18T13:16:43Z</time></trkpt><trkpt lat="43.35278730990619" lon="10.650404711005672"><ele>46.0</ele><time>2026-04-18T13:16:44Z</time></trkpt><trkpt lat="43.352964993909346" lon="10.650499244512694"><ele>46.0</ele><time>2026-04-18T13:16:45Z</time></trkpt><trkpt lat="43.35313330279315" lon="10.65058473423275"><ele>46.0</ele><time>2026-04-18T13:16:46Z</time></trkpt><trkpt lat="43.353286750397146" lon="10.650669340180658"><ele>46.66666666666667</ele><time>2026-04-18T13:16:47Z</time></trkpt><trkpt lat="43.35344799979171" lon="10.650749835299848"><ele>47.333333333333336</ele><time>2026-04-18T13:16:48Z</time></trkpt><trkpt lat="43.35361864824745" lon="10.650828497816054"><ele>48.0</ele><time>2026-04-18T13:16:49Z</time></trkpt><trkpt lat="43.35379011894228" lon="10.650900842525902"><ele>49.33333333333333</ele><time>2026-04-18T13:16:50Z</time></trkpt><trkpt lat="43.353960458358905" lon="10.650965909393596"><ele>50.666666666666664</ele><time>2026-04-18T13:16:51Z</time></trkpt><trkpt lat="43.35412592359973" lon="10.651000066264103"><ele>52.0</ele><time>2026-04-18T13:16:52Z</time></trkpt><trkpt lat="43.35427569275917" lon="10.651068952329243"><ele>51.75</ele><time>2026-04-18T13:16:53Z</time></trkpt><trkpt lat="43.35438914795465" lon="10.651163839194417"><ele>51.5</ele><time>2026-04-18T13:16:54Z</time></trkpt><trkpt lat="43.35451875209681" lon="10.65120907553591"><ele>51.25</ele><time>2026-04-18T13:16:55Z</time></trkpt><trkpt lat="43.35468177390661" lon="10.651206393967003"><ele>51.0</ele><time>2026-04-18T13:16:56Z</time></trkpt><trkpt lat="43.35482442887997" lon="10.65124949816993"><ele>51.0</ele><time>2026-04-18T13:16:57Z</time></trkpt><trkpt lat="43.354962927778054" lon="10.651307558293619"><ele>51.0</ele><time>2026-04-18T13:16:58Z</time></trkpt><trkpt lat="43.355069017853474" lon="10.65135504951563"><ele>51.0</ele><time>2026-04-18T13:16:59Z</time></trkpt><trkpt lat="43.3552531970444" lon="10.651406385878525"><ele>51.0</ele><time>2026-04-18T13:17:00Z</time></trkpt><trkpt lat="43.35539439479128" lon="10.65145074227917"><ele>52.25</ele><time>2026-04-18T13:17:01Z</time></trkpt><trkpt lat="43.35553795354907" lon="10.651506966667752"><ele>53.5</ele><time>2026-04-18T13:17:02Z</time></trkpt><trkpt lat="43.355662497383015" lon="10.651545338216915"><ele>54.75</ele><time>2026-04-18T13:17:03Z</time></trkpt><trkpt lat="43.355758665366565" lon="10.651561353370731"><ele>56.0</ele><time>2026-04-18T13:17:04Z</time></trkpt><trkpt lat="43.35583617635074" lon="10.651540498300148"><ele>56.0</ele><time>2026-04-18T13:17:05Z</time></trkpt><trkpt lat="43.355926082026606" lon="10.65151524346466"><ele>56.0</ele><time>2026-04-18T13:17:06Z</time></trkpt><trkpt lat="43.356049215770426" lon="10.651545464111983"><ele>56.0</ele><time>2026-04-18T13:17:07Z</time></trkpt><trkpt lat="43.35623951606748" lon="10.651704540609039"><ele>56.0</ele><time>2026-04-18T13:17:08Z</time></trkpt><trkpt lat="43.35638296490093" lon="10.651814582148148"><ele>55.66666666666667</ele><time>2026-04-18T13:17:09Z</time></trkpt><trkpt lat="43.356501946331775" lon="10.652011433991264"><ele>55.33333333333333</ele><time>2026-04-18T13:17:10Z</time></trkpt><trkpt lat="43.35665196010819" lon="10.652186263399678"><ele>55.0</ele><time>2026-04-18T13:17:11Z</time></trkpt><trkpt lat="43.35677221651225" lon="10.652302297007376"><ele>55.0</ele><time>2026-04-18T13:17:12Z</time></trkpt><trkpt lat="43.35691895197891" lon="10.652234327400752"><ele>55.0</ele><time>2026-04-18T13:17:13Z</time></trkpt><trkpt lat="43.357074352728354" lon="10.652252820954596"><ele>55.0</ele><time>2026-04-18T13:17:14Z</time></trkpt><trkpt lat="43.357229059705965" lon="10.65236960289931"><ele>56.666666666666664</ele><time>2026-04-18T13:17:15Z</time></trkpt><trkpt lat="43.35738113390353" lon="10.652474295690723"><ele>58.33333333333333</ele><time>2026-04-18T13:17:16Z</time></trkpt><trkpt lat="43.35748735713424" lon="10.652579760040133"><ele>60.0</ele><time>2026-04-18T13:17:17Z</time></trkpt><trkpt lat="43.357623050004534" lon="10.65266664497354"><ele>60.0</ele><time>2026-04-18T13:17:18Z</time></trkpt><trkpt lat="43.35777842683594" lon="10.652748260873889"><ele>60.0</ele><time>2026-04-18T13:17:19Z</time></trkpt><trkpt lat="43.357938045974805" lon="10.65282708691057"><ele>60.0</ele><time>2026-04-18T13:17:20Z</time></trkpt><trkpt lat="43.35809479011508" lon="10.652873660305563"><ele>58.66666666666667</ele><time>2026-04-18T13:17:21Z</time></trkpt><trkpt lat="43.358243191312276" lon="10.652895340749685"><ele>57.333333333333336</ele><time>2026-04-18T13:17:22Z</time></trkpt><trkpt lat="43.358415112737916" lon="10.65292889619793"><ele>56.0</ele><time>2026-04-18T13:17:23Z</time></trkpt><trkpt lat="43.35854950069268" lon="10.65294072551725"><ele>56.0</ele><time>2026-04-18T13:17:24Z</time></trkpt><trkpt lat="43.3586942665336" lon="10.652960706042542"><ele>56.0</ele><time>2026-04-18T13:17:25Z</time></trkpt><trkpt lat="43.35884507024249" lon="10.652970223702171"><ele>56.0</ele><time>2026-04-18T13:17:26Z</time></trkpt><trkpt lat="43.358988534245775" lon="10.65298986330256"><ele>56.0</ele><time>2026-04-18T13:17:27Z</time></trkpt><trkpt lat="43.35914650087035" lon="10.653080401818963"><ele>57.66666666666667</ele><time>2026-04-18T13:17:28Z</time></trkpt><trkpt lat="43.35931099034002" lon="10.653159665494263"><ele>59.33333333333333</ele><time>2026-04-18T13:17:29Z</time></trkpt><trkpt lat="43.359452978013536" lon="10.65324274739794"><ele>61.0</ele><time>2026-04-18T13:17:30Z</time></trkpt><trkpt lat="43.35958185451272" lon="10.653292231475323"><ele>61.0</ele><time>2026-04-18T13:17:31Z</time></trkpt><trkpt lat="43.35969097567131" lon="10.653316016155514"><ele>61.0</ele><time>2026-04-18T13:17:32Z</time></trkpt><trkpt lat="43.359832235031" lon="10.653342013371034"><ele>61.0</ele><time>2026-04-18T13:17:33Z</time></trkpt><trkpt lat="43.359968444246256" lon="10.653353770986115"><ele>61.0</ele><time>2026-04-18T13:17:34Z</time></trkpt><trkpt lat="43.360104052232764" lon="10.653372477983154"><ele>61.5</ele><time>2026-04-18T13:17:35Z</time></trkpt><trkpt lat="43.360220965501824" lon="10.653388588266639"><ele>62.0</ele><time>2026-04-18T13:17:36Z</time></trkpt><trkpt lat="43.36033979952176" lon="10.653440682243847"><ele>62.5</ele><time>2026-04-18T13:17:37Z</time></trkpt><trkpt lat="43.360470436665786" lon="10.653531725255261"><ele>63.0</ele><time>2026-04-18T13:17:38Z</time></trkpt><trkpt lat="43.36059866991544" lon="10.653593251597197"><ele>63.25</ele><time>2026-04-18T13:17:39Z</time></trkpt><trkpt lat="43.36072219385197" lon="10.653668177161318"><ele>63.5</ele><time>2026-04-18T13:17:40Z</time></trkpt><trkpt lat="43.36084994965752" lon="10.65371849189871"><ele>63.75</ele><time>2026-04-18T13:17:41Z</time></trkpt><trkpt lat="43.36098736117011" lon="10.653755611282655"><ele>64.0</ele><time>2026-04-18T13:17:42Z</time></trkpt><trkpt lat="43.36110151499463" lon="10.653816426407577"><ele>64.0</ele><time>2026-04-18T13:17:43Z</time></trkpt><trkpt lat="43.36117341434573" lon="10.653894144239812"><ele>64.0</ele><time>2026-04-18T13:17:44Z</time></trkpt><trkpt lat="43.36128935984398" lon="10.653967485930744"><ele>64.0</ele><time>2026-04-18T13:17:45Z</time></trkpt><trkpt lat="43.36142813299326" lon="10.65412653308507"><ele>64.0</ele><time>2026-04-18T13:17:46Z</time></trkpt><trkpt lat="43.36151726619229" lon="10.654267931922488"><ele>65.0</ele><time>2026-04-18T13:17:47Z</time></trkpt><trkpt lat="43.36159428362434" lon="10.654421338172508"><ele>66.0</ele><time>2026-04-18T13:17:48Z</time></trkpt><trkpt lat="43.36167465880259" lon="10.65453916163532"><ele>67.0</ele><time>2026-04-18T13:17:49Z</time></trkpt><trkpt lat="43.36178598518921" lon="10.654642122549145"><ele>68.0</ele><time>2026-04-18T13:17:50Z</time></trkpt><trkpt lat="43.361928611780755" lon="10.654713929821545"><ele>68.0</ele><time>2026-04-18T13:17:51Z</time></trkpt><trkpt lat="43.36204890855086" lon="10.654720639998754"><ele>68.0</ele><time>2026-04-18T13:17:52Z</time></trkpt><trkpt lat="43.36213586137103" lon="10.654730737504535"><ele>68.0</ele><time>2026-04-18T13:17:53Z</time></trkpt><trkpt lat="43.362481006870546" lon="10.654960741988816"><ele>71.25</ele><time>2026-04-18T13:17:55Z</time></trkpt><trkpt lat="43.36260617338625" lon="10.654945949485482"><ele>74.5</ele><time>2026-04-18T13:17:56Z</time></trkpt><trkpt lat="43.362753775120446" lon="10.654889513698514"><ele>77.75</ele><time>2026-04-18T13:17:57Z</time></trkpt><trkpt lat="43.36288758008677" lon="10.654872791851583"><ele>81.0</ele><time>2026-04-18T13:17:58Z</time></trkpt><trkpt lat="43.36298540380071" lon="10.65491723025375"><ele>82.6</ele><time>2026-04-18T13:17:59Z</time></trkpt><trkpt lat="43.363068222825156" lon="10.65500577949566"><ele>84.19999999999999</ele><time>2026-04-18T13:18:00Z</time></trkpt><trkpt lat="43.363137692144626" lon="10.655119181063897"><ele>85.80000000000001</ele><time>2026-04-18T13:18:01Z</time></trkpt><trkpt lat="43.36319556771917" lon="10.655197017563797"><ele>87.4</ele><time>2026-04-18T13:18:02Z</time></trkpt><trkpt lat="43.363266983368646" lon="10.65521196511283"><ele>89.0</ele><time>2026-04-18T13:18:02.999Z</time></trkpt><trkpt lat="43.36336197598779" lon="10.655205604696926"><ele>89.0</ele><time>2026-04-18T13:18:03.999Z</time></trkpt><trkpt lat="43.36346809966572" lon="10.655201934250428"><ele>89.0</ele><time>2026-04-18T13:18:04.999Z</time></trkpt><trkpt lat="43.363575000879" lon="10.655232451161782"><ele>89.0</ele><time>2026-04-18T13:18:05.999Z</time></trkpt><trkpt lat="43.363671069835135" lon="10.655289932528065"><ele>89.0</ele><time>2026-04-18T13:18:06.999Z</time></trkpt><trkpt lat="43.36377058471324" lon="10.655305692472373"><ele>89.0</ele><time>2026-04-18T13:18:07.999Z</time></trkpt><trkpt lat="43.36383442372482" lon="10.655218940416574"><ele>89.0</ele><time>2026-04-18T13:18:08.999Z</time></trkpt><trkpt lat="43.363832261974494" lon="10.655114982631984"><ele>89.0</ele><time>2026-04-18T13:18:09.999Z</time></trkpt><trkpt lat="43.36378990548431" lon="10.655010747386203"><ele>89.0</ele><time>2026-04-18T13:18:10.999Z</time></trkpt><trkpt lat="43.363710493323076" lon="10.654905281109754"><ele>89.0</ele><time>2026-04-18T13:18:11.999Z</time></trkpt><trkpt lat="43.3636290501097" lon="10.654800860209193"><ele>89.0</ele><time>2026-04-18T13:18:12.999Z</time></trkpt><trkpt lat="43.36356111119733" lon="10.654675037022201"><ele>89.0</ele><time>2026-04-18T13:18:13.999Z</time></trkpt><trkpt lat="43.3635199367624" lon="10.654545757437281"><ele>89.0</ele><time>2026-04-18T13:18:14.999Z</time></trkpt><trkpt lat="43.36348483261911" lon="10.654435408726865"><ele>89.0</ele><time>2026-04-18T13:18:15.999Z</time></trkpt><trkpt lat="43.36342268969857" lon="10.654351190575122"><ele>89.0</ele><time>2026-04-18T13:18:16.999Z</time></trkpt><trkpt lat="43.36334074466214" lon="10.65430025817731"><ele>89.0</ele><time>2026-04-18T13:18:17.999Z</time></trkpt><trkpt lat="43.36324466700792" lon="10.654296695828116"><ele>90.66666666666667</ele><time>2026-04-18T13:18:18.999Z</time></trkpt><trkpt lat="43.36318302664626" lon="10.654264824262361"><ele>92.33333333333334</ele><time>2026-04-18T13:18:19.999Z</time></trkpt><trkpt lat="43.36317497658821" lon="10.654173437003145"><ele>94.0</ele><time>2026-04-18T13:18:20.999Z</time></trkpt><trkpt lat="43.363227597455655" lon="10.654107405798067"><ele>95.66666666666667</ele><time>2026-04-18T13:18:21.999Z</time></trkpt><trkpt lat="43.36332182408101" lon="10.654106955252335"><ele>97.33333333333333</ele><time>2026-04-18T13:18:22.999Z</time></trkpt><trkpt lat="43.363403107345036" lon="10.654157121961486"><ele>99.0</ele><time>2026-04-18T13:18:23.999Z</time></trkpt><trkpt lat="43.363468475935086" lon="10.65419973667275"><ele>99.0</ele><time>2026-04-18T13:18:24.999Z</time></trkpt><trkpt lat="43.36353935126678" lon="10.654234436319477"><ele>99.0</ele><time>2026-04-18T13:18:25.999Z</time></trkpt><trkpt lat="43.36361175468866" lon="10.654247778811015"><ele>99.0</ele><time>2026-04-18T13:18:26.999Z</time></trkpt><trkpt lat="43.36368439385324" lon="10.65427632776285"><ele>99.0</ele><time>2026-04-18T13:18:27.999Z</time></trkpt><trkpt lat="43.36378285273179" lon="10.654300293745006"><ele>99.0</ele><time>2026-04-18T13:18:28.999Z</time></trkpt><trkpt lat="43.36389717789008" lon="10.65435490691116"><ele>99.0</ele><time>2026-04-18T13:18:29.999Z</time></trkpt><trkpt lat="43.36401079342692" lon="10.654430093430747"><ele>99.75</ele><time>2026-04-18T13:18:30.999Z</time></trkpt><trkpt lat="43.36410754567056" lon="10.65454843270106"><ele>100.5</ele><time>2026-04-18T13:18:31.999Z</time></trkpt><trkpt lat="43.36420508075584" lon="10.654684499622078"><ele>101.25</ele><time>2026-04-18T13:18:33Z</time></trkpt><trkpt lat="43.36427828633427" lon="10.654813217536882"><ele>102.0</ele><time>2026-04-18T13:18:34Z</time></trkpt><trkpt lat="43.364396748876324" lon="10.654899473271476"><ele>102.0</ele><time>2026-04-18T13:18:35Z</time></trkpt><trkpt lat="43.36453809855161" lon="10.65494578713755"><ele>102.0</ele><time>2026-04-18T13:18:36Z</time></trkpt><trkpt lat="43.364680267812666" lon="10.654970556730932"><ele>102.0</ele><time>2026-04-18T13:18:37Z</time></trkpt><trkpt lat="43.364801972163306" lon="10.654978505809861"><ele>102.0</ele><time>2026-04-18T13:18:38Z</time></trkpt><trkpt lat="43.36491923195718" lon="10.655018826122786"><ele>104.75</ele><time>2026-04-18T13:18:39Z</time></trkpt><trkpt lat="43.365041155943736" lon="10.655079639596968"><ele>107.5</ele><time>2026-04-18T13:18:40Z</time></trkpt><trkpt lat="43.365151273352495" lon="10.655084583477965"><ele>110.25</ele><time>2026-04-18T13:18:41Z</time></trkpt><trkpt lat="43.365260173499074" lon="10.655030508532146"><ele>113.0</ele><time>2026-04-18T13:18:42Z</time></trkpt><trkpt lat="43.365357630112705" lon="10.654957437243134"><ele>113.0</ele><time>2026-04-18T13:18:43Z</time></trkpt><trkpt lat="43.36547816318117" lon="10.654882980249"><ele>113.0</ele><time>2026-04-18T13:18:44Z</time></trkpt><trkpt lat="43.36561343264373" lon="10.654828268542294"><ele>113.0</ele><time>2026-04-18T13:18:45Z</time></trkpt><trkpt lat="43.365754511590886" lon="10.654775190058082"><ele>113.0</ele><time>2026-04-18T13:18:46Z</time></trkpt><trkpt lat="43.365872730136225" lon="10.654766159638454"><ele>113.0</ele><time>2026-04-18T13:18:47Z</time></trkpt><trkpt lat="43.3659690970287" lon="10.654798683265433"><ele>113.00000000000001</ele><time>2026-04-18T13:18:48Z</time></trkpt><trkpt lat="43.36605382201478" lon="10.654850789822435"><ele>113.00000000000001</ele><time>2026-04-18T13:18:49Z</time></trkpt><trkpt lat="43.36613326604453" lon="10.65483617393985"><ele>113.0</ele><time>2026-04-18T13:18:50Z</time></trkpt><trkpt lat="43.36620166723787" lon="10.654735151701246"><ele>113.0</ele><time>2026-04-18T13:18:51Z</time></trkpt><trkpt lat="43.366216732876154" lon="10.654581789809642"><ele>116.5</ele><time>2026-04-18T13:18:52Z</time></trkpt><trkpt lat="43.366203677384725" lon="10.654415336803057"><ele>120.0</ele><time>2026-04-18T13:18:53Z</time></trkpt><trkpt lat="43.36618956772827" lon="10.654262458324798"><ele>123.5</ele><time>2026-04-18T13:18:54Z</time></trkpt><trkpt lat="43.36622955776069" lon="10.654117043594216"><ele>127.0</ele><time>2026-04-18T13:18:55Z</time></trkpt><trkpt lat="43.36629378711512" lon="10.653971465119415"><ele>127.0</ele><time>2026-04-18T13:18:56Z</time></trkpt><trkpt lat="43.36635777272587" lon="10.653814380882277"><ele>127.0</ele><time>2026-04-18T13:18:57Z</time></trkpt><trkpt lat="43.36639942759172" lon="10.653633351739815"><ele>127.0</ele><time>2026-04-18T13:18:58Z</time></trkpt><trkpt lat="43.36641475490547" lon="10.653481559835095"><ele>127.0</ele><time>2026-04-18T13:18:59Z</time></trkpt><trkpt lat="43.36644743962688" lon="10.653360214525812"><ele>127.6</ele><time>2026-04-18T13:19:00Z</time></trkpt><trkpt lat="43.36652806451213" lon="10.653249947837635"><ele>128.2</ele><time>2026-04-18T13:19:01Z</time></trkpt><trkpt lat="43.36661446198293" lon="10.653213213328987"><ele>128.8</ele><time>2026-04-18T13:19:02Z</time></trkpt><trkpt lat="43.3667278529134" lon="10.65323286613548"><ele>129.4</ele><time>2026-04-18T13:19:03Z</time></trkpt><trkpt lat="43.36684595132787" lon="10.653248896976635"><ele>130.0</ele><time>2026-04-18T13:19:04Z</time></trkpt><trkpt lat="43.36696589595689" lon="10.653250274064556"><ele>130.0</ele><time>2026-04-18T13:19:05Z</time></trkpt><trkpt lat="43.36709241815406" lon="10.653241366419197"><ele>130.0</ele><time>2026-04-18T13:19:06Z</time></trkpt><trkpt lat="43.36721083925225" lon="10.653222637425298"><ele>130.0</ele><time>2026-04-18T13:19:07Z</time></trkpt><trkpt lat="43.36732607695537" lon="10.653182083103749"><ele>130.0</ele><time>2026-04-18T13:19:08Z</time></trkpt><trkpt lat="43.36744083187538" lon="10.653138475196432"><ele>129.6</ele><time>2026-04-18T13:19:09Z</time></trkpt><trkpt lat="43.367546800845915" lon="10.653104673704597"><ele>129.2</ele><time>2026-04-18T13:19:10Z</time></trkpt><trkpt lat="43.367626043007654" lon="10.653080525874993"><ele>128.8</ele><time>2026-04-18T13:19:11Z</time></trkpt><trkpt lat="43.36770973422794" lon="10.65303566328267"><ele>128.4</ele><time>2026-04-18T13:19:12Z</time></trkpt><trkpt lat="43.36781028669087" lon="10.652992798404096"><ele>128.0</ele><time>2026-04-18T13:19:13Z</time></trkpt><trkpt lat="43.3679272011081" lon="10.65298366432964"><ele>128.0</ele><time>2026-04-18T13:19:14Z</time></trkpt><trkpt lat="43.36802452980586" lon="10.65302375732375"><ele>128.0</ele><time>2026-04-18T13:19:15Z</time></trkpt><trkpt lat="43.36812536540465" lon="10.653067001331102"><ele>128.0</ele><time>2026-04-18T13:19:16Z</time></trkpt><trkpt lat="43.36820864871729" lon="10.653028146635268"><ele>128.0</ele><time>2026-04-18T13:19:17Z</time></trkpt><trkpt lat="43.36826990578485" lon="10.652912282781944"><ele>128.0</ele><time>2026-04-18T13:19:18Z</time></trkpt><trkpt lat="43.36829084774039" lon="10.652765476245419"><ele>131.8</ele><time>2026-04-18T13:19:19Z</time></trkpt><trkpt lat="43.36835757746707" lon="10.6526208621396"><ele>135.60000000000002</ele><time>2026-04-18T13:19:20Z</time></trkpt><trkpt lat="43.3684571582326" lon="10.652539426960114"><ele>139.39999999999998</ele><time>2026-04-18T13:19:21Z</time></trkpt><trkpt lat="43.368526732223344" lon="10.652505472765771"><ele>143.2</ele><time>2026-04-18T13:19:22Z</time></trkpt><trkpt lat="43.36862431131776" lon="10.652581727686648"><ele>147.0</ele><time>2026-04-18T13:19:24Z</time></trkpt><trkpt lat="43.368734100180575" lon="10.652677080310113"><ele>144.75</ele><time>2026-04-18T13:19:25Z</time></trkpt><trkpt lat="43.36885649173463" lon="10.65279771258787"><ele>142.5</ele><time>2026-04-18T13:19:26Z</time></trkpt><trkpt lat="43.368952592507675" lon="10.652949071690161"><ele>140.25</ele><time>2026-04-18T13:19:27Z</time></trkpt><trkpt lat="43.36905177648738" lon="10.653036171611534"><ele>138.0</ele><time>2026-04-18T13:19:28Z</time></trkpt><trkpt lat="43.3691327889538" lon="10.653022271546975"><ele>138.0</ele><time>2026-04-18T13:19:29Z</time></trkpt><trkpt lat="43.36925572105548" lon="10.65298384521744"><ele>138.0</ele><time>2026-04-18T13:19:30Z</time></trkpt><trkpt lat="43.36936759267644" lon="10.6529888125121"><ele>138.0</ele><time>2026-04-18T13:19:31Z</time></trkpt><trkpt lat="43.36948193231363" lon="10.653028918036636"><ele>138.0</ele><time>2026-04-18T13:19:32Z</time></trkpt><trkpt lat="43.36960034847224" lon="10.653059571001537"><ele>138.25</ele><time>2026-04-18T13:19:33Z</time></trkpt><trkpt lat="43.36972525883264" lon="10.65303770608763"><ele>138.5</ele><time>2026-04-18T13:19:34Z</time></trkpt><trkpt lat="43.36983883956291" lon="10.652868982824513"><ele>138.75</ele><time>2026-04-18T13:19:35Z</time></trkpt><trkpt lat="43.369941573748825" lon="10.652763432349934"><ele>139.0</ele><time>2026-04-18T13:19:36Z</time></trkpt><trkpt lat="43.37002678391422" lon="10.652677495258594"><ele>143.4</ele><time>2026-04-18T13:19:37Z</time></trkpt><trkpt lat="43.37012989480739" lon="10.652612499905196"><ele>147.8</ele><time>2026-04-18T13:19:38Z</time></trkpt><trkpt lat="43.37020423554301" lon="10.652630711150131"><ele>152.20000000000002</ele><time>2026-04-18T13:19:39Z</time></trkpt><trkpt lat="43.370295981787784" lon="10.65265410088487"><ele>156.60000000000002</ele><time>2026-04-18T13:19:40Z</time></trkpt><trkpt lat="43.37038958266754" lon="10.65269472880964"><ele>161.0</ele><time>2026-04-18T13:19:41Z</time></trkpt><trkpt lat="43.370504731391556" lon="10.65270842128569"><ele>160.0</ele><time>2026-04-18T13:19:41.999Z</time></trkpt><trkpt lat="43.37061758444659" lon="10.652716585592659"><ele>159.0</ele><time>2026-04-18T13:19:42.999Z</time></trkpt><trkpt lat="43.370714561317506" lon="10.652670822045167"><ele>158.0</ele><time>2026-04-18T13:19:43.999Z</time></trkpt><trkpt lat="43.37081158395766" lon="10.652591044966215"><ele>157.0</ele><time>2026-04-18T13:19:44.999Z</time></trkpt><trkpt lat="43.37088600444576" lon="10.652466365664985"><ele>156.0</ele><time>2026-04-18T13:19:45.999Z</time></trkpt><trkpt lat="43.370944386083366" lon="10.65237473504553"><ele>156.0</ele><time>2026-04-18T13:19:46.999Z</time></trkpt><trkpt lat="43.37094421918478" lon="10.652285395694713"><ele>156.0</ele><time>2026-04-18T13:19:47.999Z</time></trkpt><trkpt lat="43.370887326470864" lon="10.652246276259374"><ele>156.0</ele><time>2026-04-18T13:19:48.999Z</time></trkpt><trkpt lat="43.37078228072972" lon="10.652241822485431"><ele>156.0</ele><time>2026-04-18T13:19:49.999Z</time></trkpt><trkpt lat="43.370679016042196" lon="10.652276757049195"><ele>156.0</ele><time>2026-04-18T13:19:50.999Z</time></trkpt><trkpt lat="43.37057508597477" lon="10.65218406310249"><ele>157.25</ele><time>2026-04-18T13:19:52.999Z</time></trkpt><trkpt lat="43.37044832386424" lon="10.652011025518725"><ele>158.5</ele><time>2026-04-18T13:19:53.999Z</time></trkpt><trkpt lat="43.37030882593957" lon="10.651957542454024"><ele>159.75</ele><time>2026-04-18T13:19:54.999Z</time></trkpt><trkpt lat="43.370213455537765" lon="10.651999046105558"><ele>161.0</ele><time>2026-04-18T13:19:55.999Z</time></trkpt><trkpt lat="43.37009349200291" lon="10.652067790707072"><ele>161.0</ele><time>2026-04-18T13:19:56.999Z</time></trkpt><trkpt lat="43.36996668861192" lon="10.6521084003869"><ele>161.0</ele><time>2026-04-18T13:19:57.999Z</time></trkpt><trkpt lat="43.369843799871376" lon="10.65212400854696"><ele>161.0</ele><time>2026-04-18T13:19:58.999Z</time></trkpt><trkpt lat="43.3697484571358" lon="10.652088563180909"><ele>161.0</ele><time>2026-04-18T13:19:59.999Z</time></trkpt><trkpt lat="43.36964921733326" lon="10.652101499470213"><ele>160.0</ele><time>2026-04-18T13:20:00.999Z</time></trkpt><trkpt lat="43.369543175734094" lon="10.652067438370354"><ele>159.0</ele><time>2026-04-18T13:20:01.999Z</time></trkpt><trkpt lat="43.369456096261324" lon="10.651950989705849"><ele>158.0</ele><time>2026-04-18T13:20:02.999Z</time></trkpt><trkpt lat="43.36938644302146" lon="10.651810876396894"><ele>157.0</ele><time>2026-04-18T13:20:03.999Z</time></trkpt><trkpt lat="43.36933920905585" lon="10.651687418367315"><ele>159.25</ele><time>2026-04-18T13:20:04.999Z</time></trkpt><trkpt lat="43.369334516223624" lon="10.651455570348737"><ele>161.5</ele><time>2026-04-18T13:20:06.999Z</time></trkpt><trkpt lat="43.36939214901299" lon="10.651303617906926"><ele>163.75</ele><time>2026-04-18T13:20:07.999Z</time></trkpt><trkpt lat="43.36946507304391" lon="10.65116348184267"><ele>166.0</ele><time>2026-04-18T13:20:08.999Z</time></trkpt><trkpt lat="43.369514534524164" lon="10.651032969127188"><ele>166.8</ele><time>2026-04-18T13:20:09.999Z</time></trkpt><trkpt lat="43.36955679082878" lon="10.65094032618661"><ele>167.60000000000002</ele><time>2026-04-18T13:20:10.999Z</time></trkpt><trkpt lat="43.36965675756212" lon="10.650876047047024"><ele>168.4</ele><time>2026-04-18T13:20:11.999Z</time></trkpt><trkpt lat="43.36976264377454" lon="10.650813641717981"><ele>169.2</ele><time>2026-04-18T13:20:12.999Z</time></trkpt><trkpt lat="43.369880443811844" lon="10.650776769395508"><ele>170.0</ele><time>2026-04-18T13:20:13.999Z</time></trkpt><trkpt lat="43.36998691983821" lon="10.65077095257593"><ele>172.0</ele><time>2026-04-18T13:20:14.999Z</time></trkpt><trkpt lat="43.37010650326692" lon="10.650800998392466"><ele>174.0</ele><time>2026-04-18T13:20:15.999Z</time></trkpt><trkpt lat="43.370230013992405" lon="10.650819978364119"><ele>176.0</ele><time>2026-04-18T13:20:16.999Z</time></trkpt><trkpt lat="43.37034714344415" lon="10.650842582396834"><ele>178.0</ele><time>2026-04-18T13:20:17.999Z</time></trkpt><trkpt lat="43.370446737589894" lon="10.650893932392847"><ele>178.0</ele><time>2026-04-18T13:20:18.999Z</time></trkpt><trkpt lat="43.37052680223385" lon="10.65093680033726"><ele>178.0</ele><time>2026-04-18T13:20:19.999Z</time></trkpt><trkpt lat="43.37059908343957" lon="10.65090813437927"><ele>178.0</ele><time>2026-04-18T13:20:20.999Z</time></trkpt><trkpt lat="43.37066484494905" lon="10.650867487577248"><ele>178.0</ele><time>2026-04-18T13:20:21.999Z</time></trkpt><trkpt lat="43.37074024949318" lon="10.65075196397263"><ele>178.0</ele><time>2026-04-18T13:20:22.999Z</time></trkpt><trkpt lat="43.37082248807563" lon="10.650619871906112"><ele>178.0</ele><time>2026-04-18T13:20:23.999Z</time></trkpt><trkpt lat="43.37090363263909" lon="10.650477079984611"><ele>178.0</ele><time>2026-04-18T13:20:24.999Z</time></trkpt><trkpt lat="43.371004697595495" lon="10.650342163220603"><ele>178.0</ele><time>2026-04-18T13:20:25.999Z</time></trkpt><trkpt lat="43.37110887770777" lon="10.65019221483664"><ele>178.0</ele><time>2026-04-18T13:20:26.999Z</time></trkpt><trkpt lat="43.37122571199169" lon="10.650042133825577"><ele>177.0</ele><time>2026-04-18T13:20:27.999Z</time></trkpt><trkpt lat="43.37131203927376" lon="10.649913270644138"><ele>176.0</ele><time>2026-04-18T13:20:28.999Z</time></trkpt><trkpt lat="43.37139988242114" lon="10.649805403676325"><ele>175.0</ele><time>2026-04-18T13:20:29.999Z</time></trkpt><trkpt lat="43.371480365963905" lon="10.649664483727287"><ele>174.0</ele><time>2026-04-18T13:20:30.999Z</time></trkpt><trkpt lat="43.3715437101224" lon="10.649524611094629"><ele>174.6</ele><time>2026-04-18T13:20:31.999Z</time></trkpt><trkpt lat="43.37155873006775" lon="10.649373876504171"><ele>175.2</ele><time>2026-04-18T13:20:32.999Z</time></trkpt><trkpt lat="43.3715585881371" lon="10.649216824601048"><ele>175.79999999999998</ele><time>2026-04-18T13:20:33.999Z</time></trkpt><trkpt lat="43.37157949147908" lon="10.649095383794977"><ele>176.39999999999998</ele><time>2026-04-18T13:20:34.999Z</time></trkpt><trkpt lat="43.37163898398086" lon="10.649008228950997"><ele>177.0</ele><time>2026-04-18T13:20:35.999Z</time></trkpt><trkpt lat="43.371736590214255" lon="10.649013102583645"><ele>177.0</ele><time>2026-04-18T13:20:37Z</time></trkpt><trkpt lat="43.37186286562826" lon="10.649051394913648"><ele>177.0</ele><time>2026-04-18T13:20:38Z</time></trkpt><trkpt lat="43.371974168488855" lon="10.649058321467173"><ele>177.0</ele><time>2026-04-18T13:20:39Z</time></trkpt><trkpt lat="43.37207068483283" lon="10.649057124601612"><ele>177.0</ele><time>2026-04-18T13:20:40Z</time></trkpt><trkpt lat="43.37215252926504" lon="10.649048453959718"><ele>177.0</ele><time>2026-04-18T13:20:41Z</time></trkpt><trkpt lat="43.3724315998229" lon="10.648995938465138"><ele>177.33333333333334</ele><time>2026-04-18T13:20:42Z</time></trkpt><trkpt lat="43.37259119945745" lon="10.64899445513992"><ele>177.66666666666669</ele><time>2026-04-18T13:20:43Z</time></trkpt><trkpt lat="43.37276317058724" lon="10.648988861315466"><ele>178.0</ele><time>2026-04-18T13:20:44Z</time></trkpt><trkpt lat="43.37293252406873" lon="10.648975402370407"><ele>178.5</ele><time>2026-04-18T13:20:45Z</time></trkpt><trkpt lat="43.37308840633917" lon="10.648966436356869"><ele>179.0</ele><time>2026-04-18T13:20:46Z</time></trkpt><trkpt lat="43.37322228050394" lon="10.648964026765622"><ele>179.5</ele><time>2026-04-18T13:20:47Z</time></trkpt><trkpt lat="43.37333471696141" lon="10.64896780507474"><ele>180.0</ele><time>2026-04-18T13:20:48Z</time></trkpt><trkpt lat="43.373435940517446" lon="10.648957555086628"><ele>180.0</ele><time>2026-04-18T13:20:49Z</time></trkpt><trkpt lat="43.37356150109465" lon="10.648951547935619"><ele>180.0</ele><time>2026-04-18T13:20:50Z</time></trkpt><trkpt lat="43.373695686890954" lon="10.648937270097706"><ele>180.0</ele><time>2026-04-18T13:20:51Z</time></trkpt><trkpt lat="43.37382912536521" lon="10.648925550019294"><ele>180.0</ele><time>2026-04-18T13:20:52Z</time></trkpt><trkpt lat="43.37394235598092" lon="10.648931449275606"><ele>179.0</ele><time>2026-04-18T13:20:53Z</time></trkpt><trkpt lat="43.3740430622615" lon="10.648912103081553"><ele>178.0</ele><time>2026-04-18T13:20:54Z</time></trkpt><trkpt lat="43.374144196521705" lon="10.64882890232992"><ele>177.0</ele><time>2026-04-18T13:20:55Z</time></trkpt><trkpt lat="43.3742497670052" lon="10.64873587002157"><ele>176.0</ele><time>2026-04-18T13:20:56Z</time></trkpt><trkpt lat="43.374370718919195" lon="10.648628646737986"><ele>176.33333333333331</ele><time>2026-04-18T13:20:57Z</time></trkpt><trkpt lat="43.37449283790966" lon="10.648495358905247"><ele>176.66666666666666</ele><time>2026-04-18T13:20:58Z</time></trkpt><trkpt lat="43.37462550015762" lon="10.648371444304084"><ele>177.0</ele><time>2026-04-18T13:20:59Z</time></trkpt><trkpt lat="43.37476518292132" lon="10.648252780821407"><ele>177.0</ele><time>2026-04-18T13:21:00Z</time></trkpt><trkpt lat="43.37487832719391" lon="10.648145402730611"><ele>177.0</ele><time>2026-04-18T13:21:01Z</time></trkpt><trkpt lat="43.37498840674747" lon="10.648035762820612"><ele>177.0</ele><time>2026-04-18T13:21:02Z</time></trkpt><trkpt lat="43.37509288863481" lon="10.647925909235662"><ele>177.0</ele><time>2026-04-18T13:21:03Z</time></trkpt><trkpt lat="43.37518453526219" lon="10.647834824856544"><ele>181.25</ele><time>2026-04-18T13:21:04Z</time></trkpt><trkpt lat="43.37525756670681" lon="10.647752822173473"><ele>185.5</ele><time>2026-04-18T13:21:05Z</time></trkpt><trkpt lat="43.37538249188046" lon="10.64770295358592"><ele>189.75</ele><time>2026-04-18T13:21:06Z</time></trkpt><trkpt lat="43.375514932743805" lon="10.647703636242936"><ele>194.0</ele><time>2026-04-18T13:21:07Z</time></trkpt><trkpt lat="43.37565400918418" lon="10.647718423283644"><ele>194.25</ele><time>2026-04-18T13:21:08Z</time></trkpt><trkpt lat="43.375797072534056" lon="10.64774822009018"><ele>194.5</ele><time>2026-04-18T13:21:09Z</time></trkpt><trkpt lat="43.37595386006763" lon="10.647761750726712"><ele>194.75</ele><time>2026-04-18T13:21:10Z</time></trkpt><trkpt lat="43.376068637967116" lon="10.647774509509224"><ele>195.0</ele><time>2026-04-18T13:21:11Z</time></trkpt><trkpt lat="43.3761755780182" lon="10.64780516305551"><ele>194.75</ele><time>2026-04-18T13:21:12Z</time></trkpt><trkpt lat="43.376279497690874" lon="10.647801926352576"><ele>194.5</ele><time>2026-04-18T13:21:13Z</time></trkpt><trkpt lat="43.37636992224286" lon="10.647723741194488"><ele>194.25</ele><time>2026-04-18T13:21:14Z</time></trkpt><trkpt lat="43.37645700418413" lon="10.647607435398927"><ele>194.0</ele><time>2026-04-18T13:21:15Z</time></trkpt><trkpt lat="43.376574013637146" lon="10.647558828623868"><ele>194.0</ele><time>2026-04-18T13:21:16Z</time></trkpt><trkpt lat="43.37668930018959" lon="10.647605332418543"><ele>194.0</ele><time>2026-04-18T13:21:17Z</time></trkpt><trkpt lat="43.3768355182026" lon="10.6476706465969"><ele>194.0</ele><time>2026-04-18T13:21:18Z</time></trkpt><trkpt lat="43.37699408079509" lon="10.64766035156154"><ele>194.0</ele><time>2026-04-18T13:21:19Z</time></trkpt><trkpt lat="43.37715713102151" lon="10.647602064913164"><ele>193.0</ele><time>2026-04-18T13:21:20Z</time></trkpt><trkpt lat="43.37732803886082" lon="10.647548784031796"><ele>192.0</ele><time>2026-04-18T13:21:21Z</time></trkpt><trkpt lat="43.37744847659652" lon="10.647489998178122"><ele>191.0</ele><time>2026-04-18T13:21:22Z</time></trkpt><trkpt lat="43.37757060214084" lon="10.647486392850928"><ele>190.0</ele><time>2026-04-18T13:21:23Z</time></trkpt><trkpt lat="43.37768488172698" lon="10.647472380579986"><ele>190.0</ele><time>2026-04-18T13:21:24Z</time></trkpt><trkpt lat="43.37777600064978" lon="10.647448359124445"><ele>190.0</ele><time>2026-04-18T13:21:25Z</time></trkpt><trkpt lat="43.37786885511415" lon="10.647357259350889"><ele>190.0</ele><time>2026-04-18T13:21:26Z</time></trkpt><trkpt lat="43.37797182267159" lon="10.647228694188033"><ele>190.0</ele><time>2026-04-18T13:21:27Z</time></trkpt><trkpt lat="43.37808818181653" lon="10.647108260699278"><ele>187.33333333333334</ele><time>2026-04-18T13:21:28Z</time></trkpt><trkpt lat="43.378204872200286" lon="10.64698042804875"><ele>184.66666666666666</ele><time>2026-04-18T13:21:29Z</time></trkpt><trkpt lat="43.37833470773343" lon="10.646860634700426"><ele>182.0</ele><time>2026-04-18T13:21:30Z</time></trkpt><trkpt lat="43.37845258180076" lon="10.646743293185226"><ele>183.0</ele><time>2026-04-18T13:21:31Z</time></trkpt><trkpt lat="43.37855009951286" lon="10.6466245808473"><ele>184.0</ele><time>2026-04-18T13:21:32Z</time></trkpt><trkpt lat="43.378660130751015" lon="10.646540061242687"><ele>185.0</ele><time>2026-04-18T13:21:33Z</time></trkpt><trkpt lat="43.37879454519657" lon="10.64647560076375"><ele>186.0</ele><time>2026-04-18T13:21:34Z</time></trkpt><trkpt lat="43.37894869053758" lon="10.646422295713085"><ele>186.0</ele><time>2026-04-18T13:21:35Z</time></trkpt><trkpt lat="43.37908306594341" lon="10.646331760620678"><ele>186.0</ele><time>2026-04-18T13:21:36Z</time></trkpt><trkpt lat="43.379218089184555" lon="10.646302765932576"><ele>186.0</ele><time>2026-04-18T13:21:37Z</time></trkpt><trkpt lat="43.379334806014285" lon="10.646283662572332"><ele>186.0</ele><time>2026-04-18T13:21:38Z</time></trkpt><trkpt lat="43.379466741126805" lon="10.646292089164747"><ele>186.0</ele><time>2026-04-18T13:21:39Z</time></trkpt><trkpt lat="43.37958257598222" lon="10.646265223964884"><ele>186.0</ele><time>2026-04-18T13:21:40Z</time></trkpt><trkpt lat="43.37971154544094" lon="10.646162433013906"><ele>186.0</ele><time>2026-04-18T13:21:41Z</time></trkpt><trkpt lat="43.37984113166039" lon="10.646073054692296"><ele>186.0</ele><time>2026-04-18T13:21:42Z</time></trkpt><trkpt lat="43.37997255824617" lon="10.646028204887239"><ele>189.75</ele><time>2026-04-18T13:21:43Z</time></trkpt><trkpt lat="43.38009041192489" lon="10.646012750353046"><ele>193.5</ele><time>2026-04-18T13:21:44Z</time></trkpt><trkpt lat="43.380219908939715" lon="10.645993216010776"><ele>197.25</ele><time>2026-04-18T13:21:45Z</time></trkpt><trkpt lat="43.38037006730577" lon="10.645980065047869"><ele>201.0</ele><time>2026-04-18T13:21:46Z</time></trkpt><trkpt lat="43.38050729338581" lon="10.64599275341346"><ele>199.60000000000002</ele><time>2026-04-18T13:21:47Z</time></trkpt><trkpt lat="43.380609549043406" lon="10.646012367424785"><ele>198.2</ele><time>2026-04-18T13:21:48Z</time></trkpt><trkpt lat="43.38069842300849" lon="10.64600520378321"><ele>196.8</ele><time>2026-04-18T13:21:49Z</time></trkpt><trkpt lat="43.380800446512204" lon="10.645900793251862"><ele>195.39999999999998</ele><time>2026-04-18T13:21:50Z</time></trkpt><trkpt lat="43.38087053793913" lon="10.64576096865987"><ele>194.0</ele><time>2026-04-18T13:21:51Z</time></trkpt><trkpt lat="43.38094432258012" lon="10.645578127424313"><ele>194.00000000000003</ele><time>2026-04-18T13:21:52Z</time></trkpt><trkpt lat="43.38100126871254" lon="10.645436486408578"><ele>194.0</ele><time>2026-04-18T13:21:53Z</time></trkpt><trkpt lat="43.38102886918912" lon="10.645316093069834"><ele>194.0</ele><time>2026-04-18T13:21:54Z</time></trkpt><trkpt lat="43.38109289027921" lon="10.645276513177276"><ele>194.0</ele><time>2026-04-18T13:21:55Z</time></trkpt><trkpt lat="43.381169977068176" lon="10.64528702872836"><ele>194.00000000000003</ele><time>2026-04-18T13:21:56Z</time></trkpt><trkpt lat="43.381241385061486" lon="10.645367670562942"><ele>194.0</ele><time>2026-04-18T13:21:57Z</time></trkpt><trkpt lat="43.38132097965935" lon="10.645489351583208"><ele>193.75</ele><time>2026-04-18T13:21:58Z</time></trkpt><trkpt lat="43.3814052265446" lon="10.645574079889576"><ele>193.5</ele><time>2026-04-18T13:21:59Z</time></trkpt><trkpt lat="43.38154519312246" lon="10.645610708718948"><ele>193.25</ele><time>2026-04-18T13:22:00Z</time></trkpt><trkpt lat="43.38169696864045" lon="10.64557529736518"><ele>193.0</ele><time>2026-04-18T13:22:01Z</time></trkpt><trkpt lat="43.3817645046955" lon="10.645507656591661"><ele>193.0</ele><time>2026-04-18T13:22:02Z</time></trkpt><trkpt lat="43.38183143410003" lon="10.645370643313234"><ele>193.0</ele><time>2026-04-18T13:22:03Z</time></trkpt><trkpt lat="43.38189690679158" lon="10.64523335837944"><ele>193.0</ele><time>2026-04-18T13:22:04Z</time></trkpt><trkpt lat="43.381981747996385" lon="10.64506971829383"><ele>193.0</ele><time>2026-04-18T13:22:05Z</time></trkpt><trkpt lat="43.38205855940388" lon="10.644931768538948"><ele>196.25</ele><time>2026-04-18T13:22:06Z</time></trkpt><trkpt lat="43.38211659416134" lon="10.644863636763494"><ele>199.5</ele><time>2026-04-18T13:22:07Z</time></trkpt><trkpt lat="43.382255566678715" lon="10.644841763755585"><ele>202.75</ele><time>2026-04-18T13:22:08Z</time></trkpt><trkpt lat="43.38238263006327" lon="10.64486307396924"><ele>206.0</ele><time>2026-04-18T13:22:09Z</time></trkpt><trkpt lat="43.38250766855227" lon="10.64481079054864"><ele>206.5</ele><time>2026-04-18T13:22:10Z</time></trkpt><trkpt lat="43.382609635912" lon="10.644711116953884"><ele>207.0</ele><time>2026-04-18T13:22:11Z</time></trkpt><trkpt lat="43.382713491433066" lon="10.64456609083365"><ele>207.5</ele><time>2026-04-18T13:22:12Z</time></trkpt><trkpt lat="43.382772155855335" lon="10.644394044819773"><ele>208.0</ele><time>2026-04-18T13:22:13Z</time></trkpt><trkpt lat="43.38276321543614" lon="10.644211287330231"><ele>209.4</ele><time>2026-04-18T13:22:14Z</time></trkpt><trkpt lat="43.3827893333292" lon="10.64403546128251"><ele>210.8</ele><time>2026-04-18T13:22:15Z</time></trkpt><trkpt lat="43.382832293158096" lon="10.643910541509545"><ele>212.2</ele><time>2026-04-18T13:22:16Z</time></trkpt><trkpt lat="43.38288122401168" lon="10.643840451228833"><ele>213.6</ele><time>2026-04-18T13:22:17Z</time></trkpt><trkpt lat="43.38297415798429" lon="10.643756010288476"><ele>215.0</ele><time>2026-04-18T13:22:18Z</time></trkpt><trkpt lat="43.38309528326624" lon="10.643722013495395"><ele>215.0</ele><time>2026-04-18T13:22:19Z</time></trkpt><trkpt lat="43.3832243445232" lon="10.64378539689285"><ele>215.0</ele><time>2026-04-18T13:22:20Z</time></trkpt><trkpt lat="43.38332924043515" lon="10.643723933550941"><ele>215.0</ele><time>2026-04-18T13:22:21Z</time></trkpt><trkpt lat="43.38336911425939" lon="10.64357016629223"><ele>215.0</ele><time>2026-04-18T13:22:22Z</time></trkpt><trkpt lat="43.38342145718151" lon="10.643440650520452"><ele>218.5</ele><time>2026-04-18T13:22:23Z</time></trkpt><trkpt lat="43.38353433254946" lon="10.643354183669523"><ele>222.0</ele><time>2026-04-18T13:22:24Z</time></trkpt><trkpt lat="43.383645409851475" lon="10.64323275007334"><ele>225.5</ele><time>2026-04-18T13:22:25Z</time></trkpt><trkpt lat="43.383745022118184" lon="10.643061387134715"><ele>229.0</ele><time>2026-04-18T13:22:26Z</time></trkpt><trkpt lat="43.38378690844625" lon="10.642899765130666"><ele>229.0</ele><time>2026-04-18T13:22:27Z</time></trkpt><trkpt lat="43.38380803359091" lon="10.6427996443367"><ele>228.99999999999997</ele><time>2026-04-18T13:22:28Z</time></trkpt><trkpt lat="43.383882887164326" lon="10.642758778728131"><ele>228.99999999999997</ele><time>2026-04-18T13:22:29Z</time></trkpt><trkpt lat="43.38398137339556" lon="10.64268572640556"><ele>229.0</ele><time>2026-04-18T13:22:30Z</time></trkpt><trkpt lat="43.38412628636363" lon="10.642626186753645"><ele>229.0</ele><time>2026-04-18T13:22:31Z</time></trkpt><trkpt lat="43.384215056872364" lon="10.642489055801825"><ele>231.0</ele><time>2026-04-18T13:22:32Z</time></trkpt><trkpt lat="43.38427429908002" lon="10.642346752617108"><ele>233.0</ele><time>2026-04-18T13:22:33Z</time></trkpt><trkpt lat="43.384362671079934" lon="10.642190892196897"><ele>235.0</ele><time>2026-04-18T13:22:34Z</time></trkpt><trkpt lat="43.38452506170832" lon="10.642104922385226"><ele>237.0</ele><time>2026-04-18T13:22:35Z</time></trkpt><trkpt lat="43.38464801517929" lon="10.642052381154985"><ele>239.0</ele><time>2026-04-18T13:22:36Z</time></trkpt><trkpt lat="43.384776408077535" lon="10.64189875561308"><ele>241.0</ele><time>2026-04-18T13:22:37Z</time></trkpt><trkpt lat="43.384852126633405" lon="10.641884204948548"><ele>243.0</ele><time>2026-04-18T13:22:38Z</time></trkpt><trkpt lat="43.38491616252656" lon="10.641823085192428"><ele>245.0</ele><time>2026-04-18T13:22:39Z</time></trkpt><trkpt lat="43.38503986028631" lon="10.641751770522205"><ele>245.0</ele><time>2026-04-18T13:22:40Z</time></trkpt><trkpt lat="43.38514207223895" lon="10.641594567938519"><ele>245.0</ele><time>2026-04-18T13:22:41Z</time></trkpt><trkpt lat="43.385258616660245" lon="10.641459940901282"><ele>245.0</ele><time>2026-04-18T13:22:42Z</time></trkpt><trkpt lat="43.385361140559816" lon="10.641350999385548"><ele>245.0</ele><time>2026-04-18T13:22:43Z</time></trkpt><trkpt lat="43.385461347256175" lon="10.641295922797006"><ele>246.6</ele><time>2026-04-18T13:22:44Z</time></trkpt><trkpt lat="43.38552483894889" lon="10.641352754740502"><ele>248.2</ele><time>2026-04-18T13:22:45Z</time></trkpt><trkpt lat="43.3855943254547" lon="10.641470935541001"><ele>249.8</ele><time>2026-04-18T13:22:46Z</time></trkpt><trkpt lat="43.385693495003146" lon="10.641565226050233"><ele>251.4</ele><time>2026-04-18T13:22:47Z</time></trkpt><trkpt lat="43.385757792073306" lon="10.64169732201047"><ele>253.0</ele><time>2026-04-18T13:22:48Z</time></trkpt><trkpt lat="43.3858052396801" lon="10.641900906859473"><ele>252.75</ele><time>2026-04-18T13:22:49Z</time></trkpt><trkpt lat="43.385812822798975" lon="10.642091014087814"><ele>252.5</ele><time>2026-04-18T13:22:50Z</time></trkpt><trkpt lat="43.38579746285624" lon="10.642289372791039"><ele>252.25</ele><time>2026-04-18T13:22:51Z</time></trkpt><trkpt lat="43.3857483943164" lon="10.642485511364022"><ele>252.0</ele><time>2026-04-18T13:22:52Z</time></trkpt><trkpt lat="43.385717085351196" lon="10.642640065936792"><ele>252.0</ele><time>2026-04-18T13:22:53Z</time></trkpt><trkpt lat="43.385695212908814" lon="10.642774797874976"><ele>252.0</ele><time>2026-04-18T13:22:54Z</time></trkpt><trkpt lat="43.385728731565564" lon="10.642943242502303"><ele>252.0</ele><time>2026-04-18T13:22:55Z</time></trkpt><trkpt lat="43.38579511894921" lon="10.643122549638882"><ele>252.0</ele><time>2026-04-18T13:22:56Z</time></trkpt><trkpt lat="43.38584936658643" lon="10.643292440016324"><ele>252.0</ele><time>2026-04-18T13:22:57Z</time></trkpt><trkpt lat="43.3859086843924" lon="10.643371277049239"><ele>252.0</ele><time>2026-04-18T13:22:58Z</time></trkpt><trkpt lat="43.3859923490517" lon="10.643415396068379"><ele>252.0</ele><time>2026-04-18T13:22:59Z</time></trkpt><trkpt lat="43.38610976729705" lon="10.643468289279626"><ele>252.0</ele><time>2026-04-18T13:23:00Z</time></trkpt><trkpt lat="43.38623811622789" lon="10.64347900239597"><ele>252.0</ele><time>2026-04-18T13:23:01Z</time></trkpt><trkpt lat="43.38635501013362" lon="10.643435812174507"><ele>254.66666666666669</ele><time>2026-04-18T13:23:02Z</time></trkpt><trkpt lat="43.38650448754923" lon="10.64345120333269"><ele>257.33333333333337</ele><time>2026-04-18T13:23:03Z</time></trkpt><trkpt lat="43.38666073803217" lon="10.64348497184281"><ele>260.0</ele><time>2026-04-18T13:23:04Z</time></trkpt><trkpt lat="43.38683084551843" lon="10.64350615991203"><ele>260.0</ele><time>2026-04-18T13:23:05Z</time></trkpt><trkpt lat="43.387012389214334" lon="10.643533940844332"><ele>260.0</ele><time>2026-04-18T13:23:06Z</time></trkpt><trkpt lat="43.38719421780922" lon="10.643552833277079"><ele>260.0</ele><time>2026-04-18T13:23:07Z</time></trkpt><trkpt lat="43.38734593700668" lon="10.643582181765764"><ele>260.25</ele><time>2026-04-18T13:23:08Z</time></trkpt><trkpt lat="43.38747155483015" lon="10.64362341002302"><ele>260.5</ele><time>2026-04-18T13:23:09Z</time></trkpt><trkpt lat="43.38757562086959" lon="10.643682736848662"><ele>260.75</ele><time>2026-04-18T13:23:10Z</time></trkpt><trkpt lat="43.38763996174646" lon="10.643690177447418"><ele>261.0</ele><time>2026-04-18T13:23:11Z</time></trkpt><trkpt lat="43.38769015593388" lon="10.643502936317537"><ele>263.0</ele><time>2026-04-18T13:23:13Z</time></trkpt><trkpt lat="43.38767501683979" lon="10.643377507933275"><ele>265.0</ele><time>2026-04-18T13:23:14Z</time></trkpt><trkpt lat="43.3876928835695" lon="10.643204159775156"><ele>267.0</ele><time>2026-04-18T13:23:15Z</time></trkpt><trkpt lat="43.38773842287819" lon="10.643038487488294"><ele>269.0</ele><time>2026-04-18T13:23:16Z</time></trkpt><trkpt lat="43.38771270613466" lon="10.642786014401256"><ele>270.5</ele><time>2026-04-18T13:23:18Z</time></trkpt><trkpt lat="43.38771578077775" lon="10.642603145434697"><ele>272.0</ele><time>2026-04-18T13:23:19Z</time></trkpt><trkpt lat="43.387731655495266" lon="10.642401523774558"><ele>273.5</ele><time>2026-04-18T13:23:20Z</time></trkpt><trkpt lat="43.38773244941171" lon="10.642241468174134"><ele>275.0</ele><time>2026-04-18T13:23:21Z</time></trkpt><trkpt lat="43.38772926024136" lon="10.64212289927315"><ele>275.0</ele><time>2026-04-18T13:23:22Z</time></trkpt><trkpt lat="43.38775143899971" lon="10.64199671996418"><ele>275.0</ele><time>2026-04-18T13:23:23Z</time></trkpt><trkpt lat="43.3878094800931" lon="10.641884418047711"><ele>275.0</ele><time>2026-04-18T13:23:24Z</time></trkpt><trkpt lat="43.38789852767621" lon="10.641820533238835"><ele>275.0</ele><time>2026-04-18T13:23:25Z</time></trkpt><trkpt lat="43.38800042083274" lon="10.641825199611452"><ele>275.0</ele><time>2026-04-18T13:23:26Z</time></trkpt><trkpt lat="43.38811000373736" lon="10.641872299040699"><ele>278.0</ele><time>2026-04-18T13:23:27Z</time></trkpt><trkpt lat="43.388230709680485" lon="10.641940177624098"><ele>281.0</ele><time>2026-04-18T13:23:28Z</time></trkpt><trkpt lat="43.38836350169068" lon="10.641972781826874"><ele>284.0</ele><time>2026-04-18T13:23:29Z</time></trkpt><trkpt lat="43.3885042155323" lon="10.642010579434432"><ele>287.0</ele><time>2026-04-18T13:23:30Z</time></trkpt><trkpt lat="43.38864143219852" lon="10.642053124970033"><ele>287.0</ele><time>2026-04-18T13:23:31Z</time></trkpt><trkpt lat="43.388738763063806" lon="10.642097877356283"><ele>287.0</ele><time>2026-04-18T13:23:32Z</time></trkpt><trkpt lat="43.388839859800655" lon="10.642096280597045"><ele>287.0</ele><time>2026-04-18T13:23:33Z</time></trkpt><trkpt lat="43.3889401940684" lon="10.642052320262108"><ele>287.0</ele><time>2026-04-18T13:23:34Z</time></trkpt><trkpt lat="43.38903968884488" lon="10.642005335112447"><ele>287.0</ele><time>2026-04-18T13:23:35Z</time></trkpt><trkpt lat="43.389149255925254" lon="10.641963686682798"><ele>292.5</ele><time>2026-04-18T13:23:36Z</time></trkpt><trkpt lat="43.389275290980976" lon="10.641900873083724"><ele>298.0</ele><time>2026-04-18T13:23:37Z</time></trkpt><trkpt lat="43.3894147886769" lon="10.641887375764767"><ele>303.5</ele><time>2026-04-18T13:23:38Z</time></trkpt><trkpt lat="43.389563500999536" lon="10.641906747466354"><ele>309.0</ele><time>2026-04-18T13:23:39Z</time></trkpt><trkpt lat="43.389679807272564" lon="10.641882754415244"><ele>310.25</ele><time>2026-04-18T13:23:40Z</time></trkpt><trkpt lat="43.38978007767898" lon="10.641838093322807"><ele>311.5</ele><time>2026-04-18T13:23:41Z</time></trkpt><trkpt lat="43.389893029247325" lon="10.641842921761945"><ele>312.75</ele><time>2026-04-18T13:23:42Z</time></trkpt><trkpt lat="43.39001181322652" lon="10.641895920880357"><ele>314.0</ele><time>2026-04-18T13:23:43Z</time></trkpt><trkpt lat="43.390146848242175" lon="10.64194917784172"><ele>312.25</ele><time>2026-04-18T13:23:44Z</time></trkpt><trkpt lat="43.39028487426517" lon="10.641978852489169"><ele>310.5</ele><time>2026-04-18T13:23:45Z</time></trkpt><trkpt lat="43.39043672125611" lon="10.642008652192194"><ele>308.75</ele><time>2026-04-18T13:23:46Z</time></trkpt><trkpt lat="43.390566377446156" lon="10.642030318443462"><ele>307.0</ele><time>2026-04-18T13:23:47Z</time></trkpt><trkpt lat="43.39068455465236" lon="10.642044056368096"><ele>307.0</ele><time>2026-04-18T13:23:48Z</time></trkpt><trkpt lat="43.39079102601832" lon="10.642042092831344"><ele>307.0</ele><time>2026-04-18T13:23:49Z</time></trkpt><trkpt lat="43.39090130447158" lon="10.641997747730857"><ele>307.0</ele><time>2026-04-18T13:23:50Z</time></trkpt><trkpt lat="43.39101009311321" lon="10.641876880503307"><ele>307.0</ele><time>2026-04-18T13:23:51Z</time></trkpt><trkpt lat="43.391108839377644" lon="10.641750677820715"><ele>307.5</ele><time>2026-04-18T13:23:52Z</time></trkpt><trkpt lat="43.391215914833325" lon="10.641727728610736"><ele>308.0</ele><time>2026-04-18T13:23:53Z</time></trkpt><trkpt lat="43.39131848728705" lon="10.641787932164984"><ele>308.5</ele><time>2026-04-18T13:23:54Z</time></trkpt><trkpt lat="43.39139693562922" lon="10.641906582077578"><ele>309.0</ele><time>2026-04-18T13:23:55Z</time></trkpt><trkpt lat="43.39151902620952" lon="10.641969878301849"><ele>311.75</ele><time>2026-04-18T13:23:56Z</time></trkpt><trkpt lat="43.391651408142266" lon="10.64195410798053"><ele>314.5</ele><time>2026-04-18T13:23:57Z</time></trkpt><trkpt lat="43.39179716334857" lon="10.641939788712014"><ele>317.25</ele><time>2026-04-18T13:23:58Z</time></trkpt><trkpt lat="43.391954272127755" lon="10.641951322084383"><ele>320.0</ele><time>2026-04-18T13:23:59Z</time></trkpt><trkpt lat="43.392111046399314" lon="10.641962687327112"><ele>323.33333333333337</ele><time>2026-04-18T13:24:00Z</time></trkpt><trkpt lat="43.39226841815282" lon="10.641940705177317"><ele>326.6666666666667</ele><time>2026-04-18T13:24:01Z</time></trkpt><trkpt lat="43.392429876406545" lon="10.641941809040679"><ele>330.0</ele><time>2026-04-18T13:24:02Z</time></trkpt><trkpt lat="43.39256153724046" lon="10.641883238797485"><ele>330.0</ele><time>2026-04-18T13:24:03Z</time></trkpt><trkpt lat="43.3926385366966" lon="10.641789331897254"><ele>330.0</ele><time>2026-04-18T13:24:04Z</time></trkpt><trkpt lat="43.39268659441187" lon="10.641644960998276"><ele>330.0</ele><time>2026-04-18T13:24:05Z</time></trkpt><trkpt lat="43.392715100362956" lon="10.641480016720736"><ele>330.0</ele><time>2026-04-18T13:24:06Z</time></trkpt><trkpt lat="43.39274468324468" lon="10.641297193820492"><ele>331.8</ele><time>2026-04-18T13:24:07Z</time></trkpt><trkpt lat="43.392779185900906" lon="10.64111911041847"><ele>333.6</ele><time>2026-04-18T13:24:08Z</time></trkpt><trkpt lat="43.392815460166084" lon="10.640983066072591"><ele>335.4</ele><time>2026-04-18T13:24:09Z</time></trkpt><trkpt lat="43.39282902743004" lon="10.640891865711845"><ele>337.2</ele><time>2026-04-18T13:24:10Z</time></trkpt><trkpt lat="43.39285617092636" lon="10.640782563451506"><ele>339.0</ele><time>2026-04-18T13:24:12Z</time></trkpt><trkpt lat="43.39288455614907" lon="10.640680668882629"><ele>339.0</ele><time>2026-04-18T13:24:14Z</time></trkpt><trkpt lat="43.39290762995431" lon="10.640573882288813"><ele>339.0</ele><time>2026-04-18T13:24:16Z</time></trkpt><trkpt lat="43.39296393961469" lon="10.640428127950628"><ele>339.0</ele><time>2026-04-18T13:24:18Z</time></trkpt><trkpt lat="43.39300869379577" lon="10.640357328131074"><ele>339.0</ele><time>2026-04-18T13:24:19Z</time></trkpt><trkpt lat="43.3930643860035" lon="10.640301897850621"><ele>339.0</ele><time>2026-04-18T13:24:20Z</time></trkpt><trkpt lat="43.39317489903847" lon="10.640269244792202"><ele>340.8333333333333</ele><time>2026-04-18T13:24:22Z</time></trkpt><trkpt lat="43.3932343715137" lon="10.640321483311551"><ele>342.6666666666667</ele><time>2026-04-18T13:24:23Z</time></trkpt><trkpt lat="43.39328699732097" lon="10.640387735289957"><ele>344.5</ele><time>2026-04-18T13:24:24Z</time></trkpt><trkpt lat="43.39333915385191" lon="10.640454894994782"><ele>346.33333333333337</ele><time>2026-04-18T13:24:25Z</time></trkpt><trkpt lat="43.39340122005235" lon="10.640562562424455"><ele>348.1666666666667</ele><time>2026-04-18T13:24:27Z</time></trkpt><trkpt lat="43.39345903402664" lon="10.640682867760558"><ele>350.0</ele><time>2026-04-18T13:24:29Z</time></trkpt><trkpt lat="43.39351004239531" lon="10.64075004666323"><ele>350.0</ele><time>2026-04-18T13:24:31Z</time></trkpt><trkpt lat="43.39355855620408" lon="10.640821972400623"><ele>350.0</ele><time>2026-04-18T13:24:33Z</time></trkpt><trkpt lat="43.39362636371307" lon="10.640907881176126"><ele>350.0</ele><time>2026-04-18T13:24:35Z</time></trkpt><trkpt lat="43.393687687585626" lon="10.640989146876521"><ele>350.0</ele><time>2026-04-18T13:24:37Z</time></trkpt><trkpt lat="43.39373268757033" lon="10.641070448409145"><ele>350.0</ele><time>2026-04-18T13:24:39Z</time></trkpt><trkpt lat="43.393777174901494" lon="10.641167976016176"><ele>350.0</ele><time>2026-04-18T13:24:41Z</time></trkpt><trkpt lat="43.39382781244206" lon="10.641253563425623"><ele>350.6666666666667</ele><time>2026-04-18T13:24:43Z</time></trkpt><trkpt lat="43.393891301364704" lon="10.641291183539918"><ele>351.33333333333337</ele><time>2026-04-18T13:24:45Z</time></trkpt><trkpt lat="43.39396639962698" lon="10.64128043076039"><ele>352.0</ele><time>2026-04-18T13:24:47Z</time></trkpt><trkpt lat="43.39404166881054" lon="10.64124655344911"><ele>352.6666666666667</ele><time>2026-04-18T13:24:49Z</time></trkpt><trkpt lat="43.39411531960127" lon="10.641248964177091"><ele>353.3333333333333</ele><time>2026-04-18T13:24:51Z</time></trkpt><trkpt lat="43.39421115374337" lon="10.641228884184276"><ele>354.0</ele><time>2026-04-18T13:24:53Z</time></trkpt><trkpt lat="43.39429247034614" lon="10.641219005059138"><ele>354.0</ele><time>2026-04-18T13:24:55Z</time></trkpt><trkpt lat="43.39436500197935" lon="10.641195834674356"><ele>354.0</ele><time>2026-04-18T13:24:57Z</time></trkpt><trkpt lat="43.3944579117763" lon="10.641180924930575"><ele>354.0</ele><time>2026-04-18T13:25:00Z</time></trkpt><trkpt lat="43.39455163652516" lon="10.64116107812012"><ele>354.0</ele><time>2026-04-18T13:25:03Z</time></trkpt><trkpt lat="43.394617108985805" lon="10.641155083378424"><ele>354.0</ele><time>2026-04-18T13:25:05Z</time></trkpt><trkpt lat="43.39468654080294" lon="10.64114329564645"><ele>354.0</ele><time>2026-04-18T13:25:07Z</time></trkpt><trkpt lat="43.3947804971489" lon="10.641113915692106"><ele>357.8333333333333</ele><time>2026-04-18T13:25:10Z</time></trkpt><trkpt lat="43.394855799000176" lon="10.641097842704959"><ele>361.6666666666667</ele><time>2026-04-18T13:25:12Z</time></trkpt><trkpt lat="43.39491998947068" lon="10.641048973426331"><ele>365.5</ele><time>2026-04-18T13:25:14Z</time></trkpt><trkpt lat="43.39501825256688" lon="10.641012654200752"><ele>369.33333333333337</ele><time>2026-04-18T13:25:16Z</time></trkpt><trkpt lat="43.39511432931909" lon="10.640984953662826"><ele>373.1666666666667</ele><time>2026-04-18T13:25:18Z</time></trkpt><trkpt lat="43.39519907396859" lon="10.640987555201699"><ele>377.0</ele><time>2026-04-18T13:25:20Z</time></trkpt><trkpt lat="43.3952601798841" lon="10.641008571754645"><ele>377.0</ele><time>2026-04-18T13:25:22Z</time></trkpt><trkpt lat="43.39535749779377" lon="10.641002793294449"><ele>377.0</ele><time>2026-04-18T13:25:24Z</time></trkpt><trkpt lat="43.39543094073363" lon="10.64099707737338"><ele>377.0</ele><time>2026-04-18T13:25:26Z</time></trkpt><trkpt lat="43.39552039194875" lon="10.640986345098785"><ele>377.0</ele><time>2026-04-18T13:25:28Z</time></trkpt><trkpt lat="43.39561145599477" lon="10.640968414325954"><ele>377.0</ele><time>2026-04-18T13:25:30Z</time></trkpt><trkpt lat="43.39570687647809" lon="10.640932468483376"><ele>377.1666666666667</ele><time>2026-04-18T13:25:32Z</time></trkpt><trkpt lat="43.395771320834015" lon="10.640931208519417"><ele>377.33333333333337</ele><time>2026-04-18T13:25:33Z</time></trkpt><trkpt lat="43.39584048131015" lon="10.640924546484543"><ele>377.5</ele><time>2026-04-18T13:25:34Z</time></trkpt><trkpt lat="43.395917406137215" lon="10.64092180783061"><ele>377.6666666666667</ele><time>2026-04-18T13:25:35Z</time></trkpt><trkpt lat="43.39599243085799" lon="10.640872278025604"><ele>377.8333333333333</ele><time>2026-04-18T13:25:36Z</time></trkpt><trkpt lat="43.39608017234403" lon="10.64086966349523"><ele>378.0</ele><time>2026-04-18T13:25:37Z</time></trkpt><trkpt lat="43.3961635617376" lon="10.640845690030366"><ele>378.0</ele><time>2026-04-18T13:25:38Z</time></trkpt><trkpt lat="43.39625861934729" lon="10.64082054805777"><ele>378.0</ele><time>2026-04-18T13:25:39Z</time></trkpt><trkpt lat="43.396351675365906" lon="10.64078326299869"><ele>378.0</ele><time>2026-04-18T13:25:40Z</time></trkpt><trkpt lat="43.39644613838421" lon="10.640743791871184"><ele>378.0</ele><time>2026-04-18T13:25:41Z</time></trkpt><trkpt lat="43.39654445497848" lon="10.640690402032225"><ele>378.0</ele><time>2026-04-18T13:25:42Z</time></trkpt><trkpt lat="43.39663948999648" lon="10.6406495794028"><ele>377.4</ele><time>2026-04-18T13:25:43Z</time></trkpt><trkpt lat="43.396730494674316" lon="10.640634070085195"><ele>376.79999999999995</ele><time>2026-04-18T13:25:44Z</time></trkpt><trkpt lat="43.396811797874946" lon="10.640679128855188"><ele>376.2</ele><time>2026-04-18T13:25:45Z</time></trkpt><trkpt lat="43.39688444499334" lon="10.640730357165195"><ele>375.6</ele><time>2026-04-18T13:25:46Z</time></trkpt><trkpt lat="43.396976233214886" lon="10.640779717221656"><ele>375.0</ele><time>2026-04-18T13:25:47Z</time></trkpt><trkpt lat="43.39706404566094" lon="10.640827857512592"><ele>375.0</ele><time>2026-04-18T13:25:48Z</time></trkpt><trkpt lat="43.39716079988729" lon="10.640885898210486"><ele>375.0</ele><time>2026-04-18T13:25:49Z</time></trkpt><trkpt lat="43.39726814259671" lon="10.640871813433552"><ele>375.0</ele><time>2026-04-18T13:25:50Z</time></trkpt><trkpt lat="43.397342712060755" lon="10.640920296582305"><ele>375.0</ele><time>2026-04-18T13:25:51Z</time></trkpt><trkpt lat="43.3974416844054" lon="10.64092594449288"><ele>375.0</ele><time>2026-04-18T13:25:52Z</time></trkpt><trkpt lat="43.39754410294922" lon="10.640933622623479"><ele>375.25</ele><time>2026-04-18T13:25:53Z</time></trkpt><trkpt lat="43.39765542567992" lon="10.640920549972975"><ele>375.5</ele><time>2026-04-18T13:25:54Z</time></trkpt><trkpt lat="43.39775860533685" lon="10.640870954325006"><ele>375.75</ele><time>2026-04-18T13:25:55Z</time></trkpt><trkpt lat="43.397866730285465" lon="10.64079380575863"><ele>376.0</ele><time>2026-04-18T13:25:56Z</time></trkpt><trkpt lat="43.39796101963349" lon="10.640705556349168"><ele>376.5</ele><time>2026-04-18T13:25:57Z</time></trkpt><trkpt lat="43.39807082244723" lon="10.640631568490173"><ele>377.0</ele><time>2026-04-18T13:25:58Z</time></trkpt><trkpt lat="43.398154414765926" lon="10.640565217260976"><ele>377.5</ele><time>2026-04-18T13:25:59Z</time></trkpt><trkpt lat="43.3982259097751" lon="10.64050542009725"><ele>378.0</ele><time>2026-04-18T13:26:00Z</time></trkpt><trkpt lat="43.39845748177082" lon="10.640527666784571"><ele>378.0</ele><time>2026-04-18T13:26:01Z</time></trkpt><trkpt lat="43.39859590405446" lon="10.640534662445548"><ele>378.0</ele><time>2026-04-18T13:26:02Z</time></trkpt><trkpt lat="43.39873346979699" lon="10.64052997652564"><ele>378.0</ele><time>2026-04-18T13:26:03Z</time></trkpt><trkpt lat="43.398879064706115" lon="10.640538459459954"><ele>378.0</ele><time>2026-04-18T13:26:04Z</time></trkpt><trkpt lat="43.399019629117255" lon="10.640569666966972"><ele>380.0</ele><time>2026-04-18T13:26:05Z</time></trkpt><trkpt lat="43.39915648442985" lon="10.640620818554202"><ele>382.0</ele><time>2026-04-18T13:26:06Z</time></trkpt><trkpt lat="43.39928510925896" lon="10.640692370438236"><ele>384.0</ele><time>2026-04-18T13:26:07Z</time></trkpt><trkpt lat="43.399398157631644" lon="10.640760081806357"><ele>386.0</ele><time>2026-04-18T13:26:08Z</time></trkpt><trkpt lat="43.39950847119611" lon="10.640854305031755"><ele>386.0</ele><time>2026-04-18T13:26:09Z</time></trkpt><trkpt lat="43.399608460138126" lon="10.640966544487341"><ele>386.0</ele><time>2026-04-18T13:26:10Z</time></trkpt><trkpt lat="43.39969609496756" lon="10.641071827083023"><ele>386.0</ele><time>2026-04-18T13:26:11Z</time></trkpt><trkpt lat="43.39978141320885" lon="10.641113510711563"><ele>386.0</ele><time>2026-04-18T13:26:12Z</time></trkpt><trkpt lat="43.399849320468554" lon="10.641108925969696"><ele>386.0</ele><time>2026-04-18T13:26:13Z</time></trkpt><trkpt lat="43.39983254307957" lon="10.640956153222811"><ele>386.0</ele><time>2026-04-18T13:26:15Z</time></trkpt><trkpt lat="43.39975148179947" lon="10.640931831454388"><ele>386.0</ele><time>2026-04-18T13:26:16Z</time></trkpt><trkpt lat="43.399678855908284" lon="10.640858712820458"><ele>386.0</ele><time>2026-04-18T13:26:17Z</time></trkpt><trkpt lat="43.39961704207345" lon="10.64075171946245"><ele>386.0</ele><time>2026-04-18T13:26:18Z</time></trkpt><trkpt lat="43.39957219726787" lon="10.640621261554202"><ele>386.0</ele><time>2026-04-18T13:26:19Z</time></trkpt><trkpt lat="43.399546457383444" lon="10.640510899960368"><ele>385.99999999999994</ele><time>2026-04-18T13:26:20Z</time></trkpt><trkpt lat="43.39950399544474" lon="10.640400539180895"><ele>386.0</ele><time>2026-04-18T13:26:22Z</time></trkpt><trkpt lat="43.39953720754363" lon="10.640263406634743"><ele>386.0</ele><time>2026-04-18T13:26:25Z</time></trkpt><trkpt lat="43.39955234519158" lon="10.640161356276579"><ele>386.0</ele><time>2026-04-18T13:26:26Z</time></trkpt><trkpt lat="43.39955401356237" lon="10.640063997088115"><ele>385.99999999999994</ele><time>2026-04-18T13:26:27Z</time></trkpt><trkpt lat="43.399530489512" lon="10.639946165186778"><ele>386.0</ele><time>2026-04-18T13:26:28Z</time></trkpt><trkpt lat="43.39951251947657" lon="10.639821495264302"><ele>388.20000000000005</ele><time>2026-04-18T13:26:29Z</time></trkpt><trkpt lat="43.399472057447724" lon="10.639683467593832"><ele>390.40000000000003</ele><time>2026-04-18T13:26:30Z</time></trkpt><trkpt lat="43.39942513386902" lon="10.63953681238737"><ele>392.6</ele><time>2026-04-18T13:26:31Z</time></trkpt><trkpt lat="43.39939311554486" lon="10.639403538733223"><ele>394.8</ele><time>2026-04-18T13:26:32Z</time></trkpt><trkpt lat="43.39936173013685" lon="10.63927638424069"><ele>397.0</ele><time>2026-04-18T13:26:33Z</time></trkpt><trkpt lat="43.39931562787505" lon="10.639156385340637"><ele>400.75</ele><time>2026-04-18T13:26:34Z</time></trkpt><trkpt lat="43.399265247312215" lon="10.639043964407056"><ele>404.5</ele><time>2026-04-18T13:26:35Z</time></trkpt><trkpt lat="43.39919782409594" lon="10.638935494177867"><ele>408.25</ele><time>2026-04-18T13:26:36Z</time></trkpt><trkpt lat="43.39913162183392" lon="10.638818109617526"><ele>412.0</ele><time>2026-04-18T13:26:37Z</time></trkpt><trkpt lat="43.39899027805651" lon="10.638719015282437"><ele>413.75</ele><time>2026-04-18T13:26:38Z</time></trkpt><trkpt lat="43.3988603957529" lon="10.638620604634182"><ele>415.5</ele><time>2026-04-18T13:26:39Z</time></trkpt><trkpt lat="43.39876745398929" lon="10.638563849495661"><ele>417.25</ele><time>2026-04-18T13:26:40Z</time></trkpt><trkpt lat="43.398710631817686" lon="10.638451787749402"><ele>419.0</ele><time>2026-04-18T13:26:41Z</time></trkpt><trkpt lat="43.398805698873105" lon="10.638265065856888"><ele>419.0</ele><time>2026-04-18T13:26:42Z</time></trkpt><trkpt lat="43.39880371041911" lon="10.638129746211094"><ele>419.0</ele><time>2026-04-18T13:26:43Z</time></trkpt><trkpt lat="43.39882042572912" lon="10.63799808746444"><ele>419.0</ele><time>2026-04-18T13:26:44Z</time></trkpt><trkpt lat="43.3988471315012" lon="10.637872222708863"><ele>419.0</ele><time>2026-04-18T13:26:45Z</time></trkpt><trkpt lat="43.398844019700654" lon="10.637734241944207"><ele>419.0</ele><time>2026-04-18T13:26:46Z</time></trkpt><trkpt lat="43.398804980175946" lon="10.637604475615758"><ele>421.6</ele><time>2026-04-18T13:26:47Z</time></trkpt><trkpt lat="43.39876893170906" lon="10.637470496508227"><ele>424.2</ele><time>2026-04-18T13:26:48Z</time></trkpt><trkpt lat="43.398729358247415" lon="10.637335102771486"><ele>426.80000000000007</ele><time>2026-04-18T13:26:49Z</time></trkpt><trkpt lat="43.39870167667167" lon="10.637191589374295"><ele>429.40000000000003</ele><time>2026-04-18T13:26:50Z</time></trkpt><trkpt lat="43.39865868473212" lon="10.637054332511111"><ele>432.0</ele><time>2026-04-18T13:26:51Z</time></trkpt><trkpt lat="43.398600400961506" lon="10.636914521205435"><ele>434.75</ele><time>2026-04-18T13:26:52Z</time></trkpt><trkpt lat="43.398496965359264" lon="10.636818890426873"><ele>437.5</ele><time>2026-04-18T13:26:53Z</time></trkpt><trkpt lat="43.3983805794754" lon="10.636755660809243"><ele>440.25</ele><time>2026-04-18T13:26:54Z</time></trkpt><trkpt lat="43.39827656283215" lon="10.636672133104813"><ele>443.0</ele><time>2026-04-18T13:26:55Z</time></trkpt><trkpt lat="43.398168205566236" lon="10.636584762354692"><ele>443.0</ele><time>2026-04-18T13:26:56Z</time></trkpt><trkpt lat="43.398053958989635" lon="10.636502068664988"><ele>443.0</ele><time>2026-04-18T13:26:57Z</time></trkpt><trkpt lat="43.39793607052644" lon="10.636409437278742"><ele>443.0</ele><time>2026-04-18T13:26:58Z</time></trkpt><trkpt lat="43.39782842284" lon="10.636318715808796"><ele>443.0</ele><time>2026-04-18T13:26:59Z</time></trkpt><trkpt lat="43.397740876659945" lon="10.636213179929337"><ele>446.0</ele><time>2026-04-18T13:27:00Z</time></trkpt><trkpt lat="43.397671790720494" lon="10.636087919260671"><ele>448.99999999999994</ele><time>2026-04-18T13:27:01Z</time></trkpt><trkpt lat="43.39762334093459" lon="10.635993091808828"><ele>451.99999999999994</ele><time>2026-04-18T13:27:02Z</time></trkpt><trkpt lat="43.39756696304391" lon="10.63586612161265"><ele>455.0</ele><time>2026-04-18T13:27:03Z</time></trkpt><trkpt lat="43.39748805732088" lon="10.63571245206446"><ele>458.0</ele><time>2026-04-18T13:27:04Z</time></trkpt><trkpt lat="43.39740010098306" lon="10.635564635884084"><ele>458.0</ele><time>2026-04-18T13:27:05Z</time></trkpt><trkpt lat="43.39730641023861" lon="10.635431979593644"><ele>458.0</ele><time>2026-04-18T13:27:06Z</time></trkpt><trkpt lat="43.397288216404064" lon="10.63530701819602"><ele>458.0</ele><time>2026-04-18T13:27:07Z</time></trkpt><trkpt lat="43.397287406600505" lon="10.635142302753266"><ele>458.0</ele><time>2026-04-18T13:27:08Z</time></trkpt><trkpt lat="43.397279904704334" lon="10.634968589372768"><ele>460.0</ele><time>2026-04-18T13:27:09Z</time></trkpt><trkpt lat="43.39727980277092" lon="10.634787478663238"><ele>461.99999999999994</ele><time>2026-04-18T13:27:10Z</time></trkpt><trkpt lat="43.39728225339622" lon="10.63461288856921"><ele>463.99999999999994</ele><time>2026-04-18T13:27:11Z</time></trkpt><trkpt lat="43.39728816658454" lon="10.634474352383577"><ele>466.0</ele><time>2026-04-18T13:27:12Z</time></trkpt><trkpt lat="43.39728036681757" lon="10.634362707122454"><ele>468.0</ele><time>2026-04-18T13:27:13Z</time></trkpt><trkpt lat="43.397290856326485" lon="10.634244447816336"><ele>468.2</ele><time>2026-04-18T13:27:14Z</time></trkpt><trkpt lat="43.39732944762865" lon="10.634125923247293"><ele>468.4</ele><time>2026-04-18T13:27:15Z</time></trkpt><trkpt lat="43.39737275406785" lon="10.634012558245443"><ele>468.59999999999997</ele><time>2026-04-18T13:27:16Z</time></trkpt><trkpt lat="43.3974125623783" lon="10.633865380312779"><ele>468.79999999999995</ele><time>2026-04-18T13:27:17Z</time></trkpt><trkpt lat="43.39744834959811" lon="10.63370014410218"><ele>469.0</ele><time>2026-04-18T13:27:18Z</time></trkpt><trkpt lat="43.39746968897932" lon="10.633567718165718"><ele>468.79999999999995</ele><time>2026-04-18T13:27:19Z</time></trkpt><trkpt lat="43.39749637068909" lon="10.633430767869978"><ele>468.59999999999997</ele><time>2026-04-18T13:27:20Z</time></trkpt><trkpt lat="43.397528369797996" lon="10.633299368225845"><ele>468.4</ele><time>2026-04-18T13:27:21Z</time></trkpt><trkpt lat="43.39756258546681" lon="10.633145552782915"><ele>468.2</ele><time>2026-04-18T13:27:22Z</time></trkpt><trkpt lat="43.397598519052295" lon="10.632979786931099"><ele>468.0</ele><time>2026-04-18T13:27:23Z</time></trkpt><trkpt lat="43.397630237805465" lon="10.632798927716378"><ele>468.0</ele><time>2026-04-18T13:27:24Z</time></trkpt><trkpt lat="43.39767182025493" lon="10.632600589213391"><ele>468.0</ele><time>2026-04-18T13:27:25Z</time></trkpt><trkpt lat="43.39770721200223" lon="10.632396526517597"><ele>468.0</ele><time>2026-04-18T13:27:26Z</time></trkpt><trkpt lat="43.397754286578" lon="10.632192189351368"><ele>468.0</ele><time>2026-04-18T13:27:27Z</time></trkpt><trkpt lat="43.39779055310718" lon="10.63200284622311"><ele>468.0</ele><time>2026-04-18T13:27:28Z</time></trkpt><trkpt lat="43.3978035582732" lon="10.631845468498934"><ele>468.0</ele><time>2026-04-18T13:27:29Z</time></trkpt><trkpt lat="43.39783819163661" lon="10.631715969851859"><ele>468.0</ele><time>2026-04-18T13:27:30Z</time></trkpt><trkpt lat="43.39791624433582" lon="10.631591190564057"><ele>468.59999999999997</ele><time>2026-04-18T13:27:31Z</time></trkpt><trkpt lat="43.397993649211735" lon="10.631459581194745"><ele>469.19999999999993</ele><time>2026-04-18T13:27:32Z</time></trkpt><trkpt lat="43.39807756844493" lon="10.631331028798398"><ele>469.8</ele><time>2026-04-18T13:27:33Z</time></trkpt><trkpt lat="43.398131475222755" lon="10.631218086877066"><ele>470.4</ele><time>2026-04-18T13:27:34Z</time></trkpt><trkpt lat="43.39816408577415" lon="10.631111526424405"><ele>471.0</ele><time>2026-04-18T13:27:35Z</time></trkpt><trkpt lat="43.39820035564109" lon="10.631019833043322"><ele>472.3333333333333</ele><time>2026-04-18T13:27:36Z</time></trkpt><trkpt lat="43.39822513736249" lon="10.630920297182575"><ele>473.66666666666663</ele><time>2026-04-18T13:27:37Z</time></trkpt><trkpt lat="43.39824173373701" lon="10.630824146846033"><ele>475.0</ele><time>2026-04-18T13:27:38Z</time></trkpt><trkpt lat="43.39825137939795" lon="10.63071075034831"><ele>476.3333333333333</ele><time>2026-04-18T13:27:39Z</time></trkpt><trkpt lat="43.398225353710934" lon="10.630568596542659"><ele>477.66666666666663</ele><time>2026-04-18T13:27:40Z</time></trkpt><trkpt lat="43.39819859444712" lon="10.630432642619372"><ele>479.0</ele><time>2026-04-18T13:27:41Z</time></trkpt><trkpt lat="43.39816662391988" lon="10.630293272706165"><ele>481.4</ele><time>2026-04-18T13:27:42Z</time></trkpt><trkpt lat="43.398131243966084" lon="10.630194161415133"><ele>483.79999999999995</ele><time>2026-04-18T13:27:43Z</time></trkpt><trkpt lat="43.39811250445939" lon="10.630084022114369"><ele>486.20000000000005</ele><time>2026-04-18T13:27:44Z</time></trkpt><trkpt lat="43.39811360455395" lon="10.629960983709596"><ele>488.6</ele><time>2026-04-18T13:27:45Z</time></trkpt><trkpt lat="43.39814741528819" lon="10.629834656474646"><ele>491.0</ele><time>2026-04-18T13:27:46Z</time></trkpt><trkpt lat="43.398142969102494" lon="10.629644431274967"><ele>491.0</ele><time>2026-04-18T13:27:48Z</time></trkpt><trkpt lat="43.39815869674849" lon="10.629505296041284"><ele>491.0</ele><time>2026-04-18T13:27:49Z</time></trkpt><trkpt lat="43.398156578503496" lon="10.629359015266514"><ele>491.0</ele><time>2026-04-18T13:27:50Z</time></trkpt><trkpt lat="43.39815367690701" lon="10.629202912421649"><ele>491.0</ele><time>2026-04-18T13:27:51Z</time></trkpt><trkpt lat="43.39814657918182" lon="10.629032569726467"><ele>491.0</ele><time>2026-04-18T13:27:52Z</time></trkpt><trkpt lat="43.39813599791212" lon="10.628842022883227"><ele>492.0</ele><time>2026-04-18T13:27:53Z</time></trkpt><trkpt lat="43.39813180231386" lon="10.628645956481034"><ele>493.0</ele><time>2026-04-18T13:27:54Z</time></trkpt><trkpt lat="43.398137449443055" lon="10.628451606746772"><ele>494.0</ele><time>2026-04-18T13:27:55Z</time></trkpt><trkpt lat="43.39813884163931" lon="10.628259473167384"><ele>495.0</ele><time>2026-04-18T13:27:56Z</time></trkpt><trkpt lat="43.39808636925505" lon="10.628093000509073"><ele>495.3333333333333</ele><time>2026-04-18T13:27:57Z</time></trkpt><trkpt lat="43.398105960872115" lon="10.627994426817786"><ele>495.66666666666663</ele><time>2026-04-18T13:27:58Z</time></trkpt><trkpt lat="43.398165033211356" lon="10.627872421352588"><ele>496.0</ele><time>2026-04-18T13:27:59Z</time></trkpt><trkpt lat="43.39823386829619" lon="10.627831030780309"><ele>496.3333333333333</ele><time>2026-04-18T13:28:00Z</time></trkpt><trkpt lat="43.39817557456407" lon="10.627775394867822"><ele>496.66666666666663</ele><time>2026-04-18T13:28:02Z</time></trkpt><trkpt lat="43.39812178586583" lon="10.627695555146571"><ele>497.0</ele><time>2026-04-18T13:28:04Z</time></trkpt><trkpt lat="43.398054263876546" lon="10.62770235679729"><ele>496.99999999999994</ele><time>2026-04-18T13:28:19Z</time></trkpt><trkpt lat="43.39806011113808" lon="10.627798518656626"><ele>497.0</ele><time>2026-04-18T13:28:26Z</time></trkpt><trkpt lat="43.39803398777394" lon="10.627896125842026"><ele>497.0</ele><time>2026-04-18T13:28:59Z</time></trkpt><trkpt lat="43.39808338978605" lon="10.627774393856727"><ele>497.0</ele><time>2026-04-18T13:29:02Z</time></trkpt><trkpt lat="43.39812628790174" lon="10.627705042098011"><ele>496.99999999999994</ele><time>2026-04-18T13:29:05Z</time></trkpt><trkpt lat="43.39818768363111" lon="10.627646676196033"><ele>497.0</ele><time>2026-04-18T13:33:07.001Z</time></trkpt><trkpt lat="43.39811360412075" lon="10.627555810489747"><ele>497.8</ele><time>2026-04-18T13:33:09.001Z</time></trkpt><trkpt lat="43.39806550370072" lon="10.627497874348359"><ele>498.6</ele><time>2026-04-18T13:33:10.001Z</time></trkpt><trkpt lat="43.39801296982599" lon="10.627340358143732"><ele>499.40000000000003</ele><time>2026-04-18T13:33:12.001Z</time></trkpt><trkpt lat="43.3979598976723" lon="10.627170491826119"><ele>500.20000000000005</ele><time>2026-04-18T13:33:14.001Z</time></trkpt><trkpt lat="43.397929520624494" lon="10.627060866321603"><ele>501.0</ele><time>2026-04-18T13:33:15.001Z</time></trkpt><trkpt lat="43.39791489378943" lon="10.626939860899897"><ele>502.6</ele><time>2026-04-18T13:33:16.001Z</time></trkpt><trkpt lat="43.397956603868266" lon="10.62683081305684"><ele>504.20000000000005</ele><time>2026-04-18T13:33:17.001Z</time></trkpt><trkpt lat="43.39802669703212" lon="10.626737979608482"><ele>505.79999999999995</ele><time>2026-04-18T13:33:18Z</time></trkpt><trkpt lat="43.39809228395021" lon="10.626649644765575"><ele>507.4</ele><time>2026-04-18T13:33:19Z</time></trkpt><trkpt lat="43.39815311664123" lon="10.626574862777385"><ele>509.0</ele><time>2026-04-18T13:33:20Z</time></trkpt><trkpt lat="43.398238974890944" lon="10.62651979550173"><ele>509.4</ele><time>2026-04-18T13:33:21Z</time></trkpt><trkpt lat="43.39831814403323" lon="10.626448042652394"><ele>509.79999999999995</ele><time>2026-04-18T13:33:22Z</time></trkpt><trkpt lat="43.39841354468955" lon="10.62635803327399"><ele>510.20000000000005</ele><time>2026-04-18T13:33:23Z</time></trkpt><trkpt lat="43.39850291349315" lon="10.626234201800022"><ele>510.6</ele><time>2026-04-18T13:33:24Z</time></trkpt><trkpt lat="43.39854444476349" lon="10.626125292709137"><ele>511.0</ele><time>2026-04-18T13:33:25Z</time></trkpt><trkpt lat="43.39855827109957" lon="10.625998095273546"><ele>512.8333333333334</ele><time>2026-04-18T13:33:26Z</time></trkpt><trkpt lat="43.398521958118145" lon="10.625874799452601"><ele>514.6666666666667</ele><time>2026-04-18T13:33:28Z</time></trkpt><trkpt lat="43.39842006730158" lon="10.625861225576973"><ele>516.5</ele><time>2026-04-18T13:33:30Z</time></trkpt><trkpt lat="43.39835917756961" lon="10.625884525843832"><ele>518.3333333333334</ele><time>2026-04-18T13:33:31Z</time></trkpt><trkpt lat="43.39825549502982" lon="10.625920740897138"><ele>520.1666666666666</ele><time>2026-04-18T13:33:33Z</time></trkpt><trkpt lat="43.39818729455194" lon="10.62590542261527"><ele>522.0</ele><time>2026-04-18T13:33:34Z</time></trkpt><trkpt lat="43.398120830658456" lon="10.625839407231853"><ele>522.0</ele><time>2026-04-18T13:33:35Z</time></trkpt><trkpt lat="43.39807568251878" lon="10.625733015294898"><ele>522.0</ele><time>2026-04-18T13:33:36Z</time></trkpt><trkpt lat="43.39806155104682" lon="10.625610674707923"><ele>522.0</ele><time>2026-04-18T13:33:37Z</time></trkpt><trkpt lat="43.398063636054005" lon="10.625493526826936"><ele>522.0</ele><time>2026-04-18T13:33:38Z</time></trkpt><trkpt lat="43.39807738878694" lon="10.625375993107859"><ele>522.0</ele><time>2026-04-18T13:33:39Z</time></trkpt><trkpt lat="43.39807546228394" lon="10.625260219930983"><ele>522.0</ele><time>2026-04-18T13:33:40Z</time></trkpt><trkpt lat="43.398073274828576" lon="10.625144449989268"><ele>523.0</ele><time>2026-04-18T13:33:41Z</time></trkpt><trkpt lat="43.3980697774277" lon="10.625038134872984"><ele>524.0</ele><time>2026-04-18T13:33:42Z</time></trkpt><trkpt lat="43.39807607348149" lon="10.62492687361168"><ele>525.0</ele><time>2026-04-18T13:33:43Z</time></trkpt><trkpt lat="43.39807680176209" lon="10.624804454910114"><ele>526.0</ele><time>2026-04-18T13:33:44Z</time></trkpt><trkpt lat="43.39808561618426" lon="10.624698238156125"><ele>527.0</ele><time>2026-04-18T13:33:45Z</time></trkpt><trkpt lat="43.39808835383324" lon="10.624582474038966"><ele>528.0</ele><time>2026-04-18T13:33:46Z</time></trkpt><trkpt lat="43.39809242742939" lon="10.62448973573565"><ele>528.6666666666666</ele><time>2026-04-18T13:33:47Z</time></trkpt><trkpt lat="43.398109550141534" lon="10.624348014650092"><ele>529.3333333333334</ele><time>2026-04-18T13:33:49Z</time></trkpt><trkpt lat="43.39809319229482" lon="10.624253476757405"><ele>530.0</ele><time>2026-04-18T13:36:06Z</time></trkpt><trkpt lat="43.39806732319412" lon="10.62415010119831"><ele>530.6666666666667</ele><time>2026-04-18T13:36:10Z</time></trkpt><trkpt lat="43.39803605223919" lon="10.624051334098317"><ele>531.3333333333334</ele><time>2026-04-18T13:36:14Z</time></trkpt><trkpt lat="43.39801615528679" lon="10.623967248284002"><ele>532.0</ele><time>2026-04-18T13:36:17Z</time></trkpt><trkpt lat="43.39800738301851" lon="10.623813124864522"><ele>532.0</ele><time>2026-04-18T13:36:19Z</time></trkpt><trkpt lat="43.39801096473613" lon="10.62371913977513"><ele>532.0</ele><time>2026-04-18T13:36:20Z</time></trkpt><trkpt lat="43.39803759579476" lon="10.623626942673496"><ele>532.0</ele><time>2026-04-18T13:36:21Z</time></trkpt><trkpt lat="43.39810285081713" lon="10.623552646063175"><ele>532.0</ele><time>2026-04-18T13:36:22Z</time></trkpt><trkpt lat="43.39818409991102" lon="10.623477197907816"><ele>532.0</ele><time>2026-04-18T13:36:23Z</time></trkpt><trkpt lat="43.398089644867554" lon="10.623525149557878"><ele>532.0</ele><time>2026-04-18T13:36:51Z</time></trkpt><trkpt lat="43.39803832631761" lon="10.623597520157219"><ele>532.4</ele><time>2026-04-18T13:36:53Z</time></trkpt><trkpt lat="43.39809908220882" lon="10.623529536334072"><ele>532.8000000000001</ele><time>2026-04-18T13:37:21Z</time></trkpt><trkpt lat="43.398154497772225" lon="10.623442764829269"><ele>533.2</ele><time>2026-04-18T13:37:22Z</time></trkpt><trkpt lat="43.39823371467362" lon="10.623346988180444"><ele>533.6</ele><time>2026-04-18T13:37:23Z</time></trkpt><trkpt lat="43.39831772595557" lon="10.623187207302449"><ele>534.0</ele><time>2026-04-18T13:37:24Z</time></trkpt><trkpt lat="43.3984430995867" lon="10.62300728097741"><ele>534.0</ele><time>2026-04-18T13:37:25Z</time></trkpt><trkpt lat="43.39858392289903" lon="10.622855419435231"><ele>534.0</ele><time>2026-04-18T13:37:26Z</time></trkpt><trkpt lat="43.398713300373736" lon="10.622719990935344"><ele>534.0</ele><time>2026-04-18T13:37:27Z</time></trkpt><trkpt lat="43.3984799177937" lon="10.622674963054777"><ele>534.5</ele><time>2026-04-18T13:37:28Z</time></trkpt><trkpt lat="43.39844407219615" lon="10.622521242557218"><ele>535.0</ele><time>2026-04-18T13:37:29Z</time></trkpt><trkpt lat="43.39841458803974" lon="10.622320760535493"><ele>535.5</ele><time>2026-04-18T13:37:30Z</time></trkpt><trkpt lat="43.39843399554138" lon="10.622145351156695"><ele>536.0</ele><time>2026-04-18T13:37:31Z</time></trkpt><trkpt lat="43.398498986288054" lon="10.622003304718016"><ele>536.0</ele><time>2026-04-18T13:37:32Z</time></trkpt><trkpt lat="43.39855446549326" lon="10.621913061328751"><ele>536.0</ele><time>2026-04-18T13:37:33Z</time></trkpt><trkpt lat="43.39862927138982" lon="10.621785907403673"><ele>536.0</ele><time>2026-04-18T13:37:34Z</time></trkpt><trkpt lat="43.398726630805804" lon="10.62164041890472"><ele>536.0</ele><time>2026-04-18T13:37:35Z</time></trkpt><trkpt lat="43.398783470454674" lon="10.62149537118993"><ele>536.0</ele><time>2026-04-18T13:37:36Z</time></trkpt><trkpt lat="43.39878974107421" lon="10.621341042183962"><ele>536.0</ele><time>2026-04-18T13:37:37Z</time></trkpt><trkpt lat="43.39875658847329" lon="10.62119082367622"><ele>536.0</ele><time>2026-04-18T13:37:38Z</time></trkpt><trkpt lat="43.398720864279404" lon="10.621028955434879"><ele>536.0</ele><time>2026-04-18T13:37:39Z</time></trkpt><trkpt lat="43.398759121694674" lon="10.620837642441838"><ele>536.25</ele><time>2026-04-18T13:37:40Z</time></trkpt><trkpt lat="43.39881798430608" lon="10.620677557198768"><ele>536.5</ele><time>2026-04-18T13:37:41Z</time></trkpt><trkpt lat="43.39890108505624" lon="10.620533435197729"><ele>536.75</ele><time>2026-04-18T13:37:42Z</time></trkpt><trkpt lat="43.399007525046684" lon="10.620372173710049"><ele>537.0</ele><time>2026-04-18T13:37:43Z</time></trkpt><trkpt lat="43.39909928217995" lon="10.620233426018329"><ele>535.6666666666666</ele><time>2026-04-18T13:37:44Z</time></trkpt><trkpt lat="43.39920765805475" lon="10.620067140174442"><ele>534.3333333333333</ele><time>2026-04-18T13:37:45Z</time></trkpt><trkpt lat="43.399284685168475" lon="10.61986513494037"><ele>533.0</ele><time>2026-04-18T13:37:46Z</time></trkpt><trkpt lat="43.39935812501112" lon="10.61968678349963"><ele>533.0</ele><time>2026-04-18T13:37:47Z</time></trkpt><trkpt lat="43.39941979692477" lon="10.619545197711524"><ele>533.0</ele><time>2026-04-18T13:37:48Z</time></trkpt><trkpt lat="43.39946374169277" lon="10.619379980286983"><ele>533.0</ele><time>2026-04-18T13:37:49Z</time></trkpt><trkpt lat="43.39948069485432" lon="10.619185547602864"><ele>533.0</ele><time>2026-04-18T13:37:50Z</time></trkpt><trkpt lat="43.39949014993894" lon="10.6189820522234"><ele>532.8333333333333</ele><time>2026-04-18T13:37:51Z</time></trkpt><trkpt lat="43.39947407205531" lon="10.61882791683763"><ele>532.6666666666666</ele><time>2026-04-18T13:37:52Z</time></trkpt><trkpt lat="43.399468177511245" lon="10.618716537473393"><ele>532.5</ele><time>2026-04-18T13:37:53Z</time></trkpt><trkpt lat="43.39951820378135" lon="10.61860428845536"><ele>532.3333333333334</ele><time>2026-04-18T13:46:23Z</time></trkpt><trkpt lat="43.3995338080791" lon="10.618505524014862"><ele>532.1666666666667</ele><time>2026-04-18T13:46:25Z</time></trkpt><trkpt lat="43.39960212836968" lon="10.618502118017087"><ele>532.0</ele><time>2026-04-18T13:46:27Z</time></trkpt><trkpt lat="43.39970089155811" lon="10.618606359963449"><ele>533.0</ele><time>2026-04-18T13:46:29Z</time></trkpt><trkpt lat="43.39976741322878" lon="10.618664604044026"><ele>534.0</ele><time>2026-04-18T13:46:30Z</time></trkpt><trkpt lat="43.39985466044086" lon="10.61872286784422"><ele>535.0</ele><time>2026-04-18T13:46:31Z</time></trkpt><trkpt lat="43.3999582729366" lon="10.618795853704528"><ele>536.0</ele><time>2026-04-18T13:46:32Z</time></trkpt><trkpt lat="43.40007176481811" lon="10.618869908264038"><ele>537.0</ele><time>2026-04-18T13:46:33Z</time></trkpt><trkpt lat="43.40018433771978" lon="10.618952029039567"><ele>537.0</ele><time>2026-04-18T13:46:34Z</time></trkpt><trkpt lat="43.40029967251183" lon="10.619066711397084"><ele>537.0</ele><time>2026-04-18T13:46:35Z</time></trkpt><trkpt lat="43.4004276442306" lon="10.619176130465247"><ele>537.0</ele><time>2026-04-18T13:46:36Z</time></trkpt><trkpt lat="43.400572487668775" lon="10.619255911994946"><ele>537.0</ele><time>2026-04-18T13:46:37Z</time></trkpt><trkpt lat="43.40071042744928" lon="10.619297549113044"><ele>535.0</ele><time>2026-04-18T13:46:38Z</time></trkpt><trkpt lat="43.40085061360652" lon="10.61929460377884"><ele>533.0</ele><time>2026-04-18T13:46:39Z</time></trkpt><trkpt lat="43.40097126951572" lon="10.619287677148707"><ele>531.0</ele><time>2026-04-18T13:46:40Z</time></trkpt><trkpt lat="43.40108384172575" lon="10.61926364712956"><ele>529.0</ele><time>2026-04-18T13:46:41Z</time></trkpt><trkpt lat="43.40118749996852" lon="10.619192979889597"><ele>529.0</ele><time>2026-04-18T13:46:42Z</time></trkpt><trkpt lat="43.40127993627045" lon="10.619131275313917"><ele>529.0</ele><time>2026-04-18T13:46:43Z</time></trkpt><trkpt lat="43.401370178399006" lon="10.61912543796685"><ele>529.0</ele><time>2026-04-18T13:46:44Z</time></trkpt><trkpt lat="43.40145605388219" lon="10.619168543422509"><ele>529.0</ele><time>2026-04-18T13:46:45Z</time></trkpt><trkpt lat="43.401558241643535" lon="10.619258773603175"><ele>529.0</ele><time>2026-04-18T13:46:46Z</time></trkpt><trkpt lat="43.40167125080957" lon="10.619334102468278"><ele>527.5</ele><time>2026-04-18T13:46:47Z</time></trkpt><trkpt lat="43.40180561202433" lon="10.619441429028303"><ele>526.0</ele><time>2026-04-18T13:46:48Z</time></trkpt><trkpt lat="43.40193956631435" lon="10.61954418415189"><ele>524.5</ele><time>2026-04-18T13:46:49Z</time></trkpt><trkpt lat="43.402062302719635" lon="10.6196342249345"><ele>523.0</ele><time>2026-04-18T13:46:50Z</time></trkpt><trkpt lat="43.402180617331574" lon="10.619707411016615"><ele>517.25</ele><time>2026-04-18T13:46:51Z</time></trkpt><trkpt lat="43.40230008427808" lon="10.61978371937993"><ele>511.5</ele><time>2026-04-18T13:46:52Z</time></trkpt><trkpt lat="43.4024054098762" lon="10.619880510811644"><ele>505.75</ele><time>2026-04-18T13:46:53Z</time></trkpt><trkpt lat="43.402490439133935" lon="10.620002742783727"><ele>500.0</ele><time>2026-04-18T13:46:54Z</time></trkpt><trkpt lat="43.40258679361669" lon="10.620137320804242"><ele>500.0</ele><time>2026-04-18T13:46:55Z</time></trkpt><trkpt lat="43.402675146046015" lon="10.620299848207637"><ele>500.0</ele><time>2026-04-18T13:46:56Z</time></trkpt><trkpt lat="43.40275288356523" lon="10.620484062556931"><ele>500.0</ele><time>2026-04-18T13:46:57Z</time></trkpt><trkpt lat="43.40281498795246" lon="10.620645251660886"><ele>500.0</ele><time>2026-04-18T13:46:58Z</time></trkpt><trkpt lat="43.402880945439186" lon="10.620785798590317"><ele>499.5</ele><time>2026-04-18T13:46:59Z</time></trkpt><trkpt lat="43.40292009789584" lon="10.62092705043261"><ele>499.0</ele><time>2026-04-18T13:47:00Z</time></trkpt><trkpt lat="43.40294062532377" lon="10.621091400536407"><ele>498.5</ele><time>2026-04-18T13:47:01Z</time></trkpt><trkpt lat="43.40294159764585" lon="10.621283744597115"><ele>498.0</ele><time>2026-04-18T13:47:02Z</time></trkpt><trkpt lat="43.402956187676345" lon="10.621523550850384"><ele>496.33333333333337</ele><time>2026-04-18T13:47:03Z</time></trkpt><trkpt lat="43.402968286981015" lon="10.621762428261892"><ele>494.6666666666667</ele><time>2026-04-18T13:47:04Z</time></trkpt><trkpt lat="43.4029862449518" lon="10.622011760067883"><ele>493.0</ele><time>2026-04-18T13:47:05Z</time></trkpt><trkpt lat="43.40298546298714" lon="10.62221689863837"><ele>492.33333333333337</ele><time>2026-04-18T13:47:06Z</time></trkpt><trkpt lat="43.402975889086335" lon="10.622413186124549"><ele>491.66666666666663</ele><time>2026-04-18T13:47:07Z</time></trkpt><trkpt lat="43.40294440290342" lon="10.622604371179271"><ele>491.0</ele><time>2026-04-18T13:47:08Z</time></trkpt><trkpt lat="43.40287126977723" lon="10.622813642746607"><ele>490.75</ele><time>2026-04-18T13:47:09Z</time></trkpt><trkpt lat="43.40279264845545" lon="10.622989571364334"><ele>490.5</ele><time>2026-04-18T13:47:10Z</time></trkpt><trkpt lat="43.40273179746025" lon="10.623156374523411"><ele>490.25</ele><time>2026-04-18T13:47:11Z</time></trkpt><trkpt lat="43.40272197945334" lon="10.623333757438516"><ele>490.0</ele><time>2026-04-18T13:47:11.999Z</time></trkpt><trkpt lat="43.40273423728994" lon="10.623540154553625"><ele>490.0</ele><time>2026-04-18T13:47:12.999Z</time></trkpt><trkpt lat="43.4027694247181" lon="10.623752907326486"><ele>490.0</ele><time>2026-04-18T13:47:13.999Z</time></trkpt><trkpt lat="43.402814622597276" lon="10.62393796493838"><ele>490.0</ele><time>2026-04-18T13:47:14.999Z</time></trkpt><trkpt lat="43.40285777767976" lon="10.624097046389725"><ele>490.0</ele><time>2026-04-18T13:47:15.999Z</time></trkpt><trkpt lat="43.402885297906536" lon="10.624252245519411"><ele>490.0</ele><time>2026-04-18T13:47:16.999Z</time></trkpt><trkpt lat="43.40290371387734" lon="10.624395837105736"><ele>490.0</ele><time>2026-04-18T13:47:17.999Z</time></trkpt><trkpt lat="43.40294133889267" lon="10.624548984542308"><ele>490.0</ele><time>2026-04-18T13:47:18.999Z</time></trkpt><trkpt lat="43.40300782654527" lon="10.624719912711805"><ele>490.0</ele><time>2026-04-18T13:47:19.999Z</time></trkpt><trkpt lat="43.40310222290654" lon="10.624901903621272"><ele>490.75</ele><time>2026-04-18T13:47:20.999Z</time></trkpt><trkpt lat="43.40316032557837" lon="10.625069217156797"><ele>491.5</ele><time>2026-04-18T13:47:21.999Z</time></trkpt><trkpt lat="43.403184228572954" lon="10.625216240062512"><ele>492.25</ele><time>2026-04-18T13:47:22.999Z</time></trkpt><trkpt lat="43.403220680684846" lon="10.625372164229052"><ele>493.0</ele><time>2026-04-18T13:47:23.999Z</time></trkpt><trkpt lat="43.40328981294815" lon="10.62553453650523"><ele>486.6666666666667</ele><time>2026-04-18T13:47:24.999Z</time></trkpt><trkpt lat="43.40341133864077" lon="10.625704074083062"><ele>480.33333333333337</ele><time>2026-04-18T13:47:25.999Z</time></trkpt><trkpt lat="43.40352501842883" lon="10.625885622748369"><ele>474.0</ele><time>2026-04-18T13:47:26.999Z</time></trkpt><trkpt lat="43.40363510687221" lon="10.626091325239097"><ele>477.0</ele><time>2026-04-18T13:47:27.999Z</time></trkpt><trkpt lat="43.40376430473185" lon="10.626320263926313"><ele>480.0</ele><time>2026-04-18T13:47:28.999Z</time></trkpt><trkpt lat="43.40387421263076" lon="10.62654488445603"><ele>483.0</ele><time>2026-04-18T13:47:29.999Z</time></trkpt><trkpt lat="43.40395536334847" lon="10.626727507069365"><ele>483.0</ele><time>2026-04-18T13:47:30.999Z</time></trkpt><trkpt lat="43.40403896811706" lon="10.62687145870952"><ele>483.0</ele><time>2026-04-18T13:47:31.999Z</time></trkpt><trkpt lat="43.40412791282464" lon="10.626970953014759"><ele>483.0</ele><time>2026-04-18T13:47:32.999Z</time></trkpt><trkpt lat="43.404235908089525" lon="10.627080210291249"><ele>483.0</ele><time>2026-04-18T13:47:33.999Z</time></trkpt><trkpt lat="43.404338617312504" lon="10.62719680945763"><ele>479.5</ele><time>2026-04-18T13:47:34.999Z</time></trkpt><trkpt lat="43.404436104864814" lon="10.627311372443529"><ele>476.0</ele><time>2026-04-18T13:47:35.999Z</time></trkpt><trkpt lat="43.40453504135152" lon="10.62737607103497"><ele>472.5</ele><time>2026-04-18T13:47:36.999Z</time></trkpt><trkpt lat="43.404671446812834" lon="10.627398269170463"><ele>469.0</ele><time>2026-04-18T13:47:37.999Z</time></trkpt><trkpt lat="43.40482177232344" lon="10.627395490793338"><ele>469.0</ele><time>2026-04-18T13:47:38.999Z</time></trkpt><trkpt lat="43.404976701806795" lon="10.627403453897973"><ele>469.0</ele><time>2026-04-18T13:47:39.999Z</time></trkpt><trkpt lat="43.4051145803818" lon="10.627439280938457"><ele>469.0</ele><time>2026-04-18T13:47:40.999Z</time></trkpt><trkpt lat="43.40523409728173" lon="10.627512098965305"><ele>469.0</ele><time>2026-04-18T13:47:41.999Z</time></trkpt><trkpt lat="43.405330201380345" lon="10.62762367958918"><ele>469.0</ele><time>2026-04-18T13:47:42.999Z</time></trkpt><trkpt lat="43.40540231546606" lon="10.627775882053538"><ele>469.0</ele><time>2026-04-18T13:47:43.999Z</time></trkpt><trkpt lat="43.40545653409791" lon="10.627980030791152"><ele>469.0</ele><time>2026-04-18T13:47:44.999Z</time></trkpt><trkpt lat="43.405486932116055" lon="10.62816672881792"><ele>469.0</ele><time>2026-04-18T13:47:45.999Z</time></trkpt><trkpt lat="43.40553090777142" lon="10.628326420854599"><ele>465.79999999999995</ele><time>2026-04-18T13:47:46.999Z</time></trkpt><trkpt lat="43.405602233428255" lon="10.628423359754642"><ele>462.59999999999997</ele><time>2026-04-18T13:47:47.999Z</time></trkpt><trkpt lat="43.40568705369376" lon="10.62848030436553"><ele>459.4</ele><time>2026-04-18T13:47:48.999Z</time></trkpt><trkpt lat="43.405776791113986" lon="10.628503136344198"><ele>456.2</ele><time>2026-04-18T13:47:49.999Z</time></trkpt><trkpt lat="43.40586842721404" lon="10.628507354442013"><ele>453.0</ele><time>2026-04-18T13:47:50.999Z</time></trkpt><trkpt lat="43.405975508168055" lon="10.628529289020234"><ele>453.0</ele><time>2026-04-18T13:47:51.999Z</time></trkpt><trkpt lat="43.406109183802" lon="10.628564660500654"><ele>453.0</ele><time>2026-04-18T13:47:52.999Z</time></trkpt><trkpt lat="43.406252122848024" lon="10.628609058543365"><ele>453.0</ele><time>2026-04-18T13:47:54Z</time></trkpt><trkpt lat="43.40639061246915" lon="10.6286375623832"><ele>453.0</ele><time>2026-04-18T13:47:55Z</time></trkpt><trkpt lat="43.40651854065304" lon="10.628672199644479"><ele>449.75</ele><time>2026-04-18T13:47:56Z</time></trkpt><trkpt lat="43.406622838869005" lon="10.62875152849653"><ele>446.5</ele><time>2026-04-18T13:47:57Z</time></trkpt><trkpt lat="43.406705702126665" lon="10.628877803942965"><ele>443.25</ele><time>2026-04-18T13:47:58Z</time></trkpt><trkpt lat="43.406780168974585" lon="10.629046682283194"><ele>440.0</ele><time>2026-04-18T13:47:59Z</time></trkpt><trkpt lat="43.40688227816031" lon="10.62921727813308"><ele>440.0</ele><time>2026-04-18T13:48:00Z</time></trkpt><trkpt lat="43.406994220032075" lon="10.629392464378979"><ele>440.0</ele><time>2026-04-18T13:48:01Z</time></trkpt><trkpt lat="43.407107280215676" lon="10.629576330599333"><ele>440.0</ele><time>2026-04-18T13:48:02Z</time></trkpt><trkpt lat="43.407218483212134" lon="10.62976389291375"><ele>436.66666666666663</ele><time>2026-04-18T13:48:03Z</time></trkpt><trkpt lat="43.40733729766443" lon="10.629960960261425"><ele>433.33333333333337</ele><time>2026-04-18T13:48:04Z</time></trkpt><trkpt lat="43.40743466631757" lon="10.630138922466925"><ele>430.0</ele><time>2026-04-18T13:48:05Z</time></trkpt><trkpt lat="43.407552888505066" lon="10.630323967595057"><ele>430.0</ele><time>2026-04-18T13:48:06Z</time></trkpt><trkpt lat="43.407657713910126" lon="10.630489712645764"><ele>430.0</ele><time>2026-04-18T13:48:07Z</time></trkpt><trkpt lat="43.407754432672974" lon="10.63063678215071"><ele>430.0</ele><time>2026-04-18T13:48:08Z</time></trkpt><trkpt lat="43.407859834815575" lon="10.63080624351136"><ele>430.0</ele><time>2026-04-18T13:48:09Z</time></trkpt><trkpt lat="43.40794652050751" lon="10.630978748987264"><ele>430.0</ele><time>2026-04-18T13:48:10Z</time></trkpt><trkpt lat="43.407997129050486" lon="10.63115047070544"><ele>430.0</ele><time>2026-04-18T13:48:11Z</time></trkpt><trkpt lat="43.40808711660566" lon="10.631278272721532"><ele>430.0</ele><time>2026-04-18T13:48:12Z</time></trkpt><trkpt lat="43.40822026242912" lon="10.631386232383306"><ele>426.6666666666667</ele><time>2026-04-18T13:48:13Z</time></trkpt><trkpt lat="43.408388778843864" lon="10.63148108830831"><ele>423.33333333333337</ele><time>2026-04-18T13:48:14Z</time></trkpt><trkpt lat="43.40853442734632" lon="10.631574643053815"><ele>420.0</ele><time>2026-04-18T13:48:15Z</time></trkpt><trkpt lat="43.40864888620056" lon="10.631674835517627"><ele>420.0</ele><time>2026-04-18T13:48:16Z</time></trkpt><trkpt lat="43.408762472290185" lon="10.631748218793629"><ele>420.0</ele><time>2026-04-18T13:48:17Z</time></trkpt><trkpt lat="43.4088885159352" lon="10.63176171105779"><ele>420.0</ele><time>2026-04-18T13:48:18Z</time></trkpt><trkpt lat="43.40903177368899" lon="10.631736663675891"><ele>420.0</ele><time>2026-04-18T13:48:19Z</time></trkpt><trkpt lat="43.409191268495015" lon="10.631651564205297"><ele>416.75</ele><time>2026-04-18T13:48:20Z</time></trkpt><trkpt lat="43.409340141143495" lon="10.631606494263925"><ele>413.5</ele><time>2026-04-18T13:48:21Z</time></trkpt><trkpt lat="43.40947690811585" lon="10.631578423377743"><ele>410.25</ele><time>2026-04-18T13:48:22Z</time></trkpt><trkpt lat="43.409597833082" lon="10.63154783871803"><ele>407.0</ele><time>2026-04-18T13:48:23Z</time></trkpt><trkpt lat="43.409712707741406" lon="10.631502360378706"><ele>404.5</ele><time>2026-04-18T13:48:24Z</time></trkpt><trkpt lat="43.40981824571728" lon="10.631496272862387"><ele>402.0</ele><time>2026-04-18T13:48:25Z</time></trkpt><trkpt lat="43.40991353965877" lon="10.631558504555633"><ele>399.5</ele><time>2026-04-18T13:48:26Z</time></trkpt><trkpt lat="43.40998989576473" lon="10.631683220742987"><ele>397.0</ele><time>2026-04-18T13:48:27Z</time></trkpt><trkpt lat="43.410059875075326" lon="10.631859475513922"><ele>399.0</ele><time>2026-04-18T13:48:28Z</time></trkpt><trkpt lat="43.410120857836404" lon="10.632072237842282"><ele>401.0</ele><time>2026-04-18T13:48:29Z</time></trkpt><trkpt lat="43.4101819452271" lon="10.632268400010327"><ele>403.0</ele><time>2026-04-18T13:48:30Z</time></trkpt><trkpt lat="43.410241936932316" lon="10.632437994021789"><ele>403.0</ele><time>2026-04-18T13:48:31Z</time></trkpt><trkpt lat="43.410325818428184" lon="10.632563985474667"><ele>403.0</ele><time>2026-04-18T13:48:32Z</time></trkpt><trkpt lat="43.410464013841256" lon="10.63264385744272"><ele>403.0</ele><time>2026-04-18T13:48:33Z</time></trkpt><trkpt lat="43.41062958455452" lon="10.632708944583019"><ele>403.0</ele><time>2026-04-18T13:48:34Z</time></trkpt><trkpt lat="43.41078547493741" lon="10.63275553621557"><ele>398.75</ele><time>2026-04-18T13:48:34.999Z</time></trkpt><trkpt lat="43.41090925796886" lon="10.632807317987965"><ele>394.5</ele><time>2026-04-18T13:48:35.999Z</time></trkpt><trkpt lat="43.41102881635099" lon="10.632889377601517"><ele>390.25</ele><time>2026-04-18T13:48:36.999Z</time></trkpt><trkpt lat="43.41111021688728" lon="10.633036121199744"><ele>386.0</ele><time>2026-04-18T13:48:37.999Z</time></trkpt><trkpt lat="43.411170363613536" lon="10.633225774825412"><ele>386.0</ele><time>2026-04-18T13:48:38.999Z</time></trkpt><trkpt lat="43.411212349798134" lon="10.633440946363168"><ele>386.0</ele><time>2026-04-18T13:48:39.999Z</time></trkpt><trkpt lat="43.41127417151734" lon="10.633649373704126"><ele>386.0</ele><time>2026-04-18T13:48:40.999Z</time></trkpt><trkpt lat="43.41133245745521" lon="10.63382066925904"><ele>384.75</ele><time>2026-04-18T13:48:41.999Z</time></trkpt><trkpt lat="43.41137485637306" lon="10.633990825999234"><ele>383.5</ele><time>2026-04-18T13:48:42.999Z</time></trkpt><trkpt lat="43.41139799054573" lon="10.634199485590049"><ele>382.25</ele><time>2026-04-18T13:48:43.999Z</time></trkpt><trkpt lat="43.411428488998396" lon="10.634410750202143"><ele>381.0</ele><time>2026-04-18T13:48:44.999Z</time></trkpt><trkpt lat="43.411496697246484" lon="10.634600302572226"><ele>381.0</ele><time>2026-04-18T13:48:45.999Z</time></trkpt><trkpt lat="43.41160225213531" lon="10.634780488656814"><ele>381.0</ele><time>2026-04-18T13:48:46.999Z</time></trkpt><trkpt lat="43.41169027500905" lon="10.634954229854477"><ele>381.0</ele><time>2026-04-18T13:48:47.999Z</time></trkpt><trkpt lat="43.41175800446251" lon="10.63510735433971"><ele>381.0</ele><time>2026-04-18T13:48:48.999Z</time></trkpt><trkpt lat="43.41182355335264" lon="10.635238485294858"><ele>381.0</ele><time>2026-04-18T13:48:49.999Z</time></trkpt><trkpt lat="43.411875058262964" lon="10.63533897965394"><ele>381.0</ele><time>2026-04-18T13:48:50.999Z</time></trkpt><trkpt lat="43.4119098525076" lon="10.635474532627779"><ele>381.0</ele><time>2026-04-18T13:48:51.999Z</time></trkpt><trkpt lat="43.411912096073614" lon="10.635645885196965"><ele>381.0</ele><time>2026-04-18T13:48:52.999Z</time></trkpt><trkpt lat="43.41191565966951" lon="10.635839336901633"><ele>381.75</ele><time>2026-04-18T13:48:53.999Z</time></trkpt><trkpt lat="43.41195380080491" lon="10.63601496473309"><ele>382.5</ele><time>2026-04-18T13:48:54.999Z</time></trkpt><trkpt lat="43.41200867680788" lon="10.636192661058221"><ele>383.25</ele><time>2026-04-18T13:48:55.999Z</time></trkpt><trkpt lat="43.4120562374851" lon="10.63634780798031"><ele>384.0</ele><time>2026-04-18T13:48:56.999Z</time></trkpt><trkpt lat="43.41215894610199" lon="10.63651569323415"><ele>380.6666666666667</ele><time>2026-04-18T13:48:57.999Z</time></trkpt><trkpt lat="43.412270115683654" lon="10.636668668373522"><ele>377.33333333333337</ele><time>2026-04-18T13:48:58.999Z</time></trkpt><trkpt lat="43.41238172365344" lon="10.63682710431582"><ele>374.0</ele><time>2026-04-18T13:48:59.999Z</time></trkpt><trkpt lat="43.41248713357994" lon="10.636977147135186"><ele>372.6666666666667</ele><time>2026-04-18T13:49:00.999Z</time></trkpt><trkpt lat="43.41260613317156" lon="10.637138825073027"><ele>371.3333333333333</ele><time>2026-04-18T13:49:01.999Z</time></trkpt><trkpt lat="43.412728521585095" lon="10.637329780016929"><ele>370.0</ele><time>2026-04-18T13:49:02.999Z</time></trkpt><trkpt lat="43.412833959503196" lon="10.63750936369154"><ele>370.0</ele><time>2026-04-18T13:49:03.999Z</time></trkpt><trkpt lat="43.412924379453315" lon="10.637651425424012"><ele>370.0</ele><time>2026-04-18T13:49:04.999Z</time></trkpt><trkpt lat="43.41302899418083" lon="10.637741539210639"><ele>370.0</ele><time>2026-04-18T13:49:05.999Z</time></trkpt><trkpt lat="43.41313202509009" lon="10.63776327888717"><ele>370.0</ele><time>2026-04-18T13:49:06.999Z</time></trkpt><trkpt lat="43.41324098999823" lon="10.63773773595435"><ele>368.8</ele><time>2026-04-18T13:49:07.999Z</time></trkpt><trkpt lat="43.413339640910685" lon="10.6377391503141"><ele>367.6</ele><time>2026-04-18T13:49:08.999Z</time></trkpt><trkpt lat="43.41343551496671" lon="10.637766061166909"><ele>366.4</ele><time>2026-04-18T13:49:09.999Z</time></trkpt><trkpt lat="43.41349677905151" lon="10.637908151522872"><ele>365.2</ele><time>2026-04-18T13:49:10.999Z</time></trkpt><trkpt lat="43.41361873034646" lon="10.637936344278646"><ele>364.0</ele><time>2026-04-18T13:49:11.999Z</time></trkpt><trkpt lat="43.41373066878894" lon="10.637995997278184"><ele>364.25</ele><time>2026-04-18T13:49:12.999Z</time></trkpt><trkpt lat="43.41383900154859" lon="10.6381090738511"><ele>364.5</ele><time>2026-04-18T13:49:13.999Z</time></trkpt><trkpt lat="43.413940785219445" lon="10.638256899107931"><ele>364.75</ele><time>2026-04-18T13:49:14.999Z</time></trkpt><trkpt lat="43.414053282441756" lon="10.638324134856038"><ele>365.0</ele><time>2026-04-18T13:49:15.999Z</time></trkpt><trkpt lat="43.41417037394954" lon="10.63835680004994"><ele>365.0</ele><time>2026-04-18T13:49:16.999Z</time></trkpt><trkpt lat="43.414278241489846" lon="10.638397845253115"><ele>365.0</ele><time>2026-04-18T13:49:17.999Z</time></trkpt><trkpt lat="43.414377421638264" lon="10.638496333115047"><ele>365.0</ele><time>2026-04-18T13:49:18.999Z</time></trkpt><trkpt lat="43.41445230257401" lon="10.638660810696448"><ele>365.0</ele><time>2026-04-18T13:49:19.999Z</time></trkpt><trkpt lat="43.4145261550483" lon="10.638823406914234"><ele>363.5</ele><time>2026-04-18T13:49:20.999Z</time></trkpt><trkpt lat="43.41462056567664" lon="10.638920053658001"><ele>362.0</ele><time>2026-04-18T13:49:21.999Z</time></trkpt><trkpt lat="43.41474165865225" lon="10.63899755303918"><ele>360.5</ele><time>2026-04-18T13:49:22.999Z</time></trkpt><trkpt lat="43.414859538183144" lon="10.639067679051575"><ele>359.0</ele><time>2026-04-18T13:49:23.999Z</time></trkpt><trkpt lat="43.414987357353596" lon="10.63915839821413"><ele>359.0</ele><time>2026-04-18T13:49:24.999Z</time></trkpt><trkpt lat="43.41512713404214" lon="10.63926564306471"><ele>359.0</ele><time>2026-04-18T13:49:25.999Z</time></trkpt><trkpt lat="43.41526827087565" lon="10.639390471909467"><ele>359.0</ele><time>2026-04-18T13:49:26.999Z</time></trkpt><trkpt lat="43.41539735857224" lon="10.639554845571737"><ele>361.0</ele><time>2026-04-18T13:49:27.999Z</time></trkpt><trkpt lat="43.41550965186497" lon="10.639736648780278"><ele>363.0</ele><time>2026-04-18T13:49:28.999Z</time></trkpt><trkpt lat="43.41561109552912" lon="10.639880412784933"><ele>365.0</ele><time>2026-04-18T13:49:29.999Z</time></trkpt><trkpt lat="43.415731965183696" lon="10.639959610424366"><ele>365.0</ele><time>2026-04-18T13:49:30.999Z</time></trkpt><trkpt lat="43.41586734565533" lon="10.640041369806312"><ele>365.0</ele><time>2026-04-18T13:49:31.999Z</time></trkpt><trkpt lat="43.416008562815655" lon="10.640120365460579"><ele>365.0</ele><time>2026-04-18T13:49:32.999Z</time></trkpt><trkpt lat="43.41616262940097" lon="10.640178756508636"><ele>365.75</ele><time>2026-04-18T13:49:33.999Z</time></trkpt><trkpt lat="43.416324738589445" lon="10.640206708784387"><ele>366.5</ele><time>2026-04-18T13:49:34.999Z</time></trkpt><trkpt lat="43.41645274265051" lon="10.640223912612543"><ele>367.25</ele><time>2026-04-18T13:49:35.999Z</time></trkpt><trkpt lat="43.41655044863912" lon="10.640228270817424"><ele>368.0</ele><time>2026-04-18T13:49:36.999Z</time></trkpt><trkpt lat="43.416637529926824" lon="10.640258127005406"><ele>370.25</ele><time>2026-04-18T13:49:37.999Z</time></trkpt><trkpt lat="43.416709581774526" lon="10.640322388487425"><ele>372.5</ele><time>2026-04-18T13:49:38.999Z</time></trkpt><trkpt lat="43.41678186581465" lon="10.640434217209409"><ele>374.75</ele><time>2026-04-18T13:49:39.999Z</time></trkpt><trkpt lat="43.416876346304676" lon="10.640577146497039"><ele>377.0</ele><time>2026-04-18T13:49:40.999Z</time></trkpt><trkpt lat="43.41700619320586" lon="10.640734105405983"><ele>377.0</ele><time>2026-04-18T13:49:41.999Z</time></trkpt><trkpt lat="43.41714878501867" lon="10.640925478026203"><ele>377.0</ele><time>2026-04-18T13:49:42.999Z</time></trkpt><trkpt lat="43.41730145771328" lon="10.641128735643077"><ele>377.0</ele><time>2026-04-18T13:49:43.999Z</time></trkpt><trkpt lat="43.41747188632878" lon="10.641330118799397"><ele>373.0</ele><time>2026-04-18T13:49:44.999Z</time></trkpt><trkpt lat="43.417644172931894" lon="10.64153272318658"><ele>369.0</ele><time>2026-04-18T13:49:45.999Z</time></trkpt><trkpt lat="43.41778230332272" lon="10.641716779613326"><ele>365.0</ele><time>2026-04-18T13:49:46.999Z</time></trkpt><trkpt lat="43.41789164278087" lon="10.641889626494386"><ele>366.0</ele><time>2026-04-18T13:49:47.999Z</time></trkpt><trkpt lat="43.41798584284047" lon="10.64205345641502"><ele>367.0</ele><time>2026-04-18T13:49:48.999Z</time></trkpt><trkpt lat="43.418117567637445" lon="10.642175895918983"><ele>368.0</ele><time>2026-04-18T13:49:49.999Z</time></trkpt><trkpt lat="43.41826768646733" lon="10.64227359302288"><ele>368.0</ele><time>2026-04-18T13:49:50.999Z</time></trkpt><trkpt lat="43.41839279823075" lon="10.642401556356424"><ele>368.0</ele><time>2026-04-18T13:49:51.999Z</time></trkpt><trkpt lat="43.41850340460341" lon="10.642542860902102"><ele>368.0</ele><time>2026-04-18T13:49:52.999Z</time></trkpt><trkpt lat="43.41864861184796" lon="10.642635599487692"><ele>368.0</ele><time>2026-04-18T13:49:53.999Z</time></trkpt><trkpt lat="43.41880564597555" lon="10.642728050964656"><ele>368.0</ele><time>2026-04-18T13:49:54.999Z</time></trkpt><trkpt lat="43.41893668397146" lon="10.642829538420756"><ele>368.0</ele><time>2026-04-18T13:49:55.999Z</time></trkpt><trkpt lat="43.419045075684124" lon="10.642952190309517"><ele>370.0</ele><time>2026-04-18T13:49:56.999Z</time></trkpt><trkpt lat="43.419171010451095" lon="10.643069625553283"><ele>372.0</ele><time>2026-04-18T13:49:57.999Z</time></trkpt><trkpt lat="43.41930778091647" lon="10.64315665375976"><ele>374.0</ele><time>2026-04-18T13:49:58.999Z</time></trkpt><trkpt lat="43.419428397264234" lon="10.643219220381958"><ele>376.0</ele><time>2026-04-18T13:49:59.999Z</time></trkpt><trkpt lat="43.41954000359254" lon="10.64326541832783"><ele>376.0</ele><time>2026-04-18T13:50:00.999Z</time></trkpt><trkpt lat="43.419622277006106" lon="10.643315827527713"><ele>376.0</ele><time>2026-04-18T13:50:01.999Z</time></trkpt><trkpt lat="43.41971112189661" lon="10.643422565937966"><ele>376.0</ele><time>2026-04-18T13:50:02.999Z</time></trkpt><trkpt lat="43.41979417277774" lon="10.64356305136321"><ele>376.0</ele><time>2026-04-18T13:50:03.999Z</time></trkpt><trkpt lat="43.41987138182445" lon="10.643731893028663"><ele>377.3333333333333</ele><time>2026-04-18T13:50:04.999Z</time></trkpt><trkpt lat="43.419966597884674" lon="10.643897844849441"><ele>378.6666666666667</ele><time>2026-04-18T13:50:05.999Z</time></trkpt><trkpt lat="43.42008636341459" lon="10.644052356291581"><ele>380.0</ele><time>2026-04-18T13:50:06.999Z</time></trkpt><trkpt lat="43.42020892867502" lon="10.644213547246165"><ele>380.0</ele><time>2026-04-18T13:50:07.999Z</time></trkpt><trkpt lat="43.4203328048172" lon="10.644365913165233"><ele>380.0</ele><time>2026-04-18T13:50:08.999Z</time></trkpt><trkpt lat="43.420466578703696" lon="10.644488666739067"><ele>380.0</ele><time>2026-04-18T13:50:09.999Z</time></trkpt><trkpt lat="43.42061550888296" lon="10.644596123889677"><ele>377.6666666666667</ele><time>2026-04-18T13:50:10.999Z</time></trkpt><trkpt lat="43.4207524536049" lon="10.6446949088997"><ele>375.3333333333333</ele><time>2026-04-18T13:50:11.999Z</time></trkpt><trkpt lat="43.42087828973034" lon="10.64480986481576"><ele>373.0</ele><time>2026-04-18T13:50:12.999Z</time></trkpt><trkpt lat="43.42101243517753" lon="10.644938637519752"><ele>373.0</ele><time>2026-04-18T13:50:13.999Z</time></trkpt><trkpt lat="43.421149016540085" lon="10.645101626121015"><ele>373.0</ele><time>2026-04-18T13:50:14.999Z</time></trkpt><trkpt lat="43.421295733022525" lon="10.645270629646662"><ele>373.0</ele><time>2026-04-18T13:50:15.999Z</time></trkpt><trkpt lat="43.42143937051319" lon="10.645414834377625"><ele>371.5</ele><time>2026-04-18T13:50:16.999Z</time></trkpt><trkpt lat="43.421573635077365" lon="10.645540180755477"><ele>370.0</ele><time>2026-04-18T13:50:17.999Z</time></trkpt><trkpt lat="43.42170418180475" lon="10.645633608936098"><ele>368.5</ele><time>2026-04-18T13:50:18.999Z</time></trkpt><trkpt lat="43.4218291227906" lon="10.645711757485127"><ele>367.0</ele><time>2026-04-18T13:50:19.999Z</time></trkpt><trkpt lat="43.42195838671432" lon="10.645783508918338"><ele>367.0</ele><time>2026-04-18T13:50:20.999Z</time></trkpt><trkpt lat="43.42206643488843" lon="10.645863155399397"><ele>367.0</ele><time>2026-04-18T13:50:21.999Z</time></trkpt><trkpt lat="43.42218417180359" lon="10.645925756467845"><ele>367.0</ele><time>2026-04-18T13:50:22.999Z</time></trkpt><trkpt lat="43.42230257750638" lon="10.64596880699459"><ele>367.0</ele><time>2026-04-18T13:50:23.999Z</time></trkpt><trkpt lat="43.42242741429811" lon="10.646008631993263"><ele>365.25</ele><time>2026-04-18T13:50:24.999Z</time></trkpt><trkpt lat="43.42255130298625" lon="10.646089701181452"><ele>363.5</ele><time>2026-04-18T13:50:25.999Z</time></trkpt><trkpt lat="43.422682044989735" lon="10.646212780561893"><ele>361.75</ele><time>2026-04-18T13:50:26.999Z</time></trkpt><trkpt lat="43.42280239083933" lon="10.646312915176477"><ele>360.0</ele><time>2026-04-18T13:50:27.999Z</time></trkpt><trkpt lat="43.422941314475175" lon="10.646402455368415"><ele>356.5</ele><time>2026-04-18T13:50:28.999Z</time></trkpt><trkpt lat="43.4230748523673" lon="10.646484502665611"><ele>353.0</ele><time>2026-04-18T13:50:29.999Z</time></trkpt><trkpt lat="43.423197711936474" lon="10.646568086238455"><ele>349.5</ele><time>2026-04-18T13:50:30.999Z</time></trkpt><trkpt lat="43.42333248618128" lon="10.646640973880134"><ele>346.0</ele><time>2026-04-18T13:50:31.999Z</time></trkpt><trkpt lat="43.423459147384825" lon="10.646708199134544"><ele>346.0</ele><time>2026-04-18T13:50:32.999Z</time></trkpt><trkpt lat="43.42358251518725" lon="10.646785199382215"><ele>346.0</ele><time>2026-04-18T13:50:33.999Z</time></trkpt><trkpt lat="43.42372509823806" lon="10.646835715023046"><ele>346.0</ele><time>2026-04-18T13:50:34.999Z</time></trkpt><trkpt lat="43.423857574230965" lon="10.646886524759626"><ele>346.0</ele><time>2026-04-18T13:50:35.999Z</time></trkpt><trkpt lat="43.42397448362218" lon="10.646935898489"><ele>339.5</ele><time>2026-04-18T13:50:36.999Z</time></trkpt><trkpt lat="43.42408904078696" lon="10.646998609478596"><ele>333.0</ele><time>2026-04-18T13:50:37.999Z</time></trkpt><trkpt lat="43.42418734251427" lon="10.647111257912503"><ele>326.5</ele><time>2026-04-18T13:50:38.999Z</time></trkpt><trkpt lat="43.42427614658091" lon="10.647235144053312"><ele>320.0</ele><time>2026-04-18T13:50:39.999Z</time></trkpt><trkpt lat="43.4243827344321" lon="10.647336526891781"><ele>320.0</ele><time>2026-04-18T13:50:40.999Z</time></trkpt><trkpt lat="43.42449261336504" lon="10.647435342049725"><ele>320.0</ele><time>2026-04-18T13:50:41.999Z</time></trkpt><trkpt lat="43.42459366699073" lon="10.647545535066913"><ele>320.0</ele><time>2026-04-18T13:50:42.999Z</time></trkpt><trkpt lat="43.424686981458684" lon="10.647653339722703"><ele>320.0</ele><time>2026-04-18T13:50:43.999Z</time></trkpt><trkpt lat="43.424782683741384" lon="10.64777112908027"><ele>316.5</ele><time>2026-04-18T13:50:44.999Z</time></trkpt><trkpt lat="43.42486371451871" lon="10.64791970799193"><ele>313.0</ele><time>2026-04-18T13:50:45.999Z</time></trkpt><trkpt lat="43.424913997636466" lon="10.64807688348245"><ele>309.5</ele><time>2026-04-18T13:50:46.999Z</time></trkpt><trkpt lat="43.424927553010534" lon="10.648247210619703"><ele>306.0</ele><time>2026-04-18T13:50:47.999Z</time></trkpt><trkpt lat="43.424924700843256" lon="10.648421506906125"><ele>306.0</ele><time>2026-04-18T13:50:48.999Z</time></trkpt><trkpt lat="43.42491439021136" lon="10.64860453998677"><ele>306.0</ele><time>2026-04-18T13:50:49.999Z</time></trkpt><trkpt lat="43.42490767403456" lon="10.648769900705265"><ele>306.0</ele><time>2026-04-18T13:50:50.999Z</time></trkpt><trkpt lat="43.42492578082892" lon="10.648920186750644"><ele>306.0</ele><time>2026-04-18T13:50:51.999Z</time></trkpt><trkpt lat="43.42496665822858" lon="10.649064600066296"><ele>305.5</ele><time>2026-04-18T13:50:52.999Z</time></trkpt><trkpt lat="43.42504686399792" lon="10.649204790599503"><ele>305.0</ele><time>2026-04-18T13:50:53.999Z</time></trkpt><trkpt lat="43.42513335794524" lon="10.649331212704526"><ele>304.5</ele><time>2026-04-18T13:50:54.999Z</time></trkpt><trkpt lat="43.42523722820685" lon="10.649442558372366"><ele>304.0</ele><time>2026-04-18T13:50:55.999Z</time></trkpt><trkpt lat="43.42531693552535" lon="10.649522355621624"><ele>303.4</ele><time>2026-04-18T13:50:56.999Z</time></trkpt><trkpt lat="43.425375959249656" lon="10.64962666665235"><ele>302.79999999999995</ele><time>2026-04-18T13:50:57.999Z</time></trkpt><trkpt lat="43.42541255152507" lon="10.649748074888873"><ele>302.20000000000005</ele><time>2026-04-18T13:50:58.999Z</time></trkpt><trkpt lat="43.42543265637332" lon="10.649890011624775"><ele>301.6</ele><time>2026-04-18T13:50:59.999Z</time></trkpt><trkpt lat="43.4254090464246" lon="10.650038980764416"><ele>301.0</ele><time>2026-04-18T13:51:00.999Z</time></trkpt><trkpt lat="43.42536285718422" lon="10.650189638031629"><ele>297.5</ele><time>2026-04-18T13:51:01.999Z</time></trkpt><trkpt lat="43.42531616805805" lon="10.650335295226629"><ele>294.0</ele><time>2026-04-18T13:51:02.999Z</time></trkpt><trkpt lat="43.425314293230116" lon="10.65050517717506"><ele>290.5</ele><time>2026-04-18T13:51:03.999Z</time></trkpt><trkpt lat="43.425323243047" lon="10.650693925875728"><ele>287.0</ele><time>2026-04-18T13:51:04.999Z</time></trkpt><trkpt lat="43.425343413605304" lon="10.650836397084621"><ele>287.0</ele><time>2026-04-18T13:51:05.999Z</time></trkpt><trkpt lat="43.42537229180854" lon="10.651014230100499"><ele>287.0</ele><time>2026-04-18T13:51:06.999Z</time></trkpt><trkpt lat="43.42541868752882" lon="10.651162869528516"><ele>287.0</ele><time>2026-04-18T13:51:07.999Z</time></trkpt><trkpt lat="43.42548148901885" lon="10.651309008190497"><ele>287.0</ele><time>2026-04-18T13:51:08.999Z</time></trkpt><trkpt lat="43.42557521876171" lon="10.651414569382677"><ele>282.5</ele><time>2026-04-18T13:51:09.999Z</time></trkpt><trkpt lat="43.42566933587826" lon="10.651492685242202"><ele>278.0</ele><time>2026-04-18T13:51:10.999Z</time></trkpt><trkpt lat="43.425776600236986" lon="10.651548904713337"><ele>273.5</ele><time>2026-04-18T13:51:11.999Z</time></trkpt><trkpt lat="43.425887458080894" lon="10.651625460739176"><ele>269.0</ele><time>2026-04-18T13:51:12.999Z</time></trkpt><trkpt lat="43.4259996684722" lon="10.651698556159152"><ele>269.0</ele><time>2026-04-18T13:51:13.999Z</time></trkpt><trkpt lat="43.42610566972241" lon="10.651768349567691"><ele>269.0</ele><time>2026-04-18T13:51:14.999Z</time></trkpt><trkpt lat="43.42620920057605" lon="10.65185451650392"><ele>269.0</ele><time>2026-04-18T13:51:15.999Z</time></trkpt><trkpt lat="43.42629164279078" lon="10.651980498424404"><ele>269.0</ele><time>2026-04-18T13:51:16.999Z</time></trkpt><trkpt lat="43.4263645922321" lon="10.652118783349133"><ele>264.75</ele><time>2026-04-18T13:51:17.999Z</time></trkpt><trkpt lat="43.426462436917184" lon="10.652227588622111"><ele>260.5</ele><time>2026-04-18T13:51:18.999Z</time></trkpt><trkpt lat="43.42657547555713" lon="10.652319303335798"><ele>256.25</ele><time>2026-04-18T13:51:19.999Z</time></trkpt><trkpt lat="43.42669565645679" lon="10.652389910034806"><ele>252.0</ele><time>2026-04-18T13:51:20.999Z</time></trkpt><trkpt lat="43.42682035532732" lon="10.652407109623507"><ele>252.0</ele><time>2026-04-18T13:51:21.999Z</time></trkpt><trkpt lat="43.42694900318495" lon="10.652398398339763"><ele>252.0</ele><time>2026-04-18T13:51:22.999Z</time></trkpt><trkpt lat="43.427071403775095" lon="10.65241192221936"><ele>252.0</ele><time>2026-04-18T13:51:23.999Z</time></trkpt><trkpt lat="43.427181234498576" lon="10.65247969308035"><ele>252.0</ele><time>2026-04-18T13:51:24.999Z</time></trkpt><trkpt lat="43.42727826717205" lon="10.65255669074792"><ele>250.0</ele><time>2026-04-18T13:51:25.999Z</time></trkpt><trkpt lat="43.42736191910348" lon="10.652616395917352"><ele>248.0</ele><time>2026-04-18T13:51:26.999Z</time></trkpt><trkpt lat="43.42744455934889" lon="10.652672320165781"><ele>246.0</ele><time>2026-04-18T13:51:27.999Z</time></trkpt><trkpt lat="43.42752503426645" lon="10.65272892888798"><ele>244.0</ele><time>2026-04-18T13:51:28.999Z</time></trkpt><trkpt lat="43.42759390354818" lon="10.652830412386265"><ele>242.0</ele><time>2026-04-18T13:51:29.999Z</time></trkpt><trkpt lat="43.42763295512046" lon="10.652950157977857"><ele>240.39999999999998</ele><time>2026-04-18T13:51:30.999Z</time></trkpt><trkpt lat="43.427646947320994" lon="10.653087945240486"><ele>238.79999999999998</ele><time>2026-04-18T13:51:31.999Z</time></trkpt><trkpt lat="43.42764816841016" lon="10.653243076570485"><ele>237.2</ele><time>2026-04-18T13:51:32.999Z</time></trkpt><trkpt lat="43.427621310609574" lon="10.653386918161399"><ele>235.6</ele><time>2026-04-18T13:51:33.999Z</time></trkpt><trkpt lat="43.42757641598944" lon="10.653519972519039"><ele>234.0</ele><time>2026-04-18T13:51:34.999Z</time></trkpt><trkpt lat="43.42750792641277" lon="10.65364471230231"><ele>231.6</ele><time>2026-04-18T13:51:35.999Z</time></trkpt><trkpt lat="43.4274380650444" lon="10.65376674758031"><ele>229.2</ele><time>2026-04-18T13:51:36.999Z</time></trkpt><trkpt lat="43.42736473483488" lon="10.653867370823114"><ele>226.79999999999998</ele><time>2026-04-18T13:51:37.999Z</time></trkpt><trkpt lat="43.42728170491005" lon="10.653967116206148"><ele>224.39999999999998</ele><time>2026-04-18T13:51:38.999Z</time></trkpt><trkpt lat="43.427216659660495" lon="10.65406365202614"><ele>222.0</ele><time>2026-04-18T13:51:39.999Z</time></trkpt><trkpt lat="43.42717650112124" lon="10.654169290506122"><ele>222.0</ele><time>2026-04-18T13:51:40.999Z</time></trkpt><trkpt lat="43.42716465139864" lon="10.654297448741106"><ele>222.0</ele><time>2026-04-18T13:51:41.999Z</time></trkpt><trkpt lat="43.42716942467833" lon="10.6544294299565"><ele>222.0</ele><time>2026-04-18T13:51:42.999Z</time></trkpt><trkpt lat="43.42720793286259" lon="10.654574290923081"><ele>222.0</ele><time>2026-04-18T13:51:43.999Z</time></trkpt><trkpt lat="43.427261750505295" lon="10.654694420468532"><ele>222.0</ele><time>2026-04-18T13:51:44.999Z</time></trkpt><trkpt lat="43.42734019601767" lon="10.65479665447684"><ele>219.6</ele><time>2026-04-18T13:51:45.999Z</time></trkpt><trkpt lat="43.427437589761794" lon="10.654870614096058"><ele>217.2</ele><time>2026-04-18T13:51:46.999Z</time></trkpt><trkpt lat="43.427541929245756" lon="10.65491387512164"><ele>214.8</ele><time>2026-04-18T13:51:47.999Z</time></trkpt><trkpt lat="43.427647128601784" lon="10.654955400085147"><ele>212.4</ele><time>2026-04-18T13:51:48.999Z</time></trkpt><trkpt lat="43.42774828370533" lon="10.65501269667233"><ele>210.0</ele><time>2026-04-18T13:51:49.999Z</time></trkpt><trkpt lat="43.42785251769441" lon="10.655066281976225"><ele>210.0</ele><time>2026-04-18T13:51:50.999Z</time></trkpt><trkpt lat="43.427961400114995" lon="10.655122765623506"><ele>210.0</ele><time>2026-04-18T13:51:51.999Z</time></trkpt><trkpt lat="43.42806306900702" lon="10.65518648281899"><ele>210.0</ele><time>2026-04-18T13:51:52.999Z</time></trkpt><trkpt lat="43.428152830743194" lon="10.655251581015424"><ele>210.0</ele><time>2026-04-18T13:51:53.999Z</time></trkpt><trkpt lat="43.42824442198163" lon="10.655335644446735"><ele>210.0</ele><time>2026-04-18T13:51:54.999Z</time></trkpt><trkpt lat="43.428347060023334" lon="10.65543078307617"><ele>206.0</ele><time>2026-04-18T13:51:55.999Z</time></trkpt><trkpt lat="43.428449015010145" lon="10.655533098522383"><ele>202.0</ele><time>2026-04-18T13:51:56.999Z</time></trkpt><trkpt lat="43.42852983006327" lon="10.655664104696568"><ele>198.0</ele><time>2026-04-18T13:51:57.999Z</time></trkpt><trkpt lat="43.428588899928265" lon="10.655799303834607"><ele>194.0</ele><time>2026-04-18T13:51:58.999Z</time></trkpt><trkpt lat="43.42864457128158" lon="10.655931615352461"><ele>194.0</ele><time>2026-04-18T13:51:59.999Z</time></trkpt><trkpt lat="43.428714154042055" lon="10.656047211221697"><ele>194.0</ele><time>2026-04-18T13:52:00.999Z</time></trkpt><trkpt lat="43.42880449458993" lon="10.656135028988935"><ele>194.0</ele><time>2026-04-18T13:52:01.999Z</time></trkpt><trkpt lat="43.428903362519655" lon="10.656195573540687"><ele>194.0</ele><time>2026-04-18T13:52:02.999Z</time></trkpt><trkpt lat="43.42901114921146" lon="10.656228809286876"><ele>194.0</ele><time>2026-04-18T13:52:03.999Z</time></trkpt><trkpt lat="43.42912446247468" lon="10.6562369502125"><ele>192.0</ele><time>2026-04-18T13:52:04.999Z</time></trkpt><trkpt lat="43.42923013878312" lon="10.656268505757039"><ele>190.0</ele><time>2026-04-18T13:52:05.999Z</time></trkpt><trkpt lat="43.42931785268321" lon="10.656348561196035"><ele>188.0</ele><time>2026-04-18T13:52:06.999Z</time></trkpt><trkpt lat="43.429375575874815" lon="10.656464628987303"><ele>186.0</ele><time>2026-04-18T13:52:07.999Z</time></trkpt><trkpt lat="43.42942475834944" lon="10.656552471581659"><ele>184.0</ele><time>2026-04-18T13:52:08.999Z</time></trkpt><trkpt lat="43.429475900818666" lon="10.65660707870371"><ele>184.0</ele><time>2026-04-18T13:52:09.999Z</time></trkpt><trkpt lat="43.42953618351912" lon="10.656663202780484"><ele>184.0</ele><time>2026-04-18T13:52:10.999Z</time></trkpt><trkpt lat="43.42960225143866" lon="10.656716885248771"><ele>184.0</ele><time>2026-04-18T13:52:11.999Z</time></trkpt><trkpt lat="43.4296768189403" lon="10.656751861512207"><ele>184.0</ele><time>2026-04-18T13:52:12.999Z</time></trkpt><trkpt lat="43.42974489933453" lon="10.656785727917466"><ele>184.0</ele><time>2026-04-18T13:52:13.999Z</time></trkpt><trkpt lat="43.42980532374729" lon="10.65681350421128"><ele>184.0</ele><time>2026-04-18T13:52:15Z</time></trkpt><trkpt lat="43.42987132691806" lon="10.656880827233767"><ele>184.0</ele><time>2026-04-18T13:52:17Z</time></trkpt><trkpt lat="43.4299443646041" lon="10.656910888722198"><ele>183.75</ele><time>2026-04-18T13:52:50Z</time></trkpt><trkpt lat="43.430061136313505" lon="10.656983730461576"><ele>183.5</ele><time>2026-04-18T13:52:52Z</time></trkpt><trkpt lat="43.43014267250561" lon="10.65703550394071"><ele>183.25</ele><time>2026-04-18T13:52:53Z</time></trkpt><trkpt lat="43.43026170404961" lon="10.657112680409552"><ele>183.0</ele><time>2026-04-18T13:52:54Z</time></trkpt><trkpt lat="43.430379121796705" lon="10.657192836015119"><ele>182.66666666666666</ele><time>2026-04-18T13:52:55Z</time></trkpt><trkpt lat="43.4305280261044" lon="10.65730072489783"><ele>182.33333333333331</ele><time>2026-04-18T13:52:56Z</time></trkpt><trkpt lat="43.43068306002439" lon="10.657406109451234"><ele>182.0</ele><time>2026-04-18T13:52:57Z</time></trkpt><trkpt lat="43.430854621992985" lon="10.657514371192851"><ele>182.0</ele><time>2026-04-18T13:52:58Z</time></trkpt><trkpt lat="43.43103137085542" lon="10.657632996466072"><ele>182.0</ele><time>2026-04-18T13:52:59Z</time></trkpt><trkpt lat="43.43120842832741" lon="10.657747671443158"><ele>182.0</ele><time>2026-04-18T13:53:00Z</time></trkpt><trkpt lat="43.431385496577306" lon="10.657868708455563"><ele>181.66666666666666</ele><time>2026-04-18T13:53:01Z</time></trkpt><trkpt lat="43.43157765881773" lon="10.657982953441614"><ele>181.33333333333334</ele><time>2026-04-18T13:53:02Z</time></trkpt><trkpt lat="43.431772794363965" lon="10.658111212687839"><ele>181.0</ele><time>2026-04-18T13:53:03Z</time></trkpt><trkpt lat="43.431965758451206" lon="10.658244795011056"><ele>180.66666666666669</ele><time>2026-04-18T13:53:04Z</time></trkpt><trkpt lat="43.432159122345006" lon="10.65837637061166"><ele>180.33333333333334</ele><time>2026-04-18T13:53:05Z</time></trkpt><trkpt lat="43.43235115923082" lon="10.658507388936156"><ele>180.0</ele><time>2026-04-18T13:53:06Z</time></trkpt><trkpt lat="43.432521905907116" lon="10.65862610264554"><ele>179.33333333333334</ele><time>2026-04-18T13:53:07Z</time></trkpt><trkpt lat="43.432676517324495" lon="10.658729898987444"><ele>178.66666666666669</ele><time>2026-04-18T13:53:08Z</time></trkpt><trkpt lat="43.43281994548672" lon="10.658824327143215"><ele>178.0</ele><time>2026-04-18T13:53:09Z</time></trkpt><trkpt lat="43.432937340528035" lon="10.65893629422339"><ele>177.75</ele><time>2026-04-18T13:53:10Z</time></trkpt><trkpt lat="43.433031515729986" lon="10.659083516504639"><ele>177.5</ele><time>2026-04-18T13:53:11Z</time></trkpt><trkpt lat="43.43309948779487" lon="10.659246476350821"><ele>177.25</ele><time>2026-04-18T13:53:12Z</time></trkpt><trkpt lat="43.43316159162158" lon="10.659410486298222"><ele>177.0</ele><time>2026-04-18T13:53:13Z</time></trkpt><trkpt lat="43.43323780236052" lon="10.659551613495557"><ele>177.0</ele><time>2026-04-18T13:53:14Z</time></trkpt><trkpt lat="43.43336243703889" lon="10.659652218284418"><ele>177.0</ele><time>2026-04-18T13:53:15Z</time></trkpt><trkpt lat="43.43350892915631" lon="10.65971229199662"><ele>177.0</ele><time>2026-04-18T13:53:16Z</time></trkpt><trkpt lat="43.43367412457461" lon="10.659746115686167"><ele>178.0</ele><time>2026-04-18T13:53:17Z</time></trkpt><trkpt lat="43.43385146681733" lon="10.659778235363294"><ele>179.0</ele><time>2026-04-18T13:53:18Z</time></trkpt><trkpt lat="43.43403440991813" lon="10.65982538442676"><ele>180.0</ele><time>2026-04-18T13:53:19Z</time></trkpt><trkpt lat="43.43421963345988" lon="10.659890581493793"><ele>180.0</ele><time>2026-04-18T13:53:20Z</time></trkpt><trkpt lat="43.43440515543478" lon="10.659972191241147"><ele>180.0</ele><time>2026-04-18T13:53:21Z</time></trkpt><trkpt lat="43.434591308359494" lon="10.660071020121546"><ele>180.0</ele><time>2026-04-18T13:53:22Z</time></trkpt><trkpt lat="43.43477717448232" lon="10.660179218389542"><ele>178.0</ele><time>2026-04-18T13:53:23Z</time></trkpt><trkpt lat="43.43496503259796" lon="10.660312200871873"><ele>176.0</ele><time>2026-04-18T13:53:24Z</time></trkpt><trkpt lat="43.435150219345424" lon="10.660450492900004"><ele>174.0</ele><time>2026-04-18T13:53:25Z</time></trkpt><trkpt lat="43.43532798377716" lon="10.660591015261696"><ele>175.0</ele><time>2026-04-18T13:53:26Z</time></trkpt><trkpt lat="43.435509054750156" lon="10.66072825306617"><ele>176.0</ele><time>2026-04-18T13:53:27Z</time></trkpt><trkpt lat="43.43569039370417" lon="10.660863791683477"><ele>177.0</ele><time>2026-04-18T13:53:28Z</time></trkpt><trkpt lat="43.43587436399751" lon="10.66100325398929"><ele>175.33333333333334</ele><time>2026-04-18T13:53:29Z</time></trkpt><trkpt lat="43.43604835387381" lon="10.66114572113585"><ele>173.66666666666669</ele><time>2026-04-18T13:53:30Z</time></trkpt><trkpt lat="43.43621223382793" lon="10.66127042910403"><ele>172.0</ele><time>2026-04-18T13:53:31Z</time></trkpt><trkpt lat="43.436373784514004" lon="10.661391663428358"><ele>172.0</ele><time>2026-04-18T13:53:32Z</time></trkpt><trkpt lat="43.43653021247549" lon="10.661509715252588"><ele>172.0</ele><time>2026-04-18T13:53:33Z</time></trkpt><trkpt lat="43.43668345226016" lon="10.661626879286496"><ele>172.0</ele><time>2026-04-18T13:53:34Z</time></trkpt><trkpt lat="43.43685210103106" lon="10.661727985876205"><ele>172.0</ele><time>2026-04-18T13:53:35Z</time></trkpt><trkpt lat="43.4370189564499" lon="10.66181570222947"><ele>172.0</ele><time>2026-04-18T13:53:36Z</time></trkpt><trkpt lat="43.437198713542394" lon="10.661893277201706"><ele>172.0</ele><time>2026-04-18T13:53:37Z</time></trkpt><trkpt lat="43.43738906136628" lon="10.661954927225272"><ele>171.33333333333334</ele><time>2026-04-18T13:53:38Z</time></trkpt><trkpt lat="43.43758278639148" lon="10.66200963907955"><ele>170.66666666666666</ele><time>2026-04-18T13:53:39Z</time></trkpt><trkpt lat="43.437776067431464" lon="10.662070523085875"><ele>170.0</ele><time>2026-04-18T13:53:40Z</time></trkpt><trkpt lat="43.43796974816355" lon="10.662148590740836"><ele>170.0</ele><time>2026-04-18T13:53:41Z</time></trkpt><trkpt lat="43.43815721060321" lon="10.662225485707978"><ele>170.0</ele><time>2026-04-18T13:53:42Z</time></trkpt><trkpt lat="43.438332125452014" lon="10.662285874080169"><ele>170.0</ele><time>2026-04-18T13:53:43Z</time></trkpt><trkpt lat="43.43848028209316" lon="10.662339027516273"><ele>170.0</ele><time>2026-04-18T13:53:44Z</time></trkpt><trkpt lat="43.438625380092176" lon="10.662393278078918"><ele>170.0</ele><time>2026-04-18T13:53:45Z</time></trkpt><trkpt lat="43.43877367486051" lon="10.662470210581247"><ele>170.0</ele><time>2026-04-18T13:53:46Z</time></trkpt><trkpt lat="43.43892471171735" lon="10.662576642329004"><ele>169.66666666666666</ele><time>2026-04-18T13:53:47Z</time></trkpt><trkpt lat="43.439048176968775" lon="10.662723778177734"><ele>169.33333333333334</ele><time>2026-04-18T13:53:48Z</time></trkpt><trkpt lat="43.439179673343936" lon="10.662892404849247"><ele>169.0</ele><time>2026-04-18T13:53:49Z</time></trkpt><trkpt lat="43.43930462801922" lon="10.663079545324695"><ele>169.0</ele><time>2026-04-18T13:53:50Z</time></trkpt><trkpt lat="43.43944115743419" lon="10.663273460948687"><ele>169.0</ele><time>2026-04-18T13:53:51Z</time></trkpt><trkpt lat="43.43958826034783" lon="10.663460421725667"><ele>169.0</ele><time>2026-04-18T13:53:52Z</time></trkpt><trkpt lat="43.439738303015396" lon="10.66365865418997"><ele>167.66666666666669</ele><time>2026-04-18T13:53:53Z</time></trkpt><trkpt lat="43.43988843284669" lon="10.663865470372752"><ele>166.33333333333334</ele><time>2026-04-18T13:53:54Z</time></trkpt><trkpt lat="43.44004028288334" lon="10.664073261791161"><ele>165.0</ele><time>2026-04-18T13:53:55Z</time></trkpt><trkpt lat="43.440178047452406" lon="10.664245994087837"><ele>165.0</ele><time>2026-04-18T13:53:56Z</time></trkpt><trkpt lat="43.44031608761193" lon="10.66439020507792"><ele>165.0</ele><time>2026-04-18T13:53:57Z</time></trkpt><trkpt lat="43.440477522591856" lon="10.664515857862432"><ele>165.0</ele><time>2026-04-18T13:53:58Z</time></trkpt><trkpt lat="43.44065640415346" lon="10.664631336928219"><ele>164.0</ele><time>2026-04-18T13:53:59Z</time></trkpt><trkpt lat="43.440844867584005" lon="10.664726496088338"><ele>163.0</ele><time>2026-04-18T13:54:00Z</time></trkpt><trkpt lat="43.4410424341426" lon="10.664796760090294"><ele>162.0</ele><time>2026-04-18T13:54:01Z</time></trkpt><trkpt lat="43.44123987045943" lon="10.664840105175083"><ele>161.66666666666666</ele><time>2026-04-18T13:54:02Z</time></trkpt><trkpt lat="43.44143604007992" lon="10.664878442289199"><ele>161.33333333333331</ele><time>2026-04-18T13:54:03Z</time></trkpt><trkpt lat="43.44160665874697" lon="10.664925688306779"><ele>161.0</ele><time>2026-04-18T13:54:04Z</time></trkpt><trkpt lat="43.44175842504285" lon="10.664970701457326"><ele>161.0</ele><time>2026-04-18T13:54:05Z</time></trkpt><trkpt lat="43.441899498451065" lon="10.665022793395702"><ele>161.0</ele><time>2026-04-18T13:54:06Z</time></trkpt><trkpt lat="43.44203801247093" lon="10.66506762290438"><ele>161.0</ele><time>2026-04-18T13:54:07Z</time></trkpt><trkpt lat="43.44218480594503" lon="10.665126182169193"><ele>161.0</ele><time>2026-04-18T13:54:08Z</time></trkpt><trkpt lat="43.442335116723285" lon="10.66518982381206"><ele>160.33333333333331</ele><time>2026-04-18T13:54:09Z</time></trkpt><trkpt lat="43.44249131267043" lon="10.66523807335188"><ele>159.66666666666666</ele><time>2026-04-18T13:54:10Z</time></trkpt><trkpt lat="43.44265903345847" lon="10.66528667475312"><ele>159.0</ele><time>2026-04-18T13:54:11Z</time></trkpt><trkpt lat="43.442830281252775" lon="10.66533796809193"><ele>158.33333333333334</ele><time>2026-04-18T13:54:12Z</time></trkpt><trkpt lat="43.44300793410694" lon="10.665392002951096"><ele>157.66666666666669</ele><time>2026-04-18T13:54:13Z</time></trkpt><trkpt lat="43.44319077482541" lon="10.665445736951183"><ele>157.0</ele><time>2026-04-18T13:54:14Z</time></trkpt><trkpt lat="43.4433721389048" lon="10.665505809527199"><ele>157.0</ele><time>2026-04-18T13:54:15Z</time></trkpt><trkpt lat="43.443557060984475" lon="10.665568681285462"><ele>157.0</ele><time>2026-04-18T13:54:16Z</time></trkpt><trkpt lat="43.443744096726356" lon="10.665630414344628"><ele>157.0</ele><time>2026-04-18T13:54:17Z</time></trkpt><trkpt lat="43.44392897443492" lon="10.66570463668292"><ele>157.0</ele><time>2026-04-18T13:54:18Z</time></trkpt><trkpt lat="43.44412556919233" lon="10.665781560376109"><ele>157.0</ele><time>2026-04-18T13:54:19Z</time></trkpt><trkpt lat="43.44431334106085" lon="10.665859381189895"><ele>157.0</ele><time>2026-04-18T13:54:20Z</time></trkpt><trkpt lat="43.44450219018202" lon="10.665941614005334"><ele>156.66666666666669</ele><time>2026-04-18T13:54:21Z</time></trkpt><trkpt lat="43.44469438407602" lon="10.66601758839394"><ele>156.33333333333334</ele><time>2026-04-18T13:54:22Z</time></trkpt><trkpt lat="43.444886180787606" lon="10.666090791163178"><ele>156.0</ele><time>2026-04-18T13:54:23Z</time></trkpt><trkpt lat="43.4450807047927" lon="10.666171269684611"><ele>155.0</ele><time>2026-04-18T13:54:24Z</time></trkpt><trkpt lat="43.445274684610666" lon="10.666247603384685"><ele>154.0</ele><time>2026-04-18T13:54:25Z</time></trkpt><trkpt lat="43.44547000277914" lon="10.666326548255384"><ele>153.0</ele><time>2026-04-18T13:54:26Z</time></trkpt><trkpt lat="43.44566593094749" lon="10.666401649043575"><ele>153.0</ele><time>2026-04-18T13:54:27Z</time></trkpt><trkpt lat="43.44585386783008" lon="10.666479337789575"><ele>153.0</ele><time>2026-04-18T13:54:28Z</time></trkpt><trkpt lat="43.44605510689156" lon="10.666557535336299"><ele>153.0</ele><time>2026-04-18T13:54:29Z</time></trkpt><trkpt lat="43.44624669180505" lon="10.666638477204094"><ele>152.33333333333334</ele><time>2026-04-18T13:54:30Z</time></trkpt><trkpt lat="43.4464396687854" lon="10.666718402980695"><ele>151.66666666666669</ele><time>2026-04-18T13:54:31Z</time></trkpt><trkpt lat="43.44663710779365" lon="10.666791656411908"><ele>151.0</ele><time>2026-04-18T13:54:32Z</time></trkpt><trkpt lat="43.446833095681306" lon="10.666863693781085"><ele>151.0</ele><time>2026-04-18T13:54:33Z</time></trkpt><trkpt lat="43.44702523069724" lon="10.66693888578686"><ele>151.0</ele><time>2026-04-18T13:54:34Z</time></trkpt><trkpt lat="43.44721820852188" lon="10.667017380690371"><ele>151.0</ele><time>2026-04-18T13:54:35Z</time></trkpt><trkpt lat="43.4474103642065" lon="10.667100988112168"><ele>150.66666666666669</ele><time>2026-04-18T13:54:36Z</time></trkpt><trkpt lat="43.44760728335847" lon="10.667176732899625"><ele>150.33333333333334</ele><time>2026-04-18T13:54:37Z</time></trkpt><trkpt lat="43.4478005603396" lon="10.667249389527019"><ele>150.0</ele><time>2026-04-18T13:54:38Z</time></trkpt><trkpt lat="43.447990621080216" lon="10.667326514006646"><ele>150.0</ele><time>2026-04-18T13:54:39Z</time></trkpt><trkpt lat="43.44818408479262" lon="10.667404191162177"><ele>150.0</ele><time>2026-04-18T13:54:40Z</time></trkpt><trkpt lat="43.448373772647344" lon="10.667482350478625"><ele>150.0</ele><time>2026-04-18T13:54:41Z</time></trkpt><trkpt lat="43.44857673358964" lon="10.667547728145344"><ele>150.0</ele><time>2026-04-18T13:54:42Z</time></trkpt><trkpt lat="43.4487571610607" lon="10.667605403331816"><ele>150.0</ele><time>2026-04-18T13:54:43Z</time></trkpt><trkpt lat="43.448956549882546" lon="10.667633923666235"><ele>150.0</ele><time>2026-04-18T13:54:44Z</time></trkpt><trkpt lat="43.44913980746843" lon="10.667657469015627"><ele>150.33333333333334</ele><time>2026-04-18T13:54:45Z</time></trkpt><trkpt lat="43.44929813220054" lon="10.667651371292303"><ele>150.66666666666669</ele><time>2026-04-18T13:54:46Z</time></trkpt><trkpt lat="43.4494626584225" lon="10.667619902982338"><ele>151.0</ele><time>2026-04-18T13:54:47Z</time></trkpt><trkpt lat="43.44962776914257" lon="10.66755905925126"><ele>150.33333333333334</ele><time>2026-04-18T13:54:48Z</time></trkpt><trkpt lat="43.44979238997188" lon="10.667473402214993"><ele>149.66666666666666</ele><time>2026-04-18T13:54:49Z</time></trkpt><trkpt lat="43.449952655129714" lon="10.667375592222134"><ele>149.0</ele><time>2026-04-18T13:54:50Z</time></trkpt><trkpt lat="43.45010255503721" lon="10.667295627103757"><ele>149.0</ele><time>2026-04-18T13:54:51Z</time></trkpt><trkpt lat="43.45024594805652" lon="10.667243864014786"><ele>149.0</ele><time>2026-04-18T13:54:52Z</time></trkpt><trkpt lat="43.45039153599697" lon="10.667215001044879"><ele>149.0</ele><time>2026-04-18T13:54:53Z</time></trkpt><trkpt lat="43.45054656079224" lon="10.6672177041016"><ele>149.0</ele><time>2026-04-18T13:54:54Z</time></trkpt><trkpt lat="43.4507083446658" lon="10.6672535830594"><ele>149.0</ele><time>2026-04-18T13:54:55Z</time></trkpt><trkpt lat="43.45087214088479" lon="10.667295978040956"><ele>149.0</ele><time>2026-04-18T13:54:56Z</time></trkpt><trkpt lat="43.45104017931716" lon="10.66733158173834"><ele>149.0</ele><time>2026-04-18T13:54:57Z</time></trkpt><trkpt lat="43.45121322468363" lon="10.667370152104203"><ele>149.0</ele><time>2026-04-18T13:54:58Z</time></trkpt><trkpt lat="43.45139383654396" lon="10.667405946048154"><ele>149.0</ele><time>2026-04-18T13:54:59Z</time></trkpt><trkpt lat="43.45157165657912" lon="10.66744621444062"><ele>149.0</ele><time>2026-04-18T13:55:00Z</time></trkpt><trkpt lat="43.45175558151711" lon="10.667485593987305"><ele>149.0</ele><time>2026-04-18T13:55:01Z</time></trkpt><trkpt lat="43.45194075758003" lon="10.667525693972609"><ele>149.0</ele><time>2026-04-18T13:55:02Z</time></trkpt><trkpt lat="43.4521267646449" lon="10.667564786085336"><ele>149.0</ele><time>2026-04-18T13:55:03Z</time></trkpt><trkpt lat="43.45231430222453" lon="10.667586503578908"><ele>149.0</ele><time>2026-04-18T13:55:04Z</time></trkpt><trkpt lat="43.45250560380693" lon="10.667593778979905"><ele>149.0</ele><time>2026-04-18T13:55:05Z</time></trkpt><trkpt lat="43.452695439278415" lon="10.667584414915936"><ele>149.0</ele><time>2026-04-18T13:55:06Z</time></trkpt><trkpt lat="43.45287140917577" lon="10.667575691980508"><ele>149.0</ele><time>2026-04-18T13:55:07Z</time></trkpt><trkpt lat="43.45303543559946" lon="10.667563891104123"><ele>149.0</ele><time>2026-04-18T13:55:08Z</time></trkpt><trkpt lat="43.453177904643276" lon="10.667562286620598"><ele>148.66666666666666</ele><time>2026-04-18T13:55:09Z</time></trkpt><trkpt lat="43.453322387742695" lon="10.667561123680157"><ele>148.33333333333334</ele><time>2026-04-18T13:55:10Z</time></trkpt><trkpt lat="43.453496730926304" lon="10.667562099658227"><ele>148.0</ele><time>2026-04-18T13:55:11Z</time></trkpt><trkpt lat="43.453666892446314" lon="10.6675988371385"><ele>147.0</ele><time>2026-04-18T13:55:12Z</time></trkpt><trkpt lat="43.453851989626926" lon="10.667631293285245"><ele>146.0</ele><time>2026-04-18T13:55:13Z</time></trkpt><trkpt lat="43.45403175187563" lon="10.667675659137043"><ele>145.0</ele><time>2026-04-18T13:55:14Z</time></trkpt><trkpt lat="43.45421832123645" lon="10.667708723281867"><ele>145.0</ele><time>2026-04-18T13:55:15Z</time></trkpt><trkpt lat="43.45438206600418" lon="10.66774399178441"><ele>145.0</ele><time>2026-04-18T13:55:16Z</time></trkpt><trkpt lat="43.4545276710402" lon="10.667776033299367"><ele>145.0</ele><time>2026-04-18T13:55:17Z</time></trkpt><trkpt lat="43.454678634626326" lon="10.66779866554286"><ele>144.66666666666669</ele><time>2026-04-18T13:55:18Z</time></trkpt><trkpt lat="43.45483951252062" lon="10.667825556611659"><ele>144.33333333333334</ele><time>2026-04-18T13:55:19Z</time></trkpt><trkpt lat="43.45500712396187" lon="10.667862018096852"><ele>144.0</ele><time>2026-04-18T13:55:20Z</time></trkpt><trkpt lat="43.45517317394556" lon="10.66789345663916"><ele>144.0</ele><time>2026-04-18T13:55:21Z</time></trkpt><trkpt lat="43.455339330155994" lon="10.667921748040195"><ele>144.0</ele><time>2026-04-18T13:55:22Z</time></trkpt><trkpt lat="43.45548223089256" lon="10.667949526918486"><ele>144.0</ele><time>2026-04-18T13:55:23Z</time></trkpt><trkpt lat="43.455621100472115" lon="10.66797262342993"><ele>143.66666666666666</ele><time>2026-04-18T13:55:24Z</time></trkpt><trkpt lat="43.45576894490984" lon="10.668022566883206"><ele>143.33333333333331</ele><time>2026-04-18T13:55:25Z</time></trkpt><trkpt lat="43.45592304971813" lon="10.668098596633401"><ele>143.0</ele><time>2026-04-18T13:55:26Z</time></trkpt><trkpt lat="43.45607160389922" lon="10.668205056722366"><ele>143.0</ele><time>2026-04-18T13:55:27Z</time></trkpt><trkpt lat="43.45623166969569" lon="10.668315314003259"><ele>143.0</ele><time>2026-04-18T13:55:28Z</time></trkpt><trkpt lat="43.45639815917925" lon="10.66843071151472"><ele>143.0</ele><time>2026-04-18T13:55:29Z</time></trkpt><trkpt lat="43.45656314109006" lon="10.668549575383032"><ele>142.33333333333331</ele><time>2026-04-18T13:55:30Z</time></trkpt><trkpt lat="43.456740188785545" lon="10.668674319218738"><ele>141.66666666666666</ele><time>2026-04-18T13:55:31Z</time></trkpt><trkpt lat="43.45690343981252" lon="10.668796493413847"><ele>141.0</ele><time>2026-04-18T13:55:32Z</time></trkpt><trkpt lat="43.45707892257603" lon="10.668926687323827"><ele>140.66666666666666</ele><time>2026-04-18T13:55:33Z</time></trkpt><trkpt lat="43.45725372410746" lon="10.669057428209179"><ele>140.33333333333331</ele><time>2026-04-18T13:55:34Z</time></trkpt><trkpt lat="43.45742939678433" lon="10.669188875257355"><ele>140.0</ele><time>2026-04-18T13:55:35Z</time></trkpt><trkpt lat="43.45760412048254" lon="10.66931816156594"><ele>140.0</ele><time>2026-04-18T13:55:36Z</time></trkpt><trkpt lat="43.457781714291585" lon="10.66944198104889"><ele>140.0</ele><time>2026-04-18T13:55:37Z</time></trkpt><trkpt lat="43.45795808028261" lon="10.669572324067005"><ele>140.0</ele><time>2026-04-18T13:55:38Z</time></trkpt><trkpt lat="43.45814580656421" lon="10.669702300307693"><ele>139.66666666666666</ele><time>2026-04-18T13:55:39Z</time></trkpt><trkpt lat="43.458319791593006" lon="10.669834058124092"><ele>139.33333333333334</ele><time>2026-04-18T13:55:40Z</time></trkpt><trkpt lat="43.458505840442356" lon="10.669963697310866"><ele>139.0</ele><time>2026-04-18T13:55:41Z</time></trkpt><trkpt lat="43.458686074841424" lon="10.67008966086759"><ele>139.66666666666669</ele><time>2026-04-18T13:55:42Z</time></trkpt><trkpt lat="43.45886943603916" lon="10.670220797432602"><ele>140.33333333333334</ele><time>2026-04-18T13:55:43Z</time></trkpt><trkpt lat="43.45905254341529" lon="10.670351211475666"><ele>141.0</ele><time>2026-04-18T13:55:44Z</time></trkpt><trkpt lat="43.45923512773154" lon="10.670484247420244"><ele>139.66666666666666</ele><time>2026-04-18T13:55:45Z</time></trkpt><trkpt lat="43.45942142823048" lon="10.670616563000477"><ele>138.33333333333331</ele><time>2026-04-18T13:55:46Z</time></trkpt><trkpt lat="43.45960247574782" lon="10.670747830077948"><ele>137.0</ele><time>2026-04-18T13:55:47Z</time></trkpt><trkpt lat="43.45979138528868" lon="10.670879291928072"><ele>137.0</ele><time>2026-04-18T13:55:48Z</time></trkpt><trkpt lat="43.45998427071543" lon="10.67101362132424"><ele>137.0</ele><time>2026-04-18T13:55:49Z</time></trkpt><trkpt lat="43.46017571785772" lon="10.671149890714453"><ele>137.0</ele><time>2026-04-18T13:55:50Z</time></trkpt><trkpt lat="43.46037445697126" lon="10.67129707232051"><ele>134.5</ele><time>2026-04-18T13:55:51Z</time></trkpt><trkpt lat="43.460573839038815" lon="10.671445918778591"><ele>132.0</ele><time>2026-04-18T13:55:52Z</time></trkpt><trkpt lat="43.4607759141263" lon="10.671592571138351"><ele>132.0</ele><time>2026-04-18T13:55:53Z</time></trkpt><trkpt lat="43.46098690402933" lon="10.671731767158233"><ele>132.0</ele><time>2026-04-18T13:55:54Z</time></trkpt><trkpt lat="43.46118505281141" lon="10.67187764639985"><ele>131.66666666666666</ele><time>2026-04-18T13:55:55Z</time></trkpt><trkpt lat="43.461382377818495" lon="10.672023136402911"><ele>131.33333333333331</ele><time>2026-04-18T13:55:56Z</time></trkpt><trkpt lat="43.461577998071505" lon="10.672163848301906"><ele>131.0</ele><time>2026-04-18T13:55:57Z</time></trkpt><trkpt lat="43.46177578623778" lon="10.672308958240302"><ele>131.0</ele><time>2026-04-18T13:55:58Z</time></trkpt><trkpt lat="43.461967672897956" lon="10.672448579096935"><ele>131.0</ele><time>2026-04-18T13:55:59Z</time></trkpt><trkpt lat="43.462159378956514" lon="10.672589713574178"><ele>131.0</ele><time>2026-04-18T13:56:00Z</time></trkpt><trkpt lat="43.462355985257645" lon="10.672725072075085"><ele>130.66666666666666</ele><time>2026-04-18T13:56:01Z</time></trkpt><trkpt lat="43.462557331790116" lon="10.672860326314028"><ele>130.33333333333334</ele><time>2026-04-18T13:56:02Z</time></trkpt><trkpt lat="43.462752044034744" lon="10.673004136443456"><ele>130.0</ele><time>2026-04-18T13:56:03Z</time></trkpt><trkpt lat="43.4629545470829" lon="10.673154179090849"><ele>131.0</ele><time>2026-04-18T13:56:04Z</time></trkpt><trkpt lat="43.46315785581787" lon="10.673301142188928"><ele>132.0</ele><time>2026-04-18T13:56:05Z</time></trkpt><trkpt lat="43.46336677430418" lon="10.673451667339508"><ele>132.0</ele><time>2026-04-18T13:56:06Z</time></trkpt><trkpt lat="43.46356955317702" lon="10.6735989190442"><ele>132.0</ele><time>2026-04-18T13:56:07Z</time></trkpt><trkpt lat="43.46378370843825" lon="10.67374842512078"><ele>130.0</ele><time>2026-04-18T13:56:08Z</time></trkpt><trkpt lat="43.46399456352623" lon="10.67389840641155"><ele>128.0</ele><time>2026-04-18T13:56:09Z</time></trkpt><trkpt lat="43.46419470966636" lon="10.674042713979864"><ele>128.0</ele><time>2026-04-18T13:56:10Z</time></trkpt><trkpt lat="43.46438073740327" lon="10.674192592240654"><ele>128.0</ele><time>2026-04-18T13:56:11Z</time></trkpt><trkpt lat="43.464562725668195" lon="10.674336557208662"><ele>128.0</ele><time>2026-04-18T13:56:12Z</time></trkpt><trkpt lat="43.4647296565408" lon="10.674493763733016"><ele>127.33333333333333</ele><time>2026-04-18T13:56:13Z</time></trkpt><trkpt lat="43.46489440174357" lon="10.674679456330546"><ele>126.66666666666666</ele><time>2026-04-18T13:56:14Z</time></trkpt><trkpt lat="43.4650384441797" lon="10.674872359861405"><ele>126.0</ele><time>2026-04-18T13:56:15Z</time></trkpt><trkpt lat="43.46517654110715" lon="10.675080238332193"><ele>125.66666666666666</ele><time>2026-04-18T13:56:16Z</time></trkpt><trkpt lat="43.46529318797571" lon="10.675303570435217"><ele>125.33333333333333</ele><time>2026-04-18T13:56:17Z</time></trkpt><trkpt lat="43.46539116828593" lon="10.675540426477989"><ele>125.0</ele><time>2026-04-18T13:56:18Z</time></trkpt><trkpt lat="43.465474698768354" lon="10.67579098846251"><ele>126.0</ele><time>2026-04-18T13:56:19Z</time></trkpt><trkpt lat="43.46556253320398" lon="10.676033800320543"><ele>127.0</ele><time>2026-04-18T13:56:20Z</time></trkpt><trkpt lat="43.465660071012955" lon="10.67628811683536"><ele>128.0</ele><time>2026-04-18T13:56:21Z</time></trkpt><trkpt lat="43.46575286262498" lon="10.676540863596466"><ele>128.0</ele><time>2026-04-18T13:56:22Z</time></trkpt><trkpt lat="43.46585204072162" lon="10.67679583593439"><ele>128.0</ele><time>2026-04-18T13:56:23Z</time></trkpt><trkpt lat="43.465946630349954" lon="10.677046919363967"><ele>128.0</ele><time>2026-04-18T13:56:24Z</time></trkpt><trkpt lat="43.466046211808354" lon="10.677307444130522"><ele>128.33333333333331</ele><time>2026-04-18T13:56:25Z</time></trkpt><trkpt lat="43.466150753502596" lon="10.677570549312822"><ele>128.66666666666666</ele><time>2026-04-18T13:56:26Z</time></trkpt><trkpt lat="43.46624847662218" lon="10.67783259205554"><ele>129.0</ele><time>2026-04-18T13:56:27Z</time></trkpt><trkpt lat="43.466346823239824" lon="10.678093351019177"><ele>129.0</ele><time>2026-04-18T13:56:28Z</time></trkpt><trkpt lat="43.46644949372426" lon="10.67835375680469"><ele>129.0</ele><time>2026-04-18T13:56:29Z</time></trkpt><trkpt lat="43.466554831692534" lon="10.678609593431982"><ele>129.0</ele><time>2026-04-18T13:56:30Z</time></trkpt><trkpt lat="43.466667571376" lon="10.678860711136041"><ele>126.33333333333334</ele><time>2026-04-18T13:56:31Z</time></trkpt><trkpt lat="43.46678816351137" lon="10.679104926066229"><ele>123.66666666666667</ele><time>2026-04-18T13:56:32Z</time></trkpt><trkpt lat="43.466917617588614" lon="10.679340940296816"><ele>121.0</ele><time>2026-04-18T13:56:33Z</time></trkpt><trkpt lat="43.46705770822451" lon="10.679563720432839"><ele>121.0</ele><time>2026-04-18T13:56:34Z</time></trkpt><trkpt lat="43.46719390090194" lon="10.679789406245362"><ele>121.0</ele><time>2026-04-18T13:56:35Z</time></trkpt><trkpt lat="43.46733202381834" lon="10.680019923561282"><ele>121.0</ele><time>2026-04-18T13:56:36Z</time></trkpt><trkpt lat="43.46746784208078" lon="10.680246768366521"><ele>120.33333333333334</ele><time>2026-04-18T13:56:37Z</time></trkpt><trkpt lat="43.46760399111844" lon="10.680474357123027"><ele>119.66666666666666</ele><time>2026-04-18T13:56:38Z</time></trkpt><trkpt lat="43.4677351105761" lon="10.680702048488286"><ele>119.0</ele><time>2026-04-18T13:56:39Z</time></trkpt><trkpt lat="43.467867434653186" lon="10.680931255561962"><ele>121.33333333333333</ele><time>2026-04-18T13:56:40Z</time></trkpt><trkpt lat="43.46800572314483" lon="10.681160456090266"><ele>123.66666666666666</ele><time>2026-04-18T13:56:41Z</time></trkpt><trkpt lat="43.468147522096025" lon="10.68138750087342"><ele>126.0</ele><time>2026-04-18T13:56:42Z</time></trkpt><trkpt lat="43.468284863482204" lon="10.68160977848581"><ele>126.0</ele><time>2026-04-18T13:56:43Z</time></trkpt><trkpt lat="43.468416517694806" lon="10.681840781275275"><ele>126.0</ele><time>2026-04-18T13:56:44Z</time></trkpt><trkpt lat="43.46854085628758" lon="10.682056915469369"><ele>126.0</ele><time>2026-04-18T13:56:45Z</time></trkpt><trkpt lat="43.468635055944674" lon="10.682248553564909"><ele>125.0</ele><time>2026-04-18T13:56:46Z</time></trkpt><trkpt lat="43.468720950237355" lon="10.682424500389557"><ele>124.0</ele><time>2026-04-18T13:56:47Z</time></trkpt><trkpt lat="43.46877661033882" lon="10.682606436700055"><ele>123.0</ele><time>2026-04-18T13:56:48Z</time></trkpt><trkpt lat="43.4688021243658" lon="10.682804390017123"><ele>122.0</ele><time>2026-04-18T13:56:49Z</time></trkpt><trkpt lat="43.468775618182605" lon="10.683019552965318"><ele>121.5</ele><time>2026-04-18T13:56:50Z</time></trkpt><trkpt lat="43.46874626009783" lon="10.68323882303653"><ele>121.0</ele><time>2026-04-18T13:56:51Z</time></trkpt><trkpt lat="43.46871417687712" lon="10.6834332443269"><ele>120.5</ele><time>2026-04-18T13:56:52Z</time></trkpt><trkpt lat="43.46868946366075" lon="10.683611238665858"><ele>120.0</ele><time>2026-04-18T13:56:53Z</time></trkpt><trkpt lat="43.46868914310299" lon="10.683775533767289"><ele>119.25</ele><time>2026-04-18T13:56:54Z</time></trkpt><trkpt lat="43.468721227724345" lon="10.683954433369703"><ele>118.5</ele><time>2026-04-18T13:56:55Z</time></trkpt><trkpt lat="43.46876876571012" lon="10.68414466174966"><ele>117.75</ele><time>2026-04-18T13:56:56Z</time></trkpt><trkpt lat="43.46886084828641" lon="10.684319480059004"><ele>117.0</ele><time>2026-04-18T13:56:57Z</time></trkpt><trkpt lat="43.46897824971205" lon="10.684458084825028"><ele>117.0</ele><time>2026-04-18T13:56:58Z</time></trkpt><trkpt lat="43.469118656222065" lon="10.684570386852732"><ele>117.0</ele><time>2026-04-18T13:56:59Z</time></trkpt><trkpt lat="43.46926583078113" lon="10.684672617782887"><ele>117.0</ele><time>2026-04-18T13:57:00Z</time></trkpt><trkpt lat="43.46941147468442" lon="10.684793577627548"><ele>117.0</ele><time>2026-04-18T13:57:01Z</time></trkpt><trkpt lat="43.46956129130594" lon="10.684923868502185"><ele>117.0</ele><time>2026-04-18T13:57:02Z</time></trkpt><trkpt lat="43.4697159107492" lon="10.68506398526553"><ele>117.0</ele><time>2026-04-18T13:57:03Z</time></trkpt><trkpt lat="43.46987785232395" lon="10.685219897680946"><ele>115.66666666666666</ele><time>2026-04-18T13:57:04Z</time></trkpt><trkpt lat="43.470051293093434" lon="10.685368259031135"><ele>114.33333333333333</ele><time>2026-04-18T13:57:05Z</time></trkpt><trkpt lat="43.47022324064638" lon="10.685506824613274"><ele>113.0</ele><time>2026-04-18T13:57:06Z</time></trkpt><trkpt lat="43.470417732921774" lon="10.68562621896288"><ele>113.33333333333333</ele><time>2026-04-18T13:57:07Z</time></trkpt><trkpt lat="43.470609480423356" lon="10.685735596476059"><ele>113.66666666666666</ele><time>2026-04-18T13:57:08Z</time></trkpt><trkpt lat="43.47079478419647" lon="10.68585367491532"><ele>114.0</ele><time>2026-04-18T13:57:09Z</time></trkpt><trkpt lat="43.47096096699325" lon="10.685961642964767"><ele>114.0</ele><time>2026-04-18T13:57:10Z</time></trkpt><trkpt lat="43.471118516127945" lon="10.686060596383431"><ele>114.0</ele><time>2026-04-18T13:57:11Z</time></trkpt><trkpt lat="43.47128006455724" lon="10.686199521371622"><ele>114.0</ele><time>2026-04-18T13:57:12Z</time></trkpt><trkpt lat="43.471435267826664" lon="10.686363833460803"><ele>113.66666666666666</ele><time>2026-04-18T13:57:13Z</time></trkpt><trkpt lat="43.47158768473387" lon="10.686545505242389"><ele>113.33333333333333</ele><time>2026-04-18T13:57:14Z</time></trkpt><trkpt lat="43.47172481843507" lon="10.68674712267321"><ele>113.0</ele><time>2026-04-18T13:57:15Z</time></trkpt><trkpt lat="43.47186054858366" lon="10.686969950471111"><ele>113.0</ele><time>2026-04-18T13:57:16Z</time></trkpt><trkpt lat="43.471983010030705" lon="10.68720075371797"><ele>113.0</ele><time>2026-04-18T13:57:17Z</time></trkpt><trkpt lat="43.472102627162656" lon="10.687440619156064"><ele>113.0</ele><time>2026-04-18T13:57:18Z</time></trkpt><trkpt lat="43.47222565348596" lon="10.68768227402068"><ele>112.0</ele><time>2026-04-18T13:57:19Z</time></trkpt><trkpt lat="43.47234543204317" lon="10.687925303530143"><ele>111.0</ele><time>2026-04-18T13:57:20Z</time></trkpt><trkpt lat="43.47245925992013" lon="10.68816813216385"><ele>110.0</ele><time>2026-04-18T13:57:21Z</time></trkpt><trkpt lat="43.47257103629741" lon="10.688415593177375"><ele>109.33333333333333</ele><time>2026-04-18T13:57:22Z</time></trkpt><trkpt lat="43.47267295296427" lon="10.688656613277612"><ele>108.66666666666666</ele><time>2026-04-18T13:57:23Z</time></trkpt><trkpt lat="43.47276955625039" lon="10.688897142011566"><ele>108.0</ele><time>2026-04-18T13:57:24Z</time></trkpt><trkpt lat="43.47286444580763" lon="10.689146065226602"><ele>109.33333333333334</ele><time>2026-04-18T13:57:25Z</time></trkpt><trkpt lat="43.472958535347516" lon="10.689389871825922"><ele>110.66666666666667</ele><time>2026-04-18T13:57:26Z</time></trkpt><trkpt lat="43.473053326023866" lon="10.68964021959736"><ele>112.0</ele><time>2026-04-18T13:57:27Z</time></trkpt><trkpt lat="43.47314751882732" lon="10.689892270698312"><ele>112.0</ele><time>2026-04-18T13:57:28Z</time></trkpt><trkpt lat="43.47324331269703" lon="10.690145124587561"><ele>112.0</ele><time>2026-04-18T13:57:29Z</time></trkpt><trkpt lat="43.47334205739046" lon="10.690403044085723"><ele>112.0</ele><time>2026-04-18T13:57:30Z</time></trkpt><trkpt lat="43.473439450628966" lon="10.690663270071466"><ele>110.66666666666667</ele><time>2026-04-18T13:57:31Z</time></trkpt><trkpt lat="43.473541808743" lon="10.690930933673602"><ele>109.33333333333334</ele><time>2026-04-18T13:57:32Z</time></trkpt><trkpt lat="43.47363906525932" lon="10.691194909768269"><ele>108.0</ele><time>2026-04-18T13:57:33Z</time></trkpt><trkpt lat="43.47373536766366" lon="10.691453177133605"><ele>108.33333333333334</ele><time>2026-04-18T13:57:34Z</time></trkpt><trkpt lat="43.4738357965479" lon="10.691714999317961"><ele>108.66666666666667</ele><time>2026-04-18T13:57:35Z</time></trkpt><trkpt lat="43.47393689867751" lon="10.691981664327887"><ele>109.0</ele><time>2026-04-18T13:57:36Z</time></trkpt><trkpt lat="43.47404204521497" lon="10.692249871600795"><ele>109.0</ele><time>2026-04-18T13:57:37Z</time></trkpt><trkpt lat="43.47415449676612" lon="10.69254099965396"><ele>109.0</ele><time>2026-04-18T13:57:38Z</time></trkpt><trkpt lat="43.47428004194553" lon="10.692856837880298"><ele>107.5</ele><time>2026-04-18T13:57:39Z</time></trkpt><trkpt lat="43.47439222874543" lon="10.693168953703568"><ele>106.0</ele><time>2026-04-18T13:57:40Z</time></trkpt><trkpt lat="43.474489175979826" lon="10.693428406350597"><ele>105.33333333333334</ele><time>2026-04-18T13:57:41Z</time></trkpt><trkpt lat="43.474579141604465" lon="10.69366695266409"><ele>104.66666666666666</ele><time>2026-04-18T13:57:42Z</time></trkpt><trkpt lat="43.47467491520186" lon="10.693898561587485"><ele>104.0</ele><time>2026-04-18T13:57:43Z</time></trkpt><trkpt lat="43.47476396873451" lon="10.694130780072706"><ele>104.0</ele><time>2026-04-18T13:57:44Z</time></trkpt><trkpt lat="43.474856632241135" lon="10.694369285419588"><ele>104.0</ele><time>2026-04-18T13:57:45Z</time></trkpt><trkpt lat="43.47496408820185" lon="10.694607707317012"><ele>104.0</ele><time>2026-04-18T13:57:46Z</time></trkpt><trkpt lat="43.47507805754568" lon="10.694837626514898"><ele>104.0</ele><time>2026-04-18T13:57:47Z</time></trkpt><trkpt lat="43.47520223356948" lon="10.695066255005564"><ele>104.0</ele><time>2026-04-18T13:57:48Z</time></trkpt><trkpt lat="43.47533543590129" lon="10.695298937542722"><ele>104.0</ele><time>2026-04-18T13:57:49Z</time></trkpt><trkpt lat="43.475472789826206" lon="10.695530042081655"><ele>104.66666666666666</ele><time>2026-04-18T13:57:50Z</time></trkpt><trkpt lat="43.47560929864778" lon="10.695764414446556"><ele>105.33333333333334</ele><time>2026-04-18T13:57:51Z</time></trkpt><trkpt lat="43.47574829745882" lon="10.696007576915319"><ele>106.0</ele><time>2026-04-18T13:57:52Z</time></trkpt><trkpt lat="43.475881997684006" lon="10.696252777627368"><ele>104.0</ele><time>2026-04-18T13:57:53Z</time></trkpt><trkpt lat="43.47602283778505" lon="10.69650357710509"><ele>102.0</ele><time>2026-04-18T13:57:54Z</time></trkpt><trkpt lat="43.47616583199535" lon="10.696753610414461"><ele>101.0</ele><time>2026-04-18T13:57:55Z</time></trkpt><trkpt lat="43.476309306878264" lon="10.696989451117469"><ele>100.0</ele><time>2026-04-18T13:57:56Z</time></trkpt><trkpt lat="43.47646736161227" lon="10.697223038525589"><ele>100.0</ele><time>2026-04-18T13:57:57Z</time></trkpt><trkpt lat="43.47662537817252" lon="10.69744220441659"><ele>100.0</ele><time>2026-04-18T13:57:58Z</time></trkpt><trkpt lat="43.47679079884377" lon="10.697651475512702"><ele>100.0</ele><time>2026-04-18T13:57:59Z</time></trkpt><trkpt lat="43.47695442243656" lon="10.697862899435908"><ele>98.66666666666667</ele><time>2026-04-18T13:58:00Z</time></trkpt><trkpt lat="43.4771187793243" lon="10.698065271123228"><ele>97.33333333333334</ele><time>2026-04-18T13:58:01Z</time></trkpt><trkpt lat="43.47729024958333" lon="10.698267381613604"><ele>96.0</ele><time>2026-04-18T13:58:02Z</time></trkpt><trkpt lat="43.47744633158634" lon="10.698470677305721"><ele>95.33333333333333</ele><time>2026-04-18T13:58:03Z</time></trkpt><trkpt lat="43.47759786471792" lon="10.698671766043605"><ele>94.66666666666666</ele><time>2026-04-18T13:58:04Z</time></trkpt><trkpt lat="43.47774141535841" lon="10.698853209295905"><ele>94.0</ele><time>2026-04-18T13:58:05Z</time></trkpt><trkpt lat="43.477884484487376" lon="10.699021587031282"><ele>94.66666666666666</ele><time>2026-04-18T13:58:06Z</time></trkpt><trkpt lat="43.47803142509491" lon="10.699196214589602"><ele>95.33333333333333</ele><time>2026-04-18T13:58:07Z</time></trkpt><trkpt lat="43.478175515574016" lon="10.699379238082734"><ele>96.0</ele><time>2026-04-18T13:58:08Z</time></trkpt><trkpt lat="43.47831217277357" lon="10.699558466536732"><ele>96.0</ele><time>2026-04-18T13:58:09Z</time></trkpt><trkpt lat="43.478433860265135" lon="10.699717288578906"><ele>96.0</ele><time>2026-04-18T13:58:10Z</time></trkpt><trkpt lat="43.47854359696605" lon="10.69986014954091"><ele>96.0</ele><time>2026-04-18T13:58:11Z</time></trkpt><trkpt lat="43.47864384175133" lon="10.699994469690905"><ele>96.0</ele><time>2026-04-18T13:58:12Z</time></trkpt><trkpt lat="43.47874262782687" lon="10.700118688510386"><ele>96.0</ele><time>2026-04-18T13:58:13Z</time></trkpt><trkpt lat="43.47882583927279" lon="10.700235856992862"><ele>96.0</ele><time>2026-04-18T13:58:14Z</time></trkpt><trkpt lat="43.47890727358024" lon="10.70033864738351"><ele>96.0</ele><time>2026-04-18T13:58:15Z</time></trkpt><trkpt lat="43.478987670786736" lon="10.700443565452227"><ele>95.5</ele><time>2026-04-18T13:58:16Z</time></trkpt><trkpt lat="43.47906098799467" lon="10.700535504328453"><ele>95.0</ele><time>2026-04-18T13:58:17Z</time></trkpt><trkpt lat="43.479128487836384" lon="10.700620793016698"><ele>94.5</ele><time>2026-04-18T13:58:18Z</time></trkpt><trkpt lat="43.47919510157958" lon="10.700696949124778"><ele>94.0</ele><time>2026-04-18T13:58:19Z</time></trkpt><trkpt lat="43.4792516311233" lon="10.700777167121498"><ele>93.5</ele><time>2026-04-18T13:58:20Z</time></trkpt><trkpt lat="43.47930138476953" lon="10.700849344734257"><ele>93.0</ele><time>2026-04-18T13:58:21Z</time></trkpt><trkpt lat="43.47938189817571" lon="10.70094851661153"><ele>93.0</ele><time>2026-04-18T13:58:23Z</time></trkpt><trkpt lat="43.47944221803004" lon="10.701014582269355"><ele>93.0</ele><time>2026-04-18T13:58:25Z</time></trkpt><trkpt lat="43.47940188343915" lon="10.700888971284803"><ele>93.0</ele><time>2026-04-18T13:58:28Z</time></trkpt><trkpt lat="43.47932805838699" lon="10.700824505466784"><ele>93.0</ele><time>2026-04-18T13:58:29Z</time></trkpt><trkpt lat="43.479260806897344" lon="10.700746662279384"><ele>93.0</ele><time>2026-04-18T13:58:30Z</time></trkpt><trkpt lat="43.479188774276906" lon="10.700657979121981"><ele>93.0</ele><time>2026-04-18T13:58:31Z</time></trkpt><trkpt lat="43.479103660024485" lon="10.700562892573586"><ele>93.0</ele><time>2026-04-18T13:58:32Z</time></trkpt><trkpt lat="43.47901854555235" lon="10.700459596369473"><ele>93.0</ele><time>2026-04-18T13:58:33Z</time></trkpt><trkpt lat="43.478921043195285" lon="10.700352584696475"><ele>93.0</ele><time>2026-04-18T13:58:34Z</time></trkpt><trkpt lat="43.478824052624596" lon="10.7002234653465"><ele>93.0</ele><time>2026-04-18T13:58:35Z</time></trkpt><trkpt lat="43.47872041011533" lon="10.700065797055808"><ele>94.0</ele><time>2026-04-18T13:58:36Z</time></trkpt><trkpt lat="43.47862721140529" lon="10.699927204775095"><ele>95.0</ele><time>2026-04-18T13:58:37Z</time></trkpt><trkpt lat="43.47851004865602" lon="10.699787937330694"><ele>96.0</ele><time>2026-04-18T13:58:38Z</time></trkpt><trkpt lat="43.47838680360476" lon="10.699638436867971"><ele>96.0</ele><time>2026-04-18T13:58:39Z</time></trkpt><trkpt lat="43.47828454248836" lon="10.699508299662938"><ele>96.0</ele><time>2026-04-18T13:58:40Z</time></trkpt><trkpt lat="43.4781912725553" lon="10.69937872104206"><ele>96.0</ele><time>2026-04-18T13:58:41Z</time></trkpt><trkpt lat="43.478082781846446" lon="10.699260101562123"><ele>96.0</ele><time>2026-04-18T13:58:42Z</time></trkpt><trkpt lat="43.477969361621454" lon="10.699128909889998"><ele>95.5</ele><time>2026-04-18T13:58:43Z</time></trkpt><trkpt lat="43.477858411958515" lon="10.698988604987274"><ele>95.0</ele><time>2026-04-18T13:58:44Z</time></trkpt><trkpt lat="43.47776629027258" lon="10.698857997928629"><ele>94.5</ele><time>2026-04-18T13:58:45Z</time></trkpt><trkpt lat="43.477686854393326" lon="10.69875737729892"><ele>94.0</ele><time>2026-04-18T13:58:46Z</time></trkpt><trkpt lat="43.47761492627122" lon="10.69866893826541"><ele>94.0</ele><time>2026-04-18T13:58:47Z</time></trkpt><trkpt lat="43.47756884475086" lon="10.698585994733474"><ele>94.0</ele><time>2026-04-18T13:58:48Z</time></trkpt><trkpt lat="43.477559022130535" lon="10.69849214042986"><ele>94.0</ele><time>2026-04-18T13:58:49Z</time></trkpt><trkpt lat="43.477595556990046" lon="10.698388716719228"><ele>94.0</ele><time>2026-04-18T13:58:50Z</time></trkpt><trkpt lat="43.47768341004275" lon="10.698273561282548"><ele>94.0</ele><time>2026-04-18T13:58:51Z</time></trkpt><trkpt lat="43.477781202334526" lon="10.698142391566028"><ele>94.5</ele><time>2026-04-18T13:58:52Z</time></trkpt><trkpt lat="43.47789952584708" lon="10.698049325612367"><ele>95.0</ele><time>2026-04-18T13:58:53Z</time></trkpt><trkpt lat="43.478021314452576" lon="10.69794794796273"><ele>95.5</ele><time>2026-04-18T13:58:54Z</time></trkpt><trkpt lat="43.47810877981852" lon="10.69784874578245"><ele>96.0</ele><time>2026-04-18T13:58:55Z</time></trkpt><trkpt lat="43.47825672339112" lon="10.697741937294733"><ele>96.66666666666666</ele><time>2026-04-18T13:58:56Z</time></trkpt><trkpt lat="43.478407044871176" lon="10.697634085227767"><ele>97.33333333333333</ele><time>2026-04-18T13:58:57Z</time></trkpt><trkpt lat="43.47856139710984" lon="10.697527264808173"><ele>98.0</ele><time>2026-04-18T13:58:58Z</time></trkpt><trkpt lat="43.47870038244475" lon="10.697396768216581"><ele>100.0</ele><time>2026-04-18T13:58:59Z</time></trkpt><trkpt lat="43.478802712330825" lon="10.697241026191707"><ele>102.0</ele><time>2026-04-18T13:59:00Z</time></trkpt><trkpt lat="43.478878452639556" lon="10.697035471545833"><ele>104.0</ele><time>2026-04-18T13:59:01Z</time></trkpt><trkpt lat="43.47892700820897" lon="10.696813403999649"><ele>104.0</ele><time>2026-04-18T13:59:02Z</time></trkpt><trkpt lat="43.478962766364035" lon="10.696576612734491"><ele>104.0</ele><time>2026-04-18T13:59:03Z</time></trkpt><trkpt lat="43.47898956147238" lon="10.696337010195922"><ele>104.0</ele><time>2026-04-18T13:59:04Z</time></trkpt><trkpt lat="43.4790368921761" lon="10.696099481374956"><ele>104.33333333333333</ele><time>2026-04-18T13:59:05Z</time></trkpt><trkpt lat="43.47908835353437" lon="10.695861687825369"><ele>104.66666666666666</ele><time>2026-04-18T13:59:06Z</time></trkpt><trkpt lat="43.479143291515925" lon="10.695622655227853"><ele>105.0</ele><time>2026-04-18T13:59:07Z</time></trkpt><trkpt lat="43.47921127436999" lon="10.695393854587838"><ele>104.33333333333334</ele><time>2026-04-18T13:59:08Z</time></trkpt><trkpt lat="43.47928886379459" lon="10.695169710290838"><ele>103.66666666666667</ele><time>2026-04-18T13:59:09Z</time></trkpt><trkpt lat="43.479384277397365" lon="10.694962353798896"><ele>103.0</ele><time>2026-04-18T13:59:10Z</time></trkpt><trkpt lat="43.479492818727564" lon="10.694761997044502"><ele>104.33333333333334</ele><time>2026-04-18T13:59:11Z</time></trkpt><trkpt lat="43.47960776476831" lon="10.694573275128633"><ele>105.66666666666666</ele><time>2026-04-18T13:59:12Z</time></trkpt><trkpt lat="43.47972651953544" lon="10.694389714068985"><ele>107.0</ele><time>2026-04-18T13:59:13Z</time></trkpt><trkpt lat="43.47985860949848" lon="10.694229264819425"><ele>107.0</ele><time>2026-04-18T13:59:14Z</time></trkpt><trkpt lat="43.47998808476041" lon="10.694061049050443"><ele>107.0</ele><time>2026-04-18T13:59:15Z</time></trkpt><trkpt lat="43.48012744802424" lon="10.693913064851069"><ele>107.0</ele><time>2026-04-18T13:59:16Z</time></trkpt><trkpt lat="43.48027130177156" lon="10.69382515817058"><ele>107.0</ele><time>2026-04-18T13:59:17Z</time></trkpt><trkpt lat="43.48040164270684" lon="10.693765857049687"><ele>107.0</ele><time>2026-04-18T13:59:18Z</time></trkpt><trkpt lat="43.48053539295607" lon="10.693714230202257"><ele>107.0</ele><time>2026-04-18T13:59:19Z</time></trkpt><trkpt lat="43.48066461640092" lon="10.693605110958188"><ele>107.0</ele><time>2026-04-18T13:59:20Z</time></trkpt><trkpt lat="43.480760563279404" lon="10.693421293152905"><ele>106.66666666666666</ele><time>2026-04-18T13:59:21Z</time></trkpt><trkpt lat="43.480835600698235" lon="10.693214269867674"><ele>106.33333333333334</ele><time>2026-04-18T13:59:22Z</time></trkpt><trkpt lat="43.48090441334404" lon="10.69300168234385"><ele>106.0</ele><time>2026-04-18T13:59:23Z</time></trkpt><trkpt lat="43.48095986776904" lon="10.69276908981037"><ele>106.33333333333334</ele><time>2026-04-18T13:59:24Z</time></trkpt><trkpt lat="43.48101087084655" lon="10.692542999003164"><ele>106.66666666666666</ele><time>2026-04-18T13:59:25Z</time></trkpt><trkpt lat="43.48104263521075" lon="10.692307642023126"><ele>107.0</ele><time>2026-04-18T13:59:26Z</time></trkpt><trkpt lat="43.48106345870897" lon="10.692068590662782"><ele>107.66666666666666</ele><time>2026-04-18T13:59:27Z</time></trkpt><trkpt lat="43.48109834807464" lon="10.691831549871836"><ele>108.33333333333334</ele><time>2026-04-18T13:59:28Z</time></trkpt><trkpt lat="43.48113625962072" lon="10.691593304974665"><ele>109.0</ele><time>2026-04-18T13:59:29Z</time></trkpt><trkpt lat="43.48119250459269" lon="10.691362537694204"><ele>109.0</ele><time>2026-04-18T13:59:30Z</time></trkpt><trkpt lat="43.4812434330834" lon="10.691130722283154"><ele>109.0</ele><time>2026-04-18T13:59:31Z</time></trkpt><trkpt lat="43.48128032488019" lon="10.690878479661007"><ele>109.0</ele><time>2026-04-18T13:59:32Z</time></trkpt><trkpt lat="43.48132651447798" lon="10.69064521873894"><ele>109.66666666666667</ele><time>2026-04-18T13:59:33Z</time></trkpt><trkpt lat="43.481371824919954" lon="10.690405524301598"><ele>110.33333333333334</ele><time>2026-04-18T13:59:34Z</time></trkpt><trkpt lat="43.481409207695506" lon="10.690166636936782"><ele>111.0</ele><time>2026-04-18T13:59:35Z</time></trkpt><trkpt lat="43.48142855662892" lon="10.689922892237151"><ele>111.0</ele><time>2026-04-18T13:59:36Z</time></trkpt><trkpt lat="43.48143196778433" lon="10.689678618636577"><ele>111.0</ele><time>2026-04-18T13:59:37Z</time></trkpt><trkpt lat="43.481416306054335" lon="10.689427330358608"><ele>111.0</ele><time>2026-04-18T13:59:38Z</time></trkpt><trkpt lat="43.48139718056523" lon="10.689181743661333"><ele>112.0</ele><time>2026-04-18T13:59:39Z</time></trkpt><trkpt lat="43.4813719457455" lon="10.688946686097937"><ele>113.0</ele><time>2026-04-18T13:59:40Z</time></trkpt><trkpt lat="43.481350967371974" lon="10.688704633058444"><ele>114.0</ele><time>2026-04-18T13:59:41Z</time></trkpt><trkpt lat="43.48133065071081" lon="10.688476130758744"><ele>115.33333333333334</ele><time>2026-04-18T13:59:42Z</time></trkpt><trkpt lat="43.48130902292686" lon="10.688260614662013"><ele>116.66666666666667</ele><time>2026-04-18T13:59:43Z</time></trkpt><trkpt lat="43.48130342639352" lon="10.688046336471537"><ele>118.0</ele><time>2026-04-18T13:59:44Z</time></trkpt><trkpt lat="43.481310513227115" lon="10.687823250081948"><ele>117.66666666666667</ele><time>2026-04-18T13:59:45Z</time></trkpt><trkpt lat="43.48134072561742" lon="10.687604280383123"><ele>117.33333333333334</ele><time>2026-04-18T13:59:46Z</time></trkpt><trkpt lat="43.48138478225177" lon="10.687392490704575"><ele>117.0</ele><time>2026-04-18T13:59:47Z</time></trkpt><trkpt lat="43.48142881420449" lon="10.687176468322827"><ele>117.0</ele><time>2026-04-18T13:59:48Z</time></trkpt><trkpt lat="43.48146315392467" lon="10.686944352437322"><ele>117.0</ele><time>2026-04-18T13:59:49Z</time></trkpt><trkpt lat="43.481498476290525" lon="10.686713501775593"><ele>117.0</ele><time>2026-04-18T13:59:50Z</time></trkpt><trkpt lat="43.48154011764406" lon="10.686479245929858"><ele>116.0</ele><time>2026-04-18T13:59:51Z</time></trkpt><trkpt lat="43.481592123107966" lon="10.686244101660805"><ele>115.0</ele><time>2026-04-18T13:59:52Z</time></trkpt><trkpt lat="43.48165516475228" lon="10.686019931800935"><ele>114.0</ele><time>2026-04-18T13:59:53Z</time></trkpt><trkpt lat="43.48170865008548" lon="10.685807934392551"><ele>113.66666666666666</ele><time>2026-04-18T13:59:54Z</time></trkpt><trkpt lat="43.481731383297046" lon="10.68560213328806"><ele>113.33333333333333</ele><time>2026-04-18T13:59:55Z</time></trkpt><trkpt lat="43.48171151619783" lon="10.685381662643263"><ele>113.0</ele><time>2026-04-18T13:59:56Z</time></trkpt><trkpt lat="43.4816737997928" lon="10.685157217377672"><ele>113.66666666666666</ele><time>2026-04-18T13:59:57Z</time></trkpt><trkpt lat="43.481631322965875" lon="10.684941660368732"><ele>114.33333333333334</ele><time>2026-04-18T13:59:58Z</time></trkpt><trkpt lat="43.48159291271747" lon="10.684712722324255"><ele>115.0</ele><time>2026-04-18T13:59:59Z</time></trkpt><trkpt lat="43.481553232033825" lon="10.684487469340668"><ele>115.33333333333334</ele><time>2026-04-18T14:00:00Z</time></trkpt><trkpt lat="43.48150799560337" lon="10.684264395387556"><ele>115.66666666666666</ele><time>2026-04-18T14:00:01Z</time></trkpt><trkpt lat="43.48144758686944" lon="10.684052067500353"><ele>116.0</ele><time>2026-04-18T14:00:02Z</time></trkpt><trkpt lat="43.48137162984143" lon="10.68386369602851"><ele>116.0</ele><time>2026-04-18T14:00:03Z</time></trkpt><trkpt lat="43.48128542606804" lon="10.683689185002093"><ele>116.0</ele><time>2026-04-18T14:00:04Z</time></trkpt><trkpt lat="43.48121737608005" lon="10.683530130830098"><ele>116.0</ele><time>2026-04-18T14:00:05Z</time></trkpt><trkpt lat="43.481161529040826" lon="10.68337583608112"><ele>116.0</ele><time>2026-04-18T14:00:06Z</time></trkpt><trkpt lat="43.48111666392263" lon="10.68319001507355"><ele>116.0</ele><time>2026-04-18T14:00:07Z</time></trkpt><trkpt lat="43.481111282032956" lon="10.682990107761556"><ele>116.0</ele><time>2026-04-18T14:00:08Z</time></trkpt><trkpt lat="43.481129817966526" lon="10.682770912580814"><ele>116.0</ele><time>2026-04-18T14:00:09Z</time></trkpt><trkpt lat="43.481153741346645" lon="10.68254216580297"><ele>116.66666666666666</ele><time>2026-04-18T14:00:10Z</time></trkpt><trkpt lat="43.48117312152566" lon="10.682314307784983"><ele>117.33333333333334</ele><time>2026-04-18T14:00:11Z</time></trkpt><trkpt lat="43.4811885905982" lon="10.682077219398517"><ele>118.0</ele><time>2026-04-18T14:00:12Z</time></trkpt><trkpt lat="43.48120380065777" lon="10.681836237438423"><ele>118.33333333333334</ele><time>2026-04-18T14:00:13Z</time></trkpt><trkpt lat="43.4812105076576" lon="10.681595262443214"><ele>118.66666666666666</ele><time>2026-04-18T14:00:14Z</time></trkpt><trkpt lat="43.48122297221209" lon="10.681346710064918"><ele>119.0</ele><time>2026-04-18T14:00:15Z</time></trkpt><trkpt lat="43.481232751745395" lon="10.681088418863547"><ele>119.0</ele><time>2026-04-18T14:00:16Z</time></trkpt><trkpt lat="43.48125257066407" lon="10.680838682643301"><ele>119.0</ele><time>2026-04-18T14:00:17Z</time></trkpt><trkpt lat="43.481270616007315" lon="10.680584401562838"><ele>119.0</ele><time>2026-04-18T14:00:18Z</time></trkpt><trkpt lat="43.48128147737848" lon="10.680324594887795"><ele>119.66666666666666</ele><time>2026-04-18T14:00:19Z</time></trkpt><trkpt lat="43.48129658525122" lon="10.68006834067097"><ele>120.33333333333334</ele><time>2026-04-18T14:00:20Z</time></trkpt><trkpt lat="43.481314246275076" lon="10.679805437547724"><ele>121.0</ele><time>2026-04-18T14:00:21Z</time></trkpt><trkpt lat="43.48132866584671" lon="10.679537178655012"><ele>121.66666666666667</ele><time>2026-04-18T14:00:22Z</time></trkpt><trkpt lat="43.48134303459126" lon="10.679271960567233"><ele>122.33333333333334</ele><time>2026-04-18T14:00:23Z</time></trkpt><trkpt lat="43.481361550370565" lon="10.679013644643351"><ele>123.0</ele><time>2026-04-18T14:00:24Z</time></trkpt><trkpt lat="43.481373988914" lon="10.678748146597435"><ele>123.66666666666666</ele><time>2026-04-18T14:00:25Z</time></trkpt><trkpt lat="43.48138547516536" lon="10.678501361117414"><ele>124.33333333333333</ele><time>2026-04-18T14:00:26Z</time></trkpt><trkpt lat="43.48139956956217" lon="10.678292194823568"><ele>125.0</ele><time>2026-04-18T14:00:27Z</time></trkpt><trkpt lat="43.481419817282735" lon="10.678072704097241"><ele>125.0</ele><time>2026-04-18T14:00:28Z</time></trkpt><trkpt lat="43.48146370972693" lon="10.677863431775235"><ele>125.0</ele><time>2026-04-18T14:00:29Z</time></trkpt><trkpt lat="43.481527851863746" lon="10.677648349372172"><ele>125.0</ele><time>2026-04-18T14:00:30Z</time></trkpt><trkpt lat="43.481601265765136" lon="10.677427551803127"><ele>125.66666666666666</ele><time>2026-04-18T14:00:31Z</time></trkpt><trkpt lat="43.48167266331014" lon="10.6772053362641"><ele>126.33333333333334</ele><time>2026-04-18T14:00:32Z</time></trkpt><trkpt lat="43.481747646674734" lon="10.676982925653489"><ele>127.0</ele><time>2026-04-18T14:00:33Z</time></trkpt><trkpt lat="43.48181905081254" lon="10.676747427376892"><ele>128.0</ele><time>2026-04-18T14:00:34Z</time></trkpt><trkpt lat="43.48188926645383" lon="10.676501237741512"><ele>129.0</ele><time>2026-04-18T14:00:35Z</time></trkpt><trkpt lat="43.481961842025" lon="10.676256314762748"><ele>130.0</ele><time>2026-04-18T14:00:36Z</time></trkpt><trkpt lat="43.482034113495295" lon="10.676011798275432"><ele>131.33333333333334</ele><time>2026-04-18T14:00:37Z</time></trkpt><trkpt lat="43.48211801009828" lon="10.675761366768443"><ele>132.66666666666666</ele><time>2026-04-18T14:00:38Z</time></trkpt><trkpt lat="43.48219641373605" lon="10.675514705595647"><ele>134.0</ele><time>2026-04-18T14:00:39Z</time></trkpt><trkpt lat="43.48227397249887" lon="10.675276582388525"><ele>135.66666666666666</ele><time>2026-04-18T14:00:40Z</time></trkpt><trkpt lat="43.482330497925346" lon="10.675068738691518"><ele>137.33333333333334</ele><time>2026-04-18T14:00:41Z</time></trkpt><trkpt lat="43.482359595497776" lon="10.674847559085949"><ele>139.0</ele><time>2026-04-18T14:00:42Z</time></trkpt><trkpt lat="43.482377871197976" lon="10.674624662017619"><ele>138.33333333333334</ele><time>2026-04-18T14:00:43Z</time></trkpt><trkpt lat="43.4823656082181" lon="10.674422886955679"><ele>137.66666666666666</ele><time>2026-04-18T14:00:44Z</time></trkpt><trkpt lat="43.482321837916025" lon="10.6742182506627"><ele>137.0</ele><time>2026-04-18T14:00:45Z</time></trkpt><trkpt lat="43.482263115509426" lon="10.674028796140666"><ele>137.0</ele><time>2026-04-18T14:00:46Z</time></trkpt><trkpt lat="43.482192532039804" lon="10.67386637315865"><ele>137.0</ele><time>2026-04-18T14:00:47Z</time></trkpt><trkpt lat="43.48214470757608" lon="10.673712679858323"><ele>137.0</ele><time>2026-04-18T14:00:48Z</time></trkpt><trkpt lat="43.48213060844674" lon="10.67355160096167"><ele>137.0</ele><time>2026-04-18T14:00:49Z</time></trkpt><trkpt lat="43.48216070192471" lon="10.673395549225438"><ele>136.0</ele><time>2026-04-18T14:00:50Z</time></trkpt><trkpt lat="43.482230149651926" lon="10.673276856078264"><ele>135.0</ele><time>2026-04-18T14:00:51Z</time></trkpt><trkpt lat="43.48232665394198" lon="10.673187110646031"><ele>134.0</ele><time>2026-04-18T14:00:52Z</time></trkpt><trkpt lat="43.482422971806805" lon="10.673109664696636"><ele>133.0</ele><time>2026-04-18T14:00:53Z</time></trkpt><trkpt lat="43.48250625041956" lon="10.673045775582695"><ele>132.0</ele><time>2026-04-18T14:00:54Z</time></trkpt><trkpt lat="43.482582871526866" lon="10.672985709157393"><ele>132.0</ele><time>2026-04-18T14:00:55Z</time></trkpt><trkpt lat="43.48265682594909" lon="10.672937701127944"><ele>132.0</ele><time>2026-04-18T14:00:56Z</time></trkpt><trkpt lat="43.48272298916199" lon="10.672895507853184"><ele>132.0</ele><time>2026-04-18T14:00:57Z</time></trkpt><trkpt lat="43.482785184100706" lon="10.67286813761515"><ele>132.0</ele><time>2026-04-18T14:00:58Z</time></trkpt><trkpt lat="43.482879270206375" lon="10.672838032233892"><ele>132.0</ele><time>2026-04-18T14:01:00Z</time></trkpt><trkpt lat="43.48281107614655" lon="10.67280971102773"><ele>132.0</ele><time>2026-04-18T14:01:03Z</time></trkpt><trkpt lat="43.48274588620692" lon="10.672845672547743"><ele>132.0</ele><time>2026-04-18T14:01:04Z</time></trkpt><trkpt lat="43.48264551242246" lon="10.672916539583717"><ele>132.0</ele><time>2026-04-18T14:01:05Z</time></trkpt><trkpt lat="43.482533688706575" lon="10.673011170638665"><ele>132.0</ele><time>2026-04-18T14:01:06Z</time></trkpt><trkpt lat="43.482404391234844" lon="10.67311348740109"><ele>132.0</ele><time>2026-04-18T14:01:07Z</time></trkpt><trkpt lat="43.482283485667416" lon="10.673241972231846"><ele>132.0</ele><time>2026-04-18T14:01:08Z</time></trkpt><trkpt lat="43.482183560152045" lon="10.673401970498425"><ele>132.0</ele><time>2026-04-18T14:01:09Z</time></trkpt><trkpt lat="43.48213926725873" lon="10.673560593631702"><ele>132.0</ele><time>2026-04-18T14:01:10Z</time></trkpt><trkpt lat="43.48212919127263" lon="10.67370685122319"><ele>132.0</ele><time>2026-04-18T14:01:11Z</time></trkpt><trkpt lat="43.48210588293272" lon="10.673810786234595"><ele>132.6</ele><time>2026-04-18T14:01:12Z</time></trkpt><trkpt lat="43.48202678518724" lon="10.673829102575919"><ele>133.2</ele><time>2026-04-18T14:01:13Z</time></trkpt><trkpt lat="43.481928471444185" lon="10.673779753350317"><ele>133.8</ele><time>2026-04-18T14:01:14Z</time></trkpt><trkpt lat="43.481803538523835" lon="10.673741572409915"><ele>134.4</ele><time>2026-04-18T14:01:15Z</time></trkpt><trkpt lat="43.481676329735365" lon="10.673715545495108"><ele>135.0</ele><time>2026-04-18T14:01:16Z</time></trkpt><trkpt lat="43.481538109062036" lon="10.673622210311937"><ele>135.66666666666666</ele><time>2026-04-18T14:01:17Z</time></trkpt><trkpt lat="43.481441391187964" lon="10.6734566193091"><ele>136.33333333333331</ele><time>2026-04-18T14:01:18Z</time></trkpt><trkpt lat="43.481363758218855" lon="10.673282195650843"><ele>137.0</ele><time>2026-04-18T14:01:19Z</time></trkpt><trkpt lat="43.48130276335014" lon="10.673067809130082"><ele>138.33333333333331</ele><time>2026-04-18T14:01:20Z</time></trkpt><trkpt lat="43.48123106294988" lon="10.672844506592968"><ele>139.66666666666666</ele><time>2026-04-18T14:01:21Z</time></trkpt><trkpt lat="43.481162473498905" lon="10.672610708488426"><ele>141.0</ele><time>2026-04-18T14:01:22Z</time></trkpt><trkpt lat="43.48110031082063" lon="10.672356372096893"><ele>142.0</ele><time>2026-04-18T14:01:23Z</time></trkpt><trkpt lat="43.481045075673116" lon="10.672105824011295"><ele>143.0</ele><time>2026-04-18T14:01:24Z</time></trkpt><trkpt lat="43.48098361542081" lon="10.671846635460653"><ele>144.0</ele><time>2026-04-18T14:01:25Z</time></trkpt><trkpt lat="43.48093580746774" lon="10.67161859723411"><ele>146.0</ele><time>2026-04-18T14:01:26Z</time></trkpt><trkpt lat="43.48088475561514" lon="10.67142744821951"><ele>148.0</ele><time>2026-04-18T14:01:27Z</time></trkpt><trkpt lat="43.48084777713222" lon="10.67125931910366"><ele>150.0</ele><time>2026-04-18T14:01:28Z</time></trkpt><trkpt lat="43.480823591333156" lon="10.67109149031015"><ele>152.0</ele><time>2026-04-18T14:01:29Z</time></trkpt><trkpt lat="43.4808471420248" lon="10.670924223983592"><ele>153.2</ele><time>2026-04-18T14:01:30Z</time></trkpt><trkpt lat="43.480888467273076" lon="10.670753306639767"><ele>154.39999999999998</ele><time>2026-04-18T14:01:31Z</time></trkpt><trkpt lat="43.48092663812871" lon="10.670606734930907"><ele>155.60000000000002</ele><time>2026-04-18T14:01:32Z</time></trkpt><trkpt lat="43.48094423147384" lon="10.670473540657646"><ele>156.8</ele><time>2026-04-18T14:01:33Z</time></trkpt><trkpt lat="43.48092346083099" lon="10.670345551877318"><ele>158.0</ele><time>2026-04-18T14:01:34Z</time></trkpt><trkpt lat="43.48088371808484" lon="10.670232160846236"><ele>158.0</ele><time>2026-04-18T14:01:35Z</time></trkpt><trkpt lat="43.4808226900827" lon="10.670119916710645"><ele>158.0</ele><time>2026-04-18T14:01:36Z</time></trkpt><trkpt lat="43.48074092874357" lon="10.670016344344512"><ele>158.0</ele><time>2026-04-18T14:01:37Z</time></trkpt><trkpt lat="43.48064894519891" lon="10.669886516085839"><ele>158.0</ele><time>2026-04-18T14:01:38Z</time></trkpt><trkpt lat="43.48055499981153" lon="10.669747246615747"><ele>158.0</ele><time>2026-04-18T14:01:39Z</time></trkpt><trkpt lat="43.48046940638242" lon="10.669605401060542"><ele>158.0</ele><time>2026-04-18T14:01:40Z</time></trkpt><trkpt lat="43.480374287168814" lon="10.669453256004548"><ele>158.0</ele><time>2026-04-18T14:01:41Z</time></trkpt><trkpt lat="43.48027745506982" lon="10.669299591396367"><ele>158.0</ele><time>2026-04-18T14:01:42Z</time></trkpt><trkpt lat="43.48019291280543" lon="10.669151623985677"><ele>157.25</ele><time>2026-04-18T14:01:43Z</time></trkpt><trkpt lat="43.48011170355856" lon="10.669014878309694"><ele>156.5</ele><time>2026-04-18T14:01:44Z</time></trkpt><trkpt lat="43.48004143792335" lon="10.668882444836564"><ele>155.75</ele><time>2026-04-18T14:01:45Z</time></trkpt><trkpt lat="43.479973588117524" lon="10.668747556271317"><ele>155.0</ele><time>2026-04-18T14:01:46Z</time></trkpt><trkpt lat="43.47991629527172" lon="10.668614421087273"><ele>155.2</ele><time>2026-04-18T14:01:47Z</time></trkpt><trkpt lat="43.47984897103321" lon="10.668469467224488"><ele>155.4</ele><time>2026-04-18T14:01:48Z</time></trkpt><trkpt lat="43.479771011034934" lon="10.668356481375165"><ele>155.6</ele><time>2026-04-18T14:01:49Z</time></trkpt><trkpt lat="43.47968296618149" lon="10.66828437628124"><ele>155.8</ele><time>2026-04-18T14:01:50Z</time></trkpt><trkpt lat="43.479583356506424" lon="10.66826117164905"><ele>156.0</ele><time>2026-04-18T14:01:51Z</time></trkpt><trkpt lat="43.479480027775004" lon="10.668298789087562"><ele>156.0</ele><time>2026-04-18T14:01:52Z</time></trkpt><trkpt lat="43.47939401214404" lon="10.668372142176976"><ele>156.0</ele><time>2026-04-18T14:01:53Z</time></trkpt><trkpt lat="43.479328078268885" lon="10.668438591132148"><ele>156.0</ele><time>2026-04-18T14:01:54Z</time></trkpt><trkpt lat="43.47926941930831" lon="10.668494996371377"><ele>156.0</ele><time>2026-04-18T14:01:55Z</time></trkpt><trkpt lat="43.47920116703223" lon="10.668551441134019"><ele>156.0</ele><time>2026-04-18T14:01:56Z</time></trkpt><trkpt lat="43.479116586502556" lon="10.668594489676707"><ele>156.0</ele><time>2026-04-18T14:01:57Z</time></trkpt><trkpt lat="43.47901048500221" lon="10.668626518366237"><ele>156.0</ele><time>2026-04-18T14:01:58Z</time></trkpt><trkpt lat="43.47890461433146" lon="10.668623056631507"><ele>156.0</ele><time>2026-04-18T14:01:59Z</time></trkpt><trkpt lat="43.47880333597066" lon="10.668579619538956"><ele>156.0</ele><time>2026-04-18T14:02:00Z</time></trkpt><trkpt lat="43.47868758365802" lon="10.668553874584951"><ele>156.0</ele><time>2026-04-18T14:02:01Z</time></trkpt><trkpt lat="43.47855217307602" lon="10.66851570411703"><ele>156.0</ele><time>2026-04-18T14:02:02Z</time></trkpt><trkpt lat="43.47840896688163" lon="10.668468615898508"><ele>156.0</ele><time>2026-04-18T14:02:03Z</time></trkpt><trkpt lat="43.47826679416314" lon="10.668419411266717"><ele>156.0</ele><time>2026-04-18T14:02:04Z</time></trkpt><trkpt lat="43.478118727366684" lon="10.668374322006493"><ele>156.0</ele><time>2026-04-18T14:02:05Z</time></trkpt><trkpt lat="43.477976972993766" lon="10.668341186252736"><ele>156.75</ele><time>2026-04-18T14:02:06Z</time></trkpt><trkpt lat="43.47784188130088" lon="10.668349669581792"><ele>157.5</ele><time>2026-04-18T14:02:07Z</time></trkpt><trkpt lat="43.477705753392684" lon="10.668371929366046"><ele>158.25</ele><time>2026-04-18T14:02:08Z</time></trkpt><trkpt lat="43.47756047450532" lon="10.668414917104618"><ele>159.0</ele><time>2026-04-18T14:02:09Z</time></trkpt><trkpt lat="43.477414991468905" lon="10.668448898484627"><ele>159.0</ele><time>2026-04-18T14:02:10Z</time></trkpt><trkpt lat="43.47726314269068" lon="10.668486785736158"><ele>159.0</ele><time>2026-04-18T14:02:11Z</time></trkpt><trkpt lat="43.4770984595174" lon="10.668522391825897"><ele>159.0</ele><time>2026-04-18T14:02:12Z</time></trkpt><trkpt lat="43.47693179935247" lon="10.668563080841674"><ele>156.33333333333334</ele><time>2026-04-18T14:02:13Z</time></trkpt><trkpt lat="43.47676208149216" lon="10.668619952987715"><ele>153.66666666666669</ele><time>2026-04-18T14:02:14Z</time></trkpt><trkpt lat="43.47660829499178" lon="10.668675200415086"><ele>151.0</ele><time>2026-04-18T14:02:15Z</time></trkpt><trkpt lat="43.47645394716957" lon="10.66872360811698"><ele>151.0</ele><time>2026-04-18T14:02:16Z</time></trkpt><trkpt lat="43.4762937287725" lon="10.668769423171582"><ele>151.0</ele><time>2026-04-18T14:02:17Z</time></trkpt><trkpt lat="43.47613814377425" lon="10.668800610252768"><ele>151.0</ele><time>2026-04-18T14:02:18Z</time></trkpt><trkpt lat="43.47598730700998" lon="10.668849099985316"><ele>152.25</ele><time>2026-04-18T14:02:19Z</time></trkpt><trkpt lat="43.475857894283784" lon="10.66889395750707"><ele>153.5</ele><time>2026-04-18T14:02:20Z</time></trkpt><trkpt lat="43.475727642627625" lon="10.668929159534915"><ele>154.75</ele><time>2026-04-18T14:02:21Z</time></trkpt><trkpt lat="43.47559756065716" lon="10.668964971297482"><ele>156.0</ele><time>2026-04-18T14:02:22Z</time></trkpt><trkpt lat="43.47545756746985" lon="10.668986159922431"><ele>158.75</ele><time>2026-04-18T14:02:23Z</time></trkpt><trkpt lat="43.47533149675658" lon="10.668976146268347"><ele>161.5</ele><time>2026-04-18T14:02:24Z</time></trkpt><trkpt lat="43.47522650551293" lon="10.668933093466594"><ele>164.25</ele><time>2026-04-18T14:02:25Z</time></trkpt><trkpt lat="43.47514392416213" lon="10.668837846868513"><ele>167.0</ele><time>2026-04-18T14:02:26Z</time></trkpt><trkpt lat="43.47506461871562" lon="10.668714598186336"><ele>166.75</ele><time>2026-04-18T14:02:27Z</time></trkpt><trkpt lat="43.474976732376284" lon="10.668609341272141"><ele>166.5</ele><time>2026-04-18T14:02:28Z</time></trkpt><trkpt lat="43.47486828521875" lon="10.668509042812229"><ele>166.25</ele><time>2026-04-18T14:02:29Z</time></trkpt><trkpt lat="43.47475135567515" lon="10.668419422611487"><ele>166.0</ele><time>2026-04-18T14:02:30Z</time></trkpt><trkpt lat="43.474617980308295" lon="10.668369087216425"><ele>167.66666666666669</ele><time>2026-04-18T14:02:31Z</time></trkpt><trkpt lat="43.47447685145561" lon="10.668313851149286"><ele>169.33333333333334</ele><time>2026-04-18T14:02:32Z</time></trkpt><trkpt lat="43.47432137913226" lon="10.668248223194787"><ele>171.0</ele><time>2026-04-18T14:02:33Z</time></trkpt><trkpt lat="43.47417582534578" lon="10.668168593229646"><ele>171.0</ele><time>2026-04-18T14:02:34Z</time></trkpt><trkpt lat="43.47402118184384" lon="10.668099734776142"><ele>171.0</ele><time>2026-04-18T14:02:35Z</time></trkpt><trkpt lat="43.47387126694986" lon="10.668031131527183"><ele>171.0</ele><time>2026-04-18T14:02:36Z</time></trkpt><trkpt lat="43.473723583331214" lon="10.667971887743887"><ele>172.0</ele><time>2026-04-18T14:02:37Z</time></trkpt><trkpt lat="43.473607730548885" lon="10.66791779236784"><ele>173.0</ele><time>2026-04-18T14:02:38Z</time></trkpt><trkpt lat="43.47347406259702" lon="10.667859224263626"><ele>174.0</ele><time>2026-04-18T14:02:39Z</time></trkpt><trkpt lat="43.473310315059074" lon="10.66781662915499"><ele>175.0</ele><time>2026-04-18T14:02:40Z</time></trkpt><trkpt lat="43.47320270254325" lon="10.667712068631188"><ele>176.25</ele><time>2026-04-18T14:02:41Z</time></trkpt><trkpt lat="43.473120074395034" lon="10.667584472230278"><ele>177.5</ele><time>2026-04-18T14:02:42Z</time></trkpt><trkpt lat="43.473045667646865" lon="10.667416894065319"><ele>178.75</ele><time>2026-04-18T14:02:43Z</time></trkpt><trkpt lat="43.47297012222533" lon="10.667235332903862"><ele>180.0</ele><time>2026-04-18T14:02:44Z</time></trkpt><trkpt lat="43.47290477143829" lon="10.66707573829518"><ele>181.0</ele><time>2026-04-18T14:02:45Z</time></trkpt><trkpt lat="43.47284275666965" lon="10.666949992751755"><ele>182.0</ele><time>2026-04-18T14:02:46Z</time></trkpt><trkpt lat="43.47273352457841" lon="10.666846291193378"><ele>183.0</ele><time>2026-04-18T14:02:47Z</time></trkpt><trkpt lat="43.472614292055255" lon="10.666748577050177"><ele>184.0</ele><time>2026-04-18T14:02:48Z</time></trkpt><trkpt lat="43.472477333819214" lon="10.66666401752859"><ele>184.66666666666669</ele><time>2026-04-18T14:02:49Z</time></trkpt><trkpt lat="43.4723469702097" lon="10.666573494770612"><ele>185.33333333333334</ele><time>2026-04-18T14:02:50Z</time></trkpt><trkpt lat="43.472211803486275" lon="10.666463314716887"><ele>186.0</ele><time>2026-04-18T14:02:51Z</time></trkpt><trkpt lat="43.472073424175576" lon="10.666354069485907"><ele>186.0</ele><time>2026-04-18T14:02:52Z</time></trkpt><trkpt lat="43.471930579382004" lon="10.66624562531115"><ele>186.0</ele><time>2026-04-18T14:02:53Z</time></trkpt><trkpt lat="43.47178439871968" lon="10.666140120812619"><ele>186.0</ele><time>2026-04-18T14:02:54Z</time></trkpt><trkpt lat="43.471636845905486" lon="10.66602769347695"><ele>188.0</ele><time>2026-04-18T14:02:55Z</time></trkpt><trkpt lat="43.47149508760381" lon="10.66590626214132"><ele>190.0</ele><time>2026-04-18T14:02:56Z</time></trkpt><trkpt lat="43.47134477370985" lon="10.665783322422419"><ele>192.0</ele><time>2026-04-18T14:02:57Z</time></trkpt><trkpt lat="43.47119217440359" lon="10.665675889611709"><ele>192.66666666666669</ele><time>2026-04-18T14:02:58Z</time></trkpt><trkpt lat="43.471048441865996" lon="10.66556127415023"><ele>193.33333333333334</ele><time>2026-04-18T14:02:59Z</time></trkpt><trkpt lat="43.47090767437574" lon="10.665461289819415"><ele>194.0</ele><time>2026-04-18T14:03:00Z</time></trkpt><trkpt lat="43.47079646027905" lon="10.665373798370545"><ele>194.0</ele><time>2026-04-18T14:03:01Z</time></trkpt><trkpt lat="43.47069658261315" lon="10.665279531558483"><ele>194.0</ele><time>2026-04-18T14:03:02Z</time></trkpt><trkpt lat="43.47060146038815" lon="10.665173797374749"><ele>194.0</ele><time>2026-04-18T14:03:03Z</time></trkpt><trkpt lat="43.47053623270498" lon="10.665033121523546"><ele>194.0</ele><time>2026-04-18T14:03:04Z</time></trkpt><trkpt lat="43.47047639154084" lon="10.664894927414814"><ele>199.75</ele><time>2026-04-18T14:03:05Z</time></trkpt><trkpt lat="43.470409567486406" lon="10.664748701272124"><ele>205.5</ele><time>2026-04-18T14:03:06Z</time></trkpt><trkpt lat="43.470350310814446" lon="10.66460353860938"><ele>211.25</ele><time>2026-04-18T14:03:07Z</time></trkpt><trkpt lat="43.470289825948946" lon="10.664458210760607"><ele>217.0</ele><time>2026-04-18T14:03:08Z</time></trkpt><trkpt lat="43.4702307144056" lon="10.664289712738757"><ele>217.5</ele><time>2026-04-18T14:03:09Z</time></trkpt><trkpt lat="43.47022502118975" lon="10.664108781794672"><ele>218.0</ele><time>2026-04-18T14:03:10Z</time></trkpt><trkpt lat="43.4702347897585" lon="10.663920691012372"><ele>218.5</ele><time>2026-04-18T14:03:11Z</time></trkpt><trkpt lat="43.47024767640706" lon="10.663737396953925"><ele>219.0</ele><time>2026-04-18T14:03:12Z</time></trkpt><trkpt lat="43.470271076936825" lon="10.663566979281143"><ele>220.25</ele><time>2026-04-18T14:03:13Z</time></trkpt><trkpt lat="43.470275025880035" lon="10.66337765624854"><ele>221.5</ele><time>2026-04-18T14:03:14Z</time></trkpt><trkpt lat="43.47025138810465" lon="10.66319365745632"><ele>222.75</ele><time>2026-04-18T14:03:15Z</time></trkpt><trkpt lat="43.470190444295945" lon="10.663024323742006"><ele>224.0</ele><time>2026-04-18T14:03:16Z</time></trkpt><trkpt lat="43.47009014974049" lon="10.662893171384278"><ele>225.0</ele><time>2026-04-18T14:03:17Z</time></trkpt><trkpt lat="43.46997971585357" lon="10.662779836035034"><ele>226.0</ele><time>2026-04-18T14:03:18Z</time></trkpt><trkpt lat="43.46986989077587" lon="10.662658278509346"><ele>227.0</ele><time>2026-04-18T14:03:19Z</time></trkpt><trkpt lat="43.4697770657004" lon="10.662543066807583"><ele>228.0</ele><time>2026-04-18T14:03:20Z</time></trkpt><trkpt lat="43.46967452039882" lon="10.662402369115185"><ele>229.5</ele><time>2026-04-18T14:03:21Z</time></trkpt><trkpt lat="43.4695671880909" lon="10.66227984027539"><ele>231.0</ele><time>2026-04-18T14:03:22Z</time></trkpt><trkpt lat="43.46947100873091" lon="10.662160187028121"><ele>232.5</ele><time>2026-04-18T14:03:23Z</time></trkpt><trkpt lat="43.46937242741849" lon="10.662035964893336"><ele>234.0</ele><time>2026-04-18T14:03:24Z</time></trkpt><trkpt lat="43.46927540539435" lon="10.661884265504755"><ele>234.0</ele><time>2026-04-18T14:03:25Z</time></trkpt><trkpt lat="43.46919125060981" lon="10.661713006360028"><ele>234.0</ele><time>2026-04-18T14:03:26Z</time></trkpt><trkpt lat="43.469112890062455" lon="10.66153159355565"><ele>234.0</ele><time>2026-04-18T14:03:27Z</time></trkpt><trkpt lat="43.46902971676379" lon="10.661340287593909"><ele>234.0</ele><time>2026-04-18T14:03:28Z</time></trkpt><trkpt lat="43.4689447662729" lon="10.661151141329258"><ele>234.0</ele><time>2026-04-18T14:03:29Z</time></trkpt><trkpt lat="43.4688714082666" lon="10.660995284745068"><ele>234.0</ele><time>2026-04-18T14:03:30Z</time></trkpt><trkpt lat="43.46880108817277" lon="10.66084812036926"><ele>234.0</ele><time>2026-04-18T14:03:31Z</time></trkpt><trkpt lat="43.4687277386632" lon="10.660699696792003"><ele>234.5</ele><time>2026-04-18T14:03:32Z</time></trkpt><trkpt lat="43.46863629395918" lon="10.660562003520335"><ele>235.0</ele><time>2026-04-18T14:03:33Z</time></trkpt><trkpt lat="43.46852820179777" lon="10.660404480421763"><ele>235.5</ele><time>2026-04-18T14:03:34Z</time></trkpt><trkpt lat="43.468427916686494" lon="10.660249356629832"><ele>236.0</ele><time>2026-04-18T14:03:35Z</time></trkpt><trkpt lat="43.46831741326215" lon="10.660090942657646"><ele>238.66666666666669</ele><time>2026-04-18T14:03:36Z</time></trkpt><trkpt lat="43.468204705892084" lon="10.659934479043917"><ele>241.33333333333331</ele><time>2026-04-18T14:03:37Z</time></trkpt><trkpt lat="43.46809361496282" lon="10.659781578087118"><ele>244.0</ele><time>2026-04-18T14:03:38Z</time></trkpt><trkpt lat="43.467986658422156" lon="10.659621048717321"><ele>244.33333333333331</ele><time>2026-04-18T14:03:39Z</time></trkpt><trkpt lat="43.46788508797875" lon="10.659462933243114"><ele>244.66666666666669</ele><time>2026-04-18T14:03:40Z</time></trkpt><trkpt lat="43.467769520684854" lon="10.65930450442444"><ele>245.0</ele><time>2026-04-18T14:03:41Z</time></trkpt><trkpt lat="43.46765833118212" lon="10.659150579712243"><ele>248.0</ele><time>2026-04-18T14:03:42Z</time></trkpt><trkpt lat="43.4675682064984" lon="10.65901451437299"><ele>251.0</ele><time>2026-04-18T14:03:43Z</time></trkpt><trkpt lat="43.467487015447155" lon="10.658917568517568"><ele>254.0</ele><time>2026-04-18T14:03:44Z</time></trkpt><trkpt lat="43.46739256767658" lon="10.658817542295951"><ele>257.0</ele><time>2026-04-18T14:03:45Z</time></trkpt><trkpt lat="43.46728282603866" lon="10.658713914695374"><ele>259.33333333333337</ele><time>2026-04-18T14:03:46Z</time></trkpt><trkpt lat="43.46717246239874" lon="10.658587494049103"><ele>261.6666666666667</ele><time>2026-04-18T14:03:47Z</time></trkpt><trkpt lat="43.467052783953626" lon="10.65846166131356"><ele>264.0</ele><time>2026-04-18T14:03:48Z</time></trkpt><trkpt lat="43.466925574500735" lon="10.658335095087688"><ele>266.0</ele><time>2026-04-18T14:03:49Z</time></trkpt><trkpt lat="43.466802632359084" lon="10.658195740663958"><ele>268.0</ele><time>2026-04-18T14:03:50Z</time></trkpt><trkpt lat="43.46669355971118" lon="10.658066864570523"><ele>270.0</ele><time>2026-04-18T14:03:51Z</time></trkpt><trkpt lat="43.46655747459076" lon="10.657950122500054"><ele>270.0</ele><time>2026-04-18T14:03:52Z</time></trkpt><trkpt lat="43.46641336357086" lon="10.65782145238102"><ele>270.0</ele><time>2026-04-18T14:03:53Z</time></trkpt><trkpt lat="43.466287603880346" lon="10.657675993740465"><ele>270.0</ele><time>2026-04-18T14:03:54Z</time></trkpt><trkpt lat="43.466220659481635" lon="10.657585932501728"><ele>270.0</ele><time>2026-04-18T14:03:55Z</time></trkpt><trkpt lat="43.46618142009303" lon="10.657394930399338"><ele>271.5</ele><time>2026-04-18T14:03:57Z</time></trkpt><trkpt lat="43.466153923352316" lon="10.657263160894946"><ele>273.0</ele><time>2026-04-18T14:03:58Z</time></trkpt><trkpt lat="43.466125774391706" lon="10.657118010438186"><ele>274.5</ele><time>2026-04-18T14:03:59Z</time></trkpt><trkpt lat="43.46609487644291" lon="10.656947277442516"><ele>276.0</ele><time>2026-04-18T14:04:00Z</time></trkpt><trkpt lat="43.46606514103511" lon="10.656767140703877"><ele>276.8333333333333</ele><time>2026-04-18T14:04:01Z</time></trkpt><trkpt lat="43.46603484507025" lon="10.656685010812012"><ele>277.6666666666667</ele><time>2026-04-18T14:04:02Z</time></trkpt><trkpt lat="43.46600326278307" lon="10.656591318971563"><ele>278.5</ele><time>2026-04-18T14:04:03Z</time></trkpt><trkpt lat="43.46597092311215" lon="10.656481481836906"><ele>279.33333333333337</ele><time>2026-04-18T14:04:04Z</time></trkpt><trkpt lat="43.46594228032206" lon="10.656353450234958"><ele>280.1666666666667</ele><time>2026-04-18T14:04:05Z</time></trkpt><trkpt lat="43.46592576322776" lon="10.656233390604797"><ele>281.0</ele><time>2026-04-18T14:04:06Z</time></trkpt><trkpt lat="43.46589320329992" lon="10.656107073315082"><ele>282.2</ele><time>2026-04-18T14:04:07Z</time></trkpt><trkpt lat="43.46586242872083" lon="10.65598787162934"><ele>283.40000000000003</ele><time>2026-04-18T14:04:08Z</time></trkpt><trkpt lat="43.46583292135984" lon="10.655862602357635"><ele>284.6</ele><time>2026-04-18T14:04:09Z</time></trkpt><trkpt lat="43.46580676638265" lon="10.655737187056458"><ele>285.8</ele><time>2026-04-18T14:04:10Z</time></trkpt><trkpt lat="43.46578384018099" lon="10.6556270845216"><ele>287.0</ele><time>2026-04-18T14:04:11Z</time></trkpt><trkpt lat="43.46575866531582" lon="10.655504187688843"><ele>287.0</ele><time>2026-04-18T14:04:12Z</time></trkpt><trkpt lat="43.46573187866416" lon="10.65538553819584"><ele>287.0</ele><time>2026-04-18T14:04:13Z</time></trkpt><trkpt lat="43.465693509884076" lon="10.655259409237123"><ele>287.0</ele><time>2026-04-18T14:04:14Z</time></trkpt><trkpt lat="43.465676148122526" lon="10.65511555700731"><ele>287.0</ele><time>2026-04-18T14:04:15Z</time></trkpt><trkpt lat="43.46563807983056" lon="10.654967008571012"><ele>287.0</ele><time>2026-04-18T14:04:16Z</time></trkpt><trkpt lat="43.46559601964193" lon="10.654824041597019"><ele>288.0</ele><time>2026-04-18T14:04:17Z</time></trkpt><trkpt lat="43.46557547809565" lon="10.654679207206257"><ele>289.0</ele><time>2026-04-18T14:04:18Z</time></trkpt><trkpt lat="43.465536549239" lon="10.654509845760876"><ele>290.0</ele><time>2026-04-18T14:04:19Z</time></trkpt><trkpt lat="43.46549413790688" lon="10.65434017715943"><ele>291.0</ele><time>2026-04-18T14:04:20Z</time></trkpt><trkpt lat="43.465456331477434" lon="10.654164892271082"><ele>292.75</ele><time>2026-04-18T14:04:21Z</time></trkpt><trkpt lat="43.46542852413195" lon="10.654000798498872"><ele>294.5</ele><time>2026-04-18T14:04:22Z</time></trkpt><trkpt lat="43.465399780958506" lon="10.653823085563758"><ele>296.25</ele><time>2026-04-18T14:04:23Z</time></trkpt><trkpt lat="43.465340811477475" lon="10.653656162711416"><ele>298.0</ele><time>2026-04-18T14:04:24Z</time></trkpt><trkpt lat="43.46528248739894" lon="10.653498548749237"><ele>299.0</ele><time>2026-04-18T14:04:25Z</time></trkpt><trkpt lat="43.46526634213082" lon="10.653291927564153"><ele>300.0</ele><time>2026-04-18T14:04:26Z</time></trkpt><trkpt lat="43.46524436947159" lon="10.65307484516516"><ele>301.0</ele><time>2026-04-18T14:04:27Z</time></trkpt><trkpt lat="43.46515879435147" lon="10.652914229017355"><ele>301.75</ele><time>2026-04-18T14:04:28Z</time></trkpt><trkpt lat="43.465063850572534" lon="10.65277377539988"><ele>302.5</ele><time>2026-04-18T14:04:29Z</time></trkpt><trkpt lat="43.46500333030501" lon="10.652636685302186"><ele>303.25</ele><time>2026-04-18T14:04:30Z</time></trkpt><trkpt lat="43.46493382393857" lon="10.652517485284141"><ele>304.0</ele><time>2026-04-18T14:04:31Z</time></trkpt><trkpt lat="43.465090403952765" lon="10.652229661744336"><ele>304.0</ele><time>2026-04-18T14:04:32Z</time></trkpt><trkpt lat="43.46512377521266" lon="10.65204959792392"><ele>304.0</ele><time>2026-04-18T14:04:33Z</time></trkpt><trkpt lat="43.46516958362003" lon="10.651899862050113"><ele>304.0</ele><time>2026-04-18T14:04:34Z</time></trkpt><trkpt lat="43.46520184542358" lon="10.651745166178733"><ele>304.0</ele><time>2026-04-18T14:04:35Z</time></trkpt><trkpt lat="43.46522763817325" lon="10.651594589253477"><ele>304.3333333333333</ele><time>2026-04-18T14:04:36Z</time></trkpt><trkpt lat="43.46524595397247" lon="10.651458079166733"><ele>304.66666666666663</ele><time>2026-04-18T14:04:37Z</time></trkpt><trkpt lat="43.46526104713606" lon="10.651344945664935"><ele>305.0</ele><time>2026-04-18T14:04:38Z</time></trkpt><trkpt lat="43.46527365110026" lon="10.651236721792259"><ele>305.3333333333333</ele><time>2026-04-18T14:04:39Z</time></trkpt><trkpt lat="43.46528564685237" lon="10.651115403912954"><ele>305.6666666666667</ele><time>2026-04-18T14:04:40Z</time></trkpt><trkpt lat="43.46529912155393" lon="10.651000731810482"><ele>306.0</ele><time>2026-04-18T14:04:41Z</time></trkpt><trkpt lat="43.46531085881189" lon="10.650877294192885"><ele>306.2</ele><time>2026-04-18T14:04:42Z</time></trkpt><trkpt lat="43.46532703528386" lon="10.650749945877477"><ele>306.40000000000003</ele><time>2026-04-18T14:04:43Z</time></trkpt><trkpt lat="43.465346268557205" lon="10.650621110586767"><ele>306.6</ele><time>2026-04-18T14:04:44Z</time></trkpt><trkpt lat="43.465371958347504" lon="10.65047491154491"><ele>306.8</ele><time>2026-04-18T14:04:45Z</time></trkpt><trkpt lat="43.46538381902979" lon="10.650347391320404"><ele>307.0</ele><time>2026-04-18T14:04:46Z</time></trkpt><trkpt lat="43.46538467378082" lon="10.650241752569578"><ele>307.0</ele><time>2026-04-18T14:04:47Z</time></trkpt><trkpt lat="43.465385065275214" lon="10.650152138973777"><ele>307.0</ele><time>2026-04-18T14:04:48Z</time></trkpt><trkpt lat="43.46539859111957" lon="10.650057089525198"><ele>307.0</ele><time>2026-04-18T14:04:49Z</time></trkpt><trkpt lat="43.4654187368078" lon="10.649947557910735"><ele>307.0</ele><time>2026-04-18T14:04:50Z</time></trkpt><trkpt lat="43.465448041745375" lon="10.64982700249662"><ele>307.0</ele><time>2026-04-18T14:04:51Z</time></trkpt><trkpt lat="43.46547734028012" lon="10.64969642719005"><ele>307.0</ele><time>2026-04-18T14:04:52Z</time></trkpt><trkpt lat="43.46550694188019" lon="10.649568576869568"><ele>307.0</ele><time>2026-04-18T14:04:53Z</time></trkpt><trkpt lat="43.465539763870396" lon="10.649455578994546"><ele>307.0</ele><time>2026-04-18T14:04:54Z</time></trkpt><trkpt lat="43.46556364000114" lon="10.649325555517164"><ele>307.0</ele><time>2026-04-18T14:04:55Z</time></trkpt><trkpt lat="43.46558233983375" lon="10.64919118327242"><ele>307.0</ele><time>2026-04-18T14:04:56Z</time></trkpt><trkpt lat="43.46560866600999" lon="10.649048573022279"><ele>307.0</ele><time>2026-04-18T14:04:57Z</time></trkpt><trkpt lat="43.46563507828093" lon="10.648917044681884"><ele>307.0</ele><time>2026-04-18T14:04:58Z</time></trkpt><trkpt lat="43.465671230655" lon="10.64879443458723"><ele>307.0</ele><time>2026-04-18T14:04:59Z</time></trkpt><trkpt lat="43.46569715974146" lon="10.648672738638709"><ele>307.0</ele><time>2026-04-18T14:05:00Z</time></trkpt><trkpt lat="43.46571541647663" lon="10.64853415108802"><ele>307.0</ele><time>2026-04-18T14:05:01Z</time></trkpt><trkpt lat="43.465734894822425" lon="10.648403081004247"><ele>307.0</ele><time>2026-04-18T14:05:02Z</time></trkpt><trkpt lat="43.46574793457361" lon="10.648276142595387"><ele>304.6</ele><time>2026-04-18T14:05:03Z</time></trkpt><trkpt lat="43.46576673434099" lon="10.648132192545951"><ele>302.2</ele><time>2026-04-18T14:05:04Z</time></trkpt><trkpt lat="43.465783876338314" lon="10.648005295634366"><ele>299.8</ele><time>2026-04-18T14:05:05Z</time></trkpt><trkpt lat="43.465789864779794" lon="10.64785737397087"><ele>297.4</ele><time>2026-04-18T14:05:06Z</time></trkpt><trkpt lat="43.46579508629032" lon="10.64772235059407"><ele>295.0</ele><time>2026-04-18T14:05:07Z</time></trkpt><trkpt lat="43.465850524753584" lon="10.647480514309882"><ele>292.66666666666663</ele><time>2026-04-18T14:05:08Z</time></trkpt><trkpt lat="43.465873573734605" lon="10.647266871995358"><ele>290.3333333333333</ele><time>2026-04-18T14:05:09Z</time></trkpt><trkpt lat="43.46589718414128" lon="10.647048908806262"><ele>288.0</ele><time>2026-04-18T14:05:10Z</time></trkpt><trkpt lat="43.46590177999915" lon="10.646813016483613"><ele>287.0</ele><time>2026-04-18T14:05:11Z</time></trkpt><trkpt lat="43.46588129683086" lon="10.64658980866696"><ele>286.0</ele><time>2026-04-18T14:05:12Z</time></trkpt><trkpt lat="43.46595105054951" lon="10.646358101895705"><ele>285.0</ele><time>2026-04-18T14:05:13Z</time></trkpt><trkpt lat="43.465988789285504" lon="10.646128934064889"><ele>286.0</ele><time>2026-04-18T14:05:14Z</time></trkpt><trkpt lat="43.46603422796643" lon="10.645903291317762"><ele>287.0</ele><time>2026-04-18T14:05:15Z</time></trkpt><trkpt lat="43.46608612646404" lon="10.64568255784331"><ele>288.0</ele><time>2026-04-18T14:05:16Z</time></trkpt><trkpt lat="43.466140093769084" lon="10.645480722810344"><ele>288.3333333333333</ele><time>2026-04-18T14:05:17Z</time></trkpt><trkpt lat="43.46619679877519" lon="10.645262756383232"><ele>288.66666666666663</ele><time>2026-04-18T14:05:18Z</time></trkpt><trkpt lat="43.46624154988519" lon="10.64504194319877"><ele>289.0</ele><time>2026-04-18T14:05:19Z</time></trkpt><trkpt lat="43.46628655965072" lon="10.644789839976735"><ele>290.0</ele><time>2026-04-18T14:05:20Z</time></trkpt><trkpt lat="43.46629361360904" lon="10.644580666183584"><ele>291.0</ele><time>2026-04-18T14:05:21Z</time></trkpt><trkpt lat="43.46629311995391" lon="10.644427058401394"><ele>292.0</ele><time>2026-04-18T14:05:22Z</time></trkpt><trkpt lat="43.46628988181389" lon="10.64426119887116"><ele>293.0</ele><time>2026-04-18T14:05:23Z</time></trkpt><trkpt lat="43.466488933886794" lon="10.644195042892045"><ele>294.0</ele><time>2026-04-18T14:05:24Z</time></trkpt><trkpt lat="43.466549727394195" lon="10.644041579648873"><ele>295.0</ele><time>2026-04-18T14:05:25Z</time></trkpt><trkpt lat="43.466609979760136" lon="10.643890276096242"><ele>296.0</ele><time>2026-04-18T14:05:26Z</time></trkpt><trkpt lat="43.46666265957189" lon="10.643733811475963"><ele>297.0</ele><time>2026-04-18T14:05:27Z</time></trkpt><trkpt lat="43.46672477248297" lon="10.643579128744825"><ele>298.25</ele><time>2026-04-18T14:05:28Z</time></trkpt><trkpt lat="43.46678170259248" lon="10.64341176541479"><ele>299.5</ele><time>2026-04-18T14:05:29Z</time></trkpt><trkpt lat="43.466847655792144" lon="10.643246650069376"><ele>300.75</ele><time>2026-04-18T14:05:30Z</time></trkpt><trkpt lat="43.466917034960744" lon="10.643082821590616"><ele>302.0</ele><time>2026-04-18T14:05:31Z</time></trkpt><trkpt lat="43.466957199772274" lon="10.642944454470015"><ele>302.0</ele><time>2026-04-18T14:05:32Z</time></trkpt><trkpt lat="43.46695673633385" lon="10.64281640295821"><ele>302.0</ele><time>2026-04-18T14:05:33Z</time></trkpt><trkpt lat="43.46690901840278" lon="10.64271019990007"><ele>302.0</ele><time>2026-04-18T14:05:34Z</time></trkpt><trkpt lat="43.46689074223976" lon="10.642591783099611"><ele>302.0</ele><time>2026-04-18T14:05:35Z</time></trkpt><trkpt lat="43.46694685029767" lon="10.64249174042386"><ele>302.0</ele><time>2026-04-18T14:05:36Z</time></trkpt><trkpt lat="43.4670326182832" lon="10.642436928857476"><ele>304.5</ele><time>2026-04-18T14:05:37Z</time></trkpt><trkpt lat="43.46713021435175" lon="10.642369972392384"><ele>307.0</ele><time>2026-04-18T14:05:38Z</time></trkpt><trkpt lat="43.46723010456108" lon="10.642275559091333"><ele>309.5</ele><time>2026-04-18T14:05:39Z</time></trkpt><trkpt lat="43.46731699454107" lon="10.642143596800468"><ele>312.0</ele><time>2026-04-18T14:05:40Z</time></trkpt><trkpt lat="43.46739052353249" lon="10.642010248872078"><ele>313.4</ele><time>2026-04-18T14:05:41Z</time></trkpt><trkpt lat="43.46745403104606" lon="10.641865798810265"><ele>314.79999999999995</ele><time>2026-04-18T14:05:42Z</time></trkpt><trkpt lat="43.467515179983664" lon="10.641756639167284"><ele>316.2</ele><time>2026-04-18T14:05:43Z</time></trkpt><trkpt lat="43.46756378746329" lon="10.641652909859197"><ele>317.59999999999997</ele><time>2026-04-18T14:05:44Z</time></trkpt><trkpt lat="43.46760326744557" lon="10.641537658926092"><ele>319.0</ele><time>2026-04-18T14:05:45Z</time></trkpt><trkpt lat="43.46763284856127" lon="10.641417633513308"><ele>319.0</ele><time>2026-04-18T14:05:46Z</time></trkpt><trkpt lat="43.467669739682" lon="10.64131512809058"><ele>319.0</ele><time>2026-04-18T14:05:47Z</time></trkpt><trkpt lat="43.467713230546074" lon="10.641203373987729"><ele>319.0</ele><time>2026-04-18T14:05:48Z</time></trkpt><trkpt lat="43.46775490850818" lon="10.641092499847861"><ele>319.0</ele><time>2026-04-18T14:05:49Z</time></trkpt><trkpt lat="43.467798941697126" lon="10.640984434272319"><ele>319.0</ele><time>2026-04-18T14:05:50Z</time></trkpt><trkpt lat="43.46783040587539" lon="10.640881808265696"><ele>319.0</ele><time>2026-04-18T14:05:51Z</time></trkpt><trkpt lat="43.46785595377322" lon="10.640793066183544"><ele>319.7142857142857</ele><time>2026-04-18T14:05:52Z</time></trkpt><trkpt lat="43.467888028229424" lon="10.640693756826293"><ele>320.4285714285714</ele><time>2026-04-18T14:05:53Z</time></trkpt><trkpt lat="43.467922552516505" lon="10.640598455438035"><ele>321.1428571428571</ele><time>2026-04-18T14:05:54Z</time></trkpt><trkpt lat="43.467959597120434" lon="10.640499962879558"><ele>321.8571428571429</ele><time>2026-04-18T14:05:55Z</time></trkpt><trkpt lat="43.46798989973058" lon="10.640413388270364"><ele>322.57142857142856</ele><time>2026-04-18T14:05:56Z</time></trkpt><trkpt lat="43.468019098580534" lon="10.64032207656501"><ele>323.2857142857143</ele><time>2026-04-18T14:05:57Z</time></trkpt><trkpt lat="43.46805395758373" lon="10.640246385440644"><ele>324.0</ele><time>2026-04-18T14:05:58Z</time></trkpt><trkpt lat="43.46811524453075" lon="10.640115612304546"><ele>325.3333333333333</ele><time>2026-04-18T14:06:00Z</time></trkpt><trkpt lat="43.468209621431185" lon="10.640008965508589"><ele>326.6666666666667</ele><time>2026-04-18T14:06:02Z</time></trkpt><trkpt lat="43.468259833476544" lon="10.63994601770015"><ele>328.0</ele><time>2026-04-18T14:06:03Z</time></trkpt><trkpt lat="43.46832934897674" lon="10.639898086013181"><ele>329.33333333333337</ele><time>2026-04-18T14:06:04Z</time></trkpt><trkpt lat="43.46840762987405" lon="10.639850225960966"><ele>330.6666666666667</ele><time>2026-04-18T14:06:05Z</time></trkpt><trkpt lat="43.46848199853939" lon="10.639809081802586"><ele>332.0</ele><time>2026-04-18T14:06:06Z</time></trkpt><trkpt lat="43.46854618851974" lon="10.639789838567504"><ele>332.0</ele><time>2026-04-18T14:06:07Z</time></trkpt><trkpt lat="43.468633688384934" lon="10.639744734473409"><ele>332.0</ele><time>2026-04-18T14:06:09Z</time></trkpt><trkpt lat="43.46874321222516" lon="10.639692404956406"><ele>332.0</ele><time>2026-04-18T14:06:11Z</time></trkpt><trkpt lat="43.46885546127989" lon="10.639616953769533"><ele>332.0</ele><time>2026-04-18T14:06:13Z</time></trkpt><trkpt lat="43.46892651045231" lon="10.639574274836507"><ele>332.0</ele><time>2026-04-18T14:06:14Z</time></trkpt><trkpt lat="43.46899882318678" lon="10.639529383397004"><ele>332.1666666666667</ele><time>2026-04-18T14:06:15Z</time></trkpt><trkpt lat="43.4690598209571" lon="10.639468890732369"><ele>332.33333333333337</ele><time>2026-04-18T14:06:16Z</time></trkpt><trkpt lat="43.46913275704782" lon="10.639403239953861"><ele>332.5</ele><time>2026-04-18T14:06:17Z</time></trkpt><trkpt lat="43.46919254907518" lon="10.639350545093212"><ele>332.6666666666667</ele><time>2026-04-18T14:06:18Z</time></trkpt><trkpt lat="43.46925568908817" lon="10.639289266112034"><ele>332.8333333333333</ele><time>2026-04-18T14:06:19Z</time></trkpt><trkpt lat="43.46931608366596" lon="10.6392186638669"><ele>333.0</ele><time>2026-04-18T14:06:20Z</time></trkpt><trkpt lat="43.469411190990265" lon="10.639103577750024"><ele>333.0</ele><time>2026-04-18T14:06:22Z</time></trkpt><trkpt lat="43.46945249397479" lon="10.639022893106212"><ele>333.0</ele><time>2026-04-18T14:06:23Z</time></trkpt><trkpt lat="43.469481032306284" lon="10.638935239325626"><ele>333.0</ele><time>2026-04-18T14:06:24Z</time></trkpt><trkpt lat="43.469494470165856" lon="10.638849701288624"><ele>333.0</ele><time>2026-04-18T14:06:25Z</time></trkpt><trkpt lat="43.469523988212494" lon="10.63868577400748"><ele>333.0</ele><time>2026-04-18T14:06:27Z</time></trkpt><trkpt lat="43.46956418979319" lon="10.638531560066749"><ele>333.0</ele><time>2026-04-18T14:06:29Z</time></trkpt><trkpt lat="43.46962353636939" lon="10.638399238377346"><ele>334.7142857142857</ele><time>2026-04-18T14:06:31Z</time></trkpt><trkpt lat="43.4696760052593" lon="10.63832274426174"><ele>336.4285714285714</ele><time>2026-04-18T14:06:32Z</time></trkpt><trkpt lat="43.46973344331228" lon="10.638263941518524"><ele>338.1428571428571</ele><time>2026-04-18T14:06:33Z</time></trkpt><trkpt lat="43.4697940353788" lon="10.638211129337"><ele>339.8571428571429</ele><time>2026-04-18T14:06:34Z</time></trkpt><trkpt lat="43.469842296118394" lon="10.638150670136111"><ele>341.57142857142856</ele><time>2026-04-18T14:06:35Z</time></trkpt><trkpt lat="43.46989375917102" lon="10.638096380327484"><ele>343.2857142857143</ele><time>2026-04-18T14:06:36Z</time></trkpt><trkpt lat="43.46995240779258" lon="10.638044762585348"><ele>345.0</ele><time>2026-04-18T14:06:37Z</time></trkpt><trkpt lat="43.47002878334445" lon="10.637994318775302"><ele>345.0</ele><time>2026-04-18T14:06:38Z</time></trkpt><trkpt lat="43.47010781613789" lon="10.637952201829307"><ele>345.0</ele><time>2026-04-18T14:06:39Z</time></trkpt><trkpt lat="43.47018403262558" lon="10.637913207554755"><ele>345.0</ele><time>2026-04-18T14:06:40Z</time></trkpt><trkpt lat="43.47024988503695" lon="10.637887653630509"><ele>345.0</ele><time>2026-04-18T14:06:41Z</time></trkpt><trkpt lat="43.47038484882967" lon="10.637823117170166"><ele>345.0</ele><time>2026-04-18T14:06:43Z</time></trkpt><trkpt lat="43.47045941906102" lon="10.637792510819507"><ele>345.8333333333333</ele><time>2026-04-18T14:06:44Z</time></trkpt><trkpt lat="43.470541413186304" lon="10.63775398690376"><ele>346.6666666666667</ele><time>2026-04-18T14:06:45Z</time></trkpt><trkpt lat="43.470617717468734" lon="10.637711914355872"><ele>347.5</ele><time>2026-04-18T14:06:46Z</time></trkpt><trkpt lat="43.47070143372945" lon="10.637669452911773"><ele>348.33333333333337</ele><time>2026-04-18T14:06:47Z</time></trkpt><trkpt lat="43.470783754136455" lon="10.637646328740834"><ele>349.1666666666667</ele><time>2026-04-18T14:06:48Z</time></trkpt><trkpt lat="43.470858430017245" lon="10.637628432027201"><ele>350.0</ele><time>2026-04-18T14:06:49Z</time></trkpt><trkpt lat="43.4709186601384" lon="10.637585847977949"><ele>350.0</ele><time>2026-04-18T14:06:50Z</time></trkpt><trkpt lat="43.470977020861135" lon="10.637501178368217"><ele>350.0</ele><time>2026-04-18T14:06:51Z</time></trkpt><trkpt lat="43.471039078578656" lon="10.637423913010808"><ele>350.0</ele><time>2026-04-18T14:06:52Z</time></trkpt><trkpt lat="43.47109415664399" lon="10.637372973445924"><ele>350.0</ele><time>2026-04-18T14:06:53Z</time></trkpt><trkpt lat="43.47119764913491" lon="10.637297595355326"><ele>350.0</ele><time>2026-04-18T14:06:55Z</time></trkpt><trkpt lat="43.4712583632865" lon="10.637232377061087"><ele>350.0</ele><time>2026-04-18T14:06:56Z</time></trkpt><trkpt lat="43.471321079437104" lon="10.637163158202375"><ele>349.2</ele><time>2026-04-18T14:06:57Z</time></trkpt><trkpt lat="43.471395710545025" lon="10.637076708663644"><ele>348.4</ele><time>2026-04-18T14:06:58Z</time></trkpt><trkpt lat="43.47149007201593" lon="10.637000653657298"><ele>347.6</ele><time>2026-04-18T14:06:59Z</time></trkpt><trkpt lat="43.47158767862442" lon="10.63691853392421"><ele>346.8</ele><time>2026-04-18T14:07:00Z</time></trkpt><trkpt lat="43.47167376339243" lon="10.6368615433692"><ele>346.0</ele><time>2026-04-18T14:07:01Z</time></trkpt><trkpt lat="43.471761557651234" lon="10.636799232472157"><ele>347.0</ele><time>2026-04-18T14:07:02Z</time></trkpt><trkpt lat="43.471835027216535" lon="10.636753454335501"><ele>348.0</ele><time>2026-04-18T14:07:03Z</time></trkpt><trkpt lat="43.47190406526175" lon="10.636691931798751"><ele>349.0</ele><time>2026-04-18T14:07:04Z</time></trkpt><trkpt lat="43.47198129621021" lon="10.636618654971228"><ele>350.0</ele><time>2026-04-18T14:07:05Z</time></trkpt><trkpt lat="43.47206880468402" lon="10.636561086289499"><ele>351.0</ele><time>2026-04-18T14:07:06Z</time></trkpt><trkpt lat="43.472157456970756" lon="10.63652419195365"><ele>352.0</ele><time>2026-04-18T14:07:07Z</time></trkpt><trkpt lat="43.47220032606608" lon="10.6364407896571"><ele>352.0</ele><time>2026-04-18T14:07:08Z</time></trkpt><trkpt lat="43.472259023464176" lon="10.636404175675716"><ele>352.0</ele><time>2026-04-18T14:07:09Z</time></trkpt><trkpt lat="43.47231340030253" lon="10.636356165792938"><ele>352.0</ele><time>2026-04-18T14:07:10Z</time></trkpt><trkpt lat="43.472374490068205" lon="10.636306400910783"><ele>352.0</ele><time>2026-04-18T14:07:11Z</time></trkpt><trkpt lat="43.472426181527936" lon="10.636250141531972"><ele>352.0</ele><time>2026-04-18T14:07:12Z</time></trkpt><trkpt lat="43.47248352019235" lon="10.636206352304542"><ele>352.0</ele><time>2026-04-18T14:07:13Z</time></trkpt><trkpt lat="43.472540214533296" lon="10.636131793040324"><ele>352.0</ele><time>2026-04-18T14:07:15Z</time></trkpt><trkpt lat="43.47245718062487" lon="10.636056545171117"><ele>352.0</ele><time>2026-04-18T14:07:19Z</time></trkpt><trkpt lat="43.47237086148296" lon="10.636082512493092"><ele>352.0</ele><time>2026-04-18T14:07:20Z</time></trkpt><trkpt lat="43.47228093661434" lon="10.636135287900126"><ele>352.0</ele><time>2026-04-18T14:07:21Z</time></trkpt><trkpt lat="43.47217614461605" lon="10.636143155439491"><ele>352.0</ele><time>2026-04-18T14:07:22Z</time></trkpt><trkpt lat="43.4720509541961" lon="10.636119763695483"><ele>352.0</ele><time>2026-04-18T14:07:23Z</time></trkpt><trkpt lat="43.471930651066955" lon="10.636038657838325"><ele>354.66666666666663</ele><time>2026-04-18T14:07:24Z</time></trkpt><trkpt lat="43.471814426344366" lon="10.635908839694396"><ele>357.3333333333333</ele><time>2026-04-18T14:07:25Z</time></trkpt><trkpt lat="43.47172908539294" lon="10.635720674210672"><ele>360.0</ele><time>2026-04-18T14:07:26Z</time></trkpt><trkpt lat="43.47164858653769" lon="10.635524107457163"><ele>360.0</ele><time>2026-04-18T14:07:27Z</time></trkpt><trkpt lat="43.471565860997764" lon="10.635313855771136"><ele>360.0</ele><time>2026-04-18T14:07:28Z</time></trkpt><trkpt lat="43.47148577192656" lon="10.635087049425819"><ele>360.0</ele><time>2026-04-18T14:07:29Z</time></trkpt><trkpt lat="43.471400288249654" lon="10.6348509187879"><ele>361.0</ele><time>2026-04-18T14:07:30Z</time></trkpt><trkpt lat="43.47131516001498" lon="10.63461936300327"><ele>362.0</ele><time>2026-04-18T14:07:31Z</time></trkpt><trkpt lat="43.471223515417556" lon="10.634386371124645"><ele>363.0</ele><time>2026-04-18T14:07:32Z</time></trkpt><trkpt lat="43.47113311912726" lon="10.634145247938005"><ele>361.6666666666667</ele><time>2026-04-18T14:07:33Z</time></trkpt><trkpt lat="43.47103969812327" lon="10.633897842463634"><ele>360.33333333333337</ele><time>2026-04-18T14:07:34Z</time></trkpt><trkpt lat="43.470944104716864" lon="10.633642655185627"><ele>359.0</ele><time>2026-04-18T14:07:35Z</time></trkpt><trkpt lat="43.470855570644126" lon="10.633397678243394"><ele>359.0</ele><time>2026-04-18T14:07:36Z</time></trkpt><trkpt lat="43.47076888564299" lon="10.633188145311074"><ele>359.0</ele><time>2026-04-18T14:07:37Z</time></trkpt><trkpt lat="43.47067097718112" lon="10.63300187279806"><ele>359.0</ele><time>2026-04-18T14:07:38Z</time></trkpt><trkpt lat="43.47055683738684" lon="10.632831848269701"><ele>356.33333333333337</ele><time>2026-04-18T14:07:39Z</time></trkpt><trkpt lat="43.47040578176942" lon="10.63265922321866"><ele>353.6666666666667</ele><time>2026-04-18T14:07:40Z</time></trkpt><trkpt lat="43.47025892863563" lon="10.632480147255496"><ele>351.0</ele><time>2026-04-18T14:07:41Z</time></trkpt><trkpt lat="43.47011639564792" lon="10.632289781182704"><ele>351.0</ele><time>2026-04-18T14:07:42Z</time></trkpt><trkpt lat="43.469990862314695" lon="10.632120967219217"><ele>351.0</ele><time>2026-04-18T14:07:43Z</time></trkpt><trkpt lat="43.4698567532621" lon="10.631997883885294"><ele>351.0</ele><time>2026-04-18T14:07:44Z</time></trkpt><trkpt lat="43.4697061888693" lon="10.631907901341817"><ele>348.0</ele><time>2026-04-18T14:07:45Z</time></trkpt><trkpt lat="43.469559291889745" lon="10.631869337003515"><ele>345.0</ele><time>2026-04-18T14:07:46Z</time></trkpt><trkpt lat="43.4694325137516" lon="10.63181071758903"><ele>342.0</ele><time>2026-04-18T14:07:47Z</time></trkpt><trkpt lat="43.46935845600816" lon="10.631711170276395"><ele>339.0</ele><time>2026-04-18T14:07:48Z</time></trkpt><trkpt lat="43.469335107978466" lon="10.631577355272933"><ele>339.0</ele><time>2026-04-18T14:07:49Z</time></trkpt><trkpt lat="43.469358597746464" lon="10.631403393417159"><ele>339.0</ele><time>2026-04-18T14:07:50Z</time></trkpt><trkpt lat="43.46936390850515" lon="10.631202795036051"><ele>339.0</ele><time>2026-04-18T14:07:51Z</time></trkpt><trkpt lat="43.469295743549914" lon="10.630986657873818"><ele>339.0</ele><time>2026-04-18T14:07:52Z</time></trkpt><trkpt lat="43.46923343232477" lon="10.630808857329617"><ele>341.5</ele><time>2026-04-18T14:07:53Z</time></trkpt><trkpt lat="43.46919109275114" lon="10.630643228841102"><ele>344.0</ele><time>2026-04-18T14:07:54Z</time></trkpt><trkpt lat="43.46918064938185" lon="10.63047837669907"><ele>346.5</ele><time>2026-04-18T14:07:55Z</time></trkpt><trkpt lat="43.46922011075432" lon="10.630329063188883"><ele>349.0</ele><time>2026-04-18T14:07:56Z</time></trkpt><trkpt lat="43.46930685660822" lon="10.630217676011863"><ele>351.5</ele><time>2026-04-18T14:07:57Z</time></trkpt><trkpt lat="43.46940930697419" lon="10.630090363995198"><ele>354.0</ele><time>2026-04-18T14:07:58Z</time></trkpt><trkpt lat="43.46949632004724" lon="10.629937699124783"><ele>356.5</ele><time>2026-04-18T14:07:59Z</time></trkpt><trkpt lat="43.469517240015065" lon="10.629760524128624"><ele>359.0</ele><time>2026-04-18T14:08:00Z</time></trkpt><trkpt lat="43.46948961866857" lon="10.629611953586107"><ele>359.0</ele><time>2026-04-18T14:08:01Z</time></trkpt><trkpt lat="43.469411036951506" lon="10.629526927275863"><ele>359.0</ele><time>2026-04-18T14:08:02Z</time></trkpt><trkpt lat="43.469318535412754" lon="10.629500136317166"><ele>359.0</ele><time>2026-04-18T14:08:03Z</time></trkpt><trkpt lat="43.46920267999919" lon="10.629545319805972"><ele>359.0</ele><time>2026-04-18T14:08:04Z</time></trkpt><trkpt lat="43.46909216742691" lon="10.629650222549072"><ele>359.0</ele><time>2026-04-18T14:08:05Z</time></trkpt><trkpt lat="43.46897460290369" lon="10.629748513923273"><ele>359.0</ele><time>2026-04-18T14:08:06Z</time></trkpt><trkpt lat="43.46885321231152" lon="10.629878335727224"><ele>359.0</ele><time>2026-04-18T14:08:07Z</time></trkpt><trkpt lat="43.46872567636147" lon="10.630003082965798"><ele>359.0</ele><time>2026-04-18T14:08:08Z</time></trkpt><trkpt lat="43.46860328571597" lon="10.630173825017321"><ele>360.6666666666667</ele><time>2026-04-18T14:08:09Z</time></trkpt><trkpt lat="43.46853304371045" lon="10.630381902713768"><ele>362.3333333333333</ele><time>2026-04-18T14:08:10Z</time></trkpt><trkpt lat="43.468497761359686" lon="10.630614777917566"><ele>364.0</ele><time>2026-04-18T14:08:11Z</time></trkpt><trkpt lat="43.468477950735696" lon="10.63085626973062"><ele>364.0</ele><time>2026-04-18T14:08:12Z</time></trkpt><trkpt lat="43.46843202454523" lon="10.631044333543965"><ele>364.0</ele><time>2026-04-18T14:08:13Z</time></trkpt><trkpt lat="43.468350996886265" lon="10.631204815440991"><ele>364.0</ele><time>2026-04-18T14:08:14Z</time></trkpt><trkpt lat="43.46825083624571" lon="10.631311054946554"><ele>364.0</ele><time>2026-04-18T14:08:15Z</time></trkpt><trkpt lat="43.46813385128317" lon="10.631310047651015"><ele>364.25</ele><time>2026-04-18T14:08:16Z</time></trkpt><trkpt lat="43.4680145106781" lon="10.63125698291792"><ele>364.5</ele><time>2026-04-18T14:08:17Z</time></trkpt><trkpt lat="43.467897054966436" lon="10.631167628109957"><ele>364.75</ele><time>2026-04-18T14:08:18Z</time></trkpt><trkpt lat="43.46775514909063" lon="10.631087612887079"><ele>365.0</ele><time>2026-04-18T14:08:19Z</time></trkpt><trkpt lat="43.46759511636616" lon="10.631011830650491"><ele>365.0</ele><time>2026-04-18T14:08:20Z</time></trkpt><trkpt lat="43.467426729624314" lon="10.630925737028209"><ele>365.0</ele><time>2026-04-18T14:08:21Z</time></trkpt><trkpt lat="43.46725768234719" lon="10.630836503059635"><ele>365.0</ele><time>2026-04-18T14:08:22Z</time></trkpt><trkpt lat="43.46709120710773" lon="10.63077811368455"><ele>364.6666666666667</ele><time>2026-04-18T14:08:23Z</time></trkpt><trkpt lat="43.46694222141542" lon="10.630776204133143"><ele>364.3333333333333</ele><time>2026-04-18T14:08:24Z</time></trkpt><trkpt lat="43.46678092710204" lon="10.630833360739565"><ele>364.0</ele><time>2026-04-18T14:08:25Z</time></trkpt><trkpt lat="43.46661829526395" lon="10.630922313345808"><ele>364.0</ele><time>2026-04-18T14:08:26Z</time></trkpt><trkpt lat="43.46647098967488" lon="10.630985172372641"><ele>364.0</ele><time>2026-04-18T14:08:27Z</time></trkpt><trkpt lat="43.46634617843098" lon="10.630996813936264"><ele>364.0</ele><time>2026-04-18T14:08:28Z</time></trkpt><trkpt lat="43.46622994331146" lon="10.630937249450254"><ele>364.0</ele><time>2026-04-18T14:08:29Z</time></trkpt><trkpt lat="43.466139093634695" lon="10.630841646187433"><ele>363.8333333333333</ele><time>2026-04-18T14:08:30Z</time></trkpt><trkpt lat="43.46606450824663" lon="10.630758369119489"><ele>363.66666666666663</ele><time>2026-04-18T14:08:31Z</time></trkpt><trkpt lat="43.46602698398482" lon="10.63063906239308"><ele>363.5</ele><time>2026-04-18T14:08:33Z</time></trkpt><trkpt lat="43.466028500656954" lon="10.630550492126453"><ele>363.3333333333333</ele><time>2026-04-18T14:08:36Z</time></trkpt><trkpt lat="43.466029181295305" lon="10.630432553784642"><ele>363.1666666666667</ele><time>2026-04-18T14:08:40Z</time></trkpt><trkpt lat="43.466040629427305" lon="10.630322582598456"><ele>363.0</ele><time>2026-04-18T14:08:42Z</time></trkpt><trkpt lat="43.46606368595428" lon="10.63014804712171"><ele>363.4</ele><time>2026-04-18T14:08:44Z</time></trkpt><trkpt lat="43.46606482404078" lon="10.630039185109892"><ele>363.79999999999995</ele><time>2026-04-18T14:08:45Z</time></trkpt><trkpt lat="43.466050813583905" lon="10.62991444226746"><ele>364.2</ele><time>2026-04-18T14:08:46Z</time></trkpt><trkpt lat="43.46600652300258" lon="10.629789253209559"><ele>364.6</ele><time>2026-04-18T14:08:47Z</time></trkpt><trkpt lat="43.46594350506764" lon="10.629690483836656"><ele>365.0</ele><time>2026-04-18T14:08:48Z</time></trkpt><trkpt lat="43.46587937490549" lon="10.629600525145324"><ele>365.0</ele><time>2026-04-18T14:08:49Z</time></trkpt><trkpt lat="43.46580485544912" lon="10.629501477521197"><ele>365.0</ele><time>2026-04-18T14:08:50Z</time></trkpt><trkpt lat="43.46572843283379" lon="10.629399565135644"><ele>365.0</ele><time>2026-04-18T14:08:51Z</time></trkpt><trkpt lat="43.46564117494435" lon="10.629292557584174"><ele>365.0</ele><time>2026-04-18T14:08:52Z</time></trkpt><trkpt lat="43.46554837431956" lon="10.629157757481098"><ele>363.8</ele><time>2026-04-18T14:08:53Z</time></trkpt><trkpt lat="43.465490140490466" lon="10.629104413622892"><ele>362.6</ele><time>2026-04-18T14:08:54Z</time></trkpt><trkpt lat="43.46540180181096" lon="10.62903625531011"><ele>361.4</ele><time>2026-04-18T14:08:55Z</time></trkpt><trkpt lat="43.46529749466208" lon="10.628933469510827"><ele>360.2</ele><time>2026-04-18T14:08:56Z</time></trkpt><trkpt lat="43.465207806180736" lon="10.628811050209725"><ele>359.0</ele><time>2026-04-18T14:08:57Z</time></trkpt><trkpt lat="43.46514299568743" lon="10.62867279117764"><ele>360.6</ele><time>2026-04-18T14:08:58Z</time></trkpt><trkpt lat="43.465073641540144" lon="10.62853391776225"><ele>362.2</ele><time>2026-04-18T14:08:59Z</time></trkpt><trkpt lat="43.46501338277178" lon="10.628432430365809"><ele>363.8</ele><time>2026-04-18T14:09:00Z</time></trkpt><trkpt lat="43.464990660491445" lon="10.628320271397012"><ele>365.40000000000003</ele><time>2026-04-18T14:09:01Z</time></trkpt><trkpt lat="43.465014779310415" lon="10.62820307838957"><ele>367.0</ele><time>2026-04-18T14:09:02Z</time></trkpt><trkpt lat="43.465067264714264" lon="10.628082497872605"><ele>367.0</ele><time>2026-04-18T14:09:03Z</time></trkpt><trkpt lat="43.46514314044657" lon="10.627956580743179"><ele>367.0</ele><time>2026-04-18T14:09:04Z</time></trkpt><trkpt lat="43.46522333367423" lon="10.627824745825976"><ele>367.0</ele><time>2026-04-18T14:09:05Z</time></trkpt><trkpt lat="43.46530155196355" lon="10.627700157530162"><ele>367.0</ele><time>2026-04-18T14:09:06Z</time></trkpt><trkpt lat="43.46536338041389" lon="10.627604160906039"><ele>367.66666666666663</ele><time>2026-04-18T14:09:07Z</time></trkpt><trkpt lat="43.46544587603844" lon="10.627515735851109"><ele>368.3333333333333</ele><time>2026-04-18T14:09:08Z</time></trkpt><trkpt lat="43.4655089394313" lon="10.627429671720137"><ele>369.0</ele><time>2026-04-18T14:09:09Z</time></trkpt><trkpt lat="43.465536449970855" lon="10.627322238779328"><ele>369.6666666666667</ele><time>2026-04-18T14:09:10Z</time></trkpt><trkpt lat="43.46554737856643" lon="10.6272129508953"><ele>370.33333333333337</ele><time>2026-04-18T14:09:11Z</time></trkpt><trkpt lat="43.4654778330233" lon="10.627166948959184"><ele>371.0</ele><time>2026-04-18T14:09:12Z</time></trkpt><trkpt lat="43.46540752280026" lon="10.627117737018361"><ele>371.0</ele><time>2026-04-18T14:09:13Z</time></trkpt><trkpt lat="43.465306969351566" lon="10.627107976706116"><ele>371.0</ele><time>2026-04-18T14:09:14Z</time></trkpt><trkpt lat="43.46519356173076" lon="10.627110236358234"><ele>371.0</ele><time>2026-04-18T14:09:15Z</time></trkpt><trkpt lat="43.46508419707502" lon="10.62708522268464"><ele>371.0</ele><time>2026-04-18T14:09:16Z</time></trkpt><trkpt lat="43.46496585644096" lon="10.627060228643932"><ele>371.0</ele><time>2026-04-18T14:09:17Z</time></trkpt><trkpt lat="43.464861180946095" lon="10.627041997752091"><ele>371.0</ele><time>2026-04-18T14:09:18Z</time></trkpt><trkpt lat="43.46476828070897" lon="10.627021984959153"><ele>371.0</ele><time>2026-04-18T14:09:19Z</time></trkpt><trkpt lat="43.46468129427778" lon="10.62697787640194"><ele>371.0</ele><time>2026-04-18T14:09:20Z</time></trkpt><trkpt lat="43.46460152221798" lon="10.626903135462502"><ele>371.0</ele><time>2026-04-18T14:09:21Z</time></trkpt><trkpt lat="43.46452656066615" lon="10.626792516627924"><ele>371.0</ele><time>2026-04-18T14:09:22Z</time></trkpt><trkpt lat="43.46446101537574" lon="10.626702886546585"><ele>370.0</ele><time>2026-04-18T14:09:23Z</time></trkpt><trkpt lat="43.46442554270298" lon="10.62660491581885"><ele>369.0</ele><time>2026-04-18T14:09:24Z</time></trkpt><trkpt lat="43.464395246212256" lon="10.626478018960151"><ele>368.0</ele><time>2026-04-18T14:09:25Z</time></trkpt><trkpt lat="43.464388038073345" lon="10.626321422980723"><ele>367.0</ele><time>2026-04-18T14:09:26Z</time></trkpt><trkpt lat="43.46438019539583" lon="10.626158575779238"><ele>366.0</ele><time>2026-04-18T14:09:27Z</time></trkpt><trkpt lat="43.46438691753117" lon="10.626012419266726"><ele>366.0</ele><time>2026-04-18T14:09:28Z</time></trkpt><trkpt lat="43.46443081008718" lon="10.625895624933667"><ele>366.0</ele><time>2026-04-18T14:09:29Z</time></trkpt><trkpt lat="43.46448854146548" lon="10.625791082654244"><ele>366.0</ele><time>2026-04-18T14:09:30Z</time></trkpt><trkpt lat="43.464566544734986" lon="10.625684865041261"><ele>366.0</ele><time>2026-04-18T14:09:31Z</time></trkpt><trkpt lat="43.464656516181506" lon="10.625562282450156"><ele>366.0</ele><time>2026-04-18T14:09:32Z</time></trkpt><trkpt lat="43.46471435127143" lon="10.625441874483077"><ele>371.1666666666667</ele><time>2026-04-18T14:09:33Z</time></trkpt><trkpt lat="43.46476407883023" lon="10.62533571866583"><ele>376.33333333333337</ele><time>2026-04-18T14:09:34Z</time></trkpt><trkpt lat="43.46477133302628" lon="10.625223091526685"><ele>381.5</ele><time>2026-04-18T14:09:35Z</time></trkpt><trkpt lat="43.464731608480236" lon="10.625101728723251"><ele>386.6666666666667</ele><time>2026-04-18T14:09:36Z</time></trkpt><trkpt lat="43.46470262066139" lon="10.624989434220636"><ele>391.83333333333337</ele><time>2026-04-18T14:09:37Z</time></trkpt><trkpt lat="43.4647182363087" lon="10.624872338238156"><ele>397.0</ele><time>2026-04-18T14:09:38Z</time></trkpt><trkpt lat="43.46476826052526" lon="10.624752794519694"><ele>397.0</ele><time>2026-04-18T14:09:39Z</time></trkpt><trkpt lat="43.46484987294209" lon="10.62465300987555"><ele>397.0</ele><time>2026-04-18T14:09:40Z</time></trkpt><trkpt lat="43.46495200210803" lon="10.62456568729563"><ele>397.0</ele><time>2026-04-18T14:09:41Z</time></trkpt><trkpt lat="43.46503484570424" lon="10.624443449012771"><ele>397.0</ele><time>2026-04-18T14:09:42Z</time></trkpt><trkpt lat="43.46511828883217" lon="10.624321575335722"><ele>394.40000000000003</ele><time>2026-04-18T14:09:43Z</time></trkpt><trkpt lat="43.46517841359871" lon="10.624194428916582"><ele>391.8</ele><time>2026-04-18T14:09:44Z</time></trkpt><trkpt lat="43.46521949724817" lon="10.624053512228251"><ele>389.2</ele><time>2026-04-18T14:09:45Z</time></trkpt><trkpt lat="43.46523970576035" lon="10.623937663361616"><ele>386.6</ele><time>2026-04-18T14:09:46Z</time></trkpt><trkpt lat="43.46529522950891" lon="10.623794818548006"><ele>384.0</ele><time>2026-04-18T14:09:47Z</time></trkpt><trkpt lat="43.46536099875981" lon="10.623675754692277"><ele>380.25</ele><time>2026-04-18T14:09:48Z</time></trkpt><trkpt lat="43.46543870019183" lon="10.623563539311666"><ele>376.5</ele><time>2026-04-18T14:09:49Z</time></trkpt><trkpt lat="43.46551262062496" lon="10.623429968076051"><ele>372.75</ele><time>2026-04-18T14:09:50Z</time></trkpt><trkpt lat="43.46555347867025" lon="10.623272394185323"><ele>369.0</ele><time>2026-04-18T14:09:51Z</time></trkpt><trkpt lat="43.4656173467012" lon="10.623122712470282"><ele>375.2</ele><time>2026-04-18T14:09:52Z</time></trkpt><trkpt lat="43.46567920313316" lon="10.62304931506222"><ele>381.4</ele><time>2026-04-18T14:09:53Z</time></trkpt><trkpt lat="43.465749140497365" lon="10.62299472199944"><ele>387.6</ele><time>2026-04-18T14:09:54Z</time></trkpt><trkpt lat="43.465834711918134" lon="10.622950708594429"><ele>393.8</ele><time>2026-04-18T14:09:55Z</time></trkpt><trkpt lat="43.4659345777745" lon="10.622936967434994"><ele>400.0</ele><time>2026-04-18T14:09:56Z</time></trkpt><trkpt lat="43.46604029884741" lon="10.62291811617713"><ele>400.0</ele><time>2026-04-18T14:09:57Z</time></trkpt><trkpt lat="43.46614501312364" lon="10.622881934301711"><ele>400.0</ele><time>2026-04-18T14:09:58Z</time></trkpt><trkpt lat="43.46622351989704" lon="10.622832137475866"><ele>400.0</ele><time>2026-04-18T14:09:59Z</time></trkpt><trkpt lat="43.466309032775264" lon="10.62271039334721"><ele>400.0</ele><time>2026-04-18T14:10:00Z</time></trkpt><trkpt lat="43.466392672400126" lon="10.622596182770899"><ele>400.0</ele><time>2026-04-18T14:10:01Z</time></trkpt><trkpt lat="43.46646021416173" lon="10.622487038263266"><ele>400.6</ele><time>2026-04-18T14:10:02Z</time></trkpt><trkpt lat="43.46648553327197" lon="10.622381754514155"><ele>401.2</ele><time>2026-04-18T14:10:03Z</time></trkpt><trkpt lat="43.46645909848481" lon="10.622283737918828"><ele>401.79999999999995</ele><time>2026-04-18T14:10:04Z</time></trkpt><trkpt lat="43.466421569582025" lon="10.622171068195728"><ele>402.4</ele><time>2026-04-18T14:10:05Z</time></trkpt><trkpt lat="43.46641265197462" lon="10.621961040509822"><ele>403.0</ele><time>2026-04-18T14:10:06Z</time></trkpt><trkpt lat="43.466436201841454" lon="10.621805243059692"><ele>403.0</ele><time>2026-04-18T14:10:07Z</time></trkpt><trkpt lat="43.466453304516705" lon="10.621619663046065"><ele>403.0</ele><time>2026-04-18T14:10:08Z</time></trkpt><trkpt lat="43.46650789930469" lon="10.621515091021722"><ele>403.0</ele><time>2026-04-18T14:10:09Z</time></trkpt><trkpt lat="43.466573274144494" lon="10.62143579225168"><ele>403.0</ele><time>2026-04-18T14:10:10Z</time></trkpt><trkpt lat="43.46664998610979" lon="10.62142516788167"><ele>403.0</ele><time>2026-04-18T14:10:11Z</time></trkpt><trkpt lat="43.46671724575837" lon="10.62141230047265"><ele>403.00000000000006</ele><time>2026-04-18T14:10:12Z</time></trkpt><trkpt lat="43.46679859191919" lon="10.621363626154537"><ele>403.0</ele><time>2026-04-18T14:10:13Z</time></trkpt><trkpt lat="43.466866604064506" lon="10.621307780021604"><ele>403.0</ele><time>2026-04-18T14:10:14Z</time></trkpt><trkpt lat="43.46689376305725" lon="10.621210007576037"><ele>403.0</ele><time>2026-04-18T14:10:15Z</time></trkpt><trkpt lat="43.4668972711473" lon="10.621109569189688"><ele>403.00000000000006</ele><time>2026-04-18T14:10:16Z</time></trkpt><trkpt lat="43.4669018453168" lon="10.620962105349445"><ele>403.0</ele><time>2026-04-18T14:10:17Z</time></trkpt><trkpt lat="43.466898061200865" lon="10.620818274992251"><ele>401.79999999999995</ele><time>2026-04-18T14:10:18Z</time></trkpt><trkpt lat="43.46685281822618" lon="10.620692554640204"><ele>400.6</ele><time>2026-04-18T14:10:19Z</time></trkpt><trkpt lat="43.466774395979904" lon="10.620587874232926"><ele>399.4</ele><time>2026-04-18T14:10:20Z</time></trkpt><trkpt lat="43.46669616650087" lon="10.62052628221439"><ele>398.20000000000005</ele><time>2026-04-18T14:10:21Z</time></trkpt><trkpt lat="43.4666333909355" lon="10.62042911318247"><ele>397.0</ele><time>2026-04-18T14:10:22Z</time></trkpt><trkpt lat="43.46659298632813" lon="10.620327882233964"><ele>398.8</ele><time>2026-04-18T14:10:23Z</time></trkpt><trkpt lat="43.46659000161251" lon="10.620229904861745"><ele>400.6</ele><time>2026-04-18T14:10:24Z</time></trkpt><trkpt lat="43.466616182389764" lon="10.620110988398542"><ele>402.40000000000003</ele><time>2026-04-18T14:10:25Z</time></trkpt><trkpt lat="43.46664038948235" lon="10.619981692518325"><ele>404.20000000000005</ele><time>2026-04-18T14:10:26Z</time></trkpt><trkpt lat="43.466653422441205" lon="10.619829369139048"><ele>406.0</ele><time>2026-04-18T14:10:27Z</time></trkpt><trkpt lat="43.46667593669324" lon="10.619693915967545"><ele>406.0</ele><time>2026-04-18T14:10:28Z</time></trkpt><trkpt lat="43.46668767521234" lon="10.619537527674275"><ele>406.0</ele><time>2026-04-18T14:10:29Z</time></trkpt><trkpt lat="43.46668898368129" lon="10.619376891090704"><ele>406.0</ele><time>2026-04-18T14:10:30Z</time></trkpt><trkpt lat="43.466655990881826" lon="10.619177975883497"><ele>406.0</ele><time>2026-04-18T14:10:31Z</time></trkpt><trkpt lat="43.46662916779724" lon="10.619043389420579"><ele>407.5</ele><time>2026-04-18T14:10:32Z</time></trkpt><trkpt lat="43.4666341563414" lon="10.618900580715954"><ele>409.0</ele><time>2026-04-18T14:10:34Z</time></trkpt><trkpt lat="43.4666122581704" lon="10.618714940587644"><ele>410.5</ele><time>2026-04-18T14:10:35Z</time></trkpt><trkpt lat="43.46655018775284" lon="10.61852979351357"><ele>412.0</ele><time>2026-04-18T14:10:36Z</time></trkpt><trkpt lat="43.46648721368778" lon="10.618349477617889"><ele>412.40000000000003</ele><time>2026-04-18T14:10:37Z</time></trkpt><trkpt lat="43.466413357275634" lon="10.618260342744943"><ele>412.8</ele><time>2026-04-18T14:10:38Z</time></trkpt><trkpt lat="43.46636700669193" lon="10.618168961911067"><ele>413.2</ele><time>2026-04-18T14:10:39Z</time></trkpt><trkpt lat="43.46632055166398" lon="10.618044558803746"><ele>413.6</ele><time>2026-04-18T14:10:40Z</time></trkpt><trkpt lat="43.46625417095766" lon="10.617928172650874"><ele>414.0</ele><time>2026-04-18T14:10:41Z</time></trkpt><trkpt lat="43.466170529655365" lon="10.61780710022"><ele>414.0</ele><time>2026-04-18T14:10:42Z</time></trkpt><trkpt lat="43.466102259265035" lon="10.617678564399254"><ele>414.0</ele><time>2026-04-18T14:10:43Z</time></trkpt><trkpt lat="43.46605914235737" lon="10.617520163959888"><ele>414.0</ele><time>2026-04-18T14:10:44.001Z</time></trkpt><trkpt lat="43.466018586813675" lon="10.617361542818596"><ele>414.0</ele><time>2026-04-18T14:10:45.001Z</time></trkpt><trkpt lat="43.46595397502471" lon="10.6172096507322"><ele>414.0</ele><time>2026-04-18T14:10:46.001Z</time></trkpt><trkpt lat="43.46589024807206" lon="10.617061202565774"><ele>414.0</ele><time>2026-04-18T14:10:47.001Z</time></trkpt><trkpt lat="43.46582936559814" lon="10.616901982885576"><ele>414.0</ele><time>2026-04-18T14:10:48.001Z</time></trkpt><trkpt lat="43.465783869142655" lon="10.61673658773392"><ele>414.0</ele><time>2026-04-18T14:10:49.001Z</time></trkpt><trkpt lat="43.4657396297129" lon="10.616570138950534"><ele>418.5</ele><time>2026-04-18T14:10:50.001Z</time></trkpt><trkpt lat="43.46569503131229" lon="10.616409739561936"><ele>423.0</ele><time>2026-04-18T14:10:51.001Z</time></trkpt><trkpt lat="43.46565657976166" lon="10.616242479535796"><ele>427.5</ele><time>2026-04-18T14:10:52.001Z</time></trkpt><trkpt lat="43.46560311327325" lon="10.616077698586372"><ele>432.0</ele><time>2026-04-18T14:10:53.001Z</time></trkpt><trkpt lat="43.465556923981204" lon="10.615911372597143"><ele>433.5</ele><time>2026-04-18T14:10:54.001Z</time></trkpt><trkpt lat="43.465518806814266" lon="10.615783017266443"><ele>435.0</ele><time>2026-04-18T14:10:55.001Z</time></trkpt><trkpt lat="43.46550097102157" lon="10.61568077976702"><ele>436.5</ele><time>2026-04-18T14:10:56.001Z</time></trkpt><trkpt lat="43.465526677841794" lon="10.615571803157618"><ele>438.0</ele><time>2026-04-18T14:10:57.001Z</time></trkpt><trkpt lat="43.465567068954066" lon="10.61546738869856"><ele>439.5</ele><time>2026-04-18T14:10:58Z</time></trkpt><trkpt lat="43.46562577025666" lon="10.615390006465937"><ele>441.0</ele><time>2026-04-18T14:10:59Z</time></trkpt><trkpt lat="43.46570079631886" lon="10.615314322775701"><ele>441.20000000000005</ele><time>2026-04-18T14:11:00Z</time></trkpt><trkpt lat="43.46578730439903" lon="10.615241362072885"><ele>441.40000000000003</ele><time>2026-04-18T14:11:01Z</time></trkpt><trkpt lat="43.465817416180656" lon="10.615109151576851"><ele>441.6</ele><time>2026-04-18T14:11:02Z</time></trkpt><trkpt lat="43.46580583609486" lon="10.614977406684462"><ele>441.8</ele><time>2026-04-18T14:11:03Z</time></trkpt><trkpt lat="43.465797625828344" lon="10.614848525228322"><ele>442.0</ele><time>2026-04-18T14:11:04Z</time></trkpt><trkpt lat="43.46581761672315" lon="10.614751496554328"><ele>442.0</ele><time>2026-04-18T14:11:05Z</time></trkpt><trkpt lat="43.465850915347175" lon="10.61462501378837"><ele>442.00000000000006</ele><time>2026-04-18T14:11:06Z</time></trkpt><trkpt lat="43.465881660531345" lon="10.614498696937693"><ele>442.00000000000006</ele><time>2026-04-18T14:11:07Z</time></trkpt><trkpt lat="43.465950859098086" lon="10.614395376337376"><ele>442.0</ele><time>2026-04-18T14:11:08Z</time></trkpt><trkpt lat="43.4660169191261" lon="10.614261727963589"><ele>442.0</ele><time>2026-04-18T14:11:09Z</time></trkpt><trkpt lat="43.466091013212214" lon="10.614136133787293"><ele>443.8</ele><time>2026-04-18T14:11:10Z</time></trkpt><trkpt lat="43.46615827945601" lon="10.61397968287363"><ele>445.6</ele><time>2026-04-18T14:11:11Z</time></trkpt><trkpt lat="43.46621533519462" lon="10.613852707778575"><ele>447.40000000000003</ele><time>2026-04-18T14:11:12Z</time></trkpt><trkpt lat="43.46626547775973" lon="10.613754199617988"><ele>449.20000000000005</ele><time>2026-04-18T14:11:13Z</time></trkpt><trkpt lat="43.466279593540754" lon="10.613653084753029"><ele>451.0</ele><time>2026-04-18T14:11:14Z</time></trkpt><trkpt lat="43.466268124823316" lon="10.613541007089387"><ele>454.8</ele><time>2026-04-18T14:11:15Z</time></trkpt><trkpt lat="43.46621674745075" lon="10.613453791991772"><ele>458.6</ele><time>2026-04-18T14:11:16Z</time></trkpt><trkpt lat="43.46611488232917" lon="10.613354335015922"><ele>462.4</ele><time>2026-04-18T14:11:18Z</time></trkpt><trkpt lat="43.46601644574492" lon="10.613390137065549"><ele>466.2</ele><time>2026-04-18T14:11:19Z</time></trkpt><trkpt lat="43.465968821606076" lon="10.613473178938879"><ele>470.0</ele><time>2026-04-18T14:11:20Z</time></trkpt><trkpt lat="43.46593299611706" lon="10.613568083382747"><ele>465.25</ele><time>2026-04-18T14:11:21Z</time></trkpt><trkpt lat="43.465865832150904" lon="10.613688635017295"><ele>460.5</ele><time>2026-04-18T14:11:22Z</time></trkpt><trkpt lat="43.465786216391635" lon="10.613810162932506"><ele>455.75</ele><time>2026-04-18T14:11:23Z</time></trkpt><trkpt lat="43.46572736557177" lon="10.613943388263158"><ele>451.0</ele><time>2026-04-18T14:11:24Z</time></trkpt><trkpt lat="43.46566071095903" lon="10.61406439468235"><ele>451.0</ele><time>2026-04-18T14:11:25Z</time></trkpt><trkpt lat="43.46558676320934" lon="10.614153585117572"><ele>451.0</ele><time>2026-04-18T14:11:26Z</time></trkpt><trkpt lat="43.46550084831641" lon="10.614256999772879"><ele>451.0</ele><time>2026-04-18T14:11:27Z</time></trkpt><trkpt lat="43.465407594863684" lon="10.614364993040745"><ele>451.0</ele><time>2026-04-18T14:11:28Z</time></trkpt><trkpt lat="43.46533499444608" lon="10.614539011645759"><ele>455.0</ele><time>2026-04-18T14:11:29Z</time></trkpt><trkpt lat="43.465252011306056" lon="10.61471543702853"><ele>459.0</ele><time>2026-04-18T14:11:30Z</time></trkpt><trkpt lat="43.46518203062294" lon="10.614907614677826"><ele>463.0</ele><time>2026-04-18T14:11:31Z</time></trkpt><trkpt lat="43.46511235098085" lon="10.614946876924234"><ele>467.0</ele><time>2026-04-18T14:11:33Z</time></trkpt><trkpt lat="43.465045209134416" lon="10.615058586571193"><ele>467.0</ele><time>2026-04-18T14:11:34Z</time></trkpt><trkpt lat="43.46496959047412" lon="10.61512947724618"><ele>467.00000000000006</ele><time>2026-04-18T14:11:35Z</time></trkpt><trkpt lat="43.46491829174278" lon="10.61523214778093"><ele>467.00000000000006</ele><time>2026-04-18T14:11:36Z</time></trkpt><trkpt lat="43.464841739787715" lon="10.615433439869296"><ele>467.0</ele><time>2026-04-18T14:11:38Z</time></trkpt><trkpt lat="43.464795571572424" lon="10.615538187388733"><ele>467.0</ele><time>2026-04-18T14:11:39Z</time></trkpt><trkpt lat="43.46477568175273" lon="10.615689177866034"><ele>468.40000000000003</ele><time>2026-04-18T14:11:40Z</time></trkpt><trkpt lat="43.46469168908799" lon="10.615781286021116"><ele>469.80000000000007</ele><time>2026-04-18T14:11:41Z</time></trkpt><trkpt lat="43.46463433304011" lon="10.615858905838072"><ele>471.2</ele><time>2026-04-18T14:11:42Z</time></trkpt><trkpt lat="43.464586642878864" lon="10.615962708856449"><ele>472.6</ele><time>2026-04-18T14:11:43Z</time></trkpt><trkpt lat="43.46452561178571" lon="10.616040719060468"><ele>474.0</ele><time>2026-04-18T14:11:44Z</time></trkpt><trkpt lat="43.46445706951197" lon="10.616132692805154"><ele>471.1666666666667</ele><time>2026-04-18T14:11:45Z</time></trkpt><trkpt lat="43.46438028158047" lon="10.616207115246812"><ele>468.33333333333337</ele><time>2026-04-18T14:11:46Z</time></trkpt><trkpt lat="43.46434268206875" lon="10.616297121837595"><ele>465.5</ele><time>2026-04-18T14:11:47Z</time></trkpt><trkpt lat="43.464332964900386" lon="10.61639319227907"><ele>462.6666666666667</ele><time>2026-04-18T14:11:48Z</time></trkpt><trkpt lat="43.46432584096185" lon="10.616494996218666"><ele>459.83333333333337</ele><time>2026-04-18T14:11:49Z</time></trkpt><trkpt lat="43.46430598202635" lon="10.61659930434071"><ele>457.0</ele><time>2026-04-18T14:11:50Z</time></trkpt><trkpt lat="43.46427247164002" lon="10.616684717149635"><ele>457.0</ele><time>2026-04-18T14:11:51Z</time></trkpt><trkpt lat="43.46421991242493" lon="10.616774687849237"><ele>457.00000000000006</ele><time>2026-04-18T14:11:52Z</time></trkpt><trkpt lat="43.46415100231177" lon="10.61680618487031"><ele>457.00000000000006</ele><time>2026-04-18T14:11:53Z</time></trkpt><trkpt lat="43.46408069703307" lon="10.616771147237772"><ele>457.0</ele><time>2026-04-18T14:11:54Z</time></trkpt><trkpt lat="43.4640073381495" lon="10.616618947426694"><ele>457.0</ele><time>2026-04-18T14:11:56Z</time></trkpt><trkpt lat="43.463974349589705" lon="10.61648758826285"><ele>457.00000000000006</ele><time>2026-04-18T14:11:57Z</time></trkpt><trkpt lat="43.46397039168787" lon="10.616388972576964"><ele>457.0</ele><time>2026-04-18T14:11:58Z</time></trkpt><trkpt lat="43.46394705693915" lon="10.616278923090603"><ele>457.0</ele><time>2026-04-18T14:11:59Z</time></trkpt><trkpt lat="43.46393128126799" lon="10.616173487016283"><ele>457.0</ele><time>2026-04-18T14:12:00Z</time></trkpt><trkpt lat="43.46389447900411" lon="10.61607166490104"><ele>457.00000000000006</ele><time>2026-04-18T14:12:01Z</time></trkpt><trkpt lat="43.46386863827669" lon="10.615954581699835"><ele>457.0</ele><time>2026-04-18T14:12:02Z</time></trkpt><trkpt lat="43.46379932038567" lon="10.615887810374149"><ele>461.0</ele><time>2026-04-18T14:12:03Z</time></trkpt><trkpt lat="43.46374307218226" lon="10.615802075009235"><ele>465.0</ele><time>2026-04-18T14:12:04Z</time></trkpt><trkpt lat="43.46368900776909" lon="10.615688130677245"><ele>469.0</ele><time>2026-04-18T14:12:05Z</time></trkpt><trkpt lat="43.463581100809954" lon="10.615511431209555"><ele>473.0</ele><time>2026-04-18T14:12:07Z</time></trkpt><trkpt lat="43.463498775518374" lon="10.615395264612328"><ele>473.0</ele><time>2026-04-18T14:12:08Z</time></trkpt><trkpt lat="43.463440299459705" lon="10.615303868425361"><ele>472.99999999999994</ele><time>2026-04-18T14:12:09Z</time></trkpt><trkpt lat="43.463379969476314" lon="10.615167736265489"><ele>472.99999999999994</ele><time>2026-04-18T14:12:11Z</time></trkpt><trkpt lat="43.463298746537866" lon="10.615137952756676"><ele>473.0</ele><time>2026-04-18T14:12:20Z</time></trkpt><trkpt lat="43.4634095175967" lon="10.615204653035963"><ele>473.0</ele><time>2026-04-18T14:12:28Z</time></trkpt><trkpt lat="43.46347357888543" lon="10.615331183022784"><ele>472.99999999999994</ele><time>2026-04-18T14:12:30Z</time></trkpt><trkpt lat="43.46351116356834" lon="10.615425792212426"><ele>473.0</ele><time>2026-04-18T14:12:31Z</time></trkpt><trkpt lat="43.463563234209495" lon="10.615515620484832"><ele>473.0</ele><time>2026-04-18T14:12:32Z</time></trkpt><trkpt lat="43.46361112747806" lon="10.615584133997839"><ele>473.0</ele><time>2026-04-18T14:12:33Z</time></trkpt><trkpt lat="43.46369071269434" lon="10.615656228491458"><ele>472.99999999999994</ele><time>2026-04-18T14:12:35Z</time></trkpt><trkpt lat="43.46373434709851" lon="10.615770232514038"><ele>473.0</ele><time>2026-04-18T14:12:37Z</time></trkpt><trkpt lat="43.4637842049027" lon="10.615869538884786"><ele>473.2</ele><time>2026-04-18T14:12:39Z</time></trkpt><trkpt lat="43.46386532002039" lon="10.6159979667132"><ele>473.4</ele><time>2026-04-18T14:12:41Z</time></trkpt><trkpt lat="43.46391065337891" lon="10.616102487307506"><ele>473.59999999999997</ele><time>2026-04-18T14:12:42Z</time></trkpt><trkpt lat="43.46395030749719" lon="10.616240014650753"><ele>473.79999999999995</ele><time>2026-04-18T14:12:43Z</time></trkpt><trkpt lat="43.463995767910696" lon="10.616319941448374"><ele>474.0</ele><time>2026-04-18T14:12:44Z</time></trkpt><trkpt lat="43.464009060413396" lon="10.616420027763205"><ele>470.6</ele><time>2026-04-18T14:12:45Z</time></trkpt><trkpt lat="43.46402073489629" lon="10.616510446470658"><ele>467.2</ele><time>2026-04-18T14:12:46Z</time></trkpt><trkpt lat="43.46405043769312" lon="10.61667357954709"><ele>463.80000000000007</ele><time>2026-04-18T14:12:48Z</time></trkpt><trkpt lat="43.464173714538184" lon="10.61677863530298"><ele>460.40000000000003</ele><time>2026-04-18T14:12:50.001Z</time></trkpt><trkpt lat="43.4642553352254" lon="10.616707035432102"><ele>457.0</ele><time>2026-04-18T14:12:51.001Z</time></trkpt><trkpt lat="43.464234131005064" lon="10.616582923387217"><ele>457.0</ele><time>2026-04-18T14:12:52.001Z</time></trkpt><trkpt lat="43.46419051886215" lon="10.616513395983548"><ele>457.00000000000006</ele><time>2026-04-18T14:12:53.001Z</time></trkpt><trkpt lat="43.46419186867755" lon="10.61635728996224"><ele>457.00000000000006</ele><time>2026-04-18T14:12:55.001Z</time></trkpt><trkpt lat="43.46420161633826" lon="10.616217030666293"><ele>457.0</ele><time>2026-04-18T14:12:57.001Z</time></trkpt><trkpt lat="43.464204709752856" lon="10.616053649961213"><ele>457.0</ele><time>2026-04-18T14:12:59.001Z</time></trkpt><trkpt lat="43.464166909253414" lon="10.615867117438226"><ele>459.83333333333337</ele><time>2026-04-18T14:13:01.001Z</time></trkpt><trkpt lat="43.46413993384255" lon="10.615754646715276"><ele>462.6666666666667</ele><time>2026-04-18T14:13:02.001Z</time></trkpt><trkpt lat="43.46405299505875" lon="10.615730645171071"><ele>465.5</ele><time>2026-04-18T14:13:06.001Z</time></trkpt><trkpt lat="43.464087754562556" lon="10.615624634176298"><ele>468.33333333333337</ele><time>2026-04-18T14:13:08Z</time></trkpt><trkpt lat="43.4640989705937" lon="10.615487001958414"><ele>471.1666666666667</ele><time>2026-04-18T14:13:10Z</time></trkpt><trkpt lat="43.464098344910425" lon="10.615395766500855"><ele>474.0</ele><time>2026-04-18T14:13:11Z</time></trkpt><trkpt lat="43.4641348319104" lon="10.6152422188529"><ele>477.5</ele><time>2026-04-18T14:13:13Z</time></trkpt><trkpt lat="43.46415304570158" lon="10.615156632096124"><ele>481.0</ele><time>2026-04-18T14:13:14Z</time></trkpt><trkpt lat="43.464170726899084" lon="10.615025399112744"><ele>484.5</ele><time>2026-04-18T14:13:16Z</time></trkpt><trkpt lat="43.4642332181639" lon="10.614904470024312"><ele>488.0</ele><time>2026-04-18T14:13:19Z</time></trkpt><trkpt lat="43.46424950792081" lon="10.61481335874015"><ele>491.5</ele><time>2026-04-18T14:13:21Z</time></trkpt><trkpt lat="43.46425768021991" lon="10.614680021815078"><ele>495.0</ele><time>2026-04-18T14:13:24Z</time></trkpt><trkpt lat="43.46425593887894" lon="10.614570305203545"><ele>495.0</ele><time>2026-04-18T14:13:26Z</time></trkpt><trkpt lat="43.46432824129918" lon="10.614517008273614"><ele>495.0</ele><time>2026-04-18T14:13:28Z</time></trkpt><trkpt lat="43.46434997218806" lon="10.614424725880006"><ele>495.0</ele><time>2026-04-18T14:13:30Z</time></trkpt><trkpt lat="43.46435685854996" lon="10.614313744751906"><ele>495.0</ele><time>2026-04-18T14:13:32Z</time></trkpt><trkpt lat="43.46439695507143" lon="10.614180558605458"><ele>495.0</ele><time>2026-04-18T14:13:35Z</time></trkpt><trkpt lat="43.464419589017226" lon="10.614051824369858"><ele>495.0</ele><time>2026-04-18T14:13:38Z</time></trkpt><trkpt lat="43.46442390782807" lon="10.613963798573435"><ele>497.5</ele><time>2026-04-18T14:13:39Z</time></trkpt><trkpt lat="43.464421955364315" lon="10.613844923782615"><ele>500.0</ele><time>2026-04-18T14:13:42Z</time></trkpt><trkpt lat="43.4644925143471" lon="10.613727828912108"><ele>502.5</ele><time>2026-04-18T14:13:44Z</time></trkpt><trkpt lat="43.464550359022084" lon="10.613650292668964"><ele>505.0</ele><time>2026-04-18T14:13:46Z</time></trkpt><trkpt lat="43.464530915237965" lon="10.61356628293983"><ele>507.5</ele><time>2026-04-18T14:13:47Z</time></trkpt><trkpt lat="43.46451614635653" lon="10.613478536073252"><ele>510.0</ele><time>2026-04-18T14:13:48Z</time></trkpt><trkpt lat="43.46458627505777" lon="10.613448035450672"><ele>510.5</ele><time>2026-04-18T14:13:50Z</time></trkpt><trkpt lat="43.464623382201395" lon="10.613360370151211"><ele>511.0</ele><time>2026-04-18T14:13:52Z</time></trkpt><trkpt lat="43.46467779192785" lon="10.613221487027953"><ele>511.5</ele><time>2026-04-18T14:13:54Z</time></trkpt><trkpt lat="43.46474870885097" lon="10.613142513078946"><ele>512.0</ele><time>2026-04-18T14:13:56Z</time></trkpt><trkpt lat="43.46470610812992" lon="10.61307781857821"><ele>512.5</ele><time>2026-04-18T14:13:57Z</time></trkpt><trkpt lat="43.46467816544997" lon="10.612976245882813"><ele>513.0</ele><time>2026-04-18T14:13:58Z</time></trkpt><trkpt lat="43.46462251607298" lon="10.612921213771177"><ele>515.3333333333334</ele><time>2026-04-18T14:13:59Z</time></trkpt><trkpt lat="43.46465789311823" lon="10.612821563937981"><ele>517.6666666666666</ele><time>2026-04-18T14:14:02Z</time></trkpt><trkpt lat="43.464630354796284" lon="10.612705239329852"><ele>520.0</ele><time>2026-04-18T14:14:04Z</time></trkpt><trkpt lat="43.46460636956062" lon="10.612604763305226"><ele>522.3333333333333</ele><time>2026-04-18T14:14:06Z</time></trkpt><trkpt lat="43.4646157064383" lon="10.612499635800933"><ele>524.6666666666666</ele><time>2026-04-18T14:14:08Z</time></trkpt><trkpt lat="43.46461046199372" lon="10.612399315329"><ele>527.0</ele><time>2026-04-18T14:14:10Z</time></trkpt><trkpt lat="43.46457529117144" lon="10.612271432859279"><ele>527.5</ele><time>2026-04-18T14:14:12Z</time></trkpt><trkpt lat="43.46458365793" lon="10.612176982770933"><ele>528.0</ele><time>2026-04-18T14:14:14Z</time></trkpt><trkpt lat="43.46457020043216" lon="10.612071390248415"><ele>528.5</ele><time>2026-04-18T14:14:16Z</time></trkpt><trkpt lat="43.46457549466247" lon="10.611958086311894"><ele>529.0</ele><time>2026-04-18T14:14:18Z</time></trkpt><trkpt lat="43.46456724734137" lon="10.61184602191275"><ele>529.5</ele><time>2026-04-18T14:14:20Z</time></trkpt><trkpt lat="43.46458529148714" lon="10.61175768178476"><ele>530.0</ele><time>2026-04-18T14:14:22Z</time></trkpt><trkpt lat="43.46459205766337" lon="10.611650623770903"><ele>533.0</ele><time>2026-04-18T14:14:24Z</time></trkpt><trkpt lat="43.46462690407408" lon="10.611530596953292"><ele>536.0</ele><time>2026-04-18T14:14:26Z</time></trkpt><trkpt lat="43.46464042246478" lon="10.611369926779691"><ele>539.0</ele><time>2026-04-18T14:14:29Z</time></trkpt><trkpt lat="43.464630019941744" lon="10.61126775535213"><ele>542.0</ele><time>2026-04-18T14:14:31Z</time></trkpt><trkpt lat="43.464652181397575" lon="10.611148893746066"><ele>545.0</ele><time>2026-04-18T14:14:33Z</time></trkpt><trkpt lat="43.46473244893278" lon="10.611088957517827"><ele>547.5</ele><time>2026-04-18T14:14:35Z</time></trkpt><trkpt lat="43.46477862114473" lon="10.610974119772905"><ele>550.0</ele><time>2026-04-18T14:14:37Z</time></trkpt><trkpt lat="43.46480982389054" lon="10.610858506159644"><ele>552.5</ele><time>2026-04-18T14:14:39Z</time></trkpt><trkpt lat="43.46486168931654" lon="10.610755331903738"><ele>555.0</ele><time>2026-04-18T14:14:41Z</time></trkpt><trkpt lat="43.46491206524826" lon="10.610664475311852"><ele>557.5</ele><time>2026-04-18T14:14:43Z</time></trkpt><trkpt lat="43.464901356440095" lon="10.610577656358616"><ele>560.0</ele><time>2026-04-18T14:14:45Z</time></trkpt><trkpt lat="43.464912392506754" lon="10.610475453772166"><ele>560.0</ele><time>2026-04-18T14:14:46Z</time></trkpt><trkpt lat="43.46497538397495" lon="10.610347938823228"><ele>560.0</ele><time>2026-04-18T14:14:48Z</time></trkpt><trkpt lat="43.465044229463196" lon="10.610260969669014"><ele>560.0</ele><time>2026-04-18T14:14:50Z</time></trkpt><trkpt lat="43.46505189761387" lon="10.610120434775528"><ele>560.0</ele><time>2026-04-18T14:14:52Z</time></trkpt><trkpt lat="43.46505171102949" lon="10.610027791626303"><ele>560.0</ele><time>2026-04-18T14:14:55Z</time></trkpt><trkpt lat="43.465078628490765" lon="10.609942875563624"><ele>560.0</ele><time>2026-04-18T14:14:57.001Z</time></trkpt><trkpt lat="43.46512604785571" lon="10.60986391957465"><ele>560.8</ele><time>2026-04-18T14:15:00.001Z</time></trkpt><trkpt lat="43.46516517770067" lon="10.609775768214288"><ele>561.6</ele><time>2026-04-18T14:15:02.001Z</time></trkpt><trkpt lat="43.46520713641963" lon="10.609659749189872"><ele>562.4</ele><time>2026-04-18T14:15:04.001Z</time></trkpt><trkpt lat="43.46528559072252" lon="10.609552295081297"><ele>563.2</ele><time>2026-04-18T14:15:06.001Z</time></trkpt><trkpt lat="43.46535717377841" lon="10.609443210791287"><ele>564.0</ele><time>2026-04-18T14:15:08.001Z</time></trkpt><trkpt lat="43.46541485632033" lon="10.609364764749092"><ele>566.2</ele><time>2026-04-18T14:15:09.001Z</time></trkpt><trkpt lat="43.465495462312326" lon="10.609232574562508"><ele>568.4</ele><time>2026-04-18T14:15:11.001Z</time></trkpt><trkpt lat="43.46556884214003" lon="10.609167390109707"><ele>570.6</ele><time>2026-04-18T14:15:12Z</time></trkpt><trkpt lat="43.4656230999057" lon="10.609096812418196"><ele>572.8</ele><time>2026-04-18T14:15:13Z</time></trkpt><trkpt lat="43.465600313403634" lon="10.608935661716735"><ele>575.0</ele><time>2026-04-18T14:15:15Z</time></trkpt><trkpt lat="43.465558592740585" lon="10.608863642344934"><ele>575.3333333333333</ele><time>2026-04-18T14:15:16Z</time></trkpt><trkpt lat="43.46552935557218" lon="10.60857478788954"><ele>575.6666666666666</ele><time>2026-04-18T14:15:18Z</time></trkpt><trkpt lat="43.46562543435069" lon="10.608495798943938"><ele>576.0</ele><time>2026-04-18T14:15:20Z</time></trkpt><trkpt lat="43.46577244650991" lon="10.60851385327334"><ele>576.0</ele><time>2026-04-18T14:15:22Z</time></trkpt><trkpt lat="43.46583691849942" lon="10.608480171656538"><ele>576.0</ele><time>2026-04-18T14:15:23Z</time></trkpt><trkpt lat="43.46591378500298" lon="10.608496557068923"><ele>576.0</ele><time>2026-04-18T14:15:24Z</time></trkpt><trkpt lat="43.46598684168487" lon="10.608491021517729"><ele>576.0</ele><time>2026-04-18T14:15:25Z</time></trkpt><trkpt lat="43.46607165064999" lon="10.608487854420392"><ele>576.0</ele><time>2026-04-18T14:15:26Z</time></trkpt><trkpt lat="43.46619417537422" lon="10.60851213329053"><ele>576.0</ele><time>2026-04-18T14:15:28Z</time></trkpt><trkpt lat="43.4662688437818" lon="10.608519193523664"><ele>576.4</ele><time>2026-04-18T14:15:29Z</time></trkpt><trkpt lat="43.46634429681843" lon="10.608519489736294"><ele>576.8</ele><time>2026-04-18T14:15:30Z</time></trkpt><trkpt lat="43.466410742207934" lon="10.608524800765164"><ele>577.1999999999999</ele><time>2026-04-18T14:15:31Z</time></trkpt><trkpt lat="43.466514591307764" lon="10.608440738512266"><ele>577.6</ele><time>2026-04-18T14:15:34Z</time></trkpt><trkpt lat="43.46655323299924" lon="10.608362202694394"><ele>578.0</ele><time>2026-04-18T14:15:35Z</time></trkpt><trkpt lat="43.46663244582024" lon="10.608236310183955"><ele>578.0</ele><time>2026-04-18T14:15:37Z</time></trkpt><trkpt lat="43.466728830450265" lon="10.608120060760827"><ele>578.0</ele><time>2026-04-18T14:15:39Z</time></trkpt><trkpt lat="43.466764816549265" lon="10.608033096169114"><ele>578.0</ele><time>2026-04-18T14:15:40Z</time></trkpt><trkpt lat="43.46683869219037" lon="10.607932235261389"><ele>578.0</ele><time>2026-04-18T14:15:42Z</time></trkpt><trkpt lat="43.4668472084081" lon="10.607841811229648"><ele>578.0</ele><time>2026-04-18T14:15:43Z</time></trkpt><trkpt lat="43.466890277201166" lon="10.607741853909545"><ele>577.5</ele><time>2026-04-18T14:15:45Z</time></trkpt><trkpt lat="43.46684643562083" lon="10.60762984183336"><ele>577.0</ele><time>2026-04-18T14:15:48Z</time></trkpt><trkpt lat="43.46691133637221" lon="10.607549992805925"><ele>576.5</ele><time>2026-04-18T14:15:49Z</time></trkpt><trkpt lat="43.46702186038746" lon="10.60751860124868"><ele>576.0</ele><time>2026-04-18T14:15:51Z</time></trkpt><trkpt lat="43.46707634240638" lon="10.607570195950128"><ele>575.5</ele><time>2026-04-18T14:15:52Z</time></trkpt><trkpt lat="43.46714790536313" lon="10.607547192087132"><ele>575.0</ele><time>2026-04-18T14:15:54Z</time></trkpt><trkpt lat="43.46719497564779" lon="10.607485040830305"><ele>574.8</ele><time>2026-04-18T14:15:55Z</time></trkpt><trkpt lat="43.46726420655431" lon="10.607393048172"><ele>574.6</ele><time>2026-04-18T14:15:56Z</time></trkpt><trkpt lat="43.46735192682545" lon="10.607275574484467"><ele>574.4</ele><time>2026-04-18T14:15:57Z</time></trkpt><trkpt lat="43.46741827749545" lon="10.607166908987935"><ele>574.2</ele><time>2026-04-18T14:15:58Z</time></trkpt><trkpt lat="43.467493164295085" lon="10.607119370149046"><ele>574.0</ele><time>2026-04-18T14:15:59Z</time></trkpt><trkpt lat="43.46757194929644" lon="10.607078885669075"><ele>574.0</ele><time>2026-04-18T14:16:00Z</time></trkpt><trkpt lat="43.46766598520233" lon="10.607017131133484"><ele>574.0</ele><time>2026-04-18T14:16:01Z</time></trkpt><trkpt lat="43.467781353126924" lon="10.606975072901472"><ele>574.0</ele><time>2026-04-18T14:16:02Z</time></trkpt><trkpt lat="43.46789092090932" lon="10.606915283809736"><ele>574.0</ele><time>2026-04-18T14:16:03Z</time></trkpt><trkpt lat="43.46796856192584" lon="10.60683012149518"><ele>574.0</ele><time>2026-04-18T14:16:04Z</time></trkpt><trkpt lat="43.4680180372343" lon="10.606718708278702"><ele>574.8</ele><time>2026-04-18T14:16:05Z</time></trkpt><trkpt lat="43.468056305785126" lon="10.60658333888056"><ele>575.5999999999999</ele><time>2026-04-18T14:16:06Z</time></trkpt><trkpt lat="43.46807429048723" lon="10.606430492392382"><ele>576.4</ele><time>2026-04-18T14:16:07Z</time></trkpt><trkpt lat="43.46809018068608" lon="10.60631247064773"><ele>577.1999999999999</ele><time>2026-04-18T14:16:08Z</time></trkpt><trkpt lat="43.46809058862011" lon="10.60617123399049"><ele>578.0</ele><time>2026-04-18T14:16:09Z</time></trkpt><trkpt lat="43.46809047631086" lon="10.606041264648553"><ele>578.6</ele><time>2026-04-18T14:16:10Z</time></trkpt><trkpt lat="43.468093296776146" lon="10.605938348783619"><ele>579.1999999999999</ele><time>2026-04-18T14:16:11Z</time></trkpt><trkpt lat="43.46812914401661" lon="10.60579039083862"><ele>579.8</ele><time>2026-04-18T14:16:12Z</time></trkpt><trkpt lat="43.46816247785645" lon="10.605639013334123"><ele>580.4</ele><time>2026-04-18T14:16:13Z</time></trkpt><trkpt lat="43.46817101356637" lon="10.60546294120848"><ele>581.0</ele><time>2026-04-18T14:16:14Z</time></trkpt><trkpt lat="43.468163983597684" lon="10.605324404169824"><ele>581.2</ele><time>2026-04-18T14:16:15Z</time></trkpt><trkpt lat="43.46815599539069" lon="10.605227170851705"><ele>581.4000000000001</ele><time>2026-04-18T14:16:16Z</time></trkpt><trkpt lat="43.46813789253483" lon="10.60513155878991"><ele>581.6</ele><time>2026-04-18T14:16:17Z</time></trkpt><trkpt lat="43.468082402650374" lon="10.605044346532704"><ele>581.8000000000001</ele><time>2026-04-18T14:16:18Z</time></trkpt><trkpt lat="43.46808982679568" lon="10.604888996023586"><ele>582.0</ele><time>2026-04-18T14:16:19Z</time></trkpt><trkpt lat="43.468093228099015" lon="10.604730174384123"><ele>582.0</ele><time>2026-04-18T14:16:20Z</time></trkpt><trkpt lat="43.46811614164229" lon="10.60460687942873"><ele>582.0</ele><time>2026-04-18T14:16:21Z</time></trkpt><trkpt lat="43.4681565024773" lon="10.604487670767023"><ele>582.0</ele><time>2026-04-18T14:16:22Z</time></trkpt><trkpt lat="43.468177299328566" lon="10.604358711763442"><ele>582.0</ele><time>2026-04-18T14:16:23Z</time></trkpt><trkpt lat="43.46827604706204" lon="10.604280337668456"><ele>582.0</ele><time>2026-04-18T14:16:25Z</time></trkpt><trkpt lat="43.46833650345116" lon="10.60422713498176"><ele>581.6666666666666</ele><time>2026-04-18T14:16:26Z</time></trkpt><trkpt lat="43.46840519570357" lon="10.604159695875143"><ele>581.3333333333334</ele><time>2026-04-18T14:16:27Z</time></trkpt><trkpt lat="43.46846586914267" lon="10.604110497891885"><ele>581.0</ele><time>2026-04-18T14:16:28Z</time></trkpt><trkpt lat="43.46850572789503" lon="10.604021947166482"><ele>580.6666666666667</ele><time>2026-04-18T14:16:29Z</time></trkpt><trkpt lat="43.4685123720785" lon="10.603903468563242"><ele>580.3333333333334</ele><time>2026-04-18T14:16:30Z</time></trkpt><trkpt lat="43.46849714351207" lon="10.603807708746926"><ele>580.0</ele><time>2026-04-18T14:16:31Z</time></trkpt><trkpt lat="43.46846118089912" lon="10.603724461377555"><ele>580.0</ele><time>2026-04-18T14:16:32Z</time></trkpt><trkpt lat="43.46843496026586" lon="10.603643486029855"><ele>580.0</ele><time>2026-04-18T14:16:33Z</time></trkpt><trkpt lat="43.4683602325955" lon="10.603579839352147"><ele>580.0</ele><time>2026-04-18T14:16:35Z</time></trkpt><trkpt lat="43.46837883634349" lon="10.60343845579959"><ele>580.0</ele><time>2026-04-18T14:16:36Z</time></trkpt><trkpt lat="43.46838139490382" lon="10.60333602240641"><ele>580.0</ele><time>2026-04-18T14:16:37Z</time></trkpt><trkpt lat="43.468342401795944" lon="10.603212057133213"><ele>580.0</ele><time>2026-04-18T14:16:38Z</time></trkpt><trkpt lat="43.46831141132578" lon="10.603100441339986"><ele>580.0</ele><time>2026-04-18T14:16:39Z</time></trkpt><trkpt lat="43.46829608279357" lon="10.602969039344233"><ele>580.0</ele><time>2026-04-18T14:16:41Z</time></trkpt><trkpt lat="43.46837185509213" lon="10.602857634400916"><ele>580.0</ele><time>2026-04-18T14:16:43Z</time></trkpt><trkpt lat="43.46844114143431" lon="10.602847661138211"><ele>580.0</ele><time>2026-04-18T14:16:44Z</time></trkpt><trkpt lat="43.46849912313843" lon="10.602904668905513"><ele>580.0</ele><time>2026-04-18T14:16:45Z</time></trkpt><trkpt lat="43.46857166409917" lon="10.602982717276536"><ele>580.0</ele><time>2026-04-18T14:16:46Z</time></trkpt><trkpt lat="43.46866037073523" lon="10.603039512727719"><ele>582.25</ele><time>2026-04-18T14:16:47Z</time></trkpt><trkpt lat="43.46877986070404" lon="10.603085479928279"><ele>584.5</ele><time>2026-04-18T14:16:48Z</time></trkpt><trkpt lat="43.46888254795018" lon="10.603151610373148"><ele>586.75</ele><time>2026-04-18T14:16:49Z</time></trkpt><trkpt lat="43.46900250077407" lon="10.603225950917018"><ele>589.0</ele><time>2026-04-18T14:16:50Z</time></trkpt><trkpt lat="43.469140486038285" lon="10.60331063757783"><ele>589.0</ele><time>2026-04-18T14:16:51Z</time></trkpt><trkpt lat="43.46924165776265" lon="10.603391497718265"><ele>589.0</ele><time>2026-04-18T14:16:52Z</time></trkpt><trkpt lat="43.46933250679013" lon="10.603482535920964"><ele>589.0</ele><time>2026-04-18T14:16:53Z</time></trkpt><trkpt lat="43.46942364133373" lon="10.603557812233195"><ele>589.0</ele><time>2026-04-18T14:16:54Z</time></trkpt><trkpt lat="43.46952379774856" lon="10.603644032995527"><ele>587.75</ele><time>2026-04-18T14:16:55Z</time></trkpt><trkpt lat="43.46964153183335" lon="10.603716153554378"><ele>586.5</ele><time>2026-04-18T14:16:56Z</time></trkpt><trkpt lat="43.46974342641107" lon="10.603826946297646"><ele>585.25</ele><time>2026-04-18T14:16:57Z</time></trkpt><trkpt lat="43.469866574982305" lon="10.603936918573256"><ele>584.0</ele><time>2026-04-18T14:16:58Z</time></trkpt><trkpt lat="43.469987230725316" lon="10.604025926527738"><ele>584.0</ele><time>2026-04-18T14:16:59Z</time></trkpt><trkpt lat="43.47009695140268" lon="10.604100799063401"><ele>584.0</ele><time>2026-04-18T14:17:00Z</time></trkpt><trkpt lat="43.47022197165924" lon="10.604144601870725"><ele>584.0</ele><time>2026-04-18T14:17:01Z</time></trkpt><trkpt lat="43.47034952137867" lon="10.604168391826015"><ele>584.0</ele><time>2026-04-18T14:17:02Z</time></trkpt><trkpt lat="43.47046313098854" lon="10.60418603701276"><ele>583.2</ele><time>2026-04-18T14:17:03.001Z</time></trkpt><trkpt lat="43.47056343776269" lon="10.604214492781983"><ele>582.4</ele><time>2026-04-18T14:17:04.001Z</time></trkpt><trkpt lat="43.47064883464719" lon="10.604229323181345"><ele>581.6</ele><time>2026-04-18T14:17:05.001Z</time></trkpt><trkpt lat="43.47075602442161" lon="10.604209117170088"><ele>580.8</ele><time>2026-04-18T14:17:06.001Z</time></trkpt><trkpt lat="43.470885744773" lon="10.604159262539675"><ele>580.0</ele><time>2026-04-18T14:17:07Z</time></trkpt><trkpt lat="43.47099241889251" lon="10.604151777291209"><ele>580.0</ele><time>2026-04-18T14:17:08Z</time></trkpt><trkpt lat="43.47111047695596" lon="10.60414568979967"><ele>580.0</ele><time>2026-04-18T14:17:09Z</time></trkpt><trkpt lat="43.47124467150148" lon="10.604189290197892"><ele>580.0</ele><time>2026-04-18T14:17:10Z</time></trkpt><trkpt lat="43.471350756296566" lon="10.604268416039272"><ele>580.0</ele><time>2026-04-18T14:17:11Z</time></trkpt><trkpt lat="43.47145983786825" lon="10.60432583537903"><ele>580.5</ele><time>2026-04-18T14:17:12Z</time></trkpt><trkpt lat="43.471601615272334" lon="10.604311721137488"><ele>581.0</ele><time>2026-04-18T14:17:13Z</time></trkpt><trkpt lat="43.47172329074292" lon="10.604268121900601"><ele>581.5</ele><time>2026-04-18T14:17:14Z</time></trkpt><trkpt lat="43.47181214508899" lon="10.60417829935045"><ele>582.0</ele><time>2026-04-18T14:17:15Z</time></trkpt><trkpt lat="43.471881311432" lon="10.604116787288513"><ele>582.0</ele><time>2026-04-18T14:17:16Z</time></trkpt><trkpt lat="43.47195234702446" lon="10.604071659425669"><ele>582.0</ele><time>2026-04-18T14:17:17Z</time></trkpt><trkpt lat="43.47206111098562" lon="10.604077971400512"><ele>582.0</ele><time>2026-04-18T14:17:18Z</time></trkpt><trkpt lat="43.47213668329902" lon="10.604135466701328"><ele>582.0</ele><time>2026-04-18T14:17:19Z</time></trkpt><trkpt lat="43.47222482359379" lon="10.604267183644778"><ele>582.0</ele><time>2026-04-18T14:17:20Z</time></trkpt><trkpt lat="43.47227783293852" lon="10.604411816716338"><ele>583.0</ele><time>2026-04-18T14:17:21Z</time></trkpt><trkpt lat="43.4723380299253" lon="10.604560119627093"><ele>584.0</ele><time>2026-04-18T14:17:22Z</time></trkpt><trkpt lat="43.47238762626286" lon="10.604711540057465"><ele>585.0</ele><time>2026-04-18T14:17:23Z</time></trkpt><trkpt lat="43.472442948613484" lon="10.604841491270356"><ele>586.0</ele><time>2026-04-18T14:17:24Z</time></trkpt><trkpt lat="43.47248288836375" lon="10.605045498756896"><ele>586.0</ele><time>2026-04-18T14:17:25Z</time></trkpt><trkpt lat="43.47251025913778" lon="10.605228855347951"><ele>586.0</ele><time>2026-04-18T14:17:26Z</time></trkpt><trkpt lat="43.47254557635938" lon="10.605407668726384"><ele>586.0</ele><time>2026-04-18T14:17:27Z</time></trkpt><trkpt lat="43.472615288796995" lon="10.6055945282786"><ele>586.0</ele><time>2026-04-18T14:17:28Z</time></trkpt><trkpt lat="43.47270209231844" lon="10.605736502737273"><ele>586.6666666666667</ele><time>2026-04-18T14:17:29Z</time></trkpt><trkpt lat="43.47285544949759" lon="10.605832576283635"><ele>587.3333333333334</ele><time>2026-04-18T14:17:30Z</time></trkpt><trkpt lat="43.47300325755368" lon="10.605963771960983"><ele>588.0</ele><time>2026-04-18T14:17:31Z</time></trkpt><trkpt lat="43.47310667231106" lon="10.606070018490787"><ele>586.8</ele><time>2026-04-18T14:17:32Z</time></trkpt><trkpt lat="43.473213520560435" lon="10.60617896224226"><ele>585.5999999999999</ele><time>2026-04-18T14:17:33Z</time></trkpt><trkpt lat="43.473312268799624" lon="10.606268143676091"><ele>584.4000000000001</ele><time>2026-04-18T14:17:34Z</time></trkpt><trkpt lat="43.47341023966868" lon="10.606312638544736"><ele>583.2</ele><time>2026-04-18T14:17:35Z</time></trkpt><trkpt lat="43.473503712727414" lon="10.606308888915446"><ele>582.0</ele><time>2026-04-18T14:17:36Z</time></trkpt><trkpt lat="43.47359270982164" lon="10.60628567570402"><ele>582.0</ele><time>2026-04-18T14:17:37Z</time></trkpt><trkpt lat="43.47367696543364" lon="10.606240072575352"><ele>582.0</ele><time>2026-04-18T14:17:38Z</time></trkpt><trkpt lat="43.47374568823783" lon="10.606201677501808"><ele>582.0</ele><time>2026-04-18T14:17:39Z</time></trkpt><trkpt lat="43.473838226918346" lon="10.60618470790692"><ele>582.0</ele><time>2026-04-18T14:17:40Z</time></trkpt><trkpt lat="43.47394367992257" lon="10.60618489437886"><ele>582.0</ele><time>2026-04-18T14:17:41Z</time></trkpt><trkpt lat="43.4740731945367" lon="10.60620812133012"><ele>581.0</ele><time>2026-04-18T14:17:42Z</time></trkpt><trkpt lat="43.47419976117264" lon="10.606216049205715"><ele>580.0</ele><time>2026-04-18T14:17:43Z</time></trkpt><trkpt lat="43.47431418396628" lon="10.60621256385705"><ele>579.0</ele><time>2026-04-18T14:17:44Z</time></trkpt><trkpt lat="43.474419149989316" lon="10.606194650632617"><ele>578.0</ele><time>2026-04-18T14:17:45Z</time></trkpt><trkpt lat="43.474518778325915" lon="10.606149713677345"><ele>577.6</ele><time>2026-04-18T14:17:46Z</time></trkpt><trkpt lat="43.47463927799991" lon="10.606124909246253"><ele>577.1999999999999</ele><time>2026-04-18T14:17:47Z</time></trkpt><trkpt lat="43.47475688605477" lon="10.606163301620647"><ele>576.8</ele><time>2026-04-18T14:17:48Z</time></trkpt><trkpt lat="43.474839281835145" lon="10.606131377861338"><ele>576.4</ele><time>2026-04-18T14:17:49Z</time></trkpt><trkpt lat="43.47491848052314" lon="10.606021921913898"><ele>576.0</ele><time>2026-04-18T14:17:52Z</time></trkpt><trkpt lat="43.47497162027715" lon="10.605962395537766"><ele>576.1666666666666</ele><time>2026-04-18T14:17:53Z</time></trkpt><trkpt lat="43.475002840746704" lon="10.605841363823416"><ele>576.3333333333334</ele><time>2026-04-18T14:17:55Z</time></trkpt><trkpt lat="43.47498732192961" lon="10.605737614022841"><ele>576.5</ele><time>2026-04-18T14:17:57Z</time></trkpt><trkpt lat="43.47498691557926" lon="10.605606334311622"><ele>576.6666666666667</ele><time>2026-04-18T14:17:58Z</time></trkpt><trkpt lat="43.47498855000994" lon="10.605503965937318"><ele>576.8333333333334</ele><time>2026-04-18T14:17:59Z</time></trkpt><trkpt lat="43.47498146835161" lon="10.605397143916647"><ele>577.0</ele><time>2026-04-18T14:18:00Z</time></trkpt><trkpt lat="43.474958734942255" lon="10.60528663831829"><ele>577.0</ele><time>2026-04-18T14:18:01Z</time></trkpt><trkpt lat="43.4749375737293" lon="10.605189655958494"><ele>577.0</ele><time>2026-04-18T14:18:02Z</time></trkpt><trkpt lat="43.47490239736343" lon="10.60508750123222"><ele>577.0</ele><time>2026-04-18T14:18:03Z</time></trkpt><trkpt lat="43.47486508342049" lon="10.604934524349716"><ele>577.0</ele><time>2026-04-18T14:18:05Z</time></trkpt><trkpt lat="43.47485031607138" lon="10.604820157346538"><ele>577.0</ele><time>2026-04-18T14:18:06Z</time></trkpt><trkpt lat="43.474787153839515" lon="10.604671853264866"><ele>577.0</ele><time>2026-04-18T14:18:08Z</time></trkpt><trkpt lat="43.47481367830674" lon="10.604588339484387"><ele>577.0</ele><time>2026-04-18T14:18:09Z</time></trkpt><trkpt lat="43.474845036140614" lon="10.604478701086563"><ele>577.0</ele><time>2026-04-18T14:18:10Z</time></trkpt><trkpt lat="43.47486679051428" lon="10.604338548155342"><ele>577.0</ele><time>2026-04-18T14:18:11Z</time></trkpt><trkpt lat="43.47487762342226" lon="10.604216622971874"><ele>577.0</ele><time>2026-04-18T14:18:12Z</time></trkpt><trkpt lat="43.47485070290088" lon="10.604116051895584"><ele>577.0</ele><time>2026-04-18T14:18:13Z</time></trkpt><trkpt lat="43.47482370181685" lon="10.604028322910288"><ele>577.2</ele><time>2026-04-18T14:18:14Z</time></trkpt><trkpt lat="43.47482725910016" lon="10.603939188843306"><ele>577.4000000000001</ele><time>2026-04-18T14:18:15Z</time></trkpt><trkpt lat="43.47487710372311" lon="10.603804510437156"><ele>577.5999999999999</ele><time>2026-04-18T14:18:16Z</time></trkpt><trkpt lat="43.47489141074471" lon="10.603673411524477"><ele>577.8</ele><time>2026-04-18T14:18:17Z</time></trkpt><trkpt lat="43.474873330479035" lon="10.603526168892229"><ele>578.0</ele><time>2026-04-18T14:18:19Z</time></trkpt><trkpt lat="43.47493040457211" lon="10.603435909030452"><ele>578.0</ele><time>2026-04-18T14:18:20Z</time></trkpt><trkpt lat="43.47504614501185" lon="10.603423212087149"><ele>578.0</ele><time>2026-04-18T14:18:21Z</time></trkpt><trkpt lat="43.47513819799884" lon="10.603418373361954"><ele>578.0</ele><time>2026-04-18T14:18:22Z</time></trkpt><trkpt lat="43.47522138931976" lon="10.603408139946882"><ele>578.0</ele><time>2026-04-18T14:18:23Z</time></trkpt><trkpt lat="43.47528957520558" lon="10.603408338764394"><ele>578.0</ele><time>2026-04-18T14:18:24Z</time></trkpt><trkpt lat="43.47536372116624" lon="10.603379218084678"><ele>578.0</ele><time>2026-04-18T14:18:25Z</time></trkpt><trkpt lat="43.47549992076715" lon="10.603374154377642"><ele>577.25</ele><time>2026-04-18T14:18:26Z</time></trkpt><trkpt lat="43.475612246950064" lon="10.603365358205615"><ele>576.5</ele><time>2026-04-18T14:18:27Z</time></trkpt><trkpt lat="43.47574324897316" lon="10.603365281697574"><ele>575.75</ele><time>2026-04-18T14:18:28Z</time></trkpt><trkpt lat="43.47588417280387" lon="10.60338932797215"><ele>575.0</ele><time>2026-04-18T14:18:29Z</time></trkpt><trkpt lat="43.47601273095209" lon="10.603434038604608"><ele>575.0</ele><time>2026-04-18T14:18:30Z</time></trkpt><trkpt lat="43.47611928722518" lon="10.603525149316457"><ele>575.0</ele><time>2026-04-18T14:18:31Z</time></trkpt><trkpt lat="43.47622734834422" lon="10.60361429952691"><ele>575.0</ele><time>2026-04-18T14:18:32Z</time></trkpt><trkpt lat="43.47630571769851" lon="10.603722656783017"><ele>575.0</ele><time>2026-04-18T14:18:33Z</time></trkpt><trkpt lat="43.47637999622594" lon="10.60379547472309"><ele>573.6</ele><time>2026-04-18T14:18:34Z</time></trkpt><trkpt lat="43.47646224028927" lon="10.603843462273721"><ele>572.2</ele><time>2026-04-18T14:18:35Z</time></trkpt><trkpt lat="43.47655793906916" lon="10.60387059901933"><ele>570.8</ele><time>2026-04-18T14:18:36Z</time></trkpt><trkpt lat="43.47665001853613" lon="10.603896910986325"><ele>569.4</ele><time>2026-04-18T14:18:37Z</time></trkpt><trkpt lat="43.47674687431182" lon="10.603912789044529"><ele>568.0</ele><time>2026-04-18T14:18:38Z</time></trkpt><trkpt lat="43.476844145480776" lon="10.603884391462676"><ele>568.0</ele><time>2026-04-18T14:18:39Z</time></trkpt><trkpt lat="43.47693536243828" lon="10.603815647523398"><ele>568.0</ele><time>2026-04-18T14:18:40Z</time></trkpt><trkpt lat="43.47702607406523" lon="10.603698453722854"><ele>568.0</ele><time>2026-04-18T14:18:41Z</time></trkpt><trkpt lat="43.477153883416825" lon="10.603628547387096"><ele>568.0</ele><time>2026-04-18T14:18:42Z</time></trkpt><trkpt lat="43.4772992747595" lon="10.603602474579937"><ele>565.75</ele><time>2026-04-18T14:18:43Z</time></trkpt><trkpt lat="43.477426312932195" lon="10.603577778198584"><ele>563.5</ele><time>2026-04-18T14:18:44Z</time></trkpt><trkpt lat="43.477556953879244" lon="10.603533762962185"><ele>561.25</ele><time>2026-04-18T14:18:45Z</time></trkpt><trkpt lat="43.47766098357687" lon="10.603450840490776"><ele>559.0</ele><time>2026-04-18T14:18:46Z</time></trkpt><trkpt lat="43.47775556836696" lon="10.603347263742176"><ele>559.0</ele><time>2026-04-18T14:18:47Z</time></trkpt><trkpt lat="43.47785470248085" lon="10.603202976000178"><ele>559.0</ele><time>2026-04-18T14:18:47.999Z</time></trkpt><trkpt lat="43.47795199075694" lon="10.60305284325032"><ele>559.0</ele><time>2026-04-18T14:18:48.999Z</time></trkpt><trkpt lat="43.47804849475058" lon="10.602932173063097"><ele>559.0</ele><time>2026-04-18T14:18:49.999Z</time></trkpt><trkpt lat="43.47814122497562" lon="10.602821916975705"><ele>556.0</ele><time>2026-04-18T14:18:50.999Z</time></trkpt><trkpt lat="43.47821431684096" lon="10.602691353212494"><ele>553.0</ele><time>2026-04-18T14:18:51.999Z</time></trkpt><trkpt lat="43.47825980976197" lon="10.602523458438768"><ele>550.0</ele><time>2026-04-18T14:18:52.999Z</time></trkpt><trkpt lat="43.47829474548057" lon="10.602332086448085"><ele>547.0</ele><time>2026-04-18T14:18:53.999Z</time></trkpt><trkpt lat="43.478359208083475" lon="10.602154384943566"><ele>547.0</ele><time>2026-04-18T14:18:54.999Z</time></trkpt><trkpt lat="43.47843250834934" lon="10.602022905948482"><ele>547.0</ele><time>2026-04-18T14:18:55.999Z</time></trkpt><trkpt lat="43.47852811980467" lon="10.601898607062925"><ele>547.0</ele><time>2026-04-18T14:18:56.999Z</time></trkpt><trkpt lat="43.47861909702178" lon="10.601789917902858"><ele>547.0</ele><time>2026-04-18T14:18:57.999Z</time></trkpt><trkpt lat="43.47871338334693" lon="10.601716527505658"><ele>546.2</ele><time>2026-04-18T14:18:58.999Z</time></trkpt><trkpt lat="43.47879569806178" lon="10.601661650878258"><ele>545.4000000000001</ele><time>2026-04-18T14:18:59.999Z</time></trkpt><trkpt lat="43.47889300237109" lon="10.601641823981387"><ele>544.5999999999999</ele><time>2026-04-18T14:19:00.999Z</time></trkpt><trkpt lat="43.47900661789157" lon="10.601674106194764"><ele>543.8</ele><time>2026-04-18T14:19:01.999Z</time></trkpt><trkpt lat="43.47913275778657" lon="10.601740703097086"><ele>543.0</ele><time>2026-04-18T14:19:02.999Z</time></trkpt><trkpt lat="43.479235861931755" lon="10.601748761795282"><ele>543.0</ele><time>2026-04-18T14:19:03.999Z</time></trkpt><trkpt lat="43.47933028609691" lon="10.601685319170741"><ele>543.0</ele><time>2026-04-18T14:19:04.999Z</time></trkpt><trkpt lat="43.47940174589267" lon="10.601560738934992"><ele>543.0</ele><time>2026-04-18T14:19:05.999Z</time></trkpt><trkpt lat="43.47946811704227" lon="10.601444835139663"><ele>543.0</ele><time>2026-04-18T14:19:06.999Z</time></trkpt><trkpt lat="43.479540231367615" lon="10.601316033228395"><ele>543.0</ele><time>2026-04-18T14:19:08Z</time></trkpt><trkpt lat="43.47964925286457" lon="10.60119627287218"><ele>540.75</ele><time>2026-04-18T14:19:09Z</time></trkpt><trkpt lat="43.47976517018626" lon="10.601114445328031"><ele>538.5</ele><time>2026-04-18T14:19:10Z</time></trkpt><trkpt lat="43.47987033513055" lon="10.601042307031264"><ele>536.25</ele><time>2026-04-18T14:19:11Z</time></trkpt><trkpt lat="43.47994978423555" lon="10.600901418100925"><ele>534.0</ele><time>2026-04-18T14:19:12Z</time></trkpt><trkpt lat="43.4800010003268" lon="10.600700623025094"><ele>534.0</ele><time>2026-04-18T14:19:13Z</time></trkpt><trkpt lat="43.48002021036373" lon="10.600500981755426"><ele>534.0</ele><time>2026-04-18T14:19:14Z</time></trkpt><trkpt lat="43.47999505376877" lon="10.600408665393767"><ele>534.0</ele><time>2026-04-18T14:19:15Z</time></trkpt><trkpt lat="43.48004261421291" lon="10.60023757719416"><ele>534.0</ele><time>2026-04-18T14:19:17Z</time></trkpt><trkpt lat="43.48012024701231" lon="10.60000128682061"><ele>533.0</ele><time>2026-04-18T14:19:18Z</time></trkpt><trkpt lat="43.48021167653502" lon="10.599859402312473"><ele>532.0</ele><time>2026-04-18T14:19:19Z</time></trkpt><trkpt lat="43.48031963571737" lon="10.599754690870387"><ele>531.0</ele><time>2026-04-18T14:19:20Z</time></trkpt><trkpt lat="43.480412672119115" lon="10.59969350971138"><ele>530.0</ele><time>2026-04-18T14:19:21Z</time></trkpt><trkpt lat="43.480504033378644" lon="10.599638667607353"><ele>529.2</ele><time>2026-04-18T14:19:22Z</time></trkpt><trkpt lat="43.48059955204582" lon="10.599612269181224"><ele>528.4</ele><time>2026-04-18T14:19:23Z</time></trkpt><trkpt lat="43.480693048371144" lon="10.599574495769405"><ele>527.6</ele><time>2026-04-18T14:19:24Z</time></trkpt><trkpt lat="43.4807975748823" lon="10.59954951271334"><ele>526.8</ele><time>2026-04-18T14:19:25Z</time></trkpt><trkpt lat="43.480896350223674" lon="10.599508477669975"><ele>526.0</ele><time>2026-04-18T14:19:26Z</time></trkpt><trkpt lat="43.48099987037938" lon="10.59948892475292"><ele>525.4</ele><time>2026-04-18T14:19:27Z</time></trkpt><trkpt lat="43.481101717470274" lon="10.599473526134343"><ele>524.8</ele><time>2026-04-18T14:19:28Z</time></trkpt><trkpt lat="43.48120397172036" lon="10.59942703557392"><ele>524.1999999999999</ele><time>2026-04-18T14:19:29Z</time></trkpt><trkpt lat="43.48130313616571" lon="10.59938781201575"><ele>523.6</ele><time>2026-04-18T14:19:30Z</time></trkpt><trkpt lat="43.48139386701107" lon="10.599350504002253"><ele>523.0</ele><time>2026-04-18T14:19:31Z</time></trkpt><trkpt lat="43.48150685645112" lon="10.599333383793367"><ele>520.8</ele><time>2026-04-18T14:19:32Z</time></trkpt><trkpt lat="43.48160381274981" lon="10.599347615228547"><ele>518.5999999999999</ele><time>2026-04-18T14:19:33Z</time></trkpt><trkpt lat="43.48170274710363" lon="10.599337115629975"><ele>516.4000000000001</ele><time>2026-04-18T14:19:34Z</time></trkpt><trkpt lat="43.481811658333406" lon="10.599327015513364"><ele>514.2</ele><time>2026-04-18T14:19:35Z</time></trkpt><trkpt lat="43.48193308267647" lon="10.599315186044642"><ele>512.0</ele><time>2026-04-18T14:19:36Z</time></trkpt><trkpt lat="43.4820643496169" lon="10.599315742334081"><ele>508.0</ele><time>2026-04-18T14:19:37Z</time></trkpt><trkpt lat="43.48218123887676" lon="10.599335932634487"><ele>504.0</ele><time>2026-04-18T14:19:38Z</time></trkpt><trkpt lat="43.48231573857649" lon="10.599340833488863"><ele>500.0</ele><time>2026-04-18T14:19:39Z</time></trkpt><trkpt lat="43.48242992196521" lon="10.599371942162993"><ele>496.0</ele><time>2026-04-18T14:19:40Z</time></trkpt><trkpt lat="43.48255311902187" lon="10.599452865726583"><ele>496.33333333333337</ele><time>2026-04-18T14:19:41Z</time></trkpt><trkpt lat="43.48269581864287" lon="10.599524710632675"><ele>496.66666666666663</ele><time>2026-04-18T14:19:42Z</time></trkpt><trkpt lat="43.48283961187973" lon="10.599633679186852"><ele>497.0</ele><time>2026-04-18T14:19:43Z</time></trkpt><trkpt lat="43.48296887130646" lon="10.599714820238514"><ele>497.0</ele><time>2026-04-18T14:19:44Z</time></trkpt><trkpt lat="43.48310316490379" lon="10.59978538598115"><ele>497.0</ele><time>2026-04-18T14:19:45Z</time></trkpt><trkpt lat="43.483245759678724" lon="10.599862763315153"><ele>497.0</ele><time>2026-04-18T14:19:46Z</time></trkpt><trkpt lat="43.48337964420809" lon="10.599943982887913"><ele>497.0</ele><time>2026-04-18T14:19:47Z</time></trkpt><trkpt lat="43.48350386770936" lon="10.600024874661207"><ele>497.0</ele><time>2026-04-18T14:19:48Z</time></trkpt><trkpt lat="43.48363152450701" lon="10.600079984512824"><ele>497.0</ele><time>2026-04-18T14:19:49Z</time></trkpt><trkpt lat="43.48376711134731" lon="10.600116369301958"><ele>497.0</ele><time>2026-04-18T14:19:50Z</time></trkpt><trkpt lat="43.48390212427603" lon="10.600112104043225"><ele>497.0</ele><time>2026-04-18T14:19:51Z</time></trkpt><trkpt lat="43.484030358281906" lon="10.600095822502034"><ele>498.5</ele><time>2026-04-18T14:19:52Z</time></trkpt><trkpt lat="43.48415053004042" lon="10.600092069001233"><ele>500.0</ele><time>2026-04-18T14:19:53Z</time></trkpt><trkpt lat="43.484275846408465" lon="10.600066678137553"><ele>501.5</ele><time>2026-04-18T14:19:54Z</time></trkpt><trkpt lat="43.48439983949409" lon="10.600031383873404"><ele>503.0</ele><time>2026-04-18T14:19:55Z</time></trkpt><trkpt lat="43.48457942213037" lon="10.600011898591267"><ele>503.66666666666663</ele><time>2026-04-18T14:19:56Z</time></trkpt><trkpt lat="43.484760995636016" lon="10.599964225924612"><ele>504.33333333333337</ele><time>2026-04-18T14:19:57Z</time></trkpt><trkpt lat="43.48495823607353" lon="10.599988848031987"><ele>505.0</ele><time>2026-04-18T14:19:58Z</time></trkpt><trkpt lat="43.485168514505546" lon="10.599934656561263"><ele>505.0</ele><time>2026-04-18T14:19:59Z</time></trkpt><trkpt lat="43.485327224814675" lon="10.599874406235788"><ele>505.0</ele><time>2026-04-18T14:20:00Z</time></trkpt><trkpt lat="43.48544429377646" lon="10.599816186337947"><ele>505.0</ele><time>2026-04-18T14:20:01Z</time></trkpt><trkpt lat="43.4855527179293" lon="10.599747172688907"><ele>505.0</ele><time>2026-04-18T14:20:02Z</time></trkpt><trkpt lat="43.485653475841794" lon="10.59968541712395"><ele>505.5</ele><time>2026-04-18T14:20:03Z</time></trkpt><trkpt lat="43.48575927678897" lon="10.59964349574835"><ele>506.0</ele><time>2026-04-18T14:20:04Z</time></trkpt><trkpt lat="43.48589526717161" lon="10.599608023669909"><ele>506.5</ele><time>2026-04-18T14:20:05Z</time></trkpt><trkpt lat="43.48605806851938" lon="10.599618161230822"><ele>507.0</ele><time>2026-04-18T14:20:06Z</time></trkpt><trkpt lat="43.4862112867825" lon="10.599640860709629"><ele>505.75</ele><time>2026-04-18T14:20:07Z</time></trkpt><trkpt lat="43.486373148128465" lon="10.599667945499723"><ele>504.5</ele><time>2026-04-18T14:20:08Z</time></trkpt><trkpt lat="43.486514191906515" lon="10.599707767156444"><ele>503.25</ele><time>2026-04-18T14:20:09Z</time></trkpt><trkpt lat="43.486630646652195" lon="10.599755736850907"><ele>502.0</ele><time>2026-04-18T14:20:10Z</time></trkpt><trkpt lat="43.48673628976007" lon="10.599767036535976"><ele>502.0</ele><time>2026-04-18T14:20:11Z</time></trkpt><trkpt lat="43.48685782816844" lon="10.599732732774688"><ele>502.0</ele><time>2026-04-18T14:20:12Z</time></trkpt><trkpt lat="43.48696200367263" lon="10.599664586353933"><ele>502.0</ele><time>2026-04-18T14:20:13Z</time></trkpt><trkpt lat="43.487092673835704" lon="10.59960080385494"><ele>502.0</ele><time>2026-04-18T14:20:14Z</time></trkpt><trkpt lat="43.48720066029266" lon="10.599472735951885"><ele>500.0</ele><time>2026-04-18T14:20:15Z</time></trkpt><trkpt lat="43.48729192989343" lon="10.599318794384596"><ele>498.0</ele><time>2026-04-18T14:20:16Z</time></trkpt><trkpt lat="43.487380457220354" lon="10.59918799920023"><ele>496.0</ele><time>2026-04-18T14:20:17Z</time></trkpt><trkpt lat="43.48747421742489" lon="10.599040800628488"><ele>494.0</ele><time>2026-04-18T14:20:18Z</time></trkpt><trkpt lat="43.48756787711412" lon="10.598908899028071"><ele>494.0</ele><time>2026-04-18T14:20:19Z</time></trkpt><trkpt lat="43.48765232340961" lon="10.598775217711058"><ele>494.0</ele><time>2026-04-18T14:20:20Z</time></trkpt><trkpt lat="43.48772677387438" lon="10.598635376456363"><ele>494.0</ele><time>2026-04-18T14:20:21Z</time></trkpt><trkpt lat="43.48777412902526" lon="10.598452960142449"><ele>494.0</ele><time>2026-04-18T14:20:22Z</time></trkpt><trkpt lat="43.487800593508204" lon="10.598306064805643"><ele>493.8333333333333</ele><time>2026-04-18T14:20:23Z</time></trkpt><trkpt lat="43.48783328230634" lon="10.598190044219962"><ele>493.66666666666663</ele><time>2026-04-18T14:20:24Z</time></trkpt><trkpt lat="43.487877170700386" lon="10.598084898547539"><ele>493.5</ele><time>2026-04-18T14:20:25Z</time></trkpt><trkpt lat="43.48791573235033" lon="10.597994555365926"><ele>493.33333333333337</ele><time>2026-04-18T14:20:26Z</time></trkpt><trkpt lat="43.48794273549722" lon="10.597907066188624"><ele>493.1666666666667</ele><time>2026-04-18T14:20:26.999Z</time></trkpt><trkpt lat="43.48799130206455" lon="10.597846785280542"><ele>493.0</ele><time>2026-04-18T14:20:27.999Z</time></trkpt><trkpt lat="43.488066921637646" lon="10.597785014816264"><ele>493.4</ele><time>2026-04-18T14:20:28.999Z</time></trkpt><trkpt lat="43.48814298665939" lon="10.597714031244278"><ele>493.79999999999995</ele><time>2026-04-18T14:20:29.999Z</time></trkpt><trkpt lat="43.488231283892354" lon="10.597608536637733"><ele>494.2</ele><time>2026-04-18T14:20:30.999Z</time></trkpt><trkpt lat="43.48831919610323" lon="10.597492614952372"><ele>494.6</ele><time>2026-04-18T14:20:31.999Z</time></trkpt><trkpt lat="43.48838539937655" lon="10.597385559048604"><ele>495.0</ele><time>2026-04-18T14:20:32.999Z</time></trkpt><trkpt lat="43.48843092861094" lon="10.597284597511058"><ele>495.0</ele><time>2026-04-18T14:20:33.999Z</time></trkpt><trkpt lat="43.48846442211638" lon="10.597189334303785"><ele>495.0</ele><time>2026-04-18T14:20:34.999Z</time></trkpt><trkpt lat="43.48850599618471" lon="10.597066748206181"><ele>495.0</ele><time>2026-04-18T14:20:35.999Z</time></trkpt><trkpt lat="43.48855368926215" lon="10.596913276714048"><ele>495.0</ele><time>2026-04-18T14:20:36.999Z</time></trkpt><trkpt lat="43.48861794466568" lon="10.596756554463427"><ele>495.0</ele><time>2026-04-18T14:20:37.999Z</time></trkpt><trkpt lat="43.48869897457005" lon="10.596591668195607"><ele>494.25</ele><time>2026-04-18T14:20:38.999Z</time></trkpt><trkpt lat="43.48879221662738" lon="10.596451217593417"><ele>493.5</ele><time>2026-04-18T14:20:39.999Z</time></trkpt><trkpt lat="43.48888442660664" lon="10.596348998239659"><ele>492.75</ele><time>2026-04-18T14:20:40.999Z</time></trkpt><trkpt lat="43.488983062910506" lon="10.596296521963623"><ele>492.0</ele><time>2026-04-18T14:20:41.999Z</time></trkpt><trkpt lat="43.48908691967809" lon="10.596297850746705"><ele>492.0</ele><time>2026-04-18T14:20:42.999Z</time></trkpt><trkpt lat="43.489202145874806" lon="10.596336648002378"><ele>492.0</ele><time>2026-04-18T14:20:43.999Z</time></trkpt><trkpt lat="43.48932432540192" lon="10.596423370832333"><ele>492.0</ele><time>2026-04-18T14:20:44.999Z</time></trkpt><trkpt lat="43.48945612172868" lon="10.596529699299316"><ele>492.0</ele><time>2026-04-18T14:20:45.999Z</time></trkpt><trkpt lat="43.48957745022064" lon="10.596529791540982"><ele>492.0</ele><time>2026-04-18T14:20:46.999Z</time></trkpt><trkpt lat="43.48974409382093" lon="10.5965392532359"><ele>492.0</ele><time>2026-04-18T14:20:47.999Z</time></trkpt><trkpt lat="43.48988531104589" lon="10.596557905355583"><ele>492.0</ele><time>2026-04-18T14:20:48.999Z</time></trkpt><trkpt lat="43.48999859683464" lon="10.59655994987294"><ele>492.0</ele><time>2026-04-18T14:20:49.999Z</time></trkpt><trkpt lat="43.49010814661127" lon="10.596488741618447"><ele>492.0</ele><time>2026-04-18T14:20:50.999Z</time></trkpt><trkpt lat="43.49022472992519" lon="10.596385718056828"><ele>492.0</ele><time>2026-04-18T14:20:51.999Z</time></trkpt><trkpt lat="43.49033418647224" lon="10.596318448794538"><ele>492.0</ele><time>2026-04-18T14:20:52.999Z</time></trkpt><trkpt lat="43.49043011579082" lon="10.596292521499148"><ele>492.0</ele><time>2026-04-18T14:20:53.999Z</time></trkpt><trkpt lat="43.49052645295856" lon="10.5962866358543"><ele>491.6666666666667</ele><time>2026-04-18T14:20:54.999Z</time></trkpt><trkpt lat="43.49059618377579" lon="10.596296495458155"><ele>491.33333333333337</ele><time>2026-04-18T14:20:55.999Z</time></trkpt><trkpt lat="43.49068779887216" lon="10.59631727887207"><ele>491.0</ele><time>2026-04-18T14:20:57.999Z</time></trkpt><trkpt lat="43.49078146489462" lon="10.596330025553721"><ele>490.6666666666667</ele><time>2026-04-18T14:20:59.999Z</time></trkpt><trkpt lat="43.49085394715247" lon="10.596332116089352"><ele>490.33333333333337</ele><time>2026-04-18T14:21:00.999Z</time></trkpt><trkpt lat="43.490926312969535" lon="10.596336691547384"><ele>490.0</ele><time>2026-04-18T14:21:01.999Z</time></trkpt><trkpt lat="43.491010369364325" lon="10.596331864018111"><ele>490.00000000000006</ele><time>2026-04-18T14:21:02.999Z</time></trkpt><trkpt lat="43.49109317997078" lon="10.596338924454257"><ele>490.0</ele><time>2026-04-18T14:21:03.999Z</time></trkpt><trkpt lat="43.491171927017625" lon="10.596344403373054"><ele>490.0</ele><time>2026-04-18T14:21:04.999Z</time></trkpt><trkpt lat="43.49124698871998" lon="10.59634892179288"><ele>490.0</ele><time>2026-04-18T14:21:05.999Z</time></trkpt><trkpt lat="43.491315157254306" lon="10.596370826465746"><ele>490.00000000000006</ele><time>2026-04-18T14:21:06.999Z</time></trkpt><trkpt lat="43.49139131848922" lon="10.596406950808454"><ele>490.0</ele><time>2026-04-18T14:21:07.999Z</time></trkpt><trkpt lat="43.49148205897295" lon="10.596464946609208"><ele>489.2</ele><time>2026-04-18T14:21:08.999Z</time></trkpt><trkpt lat="43.49158094046873" lon="10.596549691983174"><ele>488.4</ele><time>2026-04-18T14:21:09.999Z</time></trkpt><trkpt lat="43.49168011278607" lon="10.596617278394369"><ele>487.6</ele><time>2026-04-18T14:21:10.999Z</time></trkpt><trkpt lat="43.49176371944347" lon="10.596678731014041"><ele>486.8</ele><time>2026-04-18T14:21:11.999Z</time></trkpt><trkpt lat="43.49183047248947" lon="10.59672614793343"><ele>486.0</ele><time>2026-04-18T14:21:12.999Z</time></trkpt><trkpt lat="43.49189420223256" lon="10.59683284381861"><ele>486.0</ele><time>2026-04-18T14:21:15Z</time></trkpt><trkpt lat="43.49188919494189" lon="10.596968742192594"><ele>486.0</ele><time>2026-04-18T14:21:17Z</time></trkpt><trkpt lat="43.491902597132686" lon="10.597127402829548"><ele>486.0</ele><time>2026-04-18T14:21:19Z</time></trkpt><trkpt lat="43.491911100550986" lon="10.597215815586804"><ele>486.0</ele><time>2026-04-18T14:21:20Z</time></trkpt><trkpt lat="43.49194137500901" lon="10.597319452676894"><ele>486.0</ele><time>2026-04-18T14:21:21Z</time></trkpt><trkpt lat="43.491976781472566" lon="10.59745160219557"><ele>485.25</ele><time>2026-04-18T14:21:22Z</time></trkpt><trkpt lat="43.491994430033216" lon="10.59759254207375"><ele>484.5</ele><time>2026-04-18T14:21:23Z</time></trkpt><trkpt lat="43.491994511958964" lon="10.597767470763474"><ele>483.75</ele><time>2026-04-18T14:21:24Z</time></trkpt><trkpt lat="43.49204473835274" lon="10.597978206251842"><ele>483.0</ele><time>2026-04-18T14:21:25Z</time></trkpt><trkpt lat="43.4920671643257" lon="10.598101543744484"><ele>481.2</ele><time>2026-04-18T14:21:26Z</time></trkpt><trkpt lat="43.49208488536873" lon="10.598238152731591"><ele>479.4</ele><time>2026-04-18T14:21:27Z</time></trkpt><trkpt lat="43.49207837474912" lon="10.598371996397061"><ele>477.59999999999997</ele><time>2026-04-18T14:21:28Z</time></trkpt><trkpt lat="43.49207188706293" lon="10.598571978176844"><ele>475.79999999999995</ele><time>2026-04-18T14:21:29Z</time></trkpt><trkpt lat="43.49203186765053" lon="10.59870692744671"><ele>474.0</ele><time>2026-04-18T14:21:30Z</time></trkpt><trkpt lat="43.491995534381616" lon="10.59885197290316"><ele>472.79999999999995</ele><time>2026-04-18T14:21:31Z</time></trkpt><trkpt lat="43.491975467614765" lon="10.598984824231755"><ele>471.59999999999997</ele><time>2026-04-18T14:21:32Z</time></trkpt><trkpt lat="43.491968523904866" lon="10.599120473520285"><ele>470.4</ele><time>2026-04-18T14:21:33Z</time></trkpt><trkpt lat="43.491987228791636" lon="10.599279678774353"><ele>469.2</ele><time>2026-04-18T14:21:34Z</time></trkpt><trkpt lat="43.49199952641736" lon="10.599455125556267"><ele>468.0</ele><time>2026-04-18T14:21:35Z</time></trkpt><trkpt lat="43.49199211862031" lon="10.599609031106677"><ele>467.75</ele><time>2026-04-18T14:21:36Z</time></trkpt><trkpt lat="43.492004805639034" lon="10.599773236243765"><ele>467.5</ele><time>2026-04-18T14:21:37Z</time></trkpt><trkpt lat="43.49206882830054" lon="10.599902984341233"><ele>467.25</ele><time>2026-04-18T14:21:38Z</time></trkpt><trkpt lat="43.49217269438974" lon="10.59998858311182"><ele>467.0</ele><time>2026-04-18T14:21:39Z</time></trkpt><trkpt lat="43.49229622432777" lon="10.600035817711847"><ele>466.99999999999994</ele><time>2026-04-18T14:21:40Z</time></trkpt><trkpt lat="43.49236865586232" lon="10.600075925646236"><ele>467.0</ele><time>2026-04-18T14:21:41Z</time></trkpt><trkpt lat="43.49242808117204" lon="10.600170800260392"><ele>467.0</ele><time>2026-04-18T14:21:43Z</time></trkpt><trkpt lat="43.49245598829426" lon="10.600252073823613"><ele>467.0</ele><time>2026-04-18T14:21:47Z</time></trkpt><trkpt lat="43.49248421068626" lon="10.600384423733805"><ele>466.99999999999994</ele><time>2026-04-18T14:22:14Z</time></trkpt><trkpt lat="43.49251363359206" lon="10.600536654250211"><ele>467.0</ele><time>2026-04-18T14:22:16Z</time></trkpt><trkpt lat="43.49255793260168" lon="10.600659681585103"><ele>466.20000000000005</ele><time>2026-04-18T14:22:18Z</time></trkpt><trkpt lat="43.492623616171215" lon="10.600733204150078"><ele>465.40000000000003</ele><time>2026-04-18T14:22:20Z</time></trkpt><trkpt lat="43.492696503769274" lon="10.600767043388451"><ele>464.59999999999997</ele><time>2026-04-18T14:22:21Z</time></trkpt><trkpt lat="43.49274607452724" lon="10.600888703205172"><ele>463.79999999999995</ele><time>2026-04-18T14:22:22Z</time></trkpt><trkpt lat="43.492800659174364" lon="10.600973263699595"><ele>463.0</ele><time>2026-04-18T14:22:23Z</time></trkpt><trkpt lat="43.492878626661664" lon="10.601072151277021"><ele>463.59999999999997</ele><time>2026-04-18T14:22:25Z</time></trkpt><trkpt lat="43.492972184012956" lon="10.601185812007813"><ele>464.19999999999993</ele><time>2026-04-18T14:22:27Z</time></trkpt><trkpt lat="43.4930458288439" lon="10.60123951534895"><ele>464.8</ele><time>2026-04-18T14:22:27.999Z</time></trkpt><trkpt lat="43.493124139373045" lon="10.601282528499771"><ele>465.4</ele><time>2026-04-18T14:22:28.999Z</time></trkpt><trkpt lat="43.4932087353022" lon="10.601324924220073"><ele>466.0</ele><time>2026-04-18T14:22:29.999Z</time></trkpt><trkpt lat="43.49327473872894" lon="10.601353055888486"><ele>466.0</ele><time>2026-04-18T14:22:30.999Z</time></trkpt><trkpt lat="43.493335667496794" lon="10.601414352373178"><ele>466.0</ele><time>2026-04-18T14:22:31.999Z</time></trkpt><trkpt lat="43.49339557089274" lon="10.601477064022992"><ele>466.0</ele><time>2026-04-18T14:22:32.999Z</time></trkpt><trkpt lat="43.493442696277135" lon="10.60154069971138"><ele>466.0</ele><time>2026-04-18T14:22:33.999Z</time></trkpt><trkpt lat="43.49351015922168" lon="10.60163763143225"><ele>466.0</ele><time>2026-04-18T14:22:35.999Z</time></trkpt><trkpt lat="43.4935628921771" lon="10.601700141828811"><ele>466.0</ele><time>2026-04-18T14:22:37.999Z</time></trkpt><trkpt lat="43.493609619880154" lon="10.60176324597121"><ele>466.0</ele><time>2026-04-18T14:22:43.999Z</time></trkpt><trkpt lat="43.493659530789415" lon="10.60182291938848"><ele>466.00000000000006</ele><time>2026-04-18T14:22:51.999Z</time></trkpt><trkpt lat="43.49369571159792" lon="10.601898222272792"><ele>466.0</ele><time>2026-04-18T14:22:56.999Z</time></trkpt><trkpt lat="43.49374351350799" lon="10.60197994000983"><ele>466.0</ele><time>2026-04-18T14:23:00.999Z</time></trkpt><trkpt lat="43.493770067437744" lon="10.602078356069667"><ele>466.0</ele><time>2026-04-18T14:23:07.999Z</time></trkpt><trkpt lat="43.49378157673228" lon="10.602217884749544"><ele>466.00000000000006</ele><time>2026-04-18T14:23:09.999Z</time></trkpt><trkpt lat="43.49379079813653" lon="10.602390187772036"><ele>466.0</ele><time>2026-04-18T14:23:11.999Z</time></trkpt><trkpt lat="43.49378992295619" lon="10.602486329086599"><ele>466.6</ele><time>2026-04-18T14:23:12.999Z</time></trkpt><trkpt lat="43.49379578487577" lon="10.60259919846785"><ele>467.20000000000005</ele><time>2026-04-18T14:23:13.999Z</time></trkpt><trkpt lat="43.493801285748106" lon="10.602719854164812"><ele>467.79999999999995</ele><time>2026-04-18T14:23:14.999Z</time></trkpt><trkpt lat="43.49379515818533" lon="10.602851272630444"><ele>468.4</ele><time>2026-04-18T14:23:15.999Z</time></trkpt><trkpt lat="43.49385405671539" lon="10.602967165950297"><ele>469.0</ele><time>2026-04-18T14:23:16.999Z</time></trkpt><trkpt lat="43.4939398519649" lon="10.60309032175575"><ele>469.0</ele><time>2026-04-18T14:23:17.999Z</time></trkpt><trkpt lat="43.49401544210583" lon="10.603163950210483"><ele>469.0</ele><time>2026-04-18T14:23:18.999Z</time></trkpt><trkpt lat="43.494031137438064" lon="10.603249401846924"><ele>469.0</ele><time>2026-04-18T14:23:20Z</time></trkpt><trkpt lat="43.49408475100611" lon="10.603354635049385"><ele>469.0</ele><time>2026-04-18T14:23:21Z</time></trkpt><trkpt lat="43.49415350816966" lon="10.603464132002491"><ele>469.0</ele><time>2026-04-18T14:23:22Z</time></trkpt><trkpt lat="43.49423376299245" lon="10.603588647689786"><ele>467.79999999999995</ele><time>2026-04-18T14:23:23Z</time></trkpt><trkpt lat="43.49432868495475" lon="10.603684577513999"><ele>466.59999999999997</ele><time>2026-04-18T14:23:24Z</time></trkpt><trkpt lat="43.49436894885934" lon="10.603785378570581"><ele>465.4</ele><time>2026-04-18T14:23:26Z</time></trkpt><trkpt lat="43.49443875344371" lon="10.603892787269137"><ele>464.2</ele><time>2026-04-18T14:23:27Z</time></trkpt><trkpt lat="43.49449363087084" lon="10.603986202704098"><ele>463.0</ele><time>2026-04-18T14:23:28Z</time></trkpt><trkpt lat="43.494573125411954" lon="10.604058279902445"><ele>464.00000000000006</ele><time>2026-04-18T14:23:29Z</time></trkpt><trkpt lat="43.494654799027764" lon="10.604119635874818"><ele>465.0</ele><time>2026-04-18T14:23:30Z</time></trkpt><trkpt lat="43.49471412328204" lon="10.604169319236851"><ele>466.0</ele><time>2026-04-18T14:23:31Z</time></trkpt><trkpt lat="43.49480398699348" lon="10.604189480760734"><ele>467.0</ele><time>2026-04-18T14:23:33Z</time></trkpt><trkpt lat="43.494848583274404" lon="10.604092588130651"><ele>468.00000000000006</ele><time>2026-04-18T14:23:49Z</time></trkpt><trkpt lat="43.49494092409909" lon="10.604026056936984"><ele>469.0</ele><time>2026-04-18T14:23:51Z</time></trkpt><trkpt lat="43.49505712670527" lon="10.604035447909336"><ele>469.0</ele><time>2026-04-18T14:23:53Z</time></trkpt><trkpt lat="43.49517412043873" lon="10.604070244793588"><ele>469.0</ele><time>2026-04-18T14:23:55Z</time></trkpt><trkpt lat="43.49527084050563" lon="10.604170515870551"><ele>469.0</ele><time>2026-04-18T14:23:57Z</time></trkpt><trkpt lat="43.495317419224975" lon="10.60425890695366"><ele>469.0</ele><time>2026-04-18T14:23:58Z</time></trkpt><trkpt lat="43.49536045258656" lon="10.60436046350761"><ele>469.0</ele><time>2026-04-18T14:23:59Z</time></trkpt><trkpt lat="43.49538815273129" lon="10.604478022728582"><ele>468.00000000000006</ele><time>2026-04-18T14:24:00Z</time></trkpt><trkpt lat="43.49541410567298" lon="10.604606004068549"><ele>467.0</ele><time>2026-04-18T14:24:01Z</time></trkpt><trkpt lat="43.49543395139354" lon="10.60473191370431"><ele>466.0</ele><time>2026-04-18T14:24:02Z</time></trkpt><trkpt lat="43.495443838333564" lon="10.60484414662428"><ele>465.0</ele><time>2026-04-18T14:24:03Z</time></trkpt><trkpt lat="43.495447679581446" lon="10.604946068853875"><ele>464.00000000000006</ele><time>2026-04-18T14:24:04Z</time></trkpt><trkpt lat="43.495452889975965" lon="10.605039356574618"><ele>463.0</ele><time>2026-04-18T14:24:05Z</time></trkpt><trkpt lat="43.49545606382242" lon="10.605137500984272"><ele>463.33333333333337</ele><time>2026-04-18T14:24:06Z</time></trkpt><trkpt lat="43.49546778442698" lon="10.605242432294505"><ele>463.6666666666667</ele><time>2026-04-18T14:24:07Z</time></trkpt><trkpt lat="43.49547385336994" lon="10.605409957424163"><ele>464.0</ele><time>2026-04-18T14:24:09Z</time></trkpt><trkpt lat="43.495500159725765" lon="10.60549552506723"><ele>464.33333333333337</ele><time>2026-04-18T14:24:10Z</time></trkpt><trkpt lat="43.49553615029236" lon="10.60556791059005"><ele>464.6666666666667</ele><time>2026-04-18T14:24:11Z</time></trkpt><trkpt lat="43.495593923806986" lon="10.60570621243326"><ele>465.0</ele><time>2026-04-18T14:24:13Z</time></trkpt><trkpt lat="43.49560815073852" lon="10.605794186313446"><ele>465.0</ele><time>2026-04-18T14:24:14Z</time></trkpt><trkpt lat="43.49565556941439" lon="10.60588779783809"><ele>465.0</ele><time>2026-04-18T14:24:15Z</time></trkpt><trkpt lat="43.49570722439572" lon="10.605964988526031"><ele>465.0</ele><time>2026-04-18T14:24:16Z</time></trkpt><trkpt lat="43.49573963006584" lon="10.60605598303848"><ele>465.0</ele><time>2026-04-18T14:24:17Z</time></trkpt><trkpt lat="43.49576534058" lon="10.606219874019688"><ele>465.0</ele><time>2026-04-18T14:24:19Z</time></trkpt><trkpt lat="43.49577405386711" lon="10.606335847078297"><ele>465.0</ele><time>2026-04-18T14:24:21Z</time></trkpt><trkpt lat="43.49577205942816" lon="10.60644943760113"><ele>465.6</ele><time>2026-04-18T14:24:23Z</time></trkpt><trkpt lat="43.49576082539101" lon="10.606596511653077"><ele>466.2</ele><time>2026-04-18T14:24:25Z</time></trkpt><trkpt lat="43.49572922400557" lon="10.606740479998486"><ele>466.79999999999995</ele><time>2026-04-18T14:24:27Z</time></trkpt><trkpt lat="43.49579885127309" lon="10.606817891984573"><ele>467.4</ele><time>2026-04-18T14:24:29Z</time></trkpt><trkpt lat="43.495884890203044" lon="10.606786641121923"><ele>468.0</ele><time>2026-04-18T14:24:36.999Z</time></trkpt><trkpt lat="43.49597808482721" lon="10.606799351942582"><ele>468.0</ele><time>2026-04-18T14:24:38.999Z</time></trkpt><trkpt lat="43.496072756101434" lon="10.606777554767962"><ele>467.99999999999994</ele><time>2026-04-18T14:24:40.999Z</time></trkpt><trkpt lat="43.49617135148819" lon="10.606783405446922"><ele>467.99999999999994</ele><time>2026-04-18T14:24:42.999Z</time></trkpt><trkpt lat="43.49629033299248" lon="10.606803678277291"><ele>468.0</ele><time>2026-04-18T14:24:44.999Z</time></trkpt><trkpt lat="43.49635434936424" lon="10.606824347532001"><ele>468.0</ele><time>2026-04-18T14:24:45.999Z</time></trkpt><trkpt lat="43.49642589894939" lon="10.606947213250024"><ele>467.8333333333333</ele><time>2026-04-18T14:24:47.999Z</time></trkpt><trkpt lat="43.49642222513572" lon="10.607085920568338"><ele>467.66666666666663</ele><time>2026-04-18T14:24:49.999Z</time></trkpt><trkpt lat="43.4964260049282" lon="10.607183110231107"><ele>467.5</ele><time>2026-04-18T14:24:50.999Z</time></trkpt><trkpt lat="43.49641370093816" lon="10.607269550909527"><ele>467.3333333333333</ele><time>2026-04-18T14:24:51.999Z</time></trkpt><trkpt lat="43.496393169649345" lon="10.607382035429819"><ele>467.16666666666663</ele><time>2026-04-18T14:24:52.999Z</time></trkpt><trkpt lat="43.496368076842266" lon="10.607506044432883"><ele>467.0</ele><time>2026-04-18T14:24:53.999Z</time></trkpt><trkpt lat="43.49634663748981" lon="10.607615978718902"><ele>466.99999999999994</ele><time>2026-04-18T14:24:54.999Z</time></trkpt><trkpt lat="43.49641024762547" lon="10.607654615904847"><ele>467.0</ele><time>2026-04-18T14:24:57.999Z</time></trkpt><trkpt lat="43.49640327616532" lon="10.60780640767111"><ele>467.0</ele><time>2026-04-18T14:24:58.999Z</time></trkpt><trkpt lat="43.49640112529037" lon="10.607949610389694"><ele>467.0</ele><time>2026-04-18T14:25:00.999Z</time></trkpt><trkpt lat="43.4963798163334" lon="10.608031998552873"><ele>466.99999999999994</ele><time>2026-04-18T14:25:01.999Z</time></trkpt><trkpt lat="43.496358944554565" lon="10.60816352164807"><ele>467.0</ele><time>2026-04-18T14:25:02.999Z</time></trkpt><trkpt lat="43.49628870963117" lon="10.608253498149756"><ele>466.0</ele><time>2026-04-18T14:25:04.999Z</time></trkpt><trkpt lat="43.49619490594989" lon="10.608398399121617"><ele>465.00000000000006</ele><time>2026-04-18T14:25:06.999Z</time></trkpt><trkpt lat="43.4961320209953" lon="10.608452829221068"><ele>464.00000000000006</ele><time>2026-04-18T14:25:07.999Z</time></trkpt><trkpt lat="43.496073280021584" lon="10.60850423450959"><ele>463.0</ele><time>2026-04-18T14:25:08.999Z</time></trkpt><trkpt lat="43.49608678408705" lon="10.608666653863278"><ele>462.0</ele><time>2026-04-18T14:25:12.999Z</time></trkpt><trkpt lat="43.49605272469188" lon="10.608849803590617"><ele>462.0</ele><time>2026-04-18T14:25:13.999Z</time></trkpt><trkpt lat="43.49598715330695" lon="10.608929400366083"><ele>462.0</ele><time>2026-04-18T14:25:14.999Z</time></trkpt><trkpt lat="43.49593805507249" lon="10.60903599806012"><ele>462.0</ele><time>2026-04-18T14:25:15.999Z</time></trkpt><trkpt lat="43.49595235015062" lon="10.609185979982858"><ele>462.0</ele><time>2026-04-18T14:25:16.999Z</time></trkpt><trkpt lat="43.49593664055044" lon="10.609277250534142"><ele>462.0</ele><time>2026-04-18T14:25:17.999Z</time></trkpt><trkpt lat="43.495923023360945" lon="10.609394473821188"><ele>462.0</ele><time>2026-04-18T14:25:18.999Z</time></trkpt><trkpt lat="43.49595339116606" lon="10.60948002406024"><ele>460.3333333333333</ele><time>2026-04-18T14:25:19.999Z</time></trkpt><trkpt lat="43.49599859134322" lon="10.609564347585382"><ele>458.66666666666663</ele><time>2026-04-18T14:25:20.999Z</time></trkpt><trkpt lat="43.49605070232765" lon="10.609644655529818"><ele>457.0</ele><time>2026-04-18T14:25:21.999Z</time></trkpt><trkpt lat="43.49608342796504" lon="10.609724383447722"><ele>455.3333333333333</ele><time>2026-04-18T14:25:22.999Z</time></trkpt><trkpt lat="43.49617406464795" lon="10.609828705475808"><ele>453.66666666666663</ele><time>2026-04-18T14:25:24.999Z</time></trkpt><trkpt lat="43.49624202889074" lon="10.609884128655613"><ele>452.0</ele><time>2026-04-18T14:25:26Z</time></trkpt><trkpt lat="43.49631611914765" lon="10.609962651443107"><ele>452.16666666666663</ele><time>2026-04-18T14:25:27Z</time></trkpt><trkpt lat="43.496375371133844" lon="10.610000124562196"><ele>452.3333333333333</ele><time>2026-04-18T14:25:28Z</time></trkpt><trkpt lat="43.49641112759572" lon="10.610111893510664"><ele>452.5</ele><time>2026-04-18T14:25:30Z</time></trkpt><trkpt lat="43.49647684821312" lon="10.610173935729664"><ele>452.66666666666663</ele><time>2026-04-18T14:25:31Z</time></trkpt><trkpt lat="43.49653172870641" lon="10.61024918741756"><ele>452.8333333333333</ele><time>2026-04-18T14:25:32Z</time></trkpt><trkpt lat="43.496573542845695" lon="10.610323299857699"><ele>453.0</ele><time>2026-04-18T14:25:33Z</time></trkpt><trkpt lat="43.496620241766934" lon="10.610403386398556"><ele>453.0</ele><time>2026-04-18T14:25:34Z</time></trkpt><trkpt lat="43.496698442507835" lon="10.610551140908397"><ele>453.0</ele><time>2026-04-18T14:25:36Z</time></trkpt><trkpt lat="43.49670101070979" lon="10.610653334000462"><ele>453.0</ele><time>2026-04-18T14:25:37Z</time></trkpt><trkpt lat="43.49675089539659" lon="10.610724732740675"><ele>453.0</ele><time>2026-04-18T14:25:38Z</time></trkpt><trkpt lat="43.49678709103491" lon="10.610809378281802"><ele>453.0</ele><time>2026-04-18T14:25:39Z</time></trkpt><trkpt lat="43.49685040274829" lon="10.610905138788798"><ele>453.0</ele><time>2026-04-18T14:25:40Z</time></trkpt><trkpt lat="43.49692412162328" lon="10.611005106289893"><ele>453.0</ele><time>2026-04-18T14:25:41Z</time></trkpt><trkpt lat="43.49695682279087" lon="10.611100970291927"><ele>453.0</ele><time>2026-04-18T14:25:42Z</time></trkpt><trkpt lat="43.4970116583077" lon="10.611189301509704"><ele>453.0</ele><time>2026-04-18T14:25:43Z</time></trkpt><trkpt lat="43.49704964327701" lon="10.611297915855127"><ele>453.0</ele><time>2026-04-18T14:25:44Z</time></trkpt><trkpt lat="43.49706965591152" lon="10.611415467446482"><ele>453.0</ele><time>2026-04-18T14:25:45Z</time></trkpt><trkpt lat="43.49704714501854" lon="10.61149787731807"><ele>453.0</ele><time>2026-04-18T14:25:46Z</time></trkpt><trkpt lat="43.49700977282219" lon="10.61161427794876"><ele>449.79999999999995</ele><time>2026-04-18T14:25:47Z</time></trkpt><trkpt lat="43.497008894209365" lon="10.611785940605294"><ele>446.59999999999997</ele><time>2026-04-18T14:25:49Z</time></trkpt><trkpt lat="43.49703375046014" lon="10.61189372344322"><ele>443.40000000000003</ele><time>2026-04-18T14:25:50Z</time></trkpt><trkpt lat="43.49706675525848" lon="10.612047352707366"><ele>440.20000000000005</ele><time>2026-04-18T14:25:52Z</time></trkpt><trkpt lat="43.49708311665044" lon="10.612188760695705"><ele>437.0</ele><time>2026-04-18T14:25:54Z</time></trkpt><trkpt lat="43.49712570383289" lon="10.612259257253982"><ele>436.66666666666663</ele><time>2026-04-18T14:25:55Z</time></trkpt><trkpt lat="43.49717333805058" lon="10.612410718398515"><ele>436.3333333333333</ele><time>2026-04-18T14:25:57Z</time></trkpt><trkpt lat="43.49722824872335" lon="10.612529113491139"><ele>436.0</ele><time>2026-04-18T14:25:59Z</time></trkpt><trkpt lat="43.497274178807636" lon="10.612592301412647"><ele>435.66666666666663</ele><time>2026-04-18T14:26:00Z</time></trkpt><trkpt lat="43.497330351485985" lon="10.61265539797215"><ele>435.3333333333333</ele><time>2026-04-18T14:26:01Z</time></trkpt><trkpt lat="43.497393668075226" lon="10.61271449207055"><ele>435.0</ele><time>2026-04-18T14:26:02Z</time></trkpt><trkpt lat="43.4974559250161" lon="10.612765689431807"><ele>432.6</ele><time>2026-04-18T14:26:03Z</time></trkpt><trkpt lat="43.49750864301586" lon="10.612828257147589"><ele>430.2</ele><time>2026-04-18T14:26:04Z</time></trkpt><trkpt lat="43.4975649116061" lon="10.612894137536724"><ele>427.79999999999995</ele><time>2026-04-18T14:26:05Z</time></trkpt><trkpt lat="43.497616642104056" lon="10.612967688212262"><ele>425.4</ele><time>2026-04-18T14:26:06Z</time></trkpt><trkpt lat="43.497705086096495" lon="10.613070646726372"><ele>423.0</ele><time>2026-04-18T14:26:08Z</time></trkpt><trkpt lat="43.49779630800894" lon="10.613171559591452"><ele>423.0</ele><time>2026-04-18T14:26:10Z</time></trkpt><trkpt lat="43.49789407816644" lon="10.61327411613186"><ele>423.0</ele><time>2026-04-18T14:26:12Z</time></trkpt><trkpt lat="43.49798255598654" lon="10.613386905518672"><ele>423.0</ele><time>2026-04-18T14:26:14Z</time></trkpt><trkpt lat="43.49806699725919" lon="10.613487721205246"><ele>423.0</ele><time>2026-04-18T14:26:16Z</time></trkpt><trkpt lat="43.49814020697666" lon="10.613617605674136"><ele>422.5</ele><time>2026-04-18T14:26:18Z</time></trkpt><trkpt lat="43.498169030493685" lon="10.613702799505559"><ele>422.0</ele><time>2026-04-18T14:26:19Z</time></trkpt><trkpt lat="43.49817438029015" lon="10.613800173316928"><ele>421.5</ele><time>2026-04-18T14:26:21Z</time></trkpt><trkpt lat="43.498216396740105" lon="10.613916353300853"><ele>421.0</ele><time>2026-04-18T14:26:23Z</time></trkpt><trkpt lat="43.498215694819436" lon="10.614021154322316"><ele>420.5</ele><time>2026-04-18T14:26:24Z</time></trkpt><trkpt lat="43.498257567401865" lon="10.614113534088295"><ele>420.0</ele><time>2026-04-18T14:26:25Z</time></trkpt><trkpt lat="43.49830486183562" lon="10.614219957934038"><ele>420.0</ele><time>2026-04-18T14:26:26Z</time></trkpt><trkpt lat="43.498335901379" lon="10.614320411130603"><ele>420.0</ele><time>2026-04-18T14:26:27Z</time></trkpt><trkpt lat="43.498351752172844" lon="10.61444404430769"><ele>420.0</ele><time>2026-04-18T14:26:30Z</time></trkpt><trkpt lat="43.49842835356162" lon="10.614586598093096"><ele>420.0</ele><time>2026-04-18T14:26:31Z</time></trkpt><trkpt lat="43.49847222011592" lon="10.614664078197379"><ele>420.0</ele><time>2026-04-18T14:26:32Z</time></trkpt><trkpt lat="43.498497153927765" lon="10.614749727359554"><ele>420.0</ele><time>2026-04-18T14:26:33Z</time></trkpt><trkpt lat="43.498526220334654" lon="10.61483956374417"><ele>420.0</ele><time>2026-04-18T14:26:34Z</time></trkpt><trkpt lat="43.49856211699356" lon="10.614947505892745"><ele>420.0</ele><time>2026-04-18T14:26:35Z</time></trkpt><trkpt lat="43.49859162054471" lon="10.61502731809061"><ele>420.0</ele><time>2026-04-18T14:26:36Z</time></trkpt><trkpt lat="43.498645805609335" lon="10.615093832691343"><ele>420.0</ele><time>2026-04-18T14:26:36.999Z</time></trkpt><trkpt lat="43.4987191885804" lon="10.615135884821601"><ele>420.0</ele><time>2026-04-18T14:26:37.999Z</time></trkpt><trkpt lat="43.498811075995086" lon="10.615129156012273"><ele>420.0</ele><time>2026-04-18T14:26:38.999Z</time></trkpt><trkpt lat="43.498903475667234" lon="10.615106530787381"><ele>418.5</ele><time>2026-04-18T14:26:39.999Z</time></trkpt><trkpt lat="43.4989914019134" lon="10.615116204953827"><ele>417.0</ele><time>2026-04-18T14:26:40.999Z</time></trkpt><trkpt lat="43.499050455631284" lon="10.615163955983437"><ele>415.5</ele><time>2026-04-18T14:26:41.999Z</time></trkpt><trkpt lat="43.49911273753594" lon="10.615229605117019"><ele>414.0</ele><time>2026-04-18T14:26:42.999Z</time></trkpt><trkpt lat="43.4991592968263" lon="10.615393182579249"><ele>412.5</ele><time>2026-04-18T14:26:44.999Z</time></trkpt><trkpt lat="43.49918251704818" lon="10.615489014807892"><ele>411.0</ele><time>2026-04-18T14:26:45.999Z</time></trkpt><trkpt lat="43.499135141362885" lon="10.615653044387829"><ele>410.1666666666667</ele><time>2026-04-18T14:26:47.999Z</time></trkpt><trkpt lat="43.49906527775048" lon="10.615759492289461"><ele>409.33333333333337</ele><time>2026-04-18T14:26:48.999Z</time></trkpt><trkpt lat="43.499024089041654" lon="10.61584757606876"><ele>408.5</ele><time>2026-04-18T14:26:49.999Z</time></trkpt><trkpt lat="43.498984559581174" lon="10.615932115378001"><ele>407.6666666666667</ele><time>2026-04-18T14:26:50.999Z</time></trkpt><trkpt lat="43.49895448695211" lon="10.616011692573297"><ele>406.83333333333337</ele><time>2026-04-18T14:26:51.999Z</time></trkpt><trkpt lat="43.49898319331822" lon="10.616145745679573"><ele>406.0</ele><time>2026-04-18T14:26:53.999Z</time></trkpt><trkpt lat="43.49905652883938" lon="10.616169851175462"><ele>403.8</ele><time>2026-04-18T14:26:54.999Z</time></trkpt><trkpt lat="43.49918562450915" lon="10.616230570807106"><ele>401.6</ele><time>2026-04-18T14:26:56.999Z</time></trkpt><trkpt lat="43.49926224068754" lon="10.616268452932543"><ele>399.4</ele><time>2026-04-18T14:26:57.999Z</time></trkpt><trkpt lat="43.49933937809021" lon="10.616306573388075"><ele>397.2</ele><time>2026-04-18T14:26:58.999Z</time></trkpt><trkpt lat="43.499416874264135" lon="10.616327571660221"><ele>395.0</ele><time>2026-04-18T14:26:59.999Z</time></trkpt><trkpt lat="43.499490799639894" lon="10.616315110824367"><ele>395.0</ele><time>2026-04-18T14:27:00.999Z</time></trkpt><trkpt lat="43.4995680436094" lon="10.616297110911205"><ele>395.0</ele><time>2026-04-18T14:27:01.999Z</time></trkpt><trkpt lat="43.499693610693996" lon="10.61627697096839"><ele>395.0</ele><time>2026-04-18T14:27:03.999Z</time></trkpt><trkpt lat="43.499777234264066" lon="10.61636419693001"><ele>395.0</ele><time>2026-04-18T14:27:04.999Z</time></trkpt><trkpt lat="43.49987724634227" lon="10.61638206244373"><ele>395.0</ele><time>2026-04-18T14:27:05.999Z</time></trkpt><trkpt lat="43.49994256473956" lon="10.616390763552705"><ele>395.2</ele><time>2026-04-18T14:27:06.999Z</time></trkpt><trkpt lat="43.500002451727575" lon="10.616421609440073"><ele>395.4</ele><time>2026-04-18T14:27:07.999Z</time></trkpt><trkpt lat="43.500080291034486" lon="10.616350550937266"><ele>395.6</ele><time>2026-04-18T14:27:08.999Z</time></trkpt><trkpt lat="43.50015665039276" lon="10.61627790300584"><ele>395.8</ele><time>2026-04-18T14:27:09.999Z</time></trkpt><trkpt lat="43.50020648469257" lon="10.61615796130507"><ele>396.0</ele><time>2026-04-18T14:27:11.999Z</time></trkpt><trkpt lat="43.50036008367656" lon="10.616089224317045"><ele>395.4</ele><time>2026-04-18T14:27:13.999Z</time></trkpt><trkpt lat="43.50043123412594" lon="10.616082530878622"><ele>394.8</ele><time>2026-04-18T14:27:14.999Z</time></trkpt><trkpt lat="43.50051649397172" lon="10.616142101433965"><ele>394.2</ele><time>2026-04-18T14:27:15.999Z</time></trkpt><trkpt lat="43.50055162807108" lon="10.616229092200506"><ele>393.59999999999997</ele><time>2026-04-18T14:27:16.999Z</time></trkpt><trkpt lat="43.50065949307487" lon="10.616248356772289"><ele>393.0</ele><time>2026-04-18T14:27:18.999Z</time></trkpt><trkpt lat="43.5007571570691" lon="10.616334679369213"><ele>391.59999999999997</ele><time>2026-04-18T14:27:19.999Z</time></trkpt><trkpt lat="43.500883441188854" lon="10.616335190941097"><ele>390.2</ele><time>2026-04-18T14:27:20.999Z</time></trkpt><trkpt lat="43.500994157274164" lon="10.616284799586676"><ele>388.8</ele><time>2026-04-18T14:27:22.999Z</time></trkpt><trkpt lat="43.50107611228644" lon="10.616260852133127"><ele>387.4</ele><time>2026-04-18T14:27:23.999Z</time></trkpt><trkpt lat="43.50115897982681" lon="10.61624367234645"><ele>386.0</ele><time>2026-04-18T14:27:24.999Z</time></trkpt><trkpt lat="43.501244150827944" lon="10.616229106869973"><ele>385.66666666666663</ele><time>2026-04-18T14:27:25.999Z</time></trkpt><trkpt lat="43.50130776875824" lon="10.616193143415193"><ele>385.3333333333333</ele><time>2026-04-18T14:27:26.999Z</time></trkpt><trkpt lat="43.501391756764285" lon="10.616059679314324"><ele>385.0</ele><time>2026-04-18T14:27:28.999Z</time></trkpt><trkpt lat="43.501444385698704" lon="10.615950217977316"><ele>384.66666666666663</ele><time>2026-04-18T14:27:29.999Z</time></trkpt><trkpt lat="43.501496257616495" lon="10.615849342628271"><ele>384.3333333333333</ele><time>2026-04-18T14:27:30.999Z</time></trkpt><trkpt lat="43.50155085438958" lon="10.615800013038498"><ele>384.0</ele><time>2026-04-18T14:27:32Z</time></trkpt><trkpt lat="43.50161626231561" lon="10.61574282196304"><ele>384.6666666666667</ele><time>2026-04-18T14:27:33Z</time></trkpt><trkpt lat="43.501669456885274" lon="10.615690565838541"><ele>385.33333333333337</ele><time>2026-04-18T14:27:34Z</time></trkpt><trkpt lat="43.501728216217884" lon="10.61565523217961"><ele>386.0</ele><time>2026-04-18T14:27:35Z</time></trkpt><trkpt lat="43.5017906313862" lon="10.615643420998035"><ele>386.6666666666667</ele><time>2026-04-18T14:27:36Z</time></trkpt><trkpt lat="43.50187051121688" lon="10.615643847807057"><ele>387.33333333333337</ele><time>2026-04-18T14:27:37Z</time></trkpt><trkpt lat="43.5019856892096" lon="10.615651197316563"><ele>388.0</ele><time>2026-04-18T14:27:39Z</time></trkpt><trkpt lat="43.50209771982977" lon="10.61565953287968"><ele>388.0</ele><time>2026-04-18T14:27:41Z</time></trkpt><trkpt lat="43.50221661997539" lon="10.615646748568347"><ele>388.0</ele><time>2026-04-18T14:27:43Z</time></trkpt><trkpt lat="43.50233921668831" lon="10.615652374392319"><ele>388.0</ele><time>2026-04-18T14:27:45Z</time></trkpt><trkpt lat="43.50240700783111" lon="10.615692159181274"><ele>388.0</ele><time>2026-04-18T14:27:46Z</time></trkpt><trkpt lat="43.50247894024644" lon="10.615754983906536"><ele>388.0</ele><time>2026-04-18T14:27:47Z</time></trkpt><trkpt lat="43.50255538891616" lon="10.6157974772079"><ele>388.00000000000006</ele><time>2026-04-18T14:27:48Z</time></trkpt><trkpt lat="43.50261220002141" lon="10.615865613169786"><ele>388.0</ele><time>2026-04-18T14:27:49Z</time></trkpt><trkpt lat="43.50268694702748" lon="10.615905882974959"><ele>388.0</ele><time>2026-04-18T14:27:50Z</time></trkpt><trkpt lat="43.50275031280011" lon="10.615920948524687"><ele>388.0</ele><time>2026-04-18T14:27:51Z</time></trkpt><trkpt lat="43.50284848403047" lon="10.615829959666895"><ele>388.00000000000006</ele><time>2026-04-18T14:27:53Z</time></trkpt><trkpt lat="43.50290050735773" lon="10.615765434061574"><ele>388.0</ele><time>2026-04-18T14:27:54Z</time></trkpt><trkpt lat="43.502949634783626" lon="10.61569717718001"><ele>386.79999999999995</ele><time>2026-04-18T14:27:55Z</time></trkpt><trkpt lat="43.503018813908284" lon="10.615564774044142"><ele>385.6</ele><time>2026-04-18T14:27:57Z</time></trkpt><trkpt lat="43.503084120674636" lon="10.61552190176873"><ele>384.4</ele><time>2026-04-18T14:27:58Z</time></trkpt><trkpt lat="43.5032082501612" lon="10.615482861417515"><ele>383.20000000000005</ele><time>2026-04-18T14:28:00Z</time></trkpt><trkpt lat="43.503272232760054" lon="10.61548078364828"><ele>382.0</ele><time>2026-04-18T14:28:01Z</time></trkpt><trkpt lat="43.50337499787909" lon="10.61540029507173"><ele>382.0</ele><time>2026-04-18T14:28:03Z</time></trkpt><trkpt lat="43.50341981231458" lon="10.615241814632132"><ele>382.0</ele><time>2026-04-18T14:28:05Z</time></trkpt><trkpt lat="43.50344305509461" lon="10.615138483238432"><ele>382.0</ele><time>2026-04-18T14:28:06Z</time></trkpt><trkpt lat="43.503473256804035" lon="10.615051379847364"><ele>382.0</ele><time>2026-04-18T14:28:07Z</time></trkpt><trkpt lat="43.50350070590236" lon="10.614967033645998"><ele>382.0</ele><time>2026-04-18T14:28:08Z</time></trkpt><trkpt lat="43.503557314867145" lon="10.614858262496163"><ele>382.0</ele><time>2026-04-18T14:28:10Z</time></trkpt><trkpt lat="43.503628231940084" lon="10.614792964736443"><ele>382.0</ele><time>2026-04-18T14:28:11Z</time></trkpt><trkpt lat="43.503697887230295" lon="10.614800043631533"><ele>382.0</ele><time>2026-04-18T14:28:12Z</time></trkpt><trkpt lat="43.50377831436967" lon="10.614776589348864"><ele>382.0</ele><time>2026-04-18T14:28:13Z</time></trkpt><trkpt lat="43.50384823934098" lon="10.614731877958038"><ele>382.0</ele><time>2026-04-18T14:28:14Z</time></trkpt><trkpt lat="43.503931957734366" lon="10.614654700209579"><ele>382.0</ele><time>2026-04-18T14:28:16Z</time></trkpt><trkpt lat="43.50403576610527" lon="10.614656904946598"><ele>382.0</ele><time>2026-04-18T14:28:17.999Z</time></trkpt><trkpt lat="43.50412655157847" lon="10.614640657968945"><ele>379.3333333333333</ele><time>2026-04-18T14:28:18.999Z</time></trkpt><trkpt lat="43.50419636674808" lon="10.614670628972851"><ele>376.66666666666663</ele><time>2026-04-18T14:28:19.999Z</time></trkpt><trkpt lat="43.50425913059537" lon="10.614737391189173"><ele>374.0</ele><time>2026-04-18T14:28:20.999Z</time></trkpt><trkpt lat="43.50432902993711" lon="10.614803683326071"><ele>371.3333333333333</ele><time>2026-04-18T14:28:21.999Z</time></trkpt><trkpt lat="43.50436928434755" lon="10.614886647676279"><ele>368.6666666666667</ele><time>2026-04-18T14:28:22.999Z</time></trkpt><trkpt lat="43.50441682264715" lon="10.614966278074471"><ele>366.0</ele><time>2026-04-18T14:28:23.999Z</time></trkpt><trkpt lat="43.50448707024241" lon="10.614993941168176"><ele>363.1666666666667</ele><time>2026-04-18T14:28:24.999Z</time></trkpt><trkpt lat="43.5046071432713" lon="10.615049804456316"><ele>360.3333333333333</ele><time>2026-04-18T14:28:26.999Z</time></trkpt><trkpt lat="43.504684251685866" lon="10.615091526960928"><ele>357.5</ele><time>2026-04-18T14:28:27.999Z</time></trkpt><trkpt lat="43.50476049374002" lon="10.615132101826385"><ele>354.66666666666663</ele><time>2026-04-18T14:28:28.999Z</time></trkpt><trkpt lat="43.504824452789634" lon="10.61518210738545"><ele>351.8333333333333</ele><time>2026-04-18T14:28:29.999Z</time></trkpt><trkpt lat="43.50490493505542" lon="10.615178839125727"><ele>349.0</ele><time>2026-04-18T14:28:30.999Z</time></trkpt><trkpt lat="43.50503785000171" lon="10.615146677984695"><ele>349.0</ele><time>2026-04-18T14:28:32.999Z</time></trkpt><trkpt lat="43.50510772277236" lon="10.615123532126493"><ele>349.0</ele><time>2026-04-18T14:28:33.999Z</time></trkpt><trkpt lat="43.50517062991824" lon="10.615132984466069"><ele>349.0</ele><time>2026-04-18T14:28:34.999Z</time></trkpt><trkpt lat="43.5052275528756" lon="10.615078544410562"><ele>349.0</ele><time>2026-04-18T14:28:35.999Z</time></trkpt><trkpt lat="43.50532137391411" lon="10.614986248740642"><ele>349.0</ele><time>2026-04-18T14:28:37.999Z</time></trkpt><trkpt lat="43.50541623429955" lon="10.614891031144253"><ele>349.0</ele><time>2026-04-18T14:28:39.999Z</time></trkpt><trkpt lat="43.50550291928548" lon="10.614812331415692"><ele>346.16666666666663</ele><time>2026-04-18T14:28:41.999Z</time></trkpt><trkpt lat="43.505574701565315" lon="10.614756246763335"><ele>343.3333333333333</ele><time>2026-04-18T14:28:43.999Z</time></trkpt><trkpt lat="43.5056444027176" lon="10.614769818335303"><ele>340.5</ele><time>2026-04-18T14:28:45.999Z</time></trkpt><trkpt lat="43.50571172869249" lon="10.614791666773833"><ele>337.6666666666667</ele><time>2026-04-18T14:28:47.999Z</time></trkpt><trkpt lat="43.505798532462975" lon="10.614825570363035"><ele>334.83333333333337</ele><time>2026-04-18T14:28:50.999Z</time></trkpt><trkpt lat="43.50588680805704" lon="10.614893709290557"><ele>332.0</ele><time>2026-04-18T14:28:52.999Z</time></trkpt><trkpt lat="43.50598630210986" lon="10.614941353620102"><ele>332.0</ele><time>2026-04-18T14:28:54.999Z</time></trkpt><trkpt lat="43.50607403472486" lon="10.614945537511193"><ele>332.0</ele><time>2026-04-18T14:28:56.999Z</time></trkpt><trkpt lat="43.50615468899065" lon="10.61501763514527"><ele>332.0</ele><time>2026-04-18T14:28:58.999Z</time></trkpt><trkpt lat="43.50619284129695" lon="10.61509509027358"><ele>332.0</ele><time>2026-04-18T14:28:59.999Z</time></trkpt><trkpt lat="43.50623305775485" lon="10.61517385973665"><ele>332.0</ele><time>2026-04-18T14:29:00.999Z</time></trkpt><trkpt lat="43.50627759341683" lon="10.61527153678298"><ele>332.0</ele><time>2026-04-18T14:29:01.999Z</time></trkpt><trkpt lat="43.50633536911239" lon="10.615373905700707"><ele>330.20000000000005</ele><time>2026-04-18T14:29:02.999Z</time></trkpt><trkpt lat="43.50638134965866" lon="10.615482105930834"><ele>328.4</ele><time>2026-04-18T14:29:03.999Z</time></trkpt><trkpt lat="43.506431025348014" lon="10.615589421603861"><ele>326.6</ele><time>2026-04-18T14:29:04.999Z</time></trkpt><trkpt lat="43.506493758932386" lon="10.615696037193038"><ele>324.79999999999995</ele><time>2026-04-18T14:29:05.999Z</time></trkpt><trkpt lat="43.506550289323364" lon="10.615791692221897"><ele>323.0</ele><time>2026-04-18T14:29:06.999Z</time></trkpt><trkpt lat="43.50660631427713" lon="10.61587575892681"><ele>323.00000000000006</ele><time>2026-04-18T14:29:07.999Z</time></trkpt><trkpt lat="43.50666679882338" lon="10.615941271288294"><ele>323.0</ele><time>2026-04-18T14:29:08.999Z</time></trkpt><trkpt lat="43.50672658813081" lon="10.615997213735355"><ele>323.0</ele><time>2026-04-18T14:29:09.999Z</time></trkpt><trkpt lat="43.5067844068736" lon="10.616048348293093"><ele>323.0</ele><time>2026-04-18T14:29:10.999Z</time></trkpt><trkpt lat="43.50684805348243" lon="10.616056857153877"><ele>323.0</ele><time>2026-04-18T14:29:11.999Z</time></trkpt><trkpt lat="43.50691547308427" lon="10.616042254697916"><ele>323.00000000000006</ele><time>2026-04-18T14:29:12.999Z</time></trkpt><trkpt lat="43.506983952479004" lon="10.616010967861921"><ele>323.0</ele><time>2026-04-18T14:29:13.999Z</time></trkpt><trkpt lat="43.5070624279052" lon="10.615995542318986"><ele>321.59999999999997</ele><time>2026-04-18T14:29:14.999Z</time></trkpt><trkpt lat="43.507149728337225" lon="10.615980698668963"><ele>320.2</ele><time>2026-04-18T14:29:15.999Z</time></trkpt><trkpt lat="43.50724644594889" lon="10.61597793620337"><ele>318.8</ele><time>2026-04-18T14:29:16.999Z</time></trkpt><trkpt lat="43.507343383591376" lon="10.615958868493486"><ele>317.4</ele><time>2026-04-18T14:29:17.999Z</time></trkpt><trkpt lat="43.50743184591748" lon="10.61594153207677"><ele>316.0</ele><time>2026-04-18T14:29:18.999Z</time></trkpt><trkpt lat="43.50751900119482" lon="10.615899095687185"><ele>316.0</ele><time>2026-04-18T14:29:19.999Z</time></trkpt><trkpt lat="43.50760120447191" lon="10.615844186066978"><ele>316.0</ele><time>2026-04-18T14:29:20.999Z</time></trkpt><trkpt lat="43.5076896812637" lon="10.615759310907933"><ele>316.0</ele><time>2026-04-18T14:29:21.999Z</time></trkpt><trkpt lat="43.50778579315261" lon="10.615695259157814"><ele>316.0</ele><time>2026-04-18T14:29:22.999Z</time></trkpt><trkpt lat="43.50789100064806" lon="10.61563834758901"><ele>316.0</ele><time>2026-04-18T14:29:23.999Z</time></trkpt><trkpt lat="43.50798022502014" lon="10.615606494545732"><ele>314.0</ele><time>2026-04-18T14:29:24.999Z</time></trkpt><trkpt lat="43.508059606325645" lon="10.61560482527935"><ele>312.0</ele><time>2026-04-18T14:29:25.999Z</time></trkpt><trkpt lat="43.50814084598866" lon="10.615583047884021"><ele>310.0</ele><time>2026-04-18T14:29:26.999Z</time></trkpt><trkpt lat="43.50820615615925" lon="10.615561959703761"><ele>308.0</ele><time>2026-04-18T14:29:27.999Z</time></trkpt><trkpt lat="43.508302395311205" lon="10.615495115664881"><ele>306.0</ele><time>2026-04-18T14:29:29.999Z</time></trkpt><trkpt lat="43.508417521353174" lon="10.61540438548192"><ele>306.0</ele><time>2026-04-18T14:29:31.999Z</time></trkpt><trkpt lat="43.50846387488296" lon="10.615327732530416"><ele>306.0</ele><time>2026-04-18T14:29:32.999Z</time></trkpt><trkpt lat="43.50850382833778" lon="10.615241625968352"><ele>306.0</ele><time>2026-04-18T14:29:33.999Z</time></trkpt><trkpt lat="43.508552526076095" lon="10.615167372074385"><ele>306.0</ele><time>2026-04-18T14:29:34.999Z</time></trkpt><trkpt lat="43.508606736402186" lon="10.615120726234471"><ele>306.0</ele><time>2026-04-18T14:29:35.999Z</time></trkpt><trkpt lat="43.508677724982185" lon="10.615117104987876"><ele>306.0</ele><time>2026-04-18T14:29:36.999Z</time></trkpt><trkpt lat="43.50874590287085" lon="10.61515108257779"><ele>306.0</ele><time>2026-04-18T14:29:38Z</time></trkpt><trkpt lat="43.50880716199307" lon="10.615250463635602"><ele>304.2857142857143</ele><time>2026-04-18T14:29:39Z</time></trkpt><trkpt lat="43.508830180464194" lon="10.615365898586484"><ele>302.57142857142856</ele><time>2026-04-18T14:29:40Z</time></trkpt><trkpt lat="43.50884577174527" lon="10.615460956966048"><ele>300.8571428571429</ele><time>2026-04-18T14:29:41Z</time></trkpt><trkpt lat="43.50886805733066" lon="10.615553247414606"><ele>299.1428571428571</ele><time>2026-04-18T14:29:42Z</time></trkpt><trkpt lat="43.50887960996252" lon="10.615652096911282"><ele>297.42857142857144</ele><time>2026-04-18T14:29:43Z</time></trkpt><trkpt lat="43.50889012700586" lon="10.615751354944884"><ele>295.7142857142857</ele><time>2026-04-18T14:29:44Z</time></trkpt><trkpt lat="43.5089108009514" lon="10.615840986667088"><ele>294.0</ele><time>2026-04-18T14:29:45Z</time></trkpt><trkpt lat="43.50896236216343" lon="10.615932366106264"><ele>294.0</ele><time>2026-04-18T14:29:46Z</time></trkpt><trkpt lat="43.50902902268935" lon="10.616062651399178"><ele>294.0</ele><time>2026-04-18T14:29:48Z</time></trkpt><trkpt lat="43.509064964981256" lon="10.616196014058586"><ele>294.0</ele><time>2026-04-18T14:29:50Z</time></trkpt><trkpt lat="43.50903415053405" lon="10.616333813169359"><ele>294.0</ele><time>2026-04-18T14:29:52Z</time></trkpt><trkpt lat="43.508954295451026" lon="10.616410322197787"><ele>294.0</ele><time>2026-04-18T14:29:54Z</time></trkpt><trkpt lat="43.508872596437286" lon="10.61646159160302"><ele>293.59999999999997</ele><time>2026-04-18T14:29:56Z</time></trkpt><trkpt lat="43.50878367566272" lon="10.616584114547361"><ele>293.2</ele><time>2026-04-18T14:29:58Z</time></trkpt><trkpt lat="43.50871520399094" lon="10.616662346345597"><ele>292.79999999999995</ele><time>2026-04-18T14:29:59Z</time></trkpt><trkpt lat="43.50864939910814" lon="10.616746697430308"><ele>292.4</ele><time>2026-04-18T14:30:00Z</time></trkpt><trkpt lat="43.508570743221" lon="10.61683035966549"><ele>292.0</ele><time>2026-04-18T14:30:01Z</time></trkpt><trkpt lat="43.508495320277916" lon="10.61692269006096"><ele>291.4</ele><time>2026-04-18T14:30:02Z</time></trkpt><trkpt lat="43.508426755224505" lon="10.617024326571276"><ele>290.79999999999995</ele><time>2026-04-18T14:30:03Z</time></trkpt><trkpt lat="43.50836192664574" lon="10.61712686344563"><ele>290.2</ele><time>2026-04-18T14:30:04Z</time></trkpt><trkpt lat="43.50830330311239" lon="10.617224242575949"><ele>289.59999999999997</ele><time>2026-04-18T14:30:05Z</time></trkpt><trkpt lat="43.50825622896608" lon="10.617326325014137"><ele>289.0</ele><time>2026-04-18T14:30:06Z</time></trkpt><trkpt lat="43.50821457735499" lon="10.617433661163377"><ele>289.0</ele><time>2026-04-18T14:30:07Z</time></trkpt><trkpt lat="43.508188048426504" lon="10.617538863678085"><ele>289.0</ele><time>2026-04-18T14:30:08Z</time></trkpt><trkpt lat="43.50816082649351" lon="10.617640971883251"><ele>289.0</ele><time>2026-04-18T14:30:09Z</time></trkpt><trkpt lat="43.50811887019833" lon="10.617764769007396"><ele>289.0</ele><time>2026-04-18T14:30:10Z</time></trkpt><trkpt lat="43.50806415613429" lon="10.61790304327326"><ele>289.0</ele><time>2026-04-18T14:30:11Z</time></trkpt><trkpt lat="43.50800861630657" lon="10.618043032759337"><ele>288.2</ele><time>2026-04-18T14:30:12Z</time></trkpt><trkpt lat="43.50794857996303" lon="10.61815268026895"><ele>287.4</ele><time>2026-04-18T14:30:13Z</time></trkpt><trkpt lat="43.507895181125306" lon="10.61826513258002"><ele>286.6</ele><time>2026-04-18T14:30:14Z</time></trkpt><trkpt lat="43.50783324046966" lon="10.61836152749867"><ele>285.8</ele><time>2026-04-18T14:30:15Z</time></trkpt><trkpt lat="43.50776906350973" lon="10.618460615759163"><ele>285.0</ele><time>2026-04-18T14:30:16Z</time></trkpt><trkpt lat="43.5076891078665" lon="10.618545406185898"><ele>285.0</ele><time>2026-04-18T14:30:17Z</time></trkpt><trkpt lat="43.50760994858544" lon="10.618638211723972"><ele>285.0</ele><time>2026-04-18T14:30:18Z</time></trkpt><trkpt lat="43.507503653769426" lon="10.618728655148834"><ele>285.0</ele><time>2026-04-18T14:30:19Z</time></trkpt><trkpt lat="43.50739139351568" lon="10.618771761082247"><ele>285.0</ele><time>2026-04-18T14:30:20Z</time></trkpt><trkpt lat="43.50727944198808" lon="10.618788365156666"><ele>285.8</ele><time>2026-04-18T14:30:21Z</time></trkpt><trkpt lat="43.50718650206462" lon="10.618821715210773"><ele>286.6</ele><time>2026-04-18T14:30:22Z</time></trkpt><trkpt lat="43.50711927943881" lon="10.6188819597301"><ele>287.4</ele><time>2026-04-18T14:30:23Z</time></trkpt><trkpt lat="43.507039314829335" lon="10.618974575548547"><ele>288.2</ele><time>2026-04-18T14:30:24Z</time></trkpt><trkpt lat="43.50697792980649" lon="10.61907538576012"><ele>289.0</ele><time>2026-04-18T14:30:25Z</time></trkpt><trkpt lat="43.50691824081762" lon="10.61917471581141"><ele>289.0</ele><time>2026-04-18T14:30:26Z</time></trkpt><trkpt lat="43.506837864412816" lon="10.619242566124981"><ele>289.0</ele><time>2026-04-18T14:30:27Z</time></trkpt><trkpt lat="43.50674674708006" lon="10.619269915488267"><ele>289.0</ele><time>2026-04-18T14:30:28Z</time></trkpt><trkpt lat="43.50664064017507" lon="10.619319622722827"><ele>289.0</ele><time>2026-04-18T14:30:29Z</time></trkpt><trkpt lat="43.50655078683503" lon="10.61932365365925"><ele>289.0</ele><time>2026-04-18T14:30:30Z</time></trkpt><trkpt lat="43.50641858698083" lon="10.619313326467022"><ele>289.0</ele><time>2026-04-18T14:30:31Z</time></trkpt><trkpt lat="43.5063094175059" lon="10.619298135311602"><ele>289.0</ele><time>2026-04-18T14:30:32Z</time></trkpt><trkpt lat="43.506190174347594" lon="10.619314951802073"><ele>289.0</ele><time>2026-04-18T14:30:33Z</time></trkpt><trkpt lat="43.506088966992195" lon="10.619364788010975"><ele>289.0</ele><time>2026-04-18T14:30:34Z</time></trkpt><trkpt lat="43.50601370601485" lon="10.619440210287896"><ele>289.0</ele><time>2026-04-18T14:30:35Z</time></trkpt><trkpt lat="43.5059083445244" lon="10.619505313102021"><ele>289.75</ele><time>2026-04-18T14:30:36Z</time></trkpt><trkpt lat="43.50576655548893" lon="10.619501646497671"><ele>290.5</ele><time>2026-04-18T14:30:37Z</time></trkpt><trkpt lat="43.505650869314636" lon="10.619479836046267"><ele>291.25</ele><time>2026-04-18T14:30:38Z</time></trkpt><trkpt lat="43.50551099594498" lon="10.619391370145538"><ele>292.0</ele><time>2026-04-18T14:30:39Z</time></trkpt><trkpt lat="43.50541378798821" lon="10.619360698500172"><ele>295.4</ele><time>2026-04-18T14:30:40Z</time></trkpt><trkpt lat="43.50532608925337" lon="10.619330500438881"><ele>298.79999999999995</ele><time>2026-04-18T14:30:41Z</time></trkpt><trkpt lat="43.50523136603886" lon="10.619306466861966"><ele>302.2</ele><time>2026-04-18T14:30:41.999Z</time></trkpt><trkpt lat="43.50515104510978" lon="10.619323800613302"><ele>305.59999999999997</ele><time>2026-04-18T14:30:42.999Z</time></trkpt><trkpt lat="43.50510700772446" lon="10.619409189120114"><ele>309.0</ele><time>2026-04-18T14:30:43.999Z</time></trkpt><trkpt lat="43.505071325825845" lon="10.619549918329573"><ele>309.0</ele><time>2026-04-18T14:30:44.999Z</time></trkpt><trkpt lat="43.50504295818519" lon="10.619715147080878"><ele>309.0</ele><time>2026-04-18T14:30:45.999Z</time></trkpt><trkpt lat="43.505020308391" lon="10.619825718161982"><ele>309.0</ele><time>2026-04-18T14:30:46.999Z</time></trkpt><trkpt lat="43.504958446985356" lon="10.619919064146556"><ele>309.0</ele><time>2026-04-18T14:30:47.999Z</time></trkpt><trkpt lat="43.504865422033355" lon="10.61996728745769"><ele>309.0</ele><time>2026-04-18T14:30:48.999Z</time></trkpt><trkpt lat="43.504802846201294" lon="10.620042323593616"><ele>309.0</ele><time>2026-04-18T14:30:49.999Z</time></trkpt><trkpt lat="43.50473309171588" lon="10.620135297742388"><ele>309.0</ele><time>2026-04-18T14:30:50.999Z</time></trkpt><trkpt lat="43.50467170970426" lon="10.62020680479305"><ele>309.0</ele><time>2026-04-18T14:30:51.999Z</time></trkpt><trkpt lat="43.50458144929451" lon="10.620217041019407"><ele>309.0</ele><time>2026-04-18T14:30:53.999Z</time></trkpt><trkpt lat="43.50452271951186" lon="10.620134712901484"><ele>309.0</ele><time>2026-04-18T14:30:55.999Z</time></trkpt><trkpt lat="43.504489591699866" lon="10.620025218384942"><ele>309.0</ele><time>2026-04-18T14:30:57.999Z</time></trkpt><trkpt lat="43.50445042832641" lon="10.619919462561342"><ele>309.5</ele><time>2026-04-18T14:30:59.999Z</time></trkpt><trkpt lat="43.504398064807916" lon="10.619788359588508"><ele>310.0</ele><time>2026-04-18T14:31:01.999Z</time></trkpt><trkpt lat="43.5043516116606" lon="10.619644002195539"><ele>310.5</ele><time>2026-04-18T14:31:03.999Z</time></trkpt><trkpt lat="43.50431628305389" lon="10.619482398133709"><ele>311.0</ele><time>2026-04-18T14:31:05.999Z</time></trkpt><trkpt lat="43.504324059550605" lon="10.619327627143207"><ele>311.1666666666667</ele><time>2026-04-18T14:31:07.999Z</time></trkpt><trkpt lat="43.504360378192" lon="10.619252276321891"><ele>311.33333333333337</ele><time>2026-04-18T14:31:08.999Z</time></trkpt><trkpt lat="43.50441580962976" lon="10.619196472043114"><ele>311.5</ele><time>2026-04-18T14:31:09.999Z</time></trkpt><trkpt lat="43.5044678169925" lon="10.619122650448444"><ele>311.6666666666667</ele><time>2026-04-18T14:31:10.999Z</time></trkpt><trkpt lat="43.50453651864388" lon="10.619028239898865"><ele>311.8333333333333</ele><time>2026-04-18T14:31:11.999Z</time></trkpt><trkpt lat="43.50464685849727" lon="10.618986115003567"><ele>312.0</ele><time>2026-04-18T14:31:13.999Z</time></trkpt><trkpt lat="43.50471694146223" lon="10.618918535332753"><ele>312.0</ele><time>2026-04-18T14:31:15.999Z</time></trkpt><trkpt lat="43.50478457494395" lon="10.618838870497427"><ele>312.0</ele><time>2026-04-18T14:31:16.999Z</time></trkpt><trkpt lat="43.50484676451823" lon="10.61875885310784"><ele>312.0</ele><time>2026-04-18T14:31:17.999Z</time></trkpt><trkpt lat="43.50488845581299" lon="10.618616109496848"><ele>312.0</ele><time>2026-04-18T14:31:19.999Z</time></trkpt><trkpt lat="43.5048820262645" lon="10.618528358662232"><ele>312.0</ele><time>2026-04-18T14:31:20.999Z</time></trkpt><trkpt lat="43.50486490816153" lon="10.618418945602114"><ele>312.0</ele><time>2026-04-18T14:31:21.999Z</time></trkpt><trkpt lat="43.50486324882383" lon="10.618326232358282"><ele>318.0</ele><time>2026-04-18T14:31:22.999Z</time></trkpt><trkpt lat="43.50490021756521" lon="10.618227315598135"><ele>318.0</ele><time>2026-04-18T14:31:23.999Z</time></trkpt><trkpt lat="43.504940632959844" lon="10.618143464884866"><ele>318.0</ele><time>2026-04-18T14:31:24.999Z</time></trkpt><trkpt lat="43.50483145424886" lon="10.61800874063037"><ele>318.0</ele><time>2026-04-18T14:31:27.999Z</time></trkpt></trkseg></trk></gpx>